<?xml version="1.0" encoding="UTF-8" standalone="no" ?>
<gpx xmlns="http://www.topografix.com/GPX/1/1" xmlns:xsi="http://www.w3.org/2001/XMLSchema-instance" xsi:schemaLocation="http://www.topografix.com/GPX/1/1 http://www.topografix.com/GPX/1/1/gpx.xsd" version="1.1" creator="VisuGPX - https://www.visugpx.com">
  <metadata>
    <name>Schnepfenried - Hohneck</name>
    <desc><![CDATA[Metzeral - Schnepfenried - Col de la Schlucht - Hohneck - Mittlach - Metzeral.]]></desc>
  </metadata>
  <wpt lat="48.01293" lon="7.07303">
    <ele>478</ele>
    <name><![CDATA[Start]]></name>
    <desc><![CDATA[2017-07-29 06:32:42]]></desc>
  </wpt>
  <wpt lat="48.01278" lon="7.07324">
    <ele>479</ele>
    <name><![CDATA[Lap 1]]></name>
    <desc><![CDATA[43.93km, 252:26, 10.4kph]]></desc>
  </wpt>
  <trk>
    <name><![CDATA[29_07_2017 08_32_42_history]]></name>
    <desc><![CDATA[252:26 - 43.9km]]></desc>
    <trkseg>
      <trkpt lat="48.01293" lon="7.07303">
        <ele>478</ele>
        <time>2017-07-29T06:32:42Z</time>
      </trkpt>
      <trkpt lat="48.01301" lon="7.07305">
        <ele>478</ele>
        <time>2017-07-29T06:32:46Z</time>
      </trkpt>
      <trkpt lat="48.01312" lon="7.07296">
        <ele>478</ele>
        <time>2017-07-29T06:32:52Z</time>
      </trkpt>
      <trkpt lat="48.0132" lon="7.07299">
        <ele>478</ele>
        <time>2017-07-29T06:32:55Z</time>
      </trkpt>
      <trkpt lat="48.01339" lon="7.07298">
        <ele>476</ele>
        <time>2017-07-29T06:33:03Z</time>
      </trkpt>
      <trkpt lat="48.01348" lon="7.07278">
        <ele>476</ele>
        <time>2017-07-29T06:33:07Z</time>
      </trkpt>
      <trkpt lat="48.01347" lon="7.07252">
        <ele>477</ele>
        <time>2017-07-29T06:33:12Z</time>
      </trkpt>
      <trkpt lat="48.01344" lon="7.07183">
        <ele>478</ele>
        <time>2017-07-29T06:33:29Z</time>
      </trkpt>
      <trkpt lat="48.01346" lon="7.0716">
        <ele>480</ele>
        <time>2017-07-29T06:33:36Z</time>
      </trkpt>
      <trkpt lat="48.01347" lon="7.07155">
        <ele>480</ele>
        <time>2017-07-29T06:33:40Z</time>
      </trkpt>
      <trkpt lat="48.0135" lon="7.07151">
        <ele>480</ele>
        <time>2017-07-29T06:33:42Z</time>
      </trkpt>
      <trkpt lat="48.01383" lon="7.0715">
        <ele>480</ele>
        <time>2017-07-29T06:33:54Z</time>
      </trkpt>
      <trkpt lat="48.01387" lon="7.07144">
        <ele>480</ele>
        <time>2017-07-29T06:33:56Z</time>
      </trkpt>
      <trkpt lat="48.01392" lon="7.07129">
        <ele>481</ele>
        <time>2017-07-29T06:34:00Z</time>
      </trkpt>
      <trkpt lat="48.01404" lon="7.07106">
        <ele>481</ele>
        <time>2017-07-29T06:34:06Z</time>
      </trkpt>
      <trkpt lat="48.01411" lon="7.07073">
        <ele>482</ele>
        <time>2017-07-29T06:34:15Z</time>
      </trkpt>
      <trkpt lat="48.01422" lon="7.07001">
        <ele>484</ele>
        <time>2017-07-29T06:34:34Z</time>
      </trkpt>
      <trkpt lat="48.01427" lon="7.06988">
        <ele>485</ele>
        <time>2017-07-29T06:34:38Z</time>
      </trkpt>
      <trkpt lat="48.0143" lon="7.06978">
        <ele>485</ele>
        <time>2017-07-29T06:34:41Z</time>
      </trkpt>
      <trkpt lat="48.01435" lon="7.06932">
        <ele>485</ele>
        <time>2017-07-29T06:34:53Z</time>
      </trkpt>
      <trkpt lat="48.01443" lon="7.06903">
        <ele>485</ele>
        <time>2017-07-29T06:35:01Z</time>
      </trkpt>
      <trkpt lat="48.0145" lon="7.06875">
        <ele>485</ele>
        <time>2017-07-29T06:35:07Z</time>
      </trkpt>
      <trkpt lat="48.01451" lon="7.06855">
        <ele>485</ele>
        <time>2017-07-29T06:35:10Z</time>
      </trkpt>
      <trkpt lat="48.0145" lon="7.0684">
        <ele>484</ele>
        <time>2017-07-29T06:35:12Z</time>
      </trkpt>
      <trkpt lat="48.01451" lon="7.06787">
        <ele>484</ele>
        <time>2017-07-29T06:35:19Z</time>
      </trkpt>
      <trkpt lat="48.01461" lon="7.06723">
        <ele>485</ele>
        <time>2017-07-29T06:35:28Z</time>
      </trkpt>
      <trkpt lat="48.01465" lon="7.06679">
        <ele>485</ele>
        <time>2017-07-29T06:35:35Z</time>
      </trkpt>
      <trkpt lat="48.01465" lon="7.06629">
        <ele>485</ele>
        <time>2017-07-29T06:35:43Z</time>
      </trkpt>
      <trkpt lat="48.01463" lon="7.06579">
        <ele>486</ele>
        <time>2017-07-29T06:35:51Z</time>
      </trkpt>
      <trkpt lat="48.0145" lon="7.06511">
        <ele>485</ele>
        <time>2017-07-29T06:36:04Z</time>
      </trkpt>
      <trkpt lat="48.01449" lon="7.06508">
        <ele>485</ele>
        <time>2017-07-29T06:36:05Z</time>
      </trkpt>
      <trkpt lat="48.01448" lon="7.06485">
        <ele>486</ele>
        <time>2017-07-29T06:36:09Z</time>
      </trkpt>
      <trkpt lat="48.01438" lon="7.0644">
        <ele>487</ele>
        <time>2017-07-29T06:36:17Z</time>
      </trkpt>
      <trkpt lat="48.0143" lon="7.06412">
        <ele>488</ele>
        <time>2017-07-29T06:36:23Z</time>
      </trkpt>
      <trkpt lat="48.01428" lon="7.06397">
        <ele>489</ele>
        <time>2017-07-29T06:36:26Z</time>
      </trkpt>
      <trkpt lat="48.01416" lon="7.06339">
        <ele>488</ele>
        <time>2017-07-29T06:36:38Z</time>
      </trkpt>
      <trkpt lat="48.01391" lon="7.0629">
        <ele>489</ele>
        <time>2017-07-29T06:36:49Z</time>
      </trkpt>
      <trkpt lat="48.01368" lon="7.06255">
        <ele>488</ele>
        <time>2017-07-29T06:36:57Z</time>
      </trkpt>
      <trkpt lat="48.01344" lon="7.06225">
        <ele>489</ele>
        <time>2017-07-29T06:37:04Z</time>
      </trkpt>
      <trkpt lat="48.01337" lon="7.06203">
        <ele>489</ele>
        <time>2017-07-29T06:37:08Z</time>
      </trkpt>
      <trkpt lat="48.01334" lon="7.06185">
        <ele>489</ele>
        <time>2017-07-29T06:37:11Z</time>
      </trkpt>
      <trkpt lat="48.01335" lon="7.06178">
        <ele>489</ele>
        <time>2017-07-29T06:37:12Z</time>
      </trkpt>
      <trkpt lat="48.01335" lon="7.06164">
        <ele>489</ele>
        <time>2017-07-29T06:37:14Z</time>
      </trkpt>
      <trkpt lat="48.01337" lon="7.06146">
        <ele>490</ele>
        <time>2017-07-29T06:37:17Z</time>
      </trkpt>
      <trkpt lat="48.01343" lon="7.06081">
        <ele>490</ele>
        <time>2017-07-29T06:37:28Z</time>
      </trkpt>
      <trkpt lat="48.01343" lon="7.06058">
        <ele>491</ele>
        <time>2017-07-29T06:37:32Z</time>
      </trkpt>
      <trkpt lat="48.01336" lon="7.06014">
        <ele>490</ele>
        <time>2017-07-29T06:37:40Z</time>
      </trkpt>
      <trkpt lat="48.01329" lon="7.05965">
        <ele>488</ele>
        <time>2017-07-29T06:37:48Z</time>
      </trkpt>
      <trkpt lat="48.01333" lon="7.05942">
        <ele>488</ele>
        <time>2017-07-29T06:37:52Z</time>
      </trkpt>
      <trkpt lat="48.01342" lon="7.0591">
        <ele>489</ele>
        <time>2017-07-29T06:37:58Z</time>
      </trkpt>
      <trkpt lat="48.01353" lon="7.05886">
        <ele>490</ele>
        <time>2017-07-29T06:38:03Z</time>
      </trkpt>
      <trkpt lat="48.01359" lon="7.0587">
        <ele>491</ele>
        <time>2017-07-29T06:38:06Z</time>
      </trkpt>
      <trkpt lat="48.01367" lon="7.05849">
        <ele>491</ele>
        <time>2017-07-29T06:38:10Z</time>
      </trkpt>
      <trkpt lat="48.0137" lon="7.05833">
        <ele>493</ele>
        <time>2017-07-29T06:38:13Z</time>
      </trkpt>
      <trkpt lat="48.01371" lon="7.05805">
        <ele>494</ele>
        <time>2017-07-29T06:38:18Z</time>
      </trkpt>
      <trkpt lat="48.01363" lon="7.05758">
        <ele>494</ele>
        <time>2017-07-29T06:38:27Z</time>
      </trkpt>
      <trkpt lat="48.0135" lon="7.05726">
        <ele>499</ele>
        <time>2017-07-29T06:38:34Z</time>
      </trkpt>
      <trkpt lat="48.01324" lon="7.05683">
        <ele>494</ele>
        <time>2017-07-29T06:38:43Z</time>
      </trkpt>
      <trkpt lat="48.01295" lon="7.05633">
        <ele>496</ele>
        <time>2017-07-29T06:38:54Z</time>
      </trkpt>
      <trkpt lat="48.01272" lon="7.05579">
        <ele>500</ele>
        <time>2017-07-29T06:39:05Z</time>
      </trkpt>
      <trkpt lat="48.01252" lon="7.05541">
        <ele>501</ele>
        <time>2017-07-29T06:39:13Z</time>
      </trkpt>
      <trkpt lat="48.01229" lon="7.05507">
        <ele>495</ele>
        <time>2017-07-29T06:39:21Z</time>
      </trkpt>
      <trkpt lat="48.012" lon="7.0546">
        <ele>499</ele>
        <time>2017-07-29T06:39:32Z</time>
      </trkpt>
      <trkpt lat="48.01172" lon="7.05421">
        <ele>497</ele>
        <time>2017-07-29T06:39:41Z</time>
      </trkpt>
      <trkpt lat="48.0113" lon="7.0538">
        <ele>499</ele>
        <time>2017-07-29T06:39:52Z</time>
      </trkpt>
      <trkpt lat="48.0112" lon="7.05368">
        <ele>499</ele>
        <time>2017-07-29T06:39:55Z</time>
      </trkpt>
      <trkpt lat="48.01108" lon="7.05367">
        <ele>498</ele>
        <time>2017-07-29T06:39:58Z</time>
      </trkpt>
      <trkpt lat="48.01071" lon="7.05399">
        <ele>494</ele>
        <time>2017-07-29T06:40:08Z</time>
      </trkpt>
      <trkpt lat="48.01056" lon="7.05404">
        <ele>494</ele>
        <time>2017-07-29T06:40:12Z</time>
      </trkpt>
      <trkpt lat="48.01054" lon="7.05401">
        <ele>494</ele>
        <time>2017-07-29T06:40:13Z</time>
      </trkpt>
      <trkpt lat="48.01045" lon="7.05383">
        <ele>494</ele>
        <time>2017-07-29T06:40:17Z</time>
      </trkpt>
      <trkpt lat="48.01034" lon="7.05368">
        <ele>494</ele>
        <time>2017-07-29T06:40:21Z</time>
      </trkpt>
      <trkpt lat="48.01019" lon="7.05357">
        <ele>494</ele>
        <time>2017-07-29T06:40:26Z</time>
      </trkpt>
      <trkpt lat="48.00997" lon="7.05354">
        <ele>495</ele>
        <time>2017-07-29T06:40:33Z</time>
      </trkpt>
      <trkpt lat="48.00989" lon="7.05362">
        <ele>495</ele>
        <time>2017-07-29T06:40:36Z</time>
      </trkpt>
      <trkpt lat="48.00954" lon="7.05391">
        <ele>495</ele>
        <time>2017-07-29T06:40:48Z</time>
      </trkpt>
      <trkpt lat="48.00932" lon="7.05405">
        <ele>496</ele>
        <time>2017-07-29T06:40:55Z</time>
      </trkpt>
      <trkpt lat="48.00908" lon="7.05429">
        <ele>504</ele>
        <time>2017-07-29T06:41:06Z</time>
      </trkpt>
      <trkpt lat="48.00899" lon="7.05427">
        <ele>506</ele>
        <time>2017-07-29T06:41:11Z</time>
      </trkpt>
      <trkpt lat="48.00896" lon="7.05429">
        <ele>507</ele>
        <time>2017-07-29T06:41:18Z</time>
      </trkpt>
      <trkpt lat="48.00877" lon="7.05413">
        <ele>505</ele>
        <time>2017-07-29T06:41:52Z</time>
      </trkpt>
      <trkpt lat="48.00872" lon="7.05408">
        <ele>506</ele>
        <time>2017-07-29T06:41:55Z</time>
      </trkpt>
      <trkpt lat="48.00858" lon="7.05386">
        <ele>506</ele>
        <time>2017-07-29T06:42:09Z</time>
      </trkpt>
      <trkpt lat="48.00854" lon="7.05375">
        <ele>506</ele>
        <time>2017-07-29T06:42:20Z</time>
      </trkpt>
      <trkpt lat="48.00854" lon="7.05375">
        <ele>506</ele>
        <time>2017-07-29T06:42:21Z</time>
      </trkpt>
      <trkpt lat="48.00838" lon="7.05351">
        <ele>505</ele>
        <time>2017-07-29T06:42:42Z</time>
      </trkpt>
      <trkpt lat="48.00824" lon="7.0532">
        <ele>510</ele>
        <time>2017-07-29T06:43:02Z</time>
      </trkpt>
      <trkpt lat="48.00813" lon="7.05304">
        <ele>513</ele>
        <time>2017-07-29T06:43:12Z</time>
      </trkpt>
      <trkpt lat="48.00812" lon="7.05304">
        <ele>513</ele>
        <time>2017-07-29T06:43:13Z</time>
      </trkpt>
      <trkpt lat="48.00806" lon="7.05292">
        <ele>513</ele>
        <time>2017-07-29T06:43:19Z</time>
      </trkpt>
      <trkpt lat="48.00789" lon="7.05261">
        <ele>514</ele>
        <time>2017-07-29T06:43:35Z</time>
      </trkpt>
      <trkpt lat="48.00786" lon="7.0525">
        <ele>514</ele>
        <time>2017-07-29T06:43:39Z</time>
      </trkpt>
      <trkpt lat="48.00774" lon="7.05221">
        <ele>510</ele>
        <time>2017-07-29T06:43:51Z</time>
      </trkpt>
      <trkpt lat="48.00766" lon="7.05203">
        <ele>510</ele>
        <time>2017-07-29T06:43:58Z</time>
      </trkpt>
      <trkpt lat="48.00757" lon="7.05189">
        <ele>511</ele>
        <time>2017-07-29T06:44:04Z</time>
      </trkpt>
      <trkpt lat="48.00737" lon="7.05148">
        <ele>521</ele>
        <time>2017-07-29T06:44:21Z</time>
      </trkpt>
      <trkpt lat="48.00734" lon="7.05139">
        <ele>521</ele>
        <time>2017-07-29T06:44:25Z</time>
      </trkpt>
      <trkpt lat="48.00732" lon="7.05133">
        <ele>521</ele>
        <time>2017-07-29T06:44:28Z</time>
      </trkpt>
      <trkpt lat="48.00731" lon="7.05121">
        <ele>521</ele>
        <time>2017-07-29T06:44:35Z</time>
      </trkpt>
      <trkpt lat="48.00724" lon="7.05099">
        <ele>520</ele>
        <time>2017-07-29T06:44:41Z</time>
      </trkpt>
      <trkpt lat="48.00712" lon="7.05071">
        <ele>516</ele>
        <time>2017-07-29T06:44:51Z</time>
      </trkpt>
      <trkpt lat="48.00708" lon="7.05063">
        <ele>517</ele>
        <time>2017-07-29T06:44:55Z</time>
      </trkpt>
      <trkpt lat="48.00705" lon="7.05051">
        <ele>517</ele>
        <time>2017-07-29T06:45:00Z</time>
      </trkpt>
      <trkpt lat="48.00693" lon="7.05021">
        <ele>518</ele>
        <time>2017-07-29T06:45:10Z</time>
      </trkpt>
      <trkpt lat="48.00692" lon="7.05017">
        <ele>518</ele>
        <time>2017-07-29T06:45:11Z</time>
      </trkpt>
      <trkpt lat="48.00684" lon="7.05">
        <ele>517</ele>
        <time>2017-07-29T06:45:19Z</time>
      </trkpt>
      <trkpt lat="48.00681" lon="7.04999">
        <ele>518</ele>
        <time>2017-07-29T06:45:20Z</time>
      </trkpt>
      <trkpt lat="48.00659" lon="7.04949">
        <ele>529</ele>
        <time>2017-07-29T06:45:39Z</time>
      </trkpt>
      <trkpt lat="48.00651" lon="7.04939">
        <ele>529</ele>
        <time>2017-07-29T06:45:42Z</time>
      </trkpt>
      <trkpt lat="48.00642" lon="7.04911">
        <ele>525</ele>
        <time>2017-07-29T06:45:52Z</time>
      </trkpt>
      <trkpt lat="48.00637" lon="7.04889">
        <ele>526</ele>
        <time>2017-07-29T06:46:00Z</time>
      </trkpt>
      <trkpt lat="48.00629" lon="7.04869">
        <ele>527</ele>
        <time>2017-07-29T06:46:07Z</time>
      </trkpt>
      <trkpt lat="48.00624" lon="7.04861">
        <ele>528</ele>
        <time>2017-07-29T06:46:10Z</time>
      </trkpt>
      <trkpt lat="48.00624" lon="7.04856">
        <ele>528</ele>
        <time>2017-07-29T06:46:11Z</time>
      </trkpt>
      <trkpt lat="48.00621" lon="7.04847">
        <ele>528</ele>
        <time>2017-07-29T06:46:14Z</time>
      </trkpt>
      <trkpt lat="48.0061" lon="7.04829">
        <ele>528</ele>
        <time>2017-07-29T06:46:22Z</time>
      </trkpt>
      <trkpt lat="48.00605" lon="7.04817">
        <ele>528</ele>
        <time>2017-07-29T06:46:27Z</time>
      </trkpt>
      <trkpt lat="48.00604" lon="7.04816">
        <ele>529</ele>
        <time>2017-07-29T06:46:28Z</time>
      </trkpt>
      <trkpt lat="48.00583" lon="7.04772">
        <ele>542</ele>
        <time>2017-07-29T06:46:46Z</time>
      </trkpt>
      <trkpt lat="48.00582" lon="7.04751">
        <ele>533</ele>
        <time>2017-07-29T06:46:51Z</time>
      </trkpt>
      <trkpt lat="48.00591" lon="7.04729">
        <ele>525</ele>
        <time>2017-07-29T06:46:56Z</time>
      </trkpt>
      <trkpt lat="48.00602" lon="7.04729">
        <ele>524</ele>
        <time>2017-07-29T06:46:59Z</time>
      </trkpt>
      <trkpt lat="48.00604" lon="7.04728">
        <ele>524</ele>
        <time>2017-07-29T06:47:00Z</time>
      </trkpt>
      <trkpt lat="48.00605" lon="7.04725">
        <ele>523</ele>
        <time>2017-07-29T06:47:01Z</time>
      </trkpt>
      <trkpt lat="48.00603" lon="7.04721">
        <ele>523</ele>
        <time>2017-07-29T06:47:02Z</time>
      </trkpt>
      <trkpt lat="48.00599" lon="7.04693">
        <ele>523</ele>
        <time>2017-07-29T06:47:09Z</time>
      </trkpt>
      <trkpt lat="48.00599" lon="7.04673">
        <ele>523</ele>
        <time>2017-07-29T06:47:15Z</time>
      </trkpt>
      <trkpt lat="48.00606" lon="7.04657">
        <ele>522</ele>
        <time>2017-07-29T06:47:21Z</time>
      </trkpt>
      <trkpt lat="48.00612" lon="7.04635">
        <ele>522</ele>
        <time>2017-07-29T06:47:27Z</time>
      </trkpt>
      <trkpt lat="48.00619" lon="7.04622">
        <ele>521</ele>
        <time>2017-07-29T06:47:29Z</time>
      </trkpt>
      <trkpt lat="48.00621" lon="7.04614">
        <ele>521</ele>
        <time>2017-07-29T06:47:30Z</time>
      </trkpt>
      <trkpt lat="48.00628" lon="7.04585">
        <ele>521</ele>
        <time>2017-07-29T06:47:34Z</time>
      </trkpt>
      <trkpt lat="48.00628" lon="7.04578">
        <ele>521</ele>
        <time>2017-07-29T06:47:35Z</time>
      </trkpt>
      <trkpt lat="48.00634" lon="7.04567">
        <ele>521</ele>
        <time>2017-07-29T06:47:38Z</time>
      </trkpt>
      <trkpt lat="48.00639" lon="7.04564">
        <ele>520</ele>
        <time>2017-07-29T06:47:39Z</time>
      </trkpt>
      <trkpt lat="48.00643" lon="7.04558">
        <ele>520</ele>
        <time>2017-07-29T06:47:41Z</time>
      </trkpt>
      <trkpt lat="48.00646" lon="7.04547">
        <ele>520</ele>
        <time>2017-07-29T06:47:44Z</time>
      </trkpt>
      <trkpt lat="48.00641" lon="7.04543">
        <ele>520</ele>
        <time>2017-07-29T06:47:46Z</time>
      </trkpt>
      <trkpt lat="48.00618" lon="7.04537">
        <ele>522</ele>
        <time>2017-07-29T06:48:04Z</time>
      </trkpt>
      <trkpt lat="48.0059" lon="7.04537">
        <ele>524</ele>
        <time>2017-07-29T06:48:21Z</time>
      </trkpt>
      <trkpt lat="48.00585" lon="7.04536">
        <ele>524</ele>
        <time>2017-07-29T06:48:24Z</time>
      </trkpt>
      <trkpt lat="48.0057" lon="7.04535">
        <ele>535</ele>
        <time>2017-07-29T06:48:34Z</time>
      </trkpt>
      <trkpt lat="48.00558" lon="7.04532">
        <ele>536</ele>
        <time>2017-07-29T06:48:45Z</time>
      </trkpt>
      <trkpt lat="48.00558" lon="7.04532">
        <ele>536</ele>
        <time>2017-07-29T06:48:46Z</time>
      </trkpt>
      <trkpt lat="48.00512" lon="7.04489">
        <ele>536</ele>
        <time>2017-07-29T06:50:10Z</time>
      </trkpt>
      <trkpt lat="48.00508" lon="7.04483">
        <ele>536</ele>
        <time>2017-07-29T06:50:12Z</time>
      </trkpt>
      <trkpt lat="48.00479" lon="7.04464">
        <ele>548</ele>
        <time>2017-07-29T06:50:21Z</time>
      </trkpt>
      <trkpt lat="48.00465" lon="7.04448">
        <ele>549</ele>
        <time>2017-07-29T06:50:29Z</time>
      </trkpt>
      <trkpt lat="48.00458" lon="7.04444">
        <ele>550</ele>
        <time>2017-07-29T06:50:34Z</time>
      </trkpt>
      <trkpt lat="48.00445" lon="7.04426">
        <ele>552</ele>
        <time>2017-07-29T06:50:44Z</time>
      </trkpt>
      <trkpt lat="48.00442" lon="7.04423">
        <ele>552</ele>
        <time>2017-07-29T06:50:47Z</time>
      </trkpt>
      <trkpt lat="48.00439" lon="7.04422">
        <ele>553</ele>
        <time>2017-07-29T06:50:49Z</time>
      </trkpt>
      <trkpt lat="48.00434" lon="7.0441">
        <ele>551</ele>
        <time>2017-07-29T06:50:55Z</time>
      </trkpt>
      <trkpt lat="48.00423" lon="7.04399">
        <ele>551</ele>
        <time>2017-07-29T06:51:04Z</time>
      </trkpt>
      <trkpt lat="48.00421" lon="7.04395">
        <ele>550</ele>
        <time>2017-07-29T06:51:06Z</time>
      </trkpt>
      <trkpt lat="48.00418" lon="7.04394">
        <ele>551</ele>
        <time>2017-07-29T06:51:07Z</time>
      </trkpt>
      <trkpt lat="48.00413" lon="7.04389">
        <ele>564</ele>
        <time>2017-07-29T06:51:12Z</time>
      </trkpt>
      <trkpt lat="48.0041" lon="7.04384">
        <ele>564</ele>
        <time>2017-07-29T06:51:15Z</time>
      </trkpt>
      <trkpt lat="48.00404" lon="7.0438">
        <ele>565</ele>
        <time>2017-07-29T06:51:17Z</time>
      </trkpt>
      <trkpt lat="48.00394" lon="7.04369">
        <ele>565</ele>
        <time>2017-07-29T06:51:22Z</time>
      </trkpt>
      <trkpt lat="48.00386" lon="7.04352">
        <ele>565</ele>
        <time>2017-07-29T06:51:32Z</time>
      </trkpt>
      <trkpt lat="48.00382" lon="7.04339">
        <ele>565</ele>
        <time>2017-07-29T06:51:41Z</time>
      </trkpt>
      <trkpt lat="48.00379" lon="7.0432">
        <ele>561</ele>
        <time>2017-07-29T06:51:51Z</time>
      </trkpt>
      <trkpt lat="48.00375" lon="7.04323">
        <ele>561</ele>
        <time>2017-07-29T06:51:52Z</time>
      </trkpt>
      <trkpt lat="48.00376" lon="7.04322">
        <ele>561</ele>
        <time>2017-07-29T06:51:53Z</time>
      </trkpt>
      <trkpt lat="48.00372" lon="7.0432">
        <ele>562</ele>
        <time>2017-07-29T06:51:56Z</time>
      </trkpt>
      <trkpt lat="48.00368" lon="7.04317">
        <ele>562</ele>
        <time>2017-07-29T06:52:00Z</time>
      </trkpt>
      <trkpt lat="48.00364" lon="7.04311">
        <ele>563</ele>
        <time>2017-07-29T06:52:04Z</time>
      </trkpt>
      <trkpt lat="48.00359" lon="7.0431">
        <ele>563</ele>
        <time>2017-07-29T06:52:07Z</time>
      </trkpt>
      <trkpt lat="48.00352" lon="7.04298">
        <ele>563</ele>
        <time>2017-07-29T06:52:16Z</time>
      </trkpt>
      <trkpt lat="48.00351" lon="7.04295">
        <ele>563</ele>
        <time>2017-07-29T06:52:19Z</time>
      </trkpt>
      <trkpt lat="48.00351" lon="7.04293">
        <ele>563</ele>
        <time>2017-07-29T06:52:21Z</time>
      </trkpt>
      <trkpt lat="48.0034" lon="7.04268">
        <ele>564</ele>
        <time>2017-07-29T06:52:32Z</time>
      </trkpt>
      <trkpt lat="48.00335" lon="7.04267">
        <ele>564</ele>
        <time>2017-07-29T06:52:34Z</time>
      </trkpt>
      <trkpt lat="48.00334" lon="7.04261">
        <ele>565</ele>
        <time>2017-07-29T06:52:39Z</time>
      </trkpt>
      <trkpt lat="48.00334" lon="7.04246">
        <ele>565</ele>
        <time>2017-07-29T06:52:47Z</time>
      </trkpt>
      <trkpt lat="48.00332" lon="7.04242">
        <ele>570</ele>
        <time>2017-07-29T06:52:49Z</time>
      </trkpt>
      <trkpt lat="48.00326" lon="7.04217">
        <ele>574</ele>
        <time>2017-07-29T06:53:02Z</time>
      </trkpt>
      <trkpt lat="48.00327" lon="7.04215">
        <ele>574</ele>
        <time>2017-07-29T06:53:03Z</time>
      </trkpt>
      <trkpt lat="48.00322" lon="7.04204">
        <ele>574</ele>
        <time>2017-07-29T06:53:10Z</time>
      </trkpt>
      <trkpt lat="48.00306" lon="7.0418">
        <ele>574</ele>
        <time>2017-07-29T06:53:18Z</time>
      </trkpt>
      <trkpt lat="48.00304" lon="7.04174">
        <ele>575</ele>
        <time>2017-07-29T06:53:20Z</time>
      </trkpt>
      <trkpt lat="48.00301" lon="7.04172">
        <ele>575</ele>
        <time>2017-07-29T06:53:21Z</time>
      </trkpt>
      <trkpt lat="48.00284" lon="7.04143">
        <ele>576</ele>
        <time>2017-07-29T06:53:33Z</time>
      </trkpt>
      <trkpt lat="48.00286" lon="7.0414">
        <ele>575</ele>
        <time>2017-07-29T06:53:34Z</time>
      </trkpt>
      <trkpt lat="48.00278" lon="7.04125">
        <ele>576</ele>
        <time>2017-07-29T06:53:42Z</time>
      </trkpt>
      <trkpt lat="48.00278" lon="7.04119">
        <ele>576</ele>
        <time>2017-07-29T06:53:45Z</time>
      </trkpt>
      <trkpt lat="48.00277" lon="7.04117">
        <ele>576</ele>
        <time>2017-07-29T06:53:47Z</time>
      </trkpt>
      <trkpt lat="48.00279" lon="7.04115">
        <ele>576</ele>
        <time>2017-07-29T06:53:49Z</time>
      </trkpt>
      <trkpt lat="48.00276" lon="7.04102">
        <ele>577</ele>
        <time>2017-07-29T06:53:55Z</time>
      </trkpt>
      <trkpt lat="48.00268" lon="7.04073">
        <ele>576</ele>
        <time>2017-07-29T06:54:06Z</time>
      </trkpt>
      <trkpt lat="48.00262" lon="7.04063">
        <ele>576</ele>
        <time>2017-07-29T06:54:11Z</time>
      </trkpt>
      <trkpt lat="48.00255" lon="7.04041">
        <ele>574</ele>
        <time>2017-07-29T06:54:18Z</time>
      </trkpt>
      <trkpt lat="48.00254" lon="7.04031">
        <ele>574</ele>
        <time>2017-07-29T06:54:22Z</time>
      </trkpt>
      <trkpt lat="48.00254" lon="7.04026">
        <ele>575</ele>
        <time>2017-07-29T06:54:23Z</time>
      </trkpt>
      <trkpt lat="48.00254" lon="7.04019">
        <ele>576</ele>
        <time>2017-07-29T06:54:25Z</time>
      </trkpt>
      <trkpt lat="48.00245" lon="7.04006">
        <ele>590</ele>
        <time>2017-07-29T06:54:30Z</time>
      </trkpt>
      <trkpt lat="48.00248" lon="7.03999">
        <ele>584</ele>
        <time>2017-07-29T06:54:36Z</time>
      </trkpt>
      <trkpt lat="48.00244" lon="7.03995">
        <ele>589</ele>
        <time>2017-07-29T06:54:39Z</time>
      </trkpt>
      <trkpt lat="48.00244" lon="7.03993">
        <ele>590</ele>
        <time>2017-07-29T06:54:41Z</time>
      </trkpt>
      <trkpt lat="48.00239" lon="7.0398">
        <ele>596</ele>
        <time>2017-07-29T06:54:48Z</time>
      </trkpt>
      <trkpt lat="48.00235" lon="7.03978">
        <ele>598</ele>
        <time>2017-07-29T06:54:50Z</time>
      </trkpt>
      <trkpt lat="48.00234" lon="7.03979">
        <ele>598</ele>
        <time>2017-07-29T06:54:51Z</time>
      </trkpt>
      <trkpt lat="48.00231" lon="7.03976">
        <ele>599</ele>
        <time>2017-07-29T06:54:53Z</time>
      </trkpt>
      <trkpt lat="48.00228" lon="7.03972">
        <ele>601</ele>
        <time>2017-07-29T06:54:56Z</time>
      </trkpt>
      <trkpt lat="48.00224" lon="7.03976">
        <ele>602</ele>
        <time>2017-07-29T06:55:07Z</time>
      </trkpt>
      <trkpt lat="48.00224" lon="7.03976">
        <ele>602</ele>
        <time>2017-07-29T06:55:10Z</time>
      </trkpt>
      <trkpt lat="48.00199" lon="7.03902">
        <ele>609</ele>
        <time>2017-07-29T06:56:13Z</time>
      </trkpt>
      <trkpt lat="48.0019" lon="7.0388">
        <ele>611</ele>
        <time>2017-07-29T06:56:27Z</time>
      </trkpt>
      <trkpt lat="48.00178" lon="7.03856">
        <ele>616</ele>
        <time>2017-07-29T06:56:42Z</time>
      </trkpt>
      <trkpt lat="48.00177" lon="7.03851">
        <ele>618</ele>
        <time>2017-07-29T06:56:46Z</time>
      </trkpt>
      <trkpt lat="48.00177" lon="7.03849">
        <ele>618</ele>
        <time>2017-07-29T06:56:48Z</time>
      </trkpt>
      <trkpt lat="48.00176" lon="7.03848">
        <ele>619</ele>
        <time>2017-07-29T06:56:49Z</time>
      </trkpt>
      <trkpt lat="48.00174" lon="7.03842">
        <ele>623</ele>
        <time>2017-07-29T06:56:57Z</time>
      </trkpt>
      <trkpt lat="48.00076" lon="7.03434">
        <ele>660</ele>
        <time>2017-07-29T07:02:52Z</time>
      </trkpt>
      <trkpt lat="48.00065" lon="7.03414">
        <ele>650</ele>
        <time>2017-07-29T07:03:07Z</time>
      </trkpt>
      <trkpt lat="48.00056" lon="7.03408">
        <ele>654</ele>
        <time>2017-07-29T07:03:14Z</time>
      </trkpt>
      <trkpt lat="48.00053" lon="7.03404">
        <ele>655</ele>
        <time>2017-07-29T07:03:16Z</time>
      </trkpt>
      <trkpt lat="48.00048" lon="7.03401">
        <ele>657</ele>
        <time>2017-07-29T07:03:20Z</time>
      </trkpt>
      <trkpt lat="48.00044" lon="7.03395">
        <ele>658</ele>
        <time>2017-07-29T07:03:24Z</time>
      </trkpt>
      <trkpt lat="48.00031" lon="7.03383">
        <ele>660</ele>
        <time>2017-07-29T07:03:37Z</time>
      </trkpt>
      <trkpt lat="48.00023" lon="7.03379">
        <ele>662</ele>
        <time>2017-07-29T07:03:40Z</time>
      </trkpt>
      <trkpt lat="48.00009" lon="7.03368">
        <ele>663</ele>
        <time>2017-07-29T07:03:51Z</time>
      </trkpt>
      <trkpt lat="48" lon="7.03357">
        <ele>687</ele>
        <time>2017-07-29T07:04:00Z</time>
      </trkpt>
      <trkpt lat="47.99998" lon="7.03356">
        <ele>687</ele>
        <time>2017-07-29T07:04:01Z</time>
      </trkpt>
      <trkpt lat="47.9999" lon="7.03348">
        <ele>684</ele>
        <time>2017-07-29T07:04:09Z</time>
      </trkpt>
      <trkpt lat="47.99987" lon="7.03345">
        <ele>685</ele>
        <time>2017-07-29T07:04:12Z</time>
      </trkpt>
      <trkpt lat="47.99981" lon="7.03337">
        <ele>686</ele>
        <time>2017-07-29T07:04:20Z</time>
      </trkpt>
      <trkpt lat="47.99959" lon="7.0332">
        <ele>684</ele>
        <time>2017-07-29T07:04:40Z</time>
      </trkpt>
      <trkpt lat="47.99955" lon="7.0331">
        <ele>685</ele>
        <time>2017-07-29T07:04:51Z</time>
      </trkpt>
      <trkpt lat="47.99951" lon="7.03306">
        <ele>685</ele>
        <time>2017-07-29T07:04:55Z</time>
      </trkpt>
      <trkpt lat="47.99945" lon="7.03295">
        <ele>686</ele>
        <time>2017-07-29T07:05:07Z</time>
      </trkpt>
      <trkpt lat="47.99942" lon="7.03285">
        <ele>686</ele>
        <time>2017-07-29T07:05:18Z</time>
      </trkpt>
      <trkpt lat="47.99942" lon="7.03284">
        <ele>686</ele>
        <time>2017-07-29T07:05:19Z</time>
      </trkpt>
      <trkpt lat="47.99937" lon="7.03271">
        <ele>687</ele>
        <time>2017-07-29T07:05:30Z</time>
      </trkpt>
      <trkpt lat="47.99926" lon="7.03252">
        <ele>693</ele>
        <time>2017-07-29T07:05:40Z</time>
      </trkpt>
      <trkpt lat="47.99903" lon="7.03227">
        <ele>710</ele>
        <time>2017-07-29T07:05:57Z</time>
      </trkpt>
      <trkpt lat="47.99901" lon="7.03223">
        <ele>711</ele>
        <time>2017-07-29T07:06:00Z</time>
      </trkpt>
      <trkpt lat="47.99899" lon="7.03212">
        <ele>711</ele>
        <time>2017-07-29T07:06:11Z</time>
      </trkpt>
      <trkpt lat="47.99899" lon="7.03208">
        <ele>710</ele>
        <time>2017-07-29T07:06:14Z</time>
      </trkpt>
      <trkpt lat="47.99899" lon="7.03207">
        <ele>710</ele>
        <time>2017-07-29T07:06:18Z</time>
      </trkpt>
      <trkpt lat="47.99892" lon="7.03171">
        <ele>705</ele>
        <time>2017-07-29T07:06:43Z</time>
      </trkpt>
      <trkpt lat="47.99893" lon="7.03169">
        <ele>704</ele>
        <time>2017-07-29T07:06:45Z</time>
      </trkpt>
      <trkpt lat="47.99892" lon="7.03168">
        <ele>705</ele>
        <time>2017-07-29T07:06:46Z</time>
      </trkpt>
      <trkpt lat="47.99892" lon="7.03167">
        <ele>704</ele>
        <time>2017-07-29T07:06:47Z</time>
      </trkpt>
      <trkpt lat="47.99887" lon="7.03157">
        <ele>698</ele>
        <time>2017-07-29T07:06:53Z</time>
      </trkpt>
      <trkpt lat="47.99887" lon="7.03156">
        <ele>698</ele>
        <time>2017-07-29T07:06:54Z</time>
      </trkpt>
      <trkpt lat="47.9988" lon="7.03133">
        <ele>700</ele>
        <time>2017-07-29T07:07:07Z</time>
      </trkpt>
      <trkpt lat="47.99871" lon="7.03125">
        <ele>703</ele>
        <time>2017-07-29T07:07:10Z</time>
      </trkpt>
      <trkpt lat="47.99871" lon="7.03123">
        <ele>703</ele>
        <time>2017-07-29T07:07:11Z</time>
      </trkpt>
      <trkpt lat="47.99867" lon="7.0312">
        <ele>703</ele>
        <time>2017-07-29T07:07:13Z</time>
      </trkpt>
      <trkpt lat="47.99864" lon="7.03113">
        <ele>704</ele>
        <time>2017-07-29T07:07:19Z</time>
      </trkpt>
      <trkpt lat="47.99855" lon="7.03104">
        <ele>707</ele>
        <time>2017-07-29T07:07:23Z</time>
      </trkpt>
      <trkpt lat="47.99852" lon="7.03099">
        <ele>708</ele>
        <time>2017-07-29T07:07:28Z</time>
      </trkpt>
      <trkpt lat="47.99851" lon="7.03096">
        <ele>709</ele>
        <time>2017-07-29T07:07:30Z</time>
      </trkpt>
      <trkpt lat="47.99846" lon="7.03073">
        <ele>702</ele>
        <time>2017-07-29T07:07:48Z</time>
      </trkpt>
      <trkpt lat="47.99843" lon="7.03068">
        <ele>701</ele>
        <time>2017-07-29T07:07:50Z</time>
      </trkpt>
      <trkpt lat="47.99837" lon="7.03062">
        <ele>700</ele>
        <time>2017-07-29T07:07:53Z</time>
      </trkpt>
      <trkpt lat="47.99834" lon="7.03055">
        <ele>697</ele>
        <time>2017-07-29T07:08:00Z</time>
      </trkpt>
      <trkpt lat="47.99829" lon="7.03048">
        <ele>723</ele>
        <time>2017-07-29T07:08:08Z</time>
      </trkpt>
      <trkpt lat="47.99828" lon="7.03044">
        <ele>723</ele>
        <time>2017-07-29T07:08:11Z</time>
      </trkpt>
      <trkpt lat="47.99818" lon="7.03031">
        <ele>721</ele>
        <time>2017-07-29T07:08:21Z</time>
      </trkpt>
      <trkpt lat="47.99816" lon="7.03026">
        <ele>721</ele>
        <time>2017-07-29T07:08:24Z</time>
      </trkpt>
      <trkpt lat="47.99807" lon="7.03017">
        <ele>721</ele>
        <time>2017-07-29T07:08:32Z</time>
      </trkpt>
      <trkpt lat="47.99799" lon="7.03002">
        <ele>722</ele>
        <time>2017-07-29T07:08:43Z</time>
      </trkpt>
      <trkpt lat="47.99787" lon="7.02996">
        <ele>714</ele>
        <time>2017-07-29T07:08:50Z</time>
      </trkpt>
      <trkpt lat="47.99783" lon="7.02991">
        <ele>715</ele>
        <time>2017-07-29T07:08:55Z</time>
      </trkpt>
      <trkpt lat="47.99768" lon="7.02982">
        <ele>719</ele>
        <time>2017-07-29T07:09:05Z</time>
      </trkpt>
      <trkpt lat="47.99765" lon="7.02977">
        <ele>718</ele>
        <time>2017-07-29T07:09:08Z</time>
      </trkpt>
      <trkpt lat="47.9975" lon="7.0296">
        <ele>717</ele>
        <time>2017-07-29T07:09:21Z</time>
      </trkpt>
      <trkpt lat="47.99741" lon="7.02953">
        <ele>735</ele>
        <time>2017-07-29T07:09:28Z</time>
      </trkpt>
      <trkpt lat="47.99724" lon="7.02942">
        <ele>735</ele>
        <time>2017-07-29T07:09:40Z</time>
      </trkpt>
      <trkpt lat="47.99714" lon="7.02939">
        <ele>737</ele>
        <time>2017-07-29T07:09:47Z</time>
      </trkpt>
      <trkpt lat="47.99711" lon="7.02937">
        <ele>737</ele>
        <time>2017-07-29T07:09:51Z</time>
      </trkpt>
      <trkpt lat="47.99579" lon="7.02963">
        <ele>761</ele>
        <time>2017-07-29T07:12:32Z</time>
      </trkpt>
      <trkpt lat="47.99566" lon="7.02967">
        <ele>762</ele>
        <time>2017-07-29T07:12:46Z</time>
      </trkpt>
      <trkpt lat="47.9956" lon="7.02968">
        <ele>762</ele>
        <time>2017-07-29T07:12:53Z</time>
      </trkpt>
      <trkpt lat="47.99537" lon="7.02971">
        <ele>764</ele>
        <time>2017-07-29T07:14:03Z</time>
      </trkpt>
      <trkpt lat="47.99525" lon="7.02969">
        <ele>764</ele>
        <time>2017-07-29T07:14:11Z</time>
      </trkpt>
      <trkpt lat="47.99504" lon="7.0296">
        <ele>764</ele>
        <time>2017-07-29T07:14:27Z</time>
      </trkpt>
      <trkpt lat="47.99499" lon="7.02961">
        <ele>771</ele>
        <time>2017-07-29T07:14:31Z</time>
      </trkpt>
      <trkpt lat="47.99484" lon="7.02958">
        <ele>771</ele>
        <time>2017-07-29T07:14:45Z</time>
      </trkpt>
      <trkpt lat="47.99466" lon="7.02963">
        <ele>773</ele>
        <time>2017-07-29T07:14:59Z</time>
      </trkpt>
      <trkpt lat="47.99462" lon="7.0296">
        <ele>773</ele>
        <time>2017-07-29T07:15:05Z</time>
      </trkpt>
      <trkpt lat="47.99462" lon="7.0296">
        <ele>773</ele>
        <time>2017-07-29T07:15:08Z</time>
      </trkpt>
      <trkpt lat="47.99345" lon="7.02976">
        <ele>791</ele>
        <time>2017-07-29T07:17:24Z</time>
      </trkpt>
      <trkpt lat="47.99339" lon="7.02976">
        <ele>792</ele>
        <time>2017-07-29T07:17:31Z</time>
      </trkpt>
      <trkpt lat="47.99311" lon="7.02983">
        <ele>799</ele>
        <time>2017-07-29T07:18:14Z</time>
      </trkpt>
      <trkpt lat="47.99306" lon="7.02986">
        <ele>800</ele>
        <time>2017-07-29T07:18:17Z</time>
      </trkpt>
      <trkpt lat="47.99293" lon="7.02977">
        <ele>799</ele>
        <time>2017-07-29T07:18:28Z</time>
      </trkpt>
      <trkpt lat="47.99288" lon="7.02976">
        <ele>799</ele>
        <time>2017-07-29T07:18:33Z</time>
      </trkpt>
      <trkpt lat="47.99282" lon="7.02978">
        <ele>800</ele>
        <time>2017-07-29T07:18:39Z</time>
      </trkpt>
      <trkpt lat="47.99273" lon="7.02975">
        <ele>801</ele>
        <time>2017-07-29T07:18:48Z</time>
      </trkpt>
      <trkpt lat="47.99272" lon="7.02976">
        <ele>801</ele>
        <time>2017-07-29T07:18:49Z</time>
      </trkpt>
      <trkpt lat="47.9927" lon="7.02975">
        <ele>801</ele>
        <time>2017-07-29T07:18:51Z</time>
      </trkpt>
      <trkpt lat="47.99264" lon="7.02976">
        <ele>802</ele>
        <time>2017-07-29T07:18:58Z</time>
      </trkpt>
      <trkpt lat="47.99238" lon="7.02978">
        <ele>807</ele>
        <time>2017-07-29T07:19:16Z</time>
      </trkpt>
      <trkpt lat="47.99232" lon="7.02981">
        <ele>808</ele>
        <time>2017-07-29T07:19:21Z</time>
      </trkpt>
      <trkpt lat="47.99215" lon="7.02982">
        <ele>807</ele>
        <time>2017-07-29T07:19:37Z</time>
      </trkpt>
      <trkpt lat="47.99212" lon="7.02981">
        <ele>807</ele>
        <time>2017-07-29T07:19:40Z</time>
      </trkpt>
      <trkpt lat="47.99183" lon="7.02983">
        <ele>809</ele>
        <time>2017-07-29T07:19:59Z</time>
      </trkpt>
      <trkpt lat="47.99175" lon="7.02991">
        <ele>811</ele>
        <time>2017-07-29T07:20:09Z</time>
      </trkpt>
      <trkpt lat="47.99161" lon="7.02995">
        <ele>813</ele>
        <time>2017-07-29T07:20:25Z</time>
      </trkpt>
      <trkpt lat="47.99287" lon="7.03132">
        <ele>845</ele>
        <time>2017-07-29T07:24:16Z</time>
      </trkpt>
      <trkpt lat="47.99303" lon="7.0315">
        <ele>846</ele>
        <time>2017-07-29T07:24:29Z</time>
      </trkpt>
      <trkpt lat="47.99314" lon="7.03158">
        <ele>847</ele>
        <time>2017-07-29T07:24:40Z</time>
      </trkpt>
      <trkpt lat="47.9932" lon="7.0317">
        <ele>856</ele>
        <time>2017-07-29T07:24:48Z</time>
      </trkpt>
      <trkpt lat="47.99324" lon="7.03173">
        <ele>855</ele>
        <time>2017-07-29T07:24:51Z</time>
      </trkpt>
      <trkpt lat="47.99338" lon="7.03191">
        <ele>853</ele>
        <time>2017-07-29T07:25:05Z</time>
      </trkpt>
      <trkpt lat="47.99341" lon="7.03193">
        <ele>853</ele>
        <time>2017-07-29T07:25:07Z</time>
      </trkpt>
      <trkpt lat="47.99352" lon="7.03209">
        <ele>855</ele>
        <time>2017-07-29T07:25:19Z</time>
      </trkpt>
      <trkpt lat="47.99355" lon="7.0321">
        <ele>855</ele>
        <time>2017-07-29T07:25:21Z</time>
      </trkpt>
      <trkpt lat="47.99363" lon="7.0322">
        <ele>855</ele>
        <time>2017-07-29T07:25:29Z</time>
      </trkpt>
      <trkpt lat="47.99375" lon="7.03237">
        <ele>856</ele>
        <time>2017-07-29T07:25:41Z</time>
      </trkpt>
      <trkpt lat="47.9938" lon="7.03242">
        <ele>856</ele>
        <time>2017-07-29T07:25:46Z</time>
      </trkpt>
      <trkpt lat="47.9939" lon="7.03254">
        <ele>866</ele>
        <time>2017-07-29T07:25:58Z</time>
      </trkpt>
      <trkpt lat="47.99412" lon="7.03293">
        <ele>869</ele>
        <time>2017-07-29T07:26:21Z</time>
      </trkpt>
      <trkpt lat="47.99418" lon="7.03313">
        <ele>867</ele>
        <time>2017-07-29T07:26:33Z</time>
      </trkpt>
      <trkpt lat="47.99433" lon="7.03323">
        <ele>867</ele>
        <time>2017-07-29T07:26:43Z</time>
      </trkpt>
      <trkpt lat="47.99456" lon="7.03355">
        <ele>877</ele>
        <time>2017-07-29T07:27:12Z</time>
      </trkpt>
      <trkpt lat="47.99471" lon="7.03364">
        <ele>877</ele>
        <time>2017-07-29T07:27:27Z</time>
      </trkpt>
      <trkpt lat="47.9935" lon="7.03387">
        <ele>894</ele>
        <time>2017-07-29T07:29:12Z</time>
      </trkpt>
      <trkpt lat="47.99348" lon="7.03387">
        <ele>894</ele>
        <time>2017-07-29T07:29:13Z</time>
      </trkpt>
      <trkpt lat="47.99335" lon="7.0339">
        <ele>895</ele>
        <time>2017-07-29T07:29:24Z</time>
      </trkpt>
      <trkpt lat="47.99322" lon="7.03398">
        <ele>902</ele>
        <time>2017-07-29T07:29:37Z</time>
      </trkpt>
      <trkpt lat="47.9932" lon="7.03399">
        <ele>902</ele>
        <time>2017-07-29T07:29:39Z</time>
      </trkpt>
      <trkpt lat="47.99313" lon="7.03404">
        <ele>903</ele>
        <time>2017-07-29T07:29:46Z</time>
      </trkpt>
      <trkpt lat="47.99287" lon="7.03415">
        <ele>905</ele>
        <time>2017-07-29T07:30:00Z</time>
      </trkpt>
      <trkpt lat="47.99286" lon="7.03414">
        <ele>905</ele>
        <time>2017-07-29T07:30:01Z</time>
      </trkpt>
      <trkpt lat="47.99277" lon="7.03414">
        <ele>906</ele>
        <time>2017-07-29T07:30:10Z</time>
      </trkpt>
      <trkpt lat="47.99266" lon="7.03419">
        <ele>919</ele>
        <time>2017-07-29T07:30:21Z</time>
      </trkpt>
      <trkpt lat="47.99251" lon="7.03417">
        <ele>916</ele>
        <time>2017-07-29T07:30:35Z</time>
      </trkpt>
      <trkpt lat="47.99231" lon="7.03418">
        <ele>924</ele>
        <time>2017-07-29T07:30:52Z</time>
      </trkpt>
      <trkpt lat="47.99203" lon="7.03424">
        <ele>927</ele>
        <time>2017-07-29T07:31:15Z</time>
      </trkpt>
      <trkpt lat="47.992" lon="7.03428">
        <ele>928</ele>
        <time>2017-07-29T07:31:18Z</time>
      </trkpt>
      <trkpt lat="47.99189" lon="7.03432">
        <ele>928</ele>
        <time>2017-07-29T07:31:26Z</time>
      </trkpt>
      <trkpt lat="47.99175" lon="7.0344">
        <ele>929</ele>
        <time>2017-07-29T07:31:38Z</time>
      </trkpt>
      <trkpt lat="47.99168" lon="7.03441">
        <ele>929</ele>
        <time>2017-07-29T07:31:44Z</time>
      </trkpt>
      <trkpt lat="47.99167" lon="7.03443">
        <ele>929</ele>
        <time>2017-07-29T07:31:46Z</time>
      </trkpt>
      <trkpt lat="47.99169" lon="7.03443">
        <ele>929</ele>
        <time>2017-07-29T07:31:47Z</time>
      </trkpt>
      <trkpt lat="47.99329" lon="7.03658">
        <ele>978</ele>
        <time>2017-07-29T07:37:47Z</time>
      </trkpt>
      <trkpt lat="47.99308" lon="7.03658">
        <ele>977</ele>
        <time>2017-07-29T07:38:00Z</time>
      </trkpt>
      <trkpt lat="47.9929" lon="7.03656">
        <ele>977</ele>
        <time>2017-07-29T07:38:14Z</time>
      </trkpt>
      <trkpt lat="47.99282" lon="7.03657">
        <ele>978</ele>
        <time>2017-07-29T07:38:23Z</time>
      </trkpt>
      <trkpt lat="47.99281" lon="7.03656">
        <ele>979</ele>
        <time>2017-07-29T07:38:24Z</time>
      </trkpt>
      <trkpt lat="47.99271" lon="7.03662">
        <ele>981</ele>
        <time>2017-07-29T07:38:30Z</time>
      </trkpt>
      <trkpt lat="47.99251" lon="7.03667">
        <ele>990</ele>
        <time>2017-07-29T07:38:44Z</time>
      </trkpt>
      <trkpt lat="47.99249" lon="7.03668">
        <ele>991</ele>
        <time>2017-07-29T07:38:46Z</time>
      </trkpt>
      <trkpt lat="47.99234" lon="7.03674">
        <ele>996</ele>
        <time>2017-07-29T07:38:59Z</time>
      </trkpt>
      <trkpt lat="47.99222" lon="7.03683">
        <ele>998</ele>
        <time>2017-07-29T07:39:10Z</time>
      </trkpt>
      <trkpt lat="47.99192" lon="7.03692">
        <ele>1000</ele>
        <time>2017-07-29T07:39:33Z</time>
      </trkpt>
      <trkpt lat="47.99188" lon="7.03694">
        <ele>1001</ele>
        <time>2017-07-29T07:39:35Z</time>
      </trkpt>
      <trkpt lat="47.99172" lon="7.03699">
        <ele>1001</ele>
        <time>2017-07-29T07:39:48Z</time>
      </trkpt>
      <trkpt lat="47.99166" lon="7.03702">
        <ele>1006</ele>
        <time>2017-07-29T07:39:56Z</time>
      </trkpt>
      <trkpt lat="47.99146" lon="7.03704">
        <ele>1007</ele>
        <time>2017-07-29T07:40:09Z</time>
      </trkpt>
      <trkpt lat="47.99143" lon="7.03706">
        <ele>1007</ele>
        <time>2017-07-29T07:40:11Z</time>
      </trkpt>
      <trkpt lat="47.99138" lon="7.03705">
        <ele>1008</ele>
        <time>2017-07-29T07:40:17Z</time>
      </trkpt>
      <trkpt lat="47.99131" lon="7.03708">
        <ele>1008</ele>
        <time>2017-07-29T07:40:22Z</time>
      </trkpt>
      <trkpt lat="47.991" lon="7.03708">
        <ele>1010</ele>
        <time>2017-07-29T07:40:47Z</time>
      </trkpt>
      <trkpt lat="47.99095" lon="7.0371">
        <ele>1011</ele>
        <time>2017-07-29T07:40:53Z</time>
      </trkpt>
      <trkpt lat="47.99089" lon="7.0371">
        <ele>1011</ele>
        <time>2017-07-29T07:40:59Z</time>
      </trkpt>
      <trkpt lat="47.99084" lon="7.03712">
        <ele>1011</ele>
        <time>2017-07-29T07:41:02Z</time>
      </trkpt>
      <trkpt lat="47.99078" lon="7.03711">
        <ele>1014</ele>
        <time>2017-07-29T07:41:07Z</time>
      </trkpt>
      <trkpt lat="47.99066" lon="7.03716">
        <ele>1014</ele>
        <time>2017-07-29T07:41:16Z</time>
      </trkpt>
      <trkpt lat="47.9905" lon="7.03716">
        <ele>1014</ele>
        <time>2017-07-29T07:41:30Z</time>
      </trkpt>
      <trkpt lat="47.99032" lon="7.03722">
        <ele>1015</ele>
        <time>2017-07-29T07:41:44Z</time>
      </trkpt>
      <trkpt lat="47.99012" lon="7.03726">
        <ele>1016</ele>
        <time>2017-07-29T07:41:58Z</time>
      </trkpt>
      <trkpt lat="47.99007" lon="7.03729">
        <ele>1017</ele>
        <time>2017-07-29T07:42:02Z</time>
      </trkpt>
      <trkpt lat="47.98998" lon="7.0373">
        <ele>1018</ele>
        <time>2017-07-29T07:42:11Z</time>
      </trkpt>
      <trkpt lat="47.98991" lon="7.03735">
        <ele>1019</ele>
        <time>2017-07-29T07:42:21Z</time>
      </trkpt>
      <trkpt lat="47.99018" lon="7.03759">
        <ele>1028</ele>
        <time>2017-07-29T07:42:48Z</time>
      </trkpt>
      <trkpt lat="47.9902" lon="7.0376">
        <ele>1029</ele>
        <time>2017-07-29T07:42:50Z</time>
      </trkpt>
      <trkpt lat="47.99031" lon="7.03764">
        <ele>1030</ele>
        <time>2017-07-29T07:42:57Z</time>
      </trkpt>
      <trkpt lat="47.99041" lon="7.03769">
        <ele>1030</ele>
        <time>2017-07-29T07:43:04Z</time>
      </trkpt>
      <trkpt lat="47.99045" lon="7.03776">
        <ele>1031</ele>
        <time>2017-07-29T07:43:06Z</time>
      </trkpt>
      <trkpt lat="47.99047" lon="7.03775">
        <ele>1031</ele>
        <time>2017-07-29T07:43:07Z</time>
      </trkpt>
      <trkpt lat="47.99058" lon="7.03789">
        <ele>1032</ele>
        <time>2017-07-29T07:43:18Z</time>
      </trkpt>
      <trkpt lat="47.99068" lon="7.038">
        <ele>1033</ele>
        <time>2017-07-29T07:43:31Z</time>
      </trkpt>
      <trkpt lat="47.99071" lon="7.03801">
        <ele>1033</ele>
        <time>2017-07-29T07:43:34Z</time>
      </trkpt>
      <trkpt lat="47.99071" lon="7.03807">
        <ele>1033</ele>
        <time>2017-07-29T07:43:42Z</time>
      </trkpt>
      <trkpt lat="47.99056" lon="7.03854">
        <ele>1043</ele>
        <time>2017-07-29T07:45:00Z</time>
      </trkpt>
      <trkpt lat="47.99069" lon="7.03873">
        <ele>1043</ele>
        <time>2017-07-29T07:45:12Z</time>
      </trkpt>
      <trkpt lat="47.99069" lon="7.03876">
        <ele>1043</ele>
        <time>2017-07-29T07:45:15Z</time>
      </trkpt>
      <trkpt lat="47.99072" lon="7.03879">
        <ele>1043</ele>
        <time>2017-07-29T07:48:47Z</time>
      </trkpt>
      <trkpt lat="47.99074" lon="7.0388">
        <ele>1043</ele>
        <time>2017-07-29T07:48:50Z</time>
      </trkpt>
      <trkpt lat="47.99088" lon="7.03882">
        <ele>1036</ele>
        <time>2017-07-29T07:49:07Z</time>
      </trkpt>
      <trkpt lat="47.9909" lon="7.03885">
        <ele>1036</ele>
        <time>2017-07-29T07:49:08Z</time>
      </trkpt>
      <trkpt lat="47.99095" lon="7.03903">
        <ele>1037</ele>
        <time>2017-07-29T07:49:15Z</time>
      </trkpt>
      <trkpt lat="47.99097" lon="7.03918">
        <ele>1038</ele>
        <time>2017-07-29T07:49:21Z</time>
      </trkpt>
      <trkpt lat="47.99089" lon="7.03939">
        <ele>1037</ele>
        <time>2017-07-29T07:49:30Z</time>
      </trkpt>
      <trkpt lat="47.99084" lon="7.03961">
        <ele>1036</ele>
        <time>2017-07-29T07:49:37Z</time>
      </trkpt>
      <trkpt lat="47.99079" lon="7.03977">
        <ele>1045</ele>
        <time>2017-07-29T07:49:43Z</time>
      </trkpt>
      <trkpt lat="47.9907" lon="7.03995">
        <ele>1044</ele>
        <time>2017-07-29T07:49:51Z</time>
      </trkpt>
      <trkpt lat="47.9906" lon="7.04013">
        <ele>1045</ele>
        <time>2017-07-29T07:49:59Z</time>
      </trkpt>
      <trkpt lat="47.9905" lon="7.04032">
        <ele>1046</ele>
        <time>2017-07-29T07:50:06Z</time>
      </trkpt>
      <trkpt lat="47.99044" lon="7.04041">
        <ele>1047</ele>
        <time>2017-07-29T07:50:10Z</time>
      </trkpt>
      <trkpt lat="47.99025" lon="7.04083">
        <ele>1049</ele>
        <time>2017-07-29T07:50:26Z</time>
      </trkpt>
      <trkpt lat="47.99006" lon="7.0413">
        <ele>1046</ele>
        <time>2017-07-29T07:50:43Z</time>
      </trkpt>
      <trkpt lat="47.98995" lon="7.04169">
        <ele>1051</ele>
        <time>2017-07-29T07:50:57Z</time>
      </trkpt>
      <trkpt lat="47.9898" lon="7.04205">
        <ele>1055</ele>
        <time>2017-07-29T07:51:15Z</time>
      </trkpt>
      <trkpt lat="47.9898" lon="7.04205">
        <ele>1055</ele>
        <time>2017-07-29T07:51:16Z</time>
      </trkpt>
      <trkpt lat="47.98978" lon="7.04206">
        <ele>1055</ele>
        <time>2017-07-29T07:55:14Z</time>
      </trkpt>
      <trkpt lat="47.9895" lon="7.04279">
        <ele>1052</ele>
        <time>2017-07-29T07:55:31Z</time>
      </trkpt>
      <trkpt lat="47.98942" lon="7.04295">
        <ele>1052</ele>
        <time>2017-07-29T07:55:35Z</time>
      </trkpt>
      <trkpt lat="47.98922" lon="7.04343">
        <ele>1052</ele>
        <time>2017-07-29T07:55:47Z</time>
      </trkpt>
      <trkpt lat="47.98891" lon="7.04393">
        <ele>1060</ele>
        <time>2017-07-29T07:56:06Z</time>
      </trkpt>
      <trkpt lat="47.98881" lon="7.04411">
        <ele>1061</ele>
        <time>2017-07-29T07:56:15Z</time>
      </trkpt>
      <trkpt lat="47.98877" lon="7.04415">
        <ele>1061</ele>
        <time>2017-07-29T07:56:18Z</time>
      </trkpt>
      <trkpt lat="47.98857" lon="7.04426">
        <ele>1062</ele>
        <time>2017-07-29T07:56:31Z</time>
      </trkpt>
      <trkpt lat="47.98852" lon="7.0443">
        <ele>1062</ele>
        <time>2017-07-29T07:56:35Z</time>
      </trkpt>
      <trkpt lat="47.98838" lon="7.04437">
        <ele>1063</ele>
        <time>2017-07-29T07:56:45Z</time>
      </trkpt>
      <trkpt lat="47.98825" lon="7.04447">
        <ele>1071</ele>
        <time>2017-07-29T07:56:55Z</time>
      </trkpt>
      <trkpt lat="47.98816" lon="7.04458">
        <ele>1071</ele>
        <time>2017-07-29T07:57:04Z</time>
      </trkpt>
      <trkpt lat="47.98811" lon="7.04463">
        <ele>1071</ele>
        <time>2017-07-29T07:57:09Z</time>
      </trkpt>
      <trkpt lat="47.98807" lon="7.0447">
        <ele>1071</ele>
        <time>2017-07-29T07:57:13Z</time>
      </trkpt>
      <trkpt lat="47.98797" lon="7.0448">
        <ele>1072</ele>
        <time>2017-07-29T07:57:21Z</time>
      </trkpt>
      <trkpt lat="47.98776" lon="7.04514">
        <ele>1070</ele>
        <time>2017-07-29T07:57:43Z</time>
      </trkpt>
      <trkpt lat="47.98771" lon="7.04519">
        <ele>1071</ele>
        <time>2017-07-29T07:57:47Z</time>
      </trkpt>
      <trkpt lat="47.98755" lon="7.04556">
        <ele>1070</ele>
        <time>2017-07-29T07:58:05Z</time>
      </trkpt>
      <trkpt lat="47.98748" lon="7.0458">
        <ele>1073</ele>
        <time>2017-07-29T07:58:14Z</time>
      </trkpt>
      <trkpt lat="47.98732" lon="7.04634">
        <ele>1075</ele>
        <time>2017-07-29T07:58:32Z</time>
      </trkpt>
      <trkpt lat="47.98724" lon="7.04653">
        <ele>1075</ele>
        <time>2017-07-29T07:58:38Z</time>
      </trkpt>
      <trkpt lat="47.98712" lon="7.04678">
        <ele>1074</ele>
        <time>2017-07-29T07:58:46Z</time>
      </trkpt>
      <trkpt lat="47.98671" lon="7.04776">
        <ele>1073</ele>
        <time>2017-07-29T07:59:11Z</time>
      </trkpt>
      <trkpt lat="47.98647" lon="7.04843">
        <ele>1073</ele>
        <time>2017-07-29T07:59:22Z</time>
      </trkpt>
      <trkpt lat="47.98625" lon="7.04885">
        <ele>1073</ele>
        <time>2017-07-29T07:59:31Z</time>
      </trkpt>
      <trkpt lat="47.98616" lon="7.04895">
        <ele>1073</ele>
        <time>2017-07-29T07:59:36Z</time>
      </trkpt>
      <trkpt lat="47.98599" lon="7.04907">
        <ele>1074</ele>
        <time>2017-07-29T07:59:43Z</time>
      </trkpt>
      <trkpt lat="47.98579" lon="7.04914">
        <ele>1076</ele>
        <time>2017-07-29T07:59:51Z</time>
      </trkpt>
      <trkpt lat="47.98557" lon="7.04919">
        <ele>1075</ele>
        <time>2017-07-29T08:00:00Z</time>
      </trkpt>
      <trkpt lat="47.98537" lon="7.04915">
        <ele>1084</ele>
        <time>2017-07-29T08:00:11Z</time>
      </trkpt>
      <trkpt lat="47.98522" lon="7.04909">
        <ele>1086</ele>
        <time>2017-07-29T08:00:21Z</time>
      </trkpt>
      <trkpt lat="47.98502" lon="7.04889">
        <ele>1087</ele>
        <time>2017-07-29T08:00:37Z</time>
      </trkpt>
      <trkpt lat="47.98476" lon="7.04872">
        <ele>1094</ele>
        <time>2017-07-29T08:00:57Z</time>
      </trkpt>
      <trkpt lat="47.98459" lon="7.04862">
        <ele>1095</ele>
        <time>2017-07-29T08:01:10Z</time>
      </trkpt>
      <trkpt lat="47.98436" lon="7.04845">
        <ele>1097</ele>
        <time>2017-07-29T08:01:28Z</time>
      </trkpt>
      <trkpt lat="47.98429" lon="7.04837">
        <ele>1098</ele>
        <time>2017-07-29T08:01:33Z</time>
      </trkpt>
      <trkpt lat="47.98416" lon="7.04831">
        <ele>1102</ele>
        <time>2017-07-29T08:01:43Z</time>
      </trkpt>
      <trkpt lat="47.98408" lon="7.04824">
        <ele>1104</ele>
        <time>2017-07-29T08:01:52Z</time>
      </trkpt>
      <trkpt lat="47.98402" lon="7.04823">
        <ele>1105</ele>
        <time>2017-07-29T08:01:56Z</time>
      </trkpt>
      <trkpt lat="47.98394" lon="7.04817">
        <ele>1106</ele>
        <time>2017-07-29T08:02:04Z</time>
      </trkpt>
      <trkpt lat="47.9836" lon="7.04809">
        <ele>1106</ele>
        <time>2017-07-29T08:02:28Z</time>
      </trkpt>
      <trkpt lat="47.98352" lon="7.04803">
        <ele>1107</ele>
        <time>2017-07-29T08:02:34Z</time>
      </trkpt>
      <trkpt lat="47.98337" lon="7.048">
        <ele>1107</ele>
        <time>2017-07-29T08:02:44Z</time>
      </trkpt>
      <trkpt lat="47.98308" lon="7.04785">
        <ele>1103</ele>
        <time>2017-07-29T08:03:00Z</time>
      </trkpt>
      <trkpt lat="47.98304" lon="7.04781">
        <ele>1103</ele>
        <time>2017-07-29T08:03:02Z</time>
      </trkpt>
      <trkpt lat="47.983" lon="7.04779">
        <ele>1103</ele>
        <time>2017-07-29T08:03:04Z</time>
      </trkpt>
      <trkpt lat="47.98291" lon="7.04767">
        <ele>1104</ele>
        <time>2017-07-29T08:03:12Z</time>
      </trkpt>
      <trkpt lat="47.98289" lon="7.04762">
        <ele>1104</ele>
        <time>2017-07-29T08:03:14Z</time>
      </trkpt>
      <trkpt lat="47.98278" lon="7.04746">
        <ele>1116</ele>
        <time>2017-07-29T08:03:22Z</time>
      </trkpt>
      <trkpt lat="47.98277" lon="7.04741">
        <ele>1116</ele>
        <time>2017-07-29T08:03:24Z</time>
      </trkpt>
      <trkpt lat="47.98262" lon="7.0472">
        <ele>1118</ele>
        <time>2017-07-29T08:03:36Z</time>
      </trkpt>
      <trkpt lat="47.98242" lon="7.047">
        <ele>1114</ele>
        <time>2017-07-29T08:03:49Z</time>
      </trkpt>
      <trkpt lat="47.98238" lon="7.04694">
        <ele>1115</ele>
        <time>2017-07-29T08:03:52Z</time>
      </trkpt>
      <trkpt lat="47.98228" lon="7.04683">
        <ele>1116</ele>
        <time>2017-07-29T08:03:58Z</time>
      </trkpt>
      <trkpt lat="47.98184" lon="7.0464">
        <ele>1128</ele>
        <time>2017-07-29T08:04:27Z</time>
      </trkpt>
      <trkpt lat="47.98174" lon="7.04635">
        <ele>1128</ele>
        <time>2017-07-29T08:04:33Z</time>
      </trkpt>
      <trkpt lat="47.98169" lon="7.0463">
        <ele>1129</ele>
        <time>2017-07-29T08:04:36Z</time>
      </trkpt>
      <trkpt lat="47.98144" lon="7.04616">
        <ele>1125</ele>
        <time>2017-07-29T08:04:53Z</time>
      </trkpt>
      <trkpt lat="47.98142" lon="7.04613">
        <ele>1125</ele>
        <time>2017-07-29T08:04:55Z</time>
      </trkpt>
      <trkpt lat="47.98127" lon="7.04603">
        <ele>1125</ele>
        <time>2017-07-29T08:05:03Z</time>
      </trkpt>
      <trkpt lat="47.98112" lon="7.04589">
        <ele>1126</ele>
        <time>2017-07-29T08:05:11Z</time>
      </trkpt>
      <trkpt lat="47.98096" lon="7.0458">
        <ele>1137</ele>
        <time>2017-07-29T08:05:21Z</time>
      </trkpt>
      <trkpt lat="47.98093" lon="7.04578">
        <ele>1136</ele>
        <time>2017-07-29T08:05:23Z</time>
      </trkpt>
      <trkpt lat="47.98091" lon="7.04578">
        <ele>1135</ele>
        <time>2017-07-29T08:05:24Z</time>
      </trkpt>
      <trkpt lat="47.98088" lon="7.04575">
        <ele>1135</ele>
        <time>2017-07-29T08:05:26Z</time>
      </trkpt>
      <trkpt lat="47.98079" lon="7.04572">
        <ele>1135</ele>
        <time>2017-07-29T08:05:32Z</time>
      </trkpt>
      <trkpt lat="47.98065" lon="7.04582">
        <ele>1136</ele>
        <time>2017-07-29T08:05:38Z</time>
      </trkpt>
      <trkpt lat="47.98059" lon="7.04583">
        <ele>1137</ele>
        <time>2017-07-29T08:05:42Z</time>
      </trkpt>
      <trkpt lat="47.98041" lon="7.04595">
        <ele>1123</ele>
        <time>2017-07-29T08:05:50Z</time>
      </trkpt>
      <trkpt lat="47.98024" lon="7.046">
        <ele>1123</ele>
        <time>2017-07-29T08:05:59Z</time>
      </trkpt>
      <trkpt lat="47.98002" lon="7.04603">
        <ele>1124</ele>
        <time>2017-07-29T08:06:09Z</time>
      </trkpt>
      <trkpt lat="47.9798" lon="7.04599">
        <ele>1132</ele>
        <time>2017-07-29T08:06:23Z</time>
      </trkpt>
      <trkpt lat="47.97962" lon="7.04599">
        <ele>1135</ele>
        <time>2017-07-29T08:06:34Z</time>
      </trkpt>
      <trkpt lat="47.97957" lon="7.04597">
        <ele>1136</ele>
        <time>2017-07-29T08:06:38Z</time>
      </trkpt>
      <trkpt lat="47.97946" lon="7.04599">
        <ele>1139</ele>
        <time>2017-07-29T08:06:44Z</time>
      </trkpt>
      <trkpt lat="47.97934" lon="7.04607">
        <ele>1140</ele>
        <time>2017-07-29T08:06:51Z</time>
      </trkpt>
      <trkpt lat="47.9792" lon="7.04622">
        <ele>1138</ele>
        <time>2017-07-29T08:07:02Z</time>
      </trkpt>
      <trkpt lat="47.97904" lon="7.04641">
        <ele>1149</ele>
        <time>2017-07-29T08:07:13Z</time>
      </trkpt>
      <trkpt lat="47.97887" lon="7.04673">
        <ele>1137</ele>
        <time>2017-07-29T08:07:28Z</time>
      </trkpt>
      <trkpt lat="47.97879" lon="7.04691">
        <ele>1138</ele>
        <time>2017-07-29T08:07:36Z</time>
      </trkpt>
      <trkpt lat="47.97855" lon="7.0472">
        <ele>1141</ele>
        <time>2017-07-29T08:07:53Z</time>
      </trkpt>
      <trkpt lat="47.97836" lon="7.04737">
        <ele>1145</ele>
        <time>2017-07-29T08:08:05Z</time>
      </trkpt>
      <trkpt lat="47.9781" lon="7.04755">
        <ele>1147</ele>
        <time>2017-07-29T08:08:21Z</time>
      </trkpt>
      <trkpt lat="47.97799" lon="7.04756">
        <ele>1147</ele>
        <time>2017-07-29T08:08:28Z</time>
      </trkpt>
      <trkpt lat="47.97783" lon="7.04755">
        <ele>1147</ele>
        <time>2017-07-29T08:08:36Z</time>
      </trkpt>
      <trkpt lat="47.9776" lon="7.04751">
        <ele>1150</ele>
        <time>2017-07-29T08:08:47Z</time>
      </trkpt>
      <trkpt lat="47.97741" lon="7.04743">
        <ele>1153</ele>
        <time>2017-07-29T08:08:56Z</time>
      </trkpt>
      <trkpt lat="47.97724" lon="7.04729">
        <ele>1154</ele>
        <time>2017-07-29T08:09:03Z</time>
      </trkpt>
      <trkpt lat="47.97719" lon="7.04721">
        <ele>1154</ele>
        <time>2017-07-29T08:09:07Z</time>
      </trkpt>
      <trkpt lat="47.97718" lon="7.04716">
        <ele>1154</ele>
        <time>2017-07-29T08:09:10Z</time>
      </trkpt>
      <trkpt lat="47.9771" lon="7.04699">
        <ele>1155</ele>
        <time>2017-07-29T08:09:17Z</time>
      </trkpt>
      <trkpt lat="47.97707" lon="7.04688">
        <ele>1156</ele>
        <time>2017-07-29T08:09:21Z</time>
      </trkpt>
      <trkpt lat="47.977" lon="7.04671">
        <ele>1156</ele>
        <time>2017-07-29T08:09:30Z</time>
      </trkpt>
      <trkpt lat="47.97688" lon="7.04651">
        <ele>1166</ele>
        <time>2017-07-29T08:09:40Z</time>
      </trkpt>
      <trkpt lat="47.97679" lon="7.04633">
        <ele>1169</ele>
        <time>2017-07-29T08:09:47Z</time>
      </trkpt>
      <trkpt lat="47.97673" lon="7.04625">
        <ele>1170</ele>
        <time>2017-07-29T08:09:51Z</time>
      </trkpt>
      <trkpt lat="47.97669" lon="7.04618">
        <ele>1171</ele>
        <time>2017-07-29T08:09:55Z</time>
      </trkpt>
      <trkpt lat="47.97663" lon="7.04607">
        <ele>1167</ele>
        <time>2017-07-29T08:10:00Z</time>
      </trkpt>
      <trkpt lat="47.97654" lon="7.04597">
        <ele>1169</ele>
        <time>2017-07-29T08:10:09Z</time>
      </trkpt>
      <trkpt lat="47.97653" lon="7.04591">
        <ele>1170</ele>
        <time>2017-07-29T08:10:13Z</time>
      </trkpt>
      <trkpt lat="47.97639" lon="7.04569">
        <ele>1182</ele>
        <time>2017-07-29T08:10:23Z</time>
      </trkpt>
      <trkpt lat="47.97636" lon="7.04566">
        <ele>1182</ele>
        <time>2017-07-29T08:10:26Z</time>
      </trkpt>
      <trkpt lat="47.97627" lon="7.0455">
        <ele>1183</ele>
        <time>2017-07-29T08:10:37Z</time>
      </trkpt>
      <trkpt lat="47.9762" lon="7.04541">
        <ele>1184</ele>
        <time>2017-07-29T08:10:42Z</time>
      </trkpt>
      <trkpt lat="47.97608" lon="7.0453">
        <ele>1186</ele>
        <time>2017-07-29T08:10:49Z</time>
      </trkpt>
      <trkpt lat="47.97594" lon="7.04519">
        <ele>1188</ele>
        <time>2017-07-29T08:10:58Z</time>
      </trkpt>
      <trkpt lat="47.97585" lon="7.04515">
        <ele>1189</ele>
        <time>2017-07-29T08:11:04Z</time>
      </trkpt>
      <trkpt lat="47.97571" lon="7.04517">
        <ele>1184</ele>
        <time>2017-07-29T08:11:09Z</time>
      </trkpt>
      <trkpt lat="47.97555" lon="7.04524">
        <ele>1181</ele>
        <time>2017-07-29T08:11:16Z</time>
      </trkpt>
      <trkpt lat="47.97548" lon="7.04523">
        <ele>1181</ele>
        <time>2017-07-29T08:11:22Z</time>
      </trkpt>
      <trkpt lat="47.97536" lon="7.0452">
        <ele>1181</ele>
        <time>2017-07-29T08:11:28Z</time>
      </trkpt>
      <trkpt lat="47.97532" lon="7.0452">
        <ele>1181</ele>
        <time>2017-07-29T08:11:30Z</time>
      </trkpt>
      <trkpt lat="47.97512" lon="7.04514">
        <ele>1183</ele>
        <time>2017-07-29T08:11:39Z</time>
      </trkpt>
      <trkpt lat="47.97502" lon="7.04507">
        <ele>1186</ele>
        <time>2017-07-29T08:11:43Z</time>
      </trkpt>
      <trkpt lat="47.97478" lon="7.045">
        <ele>1195</ele>
        <time>2017-07-29T08:11:53Z</time>
      </trkpt>
      <trkpt lat="47.97475" lon="7.04497">
        <ele>1196</ele>
        <time>2017-07-29T08:11:55Z</time>
      </trkpt>
      <trkpt lat="47.97473" lon="7.04493">
        <ele>1196</ele>
        <time>2017-07-29T08:11:57Z</time>
      </trkpt>
      <trkpt lat="47.97463" lon="7.04487">
        <ele>1197</ele>
        <time>2017-07-29T08:12:06Z</time>
      </trkpt>
      <trkpt lat="47.9745" lon="7.0447">
        <ele>1199</ele>
        <time>2017-07-29T08:12:16Z</time>
      </trkpt>
      <trkpt lat="47.97428" lon="7.04465">
        <ele>1199</ele>
        <time>2017-07-29T08:12:27Z</time>
      </trkpt>
      <trkpt lat="47.9742" lon="7.0446">
        <ele>1200</ele>
        <time>2017-07-29T08:12:31Z</time>
      </trkpt>
      <trkpt lat="47.9741" lon="7.04459">
        <ele>1200</ele>
        <time>2017-07-29T08:12:37Z</time>
      </trkpt>
      <trkpt lat="47.97393" lon="7.04454">
        <ele>1201</ele>
        <time>2017-07-29T08:12:45Z</time>
      </trkpt>
      <trkpt lat="47.97391" lon="7.04449">
        <ele>1202</ele>
        <time>2017-07-29T08:12:48Z</time>
      </trkpt>
      <trkpt lat="47.97386" lon="7.04444">
        <ele>1203</ele>
        <time>2017-07-29T08:12:53Z</time>
      </trkpt>
      <trkpt lat="47.97379" lon="7.04441">
        <ele>1203</ele>
        <time>2017-07-29T08:13:00Z</time>
      </trkpt>
      <trkpt lat="47.97359" lon="7.04425">
        <ele>1205</ele>
        <time>2017-07-29T08:13:12Z</time>
      </trkpt>
      <trkpt lat="47.97355" lon="7.04424">
        <ele>1206</ele>
        <time>2017-07-29T08:13:14Z</time>
      </trkpt>
      <trkpt lat="47.97338" lon="7.04412">
        <ele>1214</ele>
        <time>2017-07-29T08:13:25Z</time>
      </trkpt>
      <trkpt lat="47.97324" lon="7.04406">
        <ele>1212</ele>
        <time>2017-07-29T08:13:32Z</time>
      </trkpt>
      <trkpt lat="47.97307" lon="7.04401">
        <ele>1211</ele>
        <time>2017-07-29T08:13:37Z</time>
      </trkpt>
      <trkpt lat="47.97297" lon="7.044">
        <ele>1211</ele>
        <time>2017-07-29T08:13:40Z</time>
      </trkpt>
      <trkpt lat="47.9729" lon="7.04396">
        <ele>1210</ele>
        <time>2017-07-29T08:13:42Z</time>
      </trkpt>
      <trkpt lat="47.97272" lon="7.04391">
        <ele>1209</ele>
        <time>2017-07-29T08:13:46Z</time>
      </trkpt>
      <trkpt lat="47.97266" lon="7.0439">
        <ele>1208</ele>
        <time>2017-07-29T08:13:47Z</time>
      </trkpt>
      <trkpt lat="47.97259" lon="7.04391">
        <ele>1208</ele>
        <time>2017-07-29T08:13:48Z</time>
      </trkpt>
      <trkpt lat="47.97235" lon="7.04389">
        <ele>1201</ele>
        <time>2017-07-29T08:13:52Z</time>
      </trkpt>
      <trkpt lat="47.97223" lon="7.04386">
        <ele>1201</ele>
        <time>2017-07-29T08:13:54Z</time>
      </trkpt>
      <trkpt lat="47.97215" lon="7.04383">
        <ele>1201</ele>
        <time>2017-07-29T08:13:55Z</time>
      </trkpt>
      <trkpt lat="47.97204" lon="7.04382">
        <ele>1200</ele>
        <time>2017-07-29T08:13:57Z</time>
      </trkpt>
      <trkpt lat="47.97186" lon="7.04376">
        <ele>1200</ele>
        <time>2017-07-29T08:14:00Z</time>
      </trkpt>
      <trkpt lat="47.97163" lon="7.04372">
        <ele>1196</ele>
        <time>2017-07-29T08:14:04Z</time>
      </trkpt>
      <trkpt lat="47.97152" lon="7.04365">
        <ele>1196</ele>
        <time>2017-07-29T08:14:06Z</time>
      </trkpt>
      <trkpt lat="47.9714" lon="7.0436">
        <ele>1196</ele>
        <time>2017-07-29T08:14:10Z</time>
      </trkpt>
      <trkpt lat="47.97133" lon="7.04354">
        <ele>1197</ele>
        <time>2017-07-29T08:14:14Z</time>
      </trkpt>
      <trkpt lat="47.97126" lon="7.0435">
        <ele>1197</ele>
        <time>2017-07-29T08:14:18Z</time>
      </trkpt>
      <trkpt lat="47.97118" lon="7.04341">
        <ele>1197</ele>
        <time>2017-07-29T08:14:26Z</time>
      </trkpt>
      <trkpt lat="47.97113" lon="7.04336">
        <ele>1198</ele>
        <time>2017-07-29T08:14:33Z</time>
      </trkpt>
      <trkpt lat="47.97107" lon="7.04326">
        <ele>1202</ele>
        <time>2017-07-29T08:14:36Z</time>
      </trkpt>
      <trkpt lat="47.97099" lon="7.04317">
        <ele>1202</ele>
        <time>2017-07-29T08:14:41Z</time>
      </trkpt>
      <trkpt lat="47.97091" lon="7.04304">
        <ele>1202</ele>
        <time>2017-07-29T08:14:47Z</time>
      </trkpt>
      <trkpt lat="47.97077" lon="7.04285">
        <ele>1199</ele>
        <time>2017-07-29T08:14:54Z</time>
      </trkpt>
      <trkpt lat="47.97065" lon="7.04259">
        <ele>1200</ele>
        <time>2017-07-29T08:15:03Z</time>
      </trkpt>
      <trkpt lat="47.97051" lon="7.04231">
        <ele>1196</ele>
        <time>2017-07-29T08:15:10Z</time>
      </trkpt>
      <trkpt lat="47.9703" lon="7.04205">
        <ele>1194</ele>
        <time>2017-07-29T08:15:20Z</time>
      </trkpt>
      <trkpt lat="47.97019" lon="7.04189">
        <ele>1192</ele>
        <time>2017-07-29T08:17:42Z</time>
      </trkpt>
      <trkpt lat="47.97018" lon="7.04183">
        <ele>1192</ele>
        <time>2017-07-29T08:17:44Z</time>
      </trkpt>
      <trkpt lat="47.97013" lon="7.04179">
        <ele>1191</ele>
        <time>2017-07-29T08:17:47Z</time>
      </trkpt>
      <trkpt lat="47.97003" lon="7.04183">
        <ele>1191</ele>
        <time>2017-07-29T08:17:49Z</time>
      </trkpt>
      <trkpt lat="47.96992" lon="7.04193">
        <ele>1190</ele>
        <time>2017-07-29T08:17:54Z</time>
      </trkpt>
      <trkpt lat="47.96982" lon="7.04206">
        <ele>1191</ele>
        <time>2017-07-29T08:18:00Z</time>
      </trkpt>
      <trkpt lat="47.96974" lon="7.04207">
        <ele>1191</ele>
        <time>2017-07-29T08:18:05Z</time>
      </trkpt>
      <trkpt lat="47.96965" lon="7.04191">
        <ele>1190</ele>
        <time>2017-07-29T08:18:19Z</time>
      </trkpt>
      <trkpt lat="47.96965" lon="7.0419">
        <ele>1190</ele>
        <time>2017-07-29T08:18:20Z</time>
      </trkpt>
      <trkpt lat="47.96963" lon="7.04186">
        <ele>1190</ele>
        <time>2017-07-29T08:18:23Z</time>
      </trkpt>
      <trkpt lat="47.96953" lon="7.04174">
        <ele>1189</ele>
        <time>2017-07-29T08:18:32Z</time>
      </trkpt>
      <trkpt lat="47.96942" lon="7.04165">
        <ele>1184</ele>
        <time>2017-07-29T08:18:39Z</time>
      </trkpt>
      <trkpt lat="47.96929" lon="7.04158">
        <ele>1185</ele>
        <time>2017-07-29T08:18:47Z</time>
      </trkpt>
      <trkpt lat="47.96915" lon="7.04156">
        <ele>1186</ele>
        <time>2017-07-29T08:18:55Z</time>
      </trkpt>
      <trkpt lat="47.96899" lon="7.04152">
        <ele>1186</ele>
        <time>2017-07-29T08:19:03Z</time>
      </trkpt>
      <trkpt lat="47.96887" lon="7.04133">
        <ele>1186</ele>
        <time>2017-07-29T08:19:13Z</time>
      </trkpt>
      <trkpt lat="47.96873" lon="7.04126">
        <ele>1186</ele>
        <time>2017-07-29T08:19:20Z</time>
      </trkpt>
      <trkpt lat="47.96873" lon="7.04126">
        <ele>1186</ele>
        <time>2017-07-29T08:19:21Z</time>
      </trkpt>
      <trkpt lat="47.96837" lon="7.04123">
        <ele>1186</ele>
        <time>2017-07-29T08:20:06Z</time>
      </trkpt>
      <trkpt lat="47.96821" lon="7.04118">
        <ele>1189</ele>
        <time>2017-07-29T08:20:18Z</time>
      </trkpt>
      <trkpt lat="47.96809" lon="7.04109">
        <ele>1189</ele>
        <time>2017-07-29T08:20:26Z</time>
      </trkpt>
      <trkpt lat="47.96792" lon="7.041">
        <ele>1190</ele>
        <time>2017-07-29T08:20:36Z</time>
      </trkpt>
      <trkpt lat="47.96773" lon="7.04093">
        <ele>1192</ele>
        <time>2017-07-29T08:20:47Z</time>
      </trkpt>
      <trkpt lat="47.96772" lon="7.04091">
        <ele>1192</ele>
        <time>2017-07-29T08:20:48Z</time>
      </trkpt>
      <trkpt lat="47.96769" lon="7.04089">
        <ele>1192</ele>
        <time>2017-07-29T08:20:50Z</time>
      </trkpt>
      <trkpt lat="47.96767" lon="7.04089">
        <ele>1193</ele>
        <time>2017-07-29T08:20:51Z</time>
      </trkpt>
      <trkpt lat="47.96763" lon="7.04085">
        <ele>1193</ele>
        <time>2017-07-29T08:20:54Z</time>
      </trkpt>
      <trkpt lat="47.96751" lon="7.04077">
        <ele>1193</ele>
        <time>2017-07-29T08:21:03Z</time>
      </trkpt>
      <trkpt lat="47.96737" lon="7.0407">
        <ele>1199</ele>
        <time>2017-07-29T08:21:11Z</time>
      </trkpt>
      <trkpt lat="47.96731" lon="7.04069">
        <ele>1200</ele>
        <time>2017-07-29T08:21:15Z</time>
      </trkpt>
      <trkpt lat="47.96708" lon="7.04084">
        <ele>1199</ele>
        <time>2017-07-29T08:21:22Z</time>
      </trkpt>
      <trkpt lat="47.96693" lon="7.04096">
        <ele>1201</ele>
        <time>2017-07-29T08:21:25Z</time>
      </trkpt>
      <trkpt lat="47.9669" lon="7.04096">
        <ele>1201</ele>
        <time>2017-07-29T08:21:27Z</time>
      </trkpt>
      <trkpt lat="47.96687" lon="7.04098">
        <ele>1201</ele>
        <time>2017-07-29T08:21:28Z</time>
      </trkpt>
      <trkpt lat="47.96672" lon="7.04099">
        <ele>1202</ele>
        <time>2017-07-29T08:21:32Z</time>
      </trkpt>
      <trkpt lat="47.9667" lon="7.04096">
        <ele>1203</ele>
        <time>2017-07-29T08:21:35Z</time>
      </trkpt>
      <trkpt lat="47.96664" lon="7.04093">
        <ele>1206</ele>
        <time>2017-07-29T08:21:37Z</time>
      </trkpt>
      <trkpt lat="47.96666" lon="7.0409">
        <ele>1205</ele>
        <time>2017-07-29T08:21:39Z</time>
      </trkpt>
      <trkpt lat="47.96668" lon="7.04076">
        <ele>1205</ele>
        <time>2017-07-29T08:21:52Z</time>
      </trkpt>
      <trkpt lat="47.96668" lon="7.04065">
        <ele>1204</ele>
        <time>2017-07-29T08:21:57Z</time>
      </trkpt>
      <trkpt lat="47.96666" lon="7.04059">
        <ele>1210</ele>
        <time>2017-07-29T08:22:01Z</time>
      </trkpt>
      <trkpt lat="47.96667" lon="7.04049">
        <ele>1205</ele>
        <time>2017-07-29T08:22:06Z</time>
      </trkpt>
      <trkpt lat="47.96666" lon="7.04047">
        <ele>1212</ele>
        <time>2017-07-29T08:22:07Z</time>
      </trkpt>
      <trkpt lat="47.96668" lon="7.04031">
        <ele>1207</ele>
        <time>2017-07-29T08:22:17Z</time>
      </trkpt>
      <trkpt lat="47.96673" lon="7.04022">
        <ele>1207</ele>
        <time>2017-07-29T08:22:20Z</time>
      </trkpt>
      <trkpt lat="47.96672" lon="7.04019">
        <ele>1208</ele>
        <time>2017-07-29T08:22:22Z</time>
      </trkpt>
      <trkpt lat="47.9667" lon="7.04017">
        <ele>1209</ele>
        <time>2017-07-29T08:22:24Z</time>
      </trkpt>
      <trkpt lat="47.96672" lon="7.03996">
        <ele>1212</ele>
        <time>2017-07-29T08:22:37Z</time>
      </trkpt>
      <trkpt lat="47.96667" lon="7.03989">
        <ele>1212</ele>
        <time>2017-07-29T08:22:42Z</time>
      </trkpt>
      <trkpt lat="47.96666" lon="7.03985">
        <ele>1218</ele>
        <time>2017-07-29T08:22:44Z</time>
      </trkpt>
      <trkpt lat="47.96663" lon="7.03981">
        <ele>1218</ele>
        <time>2017-07-29T08:22:46Z</time>
      </trkpt>
      <trkpt lat="47.96657" lon="7.03964">
        <ele>1220</ele>
        <time>2017-07-29T08:22:54Z</time>
      </trkpt>
      <trkpt lat="47.96657" lon="7.0396">
        <ele>1220</ele>
        <time>2017-07-29T08:22:56Z</time>
      </trkpt>
      <trkpt lat="47.96654" lon="7.03954">
        <ele>1221</ele>
        <time>2017-07-29T08:22:59Z</time>
      </trkpt>
      <trkpt lat="47.96639" lon="7.03928">
        <ele>1222</ele>
        <time>2017-07-29T08:23:14Z</time>
      </trkpt>
      <trkpt lat="47.96627" lon="7.03917">
        <ele>1224</ele>
        <time>2017-07-29T08:23:25Z</time>
      </trkpt>
      <trkpt lat="47.96621" lon="7.03905">
        <ele>1227</ele>
        <time>2017-07-29T08:23:32Z</time>
      </trkpt>
      <trkpt lat="47.96621" lon="7.03876">
        <ele>1227</ele>
        <time>2017-07-29T08:23:41Z</time>
      </trkpt>
      <trkpt lat="47.96625" lon="7.03858">
        <ele>1227</ele>
        <time>2017-07-29T08:23:49Z</time>
      </trkpt>
      <trkpt lat="47.96624" lon="7.03855">
        <ele>1227</ele>
        <time>2017-07-29T08:23:51Z</time>
      </trkpt>
      <trkpt lat="47.96625" lon="7.03853">
        <ele>1227</ele>
        <time>2017-07-29T08:23:52Z</time>
      </trkpt>
      <trkpt lat="47.96623" lon="7.03839">
        <ele>1228</ele>
        <time>2017-07-29T08:23:58Z</time>
      </trkpt>
      <trkpt lat="47.96622" lon="7.03824">
        <ele>1228</ele>
        <time>2017-07-29T08:24:06Z</time>
      </trkpt>
      <trkpt lat="47.96625" lon="7.03816">
        <ele>1228</ele>
        <time>2017-07-29T08:24:08Z</time>
      </trkpt>
      <trkpt lat="47.96623" lon="7.03808">
        <ele>1228</ele>
        <time>2017-07-29T08:24:11Z</time>
      </trkpt>
      <trkpt lat="47.96622" lon="7.03797">
        <ele>1228</ele>
        <time>2017-07-29T08:24:15Z</time>
      </trkpt>
      <trkpt lat="47.96618" lon="7.03781">
        <ele>1228</ele>
        <time>2017-07-29T08:24:22Z</time>
      </trkpt>
      <trkpt lat="47.96611" lon="7.03764">
        <ele>1229</ele>
        <time>2017-07-29T08:24:30Z</time>
      </trkpt>
      <trkpt lat="47.96604" lon="7.03741">
        <ele>1228</ele>
        <time>2017-07-29T08:24:38Z</time>
      </trkpt>
      <trkpt lat="47.96604" lon="7.03737">
        <ele>1228</ele>
        <time>2017-07-29T08:24:40Z</time>
      </trkpt>
      <trkpt lat="47.96597" lon="7.03722">
        <ele>1227</ele>
        <time>2017-07-29T08:24:47Z</time>
      </trkpt>
      <trkpt lat="47.96584" lon="7.03679">
        <ele>1225</ele>
        <time>2017-07-29T08:25:05Z</time>
      </trkpt>
      <trkpt lat="47.96578" lon="7.03664">
        <ele>1227</ele>
        <time>2017-07-29T08:25:10Z</time>
      </trkpt>
      <trkpt lat="47.96563" lon="7.03636">
        <ele>1227</ele>
        <time>2017-07-29T08:25:21Z</time>
      </trkpt>
      <trkpt lat="47.96545" lon="7.03619">
        <ele>1228</ele>
        <time>2017-07-29T08:25:32Z</time>
      </trkpt>
      <trkpt lat="47.96536" lon="7.03613">
        <ele>1228</ele>
        <time>2017-07-29T08:25:37Z</time>
      </trkpt>
      <trkpt lat="47.96521" lon="7.03607">
        <ele>1229</ele>
        <time>2017-07-29T08:25:45Z</time>
      </trkpt>
      <trkpt lat="47.96501" lon="7.03606">
        <ele>1229</ele>
        <time>2017-07-29T08:25:54Z</time>
      </trkpt>
      <trkpt lat="47.96482" lon="7.03607">
        <ele>1233</ele>
        <time>2017-07-29T08:26:03Z</time>
      </trkpt>
      <trkpt lat="47.96479" lon="7.03606">
        <ele>1233</ele>
        <time>2017-07-29T08:26:05Z</time>
      </trkpt>
      <trkpt lat="47.96457" lon="7.03608">
        <ele>1233</ele>
        <time>2017-07-29T08:26:18Z</time>
      </trkpt>
      <trkpt lat="47.96442" lon="7.03613">
        <ele>1234</ele>
        <time>2017-07-29T08:26:25Z</time>
      </trkpt>
      <trkpt lat="47.96428" lon="7.03624">
        <ele>1234</ele>
        <time>2017-07-29T08:26:32Z</time>
      </trkpt>
      <trkpt lat="47.96409" lon="7.03632">
        <ele>1233</ele>
        <time>2017-07-29T08:26:41Z</time>
      </trkpt>
      <trkpt lat="47.96389" lon="7.03648">
        <ele>1233</ele>
        <time>2017-07-29T08:26:51Z</time>
      </trkpt>
      <trkpt lat="47.96357" lon="7.03681">
        <ele>1236</ele>
        <time>2017-07-29T08:27:09Z</time>
      </trkpt>
      <trkpt lat="47.96343" lon="7.03696">
        <ele>1237</ele>
        <time>2017-07-29T08:27:17Z</time>
      </trkpt>
      <trkpt lat="47.96338" lon="7.03712">
        <ele>1238</ele>
        <time>2017-07-29T08:27:23Z</time>
      </trkpt>
      <trkpt lat="47.96326" lon="7.03735">
        <ele>1239</ele>
        <time>2017-07-29T08:27:33Z</time>
      </trkpt>
      <trkpt lat="47.96319" lon="7.03748">
        <ele>1239</ele>
        <time>2017-07-29T08:27:40Z</time>
      </trkpt>
      <trkpt lat="47.96305" lon="7.03747">
        <ele>1238</ele>
        <time>2017-07-29T08:27:47Z</time>
      </trkpt>
      <trkpt lat="47.96291" lon="7.03756">
        <ele>1244</ele>
        <time>2017-07-29T08:27:53Z</time>
      </trkpt>
      <trkpt lat="47.96282" lon="7.03769">
        <ele>1244</ele>
        <time>2017-07-29T08:28:02Z</time>
      </trkpt>
      <trkpt lat="47.96278" lon="7.03781">
        <ele>1245</ele>
        <time>2017-07-29T08:28:11Z</time>
      </trkpt>
      <trkpt lat="47.9627" lon="7.03795">
        <ele>1246</ele>
        <time>2017-07-29T08:28:21Z</time>
      </trkpt>
      <trkpt lat="47.96268" lon="7.03806">
        <ele>1247</ele>
        <time>2017-07-29T08:28:27Z</time>
      </trkpt>
      <trkpt lat="47.9626" lon="7.03819">
        <ele>1248</ele>
        <time>2017-07-29T08:28:36Z</time>
      </trkpt>
      <trkpt lat="47.96254" lon="7.03833">
        <ele>1251</ele>
        <time>2017-07-29T08:28:45Z</time>
      </trkpt>
      <trkpt lat="47.96254" lon="7.03834">
        <ele>1252</ele>
        <time>2017-07-29T08:28:47Z</time>
      </trkpt>
      <trkpt lat="47.96228" lon="7.03887">
        <ele>1255</ele>
        <time>2017-07-29T08:29:42Z</time>
      </trkpt>
      <trkpt lat="47.9623" lon="7.03888">
        <ele>1255</ele>
        <time>2017-07-29T08:29:45Z</time>
      </trkpt>
      <trkpt lat="47.96226" lon="7.03885">
        <ele>1255</ele>
        <time>2017-07-29T08:32:41Z</time>
      </trkpt>
      <trkpt lat="47.96207" lon="7.03883">
        <ele>1255</ele>
        <time>2017-07-29T08:32:48Z</time>
      </trkpt>
      <trkpt lat="47.9611" lon="7.03896">
        <ele>1255</ele>
        <time>2017-07-29T08:33:13Z</time>
      </trkpt>
      <trkpt lat="47.96097" lon="7.03896">
        <ele>1255</ele>
        <time>2017-07-29T08:33:19Z</time>
      </trkpt>
      <trkpt lat="47.96062" lon="7.03902">
        <ele>1257</ele>
        <time>2017-07-29T08:33:33Z</time>
      </trkpt>
      <trkpt lat="47.96037" lon="7.03908">
        <ele>1259</ele>
        <time>2017-07-29T08:33:43Z</time>
      </trkpt>
      <trkpt lat="47.96003" lon="7.03921">
        <ele>1262</ele>
        <time>2017-07-29T08:34:05Z</time>
      </trkpt>
      <trkpt lat="47.95994" lon="7.0393">
        <ele>1266</ele>
        <time>2017-07-29T08:34:16Z</time>
      </trkpt>
      <trkpt lat="47.9599" lon="7.03929">
        <ele>1266</ele>
        <time>2017-07-29T08:34:19Z</time>
      </trkpt>
      <trkpt lat="47.95989" lon="7.03929">
        <ele>1266</ele>
        <time>2017-07-29T08:34:22Z</time>
      </trkpt>
      <trkpt lat="47.95918" lon="7.03943">
        <ele>1273</ele>
        <time>2017-07-29T08:37:59Z</time>
      </trkpt>
      <trkpt lat="47.95898" lon="7.03947">
        <ele>1283</ele>
        <time>2017-07-29T08:38:02Z</time>
      </trkpt>
      <trkpt lat="47.95842" lon="7.03953">
        <ele>1286</ele>
        <time>2017-07-29T08:38:19Z</time>
      </trkpt>
      <trkpt lat="47.95834" lon="7.03952">
        <ele>1286</ele>
        <time>2017-07-29T08:38:22Z</time>
      </trkpt>
      <trkpt lat="47.95801" lon="7.03955">
        <ele>1292</ele>
        <time>2017-07-29T08:38:30Z</time>
      </trkpt>
      <trkpt lat="47.9577" lon="7.03965">
        <ele>1293</ele>
        <time>2017-07-29T08:38:34Z</time>
      </trkpt>
      <trkpt lat="47.95763" lon="7.03965">
        <ele>1293</ele>
        <time>2017-07-29T08:38:36Z</time>
      </trkpt>
      <trkpt lat="47.95755" lon="7.03963">
        <ele>1293</ele>
        <time>2017-07-29T08:38:38Z</time>
      </trkpt>
      <trkpt lat="47.95728" lon="7.03964">
        <ele>1297</ele>
        <time>2017-07-29T08:38:48Z</time>
      </trkpt>
      <trkpt lat="47.9572" lon="7.03962">
        <ele>1297</ele>
        <time>2017-07-29T08:38:50Z</time>
      </trkpt>
      <trkpt lat="47.95703" lon="7.03965">
        <ele>1298</ele>
        <time>2017-07-29T08:38:57Z</time>
      </trkpt>
      <trkpt lat="47.95679" lon="7.0396">
        <ele>1299</ele>
        <time>2017-07-29T08:39:11Z</time>
      </trkpt>
      <trkpt lat="47.95678" lon="7.03959">
        <ele>1299</ele>
        <time>2017-07-29T08:39:12Z</time>
      </trkpt>
      <trkpt lat="47.95667" lon="7.03958">
        <ele>1300</ele>
        <time>2017-07-29T08:39:21Z</time>
      </trkpt>
      <trkpt lat="47.95668" lon="7.03958">
        <ele>1300</ele>
        <time>2017-07-29T08:39:22Z</time>
      </trkpt>
      <trkpt lat="47.95667" lon="7.03957">
        <ele>1300</ele>
        <time>2017-07-29T08:39:23Z</time>
      </trkpt>
      <trkpt lat="47.95662" lon="7.03956">
        <ele>1302</ele>
        <time>2017-07-29T08:39:26Z</time>
      </trkpt>
      <trkpt lat="47.95658" lon="7.03954">
        <ele>1302</ele>
        <time>2017-07-29T08:39:28Z</time>
      </trkpt>
      <trkpt lat="47.95655" lon="7.03947">
        <ele>1302</ele>
        <time>2017-07-29T08:39:32Z</time>
      </trkpt>
      <trkpt lat="47.95652" lon="7.03947">
        <ele>1302</ele>
        <time>2017-07-29T08:39:34Z</time>
      </trkpt>
      <trkpt lat="47.9565" lon="7.03948">
        <ele>1302</ele>
        <time>2017-07-29T08:39:36Z</time>
      </trkpt>
      <trkpt lat="47.95647" lon="7.03947">
        <ele>1302</ele>
        <time>2017-07-29T08:39:40Z</time>
      </trkpt>
      <trkpt lat="47.95637" lon="7.03947">
        <ele>1302</ele>
        <time>2017-07-29T08:39:51Z</time>
      </trkpt>
      <trkpt lat="47.9563" lon="7.03948">
        <ele>1302</ele>
        <time>2017-07-29T08:40:00Z</time>
      </trkpt>
      <trkpt lat="47.95622" lon="7.03943">
        <ele>1302</ele>
        <time>2017-07-29T08:40:14Z</time>
      </trkpt>
      <trkpt lat="47.9562" lon="7.03946">
        <ele>1302</ele>
        <time>2017-07-29T08:40:18Z</time>
      </trkpt>
      <trkpt lat="47.95621" lon="7.03949">
        <ele>1302</ele>
        <time>2017-07-29T08:40:21Z</time>
      </trkpt>
      <trkpt lat="47.95611" lon="7.03942">
        <ele>1302</ele>
        <time>2017-07-29T08:44:30Z</time>
      </trkpt>
      <trkpt lat="47.95599" lon="7.03939">
        <ele>1302</ele>
        <time>2017-07-29T08:44:36Z</time>
      </trkpt>
      <trkpt lat="47.95592" lon="7.03932">
        <ele>1303</ele>
        <time>2017-07-29T08:44:43Z</time>
      </trkpt>
      <trkpt lat="47.95586" lon="7.03926">
        <ele>1303</ele>
        <time>2017-07-29T08:44:55Z</time>
      </trkpt>
      <trkpt lat="47.95582" lon="7.03921">
        <ele>1302</ele>
        <time>2017-07-29T08:44:57Z</time>
      </trkpt>
      <trkpt lat="47.95563" lon="7.03906">
        <ele>1300</ele>
        <time>2017-07-29T08:45:05Z</time>
      </trkpt>
      <trkpt lat="47.95558" lon="7.039">
        <ele>1299</ele>
        <time>2017-07-29T08:45:07Z</time>
      </trkpt>
      <trkpt lat="47.95552" lon="7.03889">
        <ele>1299</ele>
        <time>2017-07-29T08:45:12Z</time>
      </trkpt>
      <trkpt lat="47.9555" lon="7.03879">
        <ele>1298</ele>
        <time>2017-07-29T08:45:16Z</time>
      </trkpt>
      <trkpt lat="47.9555" lon="7.03874">
        <ele>1298</ele>
        <time>2017-07-29T08:45:17Z</time>
      </trkpt>
      <trkpt lat="47.95549" lon="7.0387">
        <ele>1298</ele>
        <time>2017-07-29T08:45:18Z</time>
      </trkpt>
      <trkpt lat="47.95546" lon="7.03866">
        <ele>1298</ele>
        <time>2017-07-29T08:45:19Z</time>
      </trkpt>
      <trkpt lat="47.95543" lon="7.03863">
        <ele>1298</ele>
        <time>2017-07-29T08:45:20Z</time>
      </trkpt>
      <trkpt lat="47.95536" lon="7.03867">
        <ele>1297</ele>
        <time>2017-07-29T08:45:21Z</time>
      </trkpt>
      <trkpt lat="47.95513" lon="7.03876">
        <ele>1296</ele>
        <time>2017-07-29T08:45:26Z</time>
      </trkpt>
      <trkpt lat="47.95507" lon="7.03876">
        <ele>1296</ele>
        <time>2017-07-29T08:45:27Z</time>
      </trkpt>
      <trkpt lat="47.95501" lon="7.03873">
        <ele>1296</ele>
        <time>2017-07-29T08:45:28Z</time>
      </trkpt>
      <trkpt lat="47.95485" lon="7.03867">
        <ele>1289</ele>
        <time>2017-07-29T08:45:30Z</time>
      </trkpt>
      <trkpt lat="47.9544" lon="7.03863">
        <ele>1285</ele>
        <time>2017-07-29T08:45:35Z</time>
      </trkpt>
      <trkpt lat="47.95431" lon="7.03866">
        <ele>1284</ele>
        <time>2017-07-29T08:45:36Z</time>
      </trkpt>
      <trkpt lat="47.95413" lon="7.03866">
        <ele>1278</ele>
        <time>2017-07-29T08:45:38Z</time>
      </trkpt>
      <trkpt lat="47.95388" lon="7.03864">
        <ele>1277</ele>
        <time>2017-07-29T08:45:41Z</time>
      </trkpt>
      <trkpt lat="47.95367" lon="7.03866">
        <ele>1276</ele>
        <time>2017-07-29T08:45:44Z</time>
      </trkpt>
      <trkpt lat="47.95348" lon="7.0387">
        <ele>1275</ele>
        <time>2017-07-29T08:45:49Z</time>
      </trkpt>
      <trkpt lat="47.95344" lon="7.03874">
        <ele>1275</ele>
        <time>2017-07-29T08:45:52Z</time>
      </trkpt>
      <trkpt lat="47.95345" lon="7.03875">
        <ele>1275</ele>
        <time>2017-07-29T08:45:55Z</time>
      </trkpt>
      <trkpt lat="47.95334" lon="7.03892">
        <ele>1274</ele>
        <time>2017-07-29T08:46:09Z</time>
      </trkpt>
      <trkpt lat="47.95331" lon="7.03899">
        <ele>1271</ele>
        <time>2017-07-29T08:46:11Z</time>
      </trkpt>
      <trkpt lat="47.95324" lon="7.03906">
        <ele>1271</ele>
        <time>2017-07-29T08:46:13Z</time>
      </trkpt>
      <trkpt lat="47.95319" lon="7.03909">
        <ele>1271</ele>
        <time>2017-07-29T08:46:14Z</time>
      </trkpt>
      <trkpt lat="47.95305" lon="7.03923">
        <ele>1266</ele>
        <time>2017-07-29T08:46:18Z</time>
      </trkpt>
      <trkpt lat="47.95298" lon="7.03935">
        <ele>1264</ele>
        <time>2017-07-29T08:46:22Z</time>
      </trkpt>
      <trkpt lat="47.95288" lon="7.03941">
        <ele>1264</ele>
        <time>2017-07-29T08:46:25Z</time>
      </trkpt>
      <trkpt lat="47.95285" lon="7.03939">
        <ele>1264</ele>
        <time>2017-07-29T08:46:26Z</time>
      </trkpt>
      <trkpt lat="47.95282" lon="7.03938">
        <ele>1264</ele>
        <time>2017-07-29T08:46:27Z</time>
      </trkpt>
      <trkpt lat="47.95269" lon="7.0394">
        <ele>1264</ele>
        <time>2017-07-29T08:46:30Z</time>
      </trkpt>
      <trkpt lat="47.95265" lon="7.03942">
        <ele>1264</ele>
        <time>2017-07-29T08:46:31Z</time>
      </trkpt>
      <trkpt lat="47.95262" lon="7.03949">
        <ele>1263</ele>
        <time>2017-07-29T08:46:33Z</time>
      </trkpt>
      <trkpt lat="47.95254" lon="7.03958">
        <ele>1262</ele>
        <time>2017-07-29T08:46:36Z</time>
      </trkpt>
      <trkpt lat="47.95253" lon="7.03962">
        <ele>1261</ele>
        <time>2017-07-29T08:46:37Z</time>
      </trkpt>
      <trkpt lat="47.95244" lon="7.03973">
        <ele>1260</ele>
        <time>2017-07-29T08:46:40Z</time>
      </trkpt>
      <trkpt lat="47.95238" lon="7.03979">
        <ele>1259</ele>
        <time>2017-07-29T08:46:42Z</time>
      </trkpt>
      <trkpt lat="47.95198" lon="7.03996">
        <ele>1260</ele>
        <time>2017-07-29T08:46:49Z</time>
      </trkpt>
      <trkpt lat="47.95193" lon="7.03996">
        <ele>1260</ele>
        <time>2017-07-29T08:46:50Z</time>
      </trkpt>
      <trkpt lat="47.95171" lon="7.04005">
        <ele>1255</ele>
        <time>2017-07-29T08:46:55Z</time>
      </trkpt>
      <trkpt lat="47.95167" lon="7.04005">
        <ele>1256</ele>
        <time>2017-07-29T08:46:56Z</time>
      </trkpt>
      <trkpt lat="47.9515" lon="7.04011">
        <ele>1251</ele>
        <time>2017-07-29T08:46:59Z</time>
      </trkpt>
      <trkpt lat="47.95135" lon="7.04014">
        <ele>1249</ele>
        <time>2017-07-29T08:47:02Z</time>
      </trkpt>
      <trkpt lat="47.95114" lon="7.04022">
        <ele>1248</ele>
        <time>2017-07-29T08:47:06Z</time>
      </trkpt>
      <trkpt lat="47.95096" lon="7.04032">
        <ele>1247</ele>
        <time>2017-07-29T08:47:09Z</time>
      </trkpt>
      <trkpt lat="47.95084" lon="7.04041">
        <ele>1246</ele>
        <time>2017-07-29T08:47:11Z</time>
      </trkpt>
      <trkpt lat="47.95075" lon="7.04046">
        <ele>1246</ele>
        <time>2017-07-29T08:47:12Z</time>
      </trkpt>
      <trkpt lat="47.95047" lon="7.04056">
        <ele>1245</ele>
        <time>2017-07-29T08:47:17Z</time>
      </trkpt>
      <trkpt lat="47.95039" lon="7.04061">
        <ele>1245</ele>
        <time>2017-07-29T08:47:21Z</time>
      </trkpt>
      <trkpt lat="47.95044" lon="7.0406">
        <ele>1245</ele>
        <time>2017-07-29T08:48:58Z</time>
      </trkpt>
      <trkpt lat="47.95065" lon="7.04045">
        <ele>1246</ele>
        <time>2017-07-29T08:49:10Z</time>
      </trkpt>
      <trkpt lat="47.95085" lon="7.04032">
        <ele>1248</ele>
        <time>2017-07-29T08:49:21Z</time>
      </trkpt>
      <trkpt lat="47.95098" lon="7.04026">
        <ele>1248</ele>
        <time>2017-07-29T08:49:27Z</time>
      </trkpt>
      <trkpt lat="47.9515" lon="7.04008">
        <ele>1252</ele>
        <time>2017-07-29T08:49:58Z</time>
      </trkpt>
      <trkpt lat="47.95153" lon="7.04009">
        <ele>1252</ele>
        <time>2017-07-29T08:50:01Z</time>
      </trkpt>
      <trkpt lat="47.95167" lon="7.04002">
        <ele>1258</ele>
        <time>2017-07-29T08:50:07Z</time>
      </trkpt>
      <trkpt lat="47.95177" lon="7.04">
        <ele>1253</ele>
        <time>2017-07-29T08:50:13Z</time>
      </trkpt>
      <trkpt lat="47.95181" lon="7.04001">
        <ele>1252</ele>
        <time>2017-07-29T08:50:16Z</time>
      </trkpt>
      <trkpt lat="47.95193" lon="7.03997">
        <ele>1260</ele>
        <time>2017-07-29T08:50:22Z</time>
      </trkpt>
      <trkpt lat="47.95217" lon="7.03983">
        <ele>1260</ele>
        <time>2017-07-29T08:50:35Z</time>
      </trkpt>
      <trkpt lat="47.95221" lon="7.03982">
        <ele>1260</ele>
        <time>2017-07-29T08:50:37Z</time>
      </trkpt>
      <trkpt lat="47.95242" lon="7.03964">
        <ele>1261</ele>
        <time>2017-07-29T08:50:50Z</time>
      </trkpt>
      <trkpt lat="47.95256" lon="7.03944">
        <ele>1263</ele>
        <time>2017-07-29T08:51:01Z</time>
      </trkpt>
      <trkpt lat="47.95263" lon="7.03939">
        <ele>1264</ele>
        <time>2017-07-29T08:51:05Z</time>
      </trkpt>
      <trkpt lat="47.95274" lon="7.03923">
        <ele>1265</ele>
        <time>2017-07-29T08:51:17Z</time>
      </trkpt>
      <trkpt lat="47.95278" lon="7.03899">
        <ele>1270</ele>
        <time>2017-07-29T08:52:00Z</time>
      </trkpt>
      <trkpt lat="47.95286" lon="7.03876">
        <ele>1271</ele>
        <time>2017-07-29T08:52:07Z</time>
      </trkpt>
      <trkpt lat="47.95287" lon="7.03868">
        <ele>1271</ele>
        <time>2017-07-29T08:52:09Z</time>
      </trkpt>
      <trkpt lat="47.95289" lon="7.0381">
        <ele>1271</ele>
        <time>2017-07-29T08:52:21Z</time>
      </trkpt>
      <trkpt lat="47.95295" lon="7.03785">
        <ele>1271</ele>
        <time>2017-07-29T08:52:26Z</time>
      </trkpt>
      <trkpt lat="47.95296" lon="7.0378">
        <ele>1270</ele>
        <time>2017-07-29T08:52:27Z</time>
      </trkpt>
      <trkpt lat="47.95295" lon="7.03765">
        <ele>1270</ele>
        <time>2017-07-29T08:52:29Z</time>
      </trkpt>
      <trkpt lat="47.95293" lon="7.03748">
        <ele>1268</ele>
        <time>2017-07-29T08:52:31Z</time>
      </trkpt>
      <trkpt lat="47.95286" lon="7.03726">
        <ele>1268</ele>
        <time>2017-07-29T08:52:33Z</time>
      </trkpt>
      <trkpt lat="47.95282" lon="7.03702">
        <ele>1267</ele>
        <time>2017-07-29T08:52:35Z</time>
      </trkpt>
      <trkpt lat="47.95272" lon="7.03658">
        <ele>1263</ele>
        <time>2017-07-29T08:52:39Z</time>
      </trkpt>
      <trkpt lat="47.95264" lon="7.03641">
        <ele>1262</ele>
        <time>2017-07-29T08:52:41Z</time>
      </trkpt>
      <trkpt lat="47.95258" lon="7.03625">
        <ele>1261</ele>
        <time>2017-07-29T08:52:44Z</time>
      </trkpt>
      <trkpt lat="47.95252" lon="7.03601">
        <ele>1259</ele>
        <time>2017-07-29T08:52:47Z</time>
      </trkpt>
      <trkpt lat="47.95237" lon="7.03564">
        <ele>1254</ele>
        <time>2017-07-29T08:52:51Z</time>
      </trkpt>
      <trkpt lat="47.95216" lon="7.03503">
        <ele>1252</ele>
        <time>2017-07-29T08:52:59Z</time>
      </trkpt>
      <trkpt lat="47.95205" lon="7.03477">
        <ele>1249</ele>
        <time>2017-07-29T08:53:09Z</time>
      </trkpt>
      <trkpt lat="47.95201" lon="7.03469">
        <ele>1249</ele>
        <time>2017-07-29T08:53:25Z</time>
      </trkpt>
      <trkpt lat="47.95194" lon="7.03457">
        <ele>1248</ele>
        <time>2017-07-29T08:53:31Z</time>
      </trkpt>
      <trkpt lat="47.95185" lon="7.0345">
        <ele>1248</ele>
        <time>2017-07-29T08:53:35Z</time>
      </trkpt>
      <trkpt lat="47.95182" lon="7.03451">
        <ele>1248</ele>
        <time>2017-07-29T08:53:37Z</time>
      </trkpt>
      <trkpt lat="47.95176" lon="7.03439">
        <ele>1248</ele>
        <time>2017-07-29T08:53:46Z</time>
      </trkpt>
      <trkpt lat="47.95179" lon="7.03421">
        <ele>1248</ele>
        <time>2017-07-29T08:53:53Z</time>
      </trkpt>
      <trkpt lat="47.95183" lon="7.03402">
        <ele>1247</ele>
        <time>2017-07-29T08:53:59Z</time>
      </trkpt>
      <trkpt lat="47.95186" lon="7.0337">
        <ele>1247</ele>
        <time>2017-07-29T08:54:08Z</time>
      </trkpt>
      <trkpt lat="47.95187" lon="7.03339">
        <ele>1248</ele>
        <time>2017-07-29T08:54:16Z</time>
      </trkpt>
      <trkpt lat="47.9518" lon="7.03326">
        <ele>1249</ele>
        <time>2017-07-29T08:54:22Z</time>
      </trkpt>
      <trkpt lat="47.95169" lon="7.03318">
        <ele>1249</ele>
        <time>2017-07-29T08:54:28Z</time>
      </trkpt>
      <trkpt lat="47.95158" lon="7.03302">
        <ele>1253</ele>
        <time>2017-07-29T08:54:35Z</time>
      </trkpt>
      <trkpt lat="47.95147" lon="7.03284">
        <ele>1254</ele>
        <time>2017-07-29T08:54:41Z</time>
      </trkpt>
      <trkpt lat="47.95146" lon="7.03271">
        <ele>1254</ele>
        <time>2017-07-29T08:54:48Z</time>
      </trkpt>
      <trkpt lat="47.95135" lon="7.03257">
        <ele>1254</ele>
        <time>2017-07-29T08:54:58Z</time>
      </trkpt>
      <trkpt lat="47.95127" lon="7.03247">
        <ele>1256</ele>
        <time>2017-07-29T08:55:05Z</time>
      </trkpt>
      <trkpt lat="47.95122" lon="7.03246">
        <ele>1256</ele>
        <time>2017-07-29T08:55:08Z</time>
      </trkpt>
      <trkpt lat="47.95117" lon="7.03242">
        <ele>1256</ele>
        <time>2017-07-29T08:55:12Z</time>
      </trkpt>
      <trkpt lat="47.95105" lon="7.03229">
        <ele>1257</ele>
        <time>2017-07-29T08:55:21Z</time>
      </trkpt>
      <trkpt lat="47.95102" lon="7.03223">
        <ele>1257</ele>
        <time>2017-07-29T08:55:25Z</time>
      </trkpt>
      <trkpt lat="47.95096" lon="7.03219">
        <ele>1257</ele>
        <time>2017-07-29T08:55:28Z</time>
      </trkpt>
      <trkpt lat="47.95085" lon="7.03209">
        <ele>1258</ele>
        <time>2017-07-29T08:55:36Z</time>
      </trkpt>
      <trkpt lat="47.95083" lon="7.03202">
        <ele>1262</ele>
        <time>2017-07-29T08:55:39Z</time>
      </trkpt>
      <trkpt lat="47.95077" lon="7.03194">
        <ele>1262</ele>
        <time>2017-07-29T08:55:44Z</time>
      </trkpt>
      <trkpt lat="47.95061" lon="7.03179">
        <ele>1262</ele>
        <time>2017-07-29T08:55:50Z</time>
      </trkpt>
      <trkpt lat="47.95047" lon="7.0316">
        <ele>1264</ele>
        <time>2017-07-29T08:55:55Z</time>
      </trkpt>
      <trkpt lat="47.95044" lon="7.03151">
        <ele>1264</ele>
        <time>2017-07-29T08:55:57Z</time>
      </trkpt>
      <trkpt lat="47.95038" lon="7.03144">
        <ele>1265</ele>
        <time>2017-07-29T08:55:59Z</time>
      </trkpt>
      <trkpt lat="47.95035" lon="7.03131">
        <ele>1265</ele>
        <time>2017-07-29T08:56:05Z</time>
      </trkpt>
      <trkpt lat="47.95028" lon="7.03117">
        <ele>1265</ele>
        <time>2017-07-29T08:56:13Z</time>
      </trkpt>
      <trkpt lat="47.95024" lon="7.03112">
        <ele>1266</ele>
        <time>2017-07-29T08:56:16Z</time>
      </trkpt>
      <trkpt lat="47.95014" lon="7.03102">
        <ele>1266</ele>
        <time>2017-07-29T08:56:21Z</time>
      </trkpt>
      <trkpt lat="47.94993" lon="7.03088">
        <ele>1269</ele>
        <time>2017-07-29T08:56:31Z</time>
      </trkpt>
      <trkpt lat="47.94984" lon="7.03084">
        <ele>1270</ele>
        <time>2017-07-29T08:56:34Z</time>
      </trkpt>
      <trkpt lat="47.94964" lon="7.0307">
        <ele>1272</ele>
        <time>2017-07-29T08:56:43Z</time>
      </trkpt>
      <trkpt lat="47.94955" lon="7.03057">
        <ele>1272</ele>
        <time>2017-07-29T08:56:49Z</time>
      </trkpt>
      <trkpt lat="47.94951" lon="7.0305">
        <ele>1273</ele>
        <time>2017-07-29T08:56:52Z</time>
      </trkpt>
      <trkpt lat="47.94923" lon="7.03001">
        <ele>1274</ele>
        <time>2017-07-29T08:57:12Z</time>
      </trkpt>
      <trkpt lat="47.94917" lon="7.02987">
        <ele>1274</ele>
        <time>2017-07-29T08:57:19Z</time>
      </trkpt>
      <trkpt lat="47.94916" lon="7.02965">
        <ele>1275</ele>
        <time>2017-07-29T08:57:27Z</time>
      </trkpt>
      <trkpt lat="47.94912" lon="7.02939">
        <ele>1275</ele>
        <time>2017-07-29T08:57:34Z</time>
      </trkpt>
      <trkpt lat="47.94893" lon="7.0281">
        <ele>1273</ele>
        <time>2017-07-29T08:58:07Z</time>
      </trkpt>
      <trkpt lat="47.94883" lon="7.0276">
        <ele>1273</ele>
        <time>2017-07-29T08:58:18Z</time>
      </trkpt>
      <trkpt lat="47.94874" lon="7.02707">
        <ele>1272</ele>
        <time>2017-07-29T08:58:28Z</time>
      </trkpt>
      <trkpt lat="47.94863" lon="7.02657">
        <ele>1271</ele>
        <time>2017-07-29T08:58:38Z</time>
      </trkpt>
      <trkpt lat="47.94856" lon="7.02629">
        <ele>1271</ele>
        <time>2017-07-29T08:58:44Z</time>
      </trkpt>
      <trkpt lat="47.94846" lon="7.02594">
        <ele>1271</ele>
        <time>2017-07-29T08:58:52Z</time>
      </trkpt>
      <trkpt lat="47.94827" lon="7.02536">
        <ele>1274</ele>
        <time>2017-07-29T08:59:05Z</time>
      </trkpt>
      <trkpt lat="47.94814" lon="7.02504">
        <ele>1273</ele>
        <time>2017-07-29T08:59:14Z</time>
      </trkpt>
      <trkpt lat="47.94792" lon="7.02462">
        <ele>1272</ele>
        <time>2017-07-29T08:59:27Z</time>
      </trkpt>
      <trkpt lat="47.9478" lon="7.02444">
        <ele>1272</ele>
        <time>2017-07-29T08:59:32Z</time>
      </trkpt>
      <trkpt lat="47.94753" lon="7.02418">
        <ele>1273</ele>
        <time>2017-07-29T08:59:40Z</time>
      </trkpt>
      <trkpt lat="47.9473" lon="7.02402">
        <ele>1270</ele>
        <time>2017-07-29T08:59:47Z</time>
      </trkpt>
      <trkpt lat="47.94701" lon="7.02386">
        <ele>1269</ele>
        <time>2017-07-29T08:59:54Z</time>
      </trkpt>
      <trkpt lat="47.94679" lon="7.02372">
        <ele>1268</ele>
        <time>2017-07-29T08:59:58Z</time>
      </trkpt>
      <trkpt lat="47.94665" lon="7.02367">
        <ele>1265</ele>
        <time>2017-07-29T09:00:00Z</time>
      </trkpt>
      <trkpt lat="47.94627" lon="7.02355">
        <ele>1265</ele>
        <time>2017-07-29T09:00:05Z</time>
      </trkpt>
      <trkpt lat="47.94608" lon="7.02347">
        <ele>1264</ele>
        <time>2017-07-29T09:00:08Z</time>
      </trkpt>
      <trkpt lat="47.94578" lon="7.02332">
        <ele>1261</ele>
        <time>2017-07-29T09:00:18Z</time>
      </trkpt>
      <trkpt lat="47.94572" lon="7.02321">
        <ele>1260</ele>
        <time>2017-07-29T09:00:24Z</time>
      </trkpt>
      <trkpt lat="47.94571" lon="7.02314">
        <ele>1260</ele>
        <time>2017-07-29T09:00:30Z</time>
      </trkpt>
      <trkpt lat="47.9458" lon="7.02312">
        <ele>1260</ele>
        <time>2017-07-29T09:00:35Z</time>
      </trkpt>
      <trkpt lat="47.9459" lon="7.02315">
        <ele>1261</ele>
        <time>2017-07-29T09:00:39Z</time>
      </trkpt>
      <trkpt lat="47.94596" lon="7.02315">
        <ele>1261</ele>
        <time>2017-07-29T09:00:44Z</time>
      </trkpt>
      <trkpt lat="47.94596" lon="7.02314">
        <ele>1261</ele>
        <time>2017-07-29T09:00:45Z</time>
      </trkpt>
      <trkpt lat="47.94598" lon="7.02312">
        <ele>1261</ele>
        <time>2017-07-29T09:02:22Z</time>
      </trkpt>
      <trkpt lat="47.946" lon="7.0231">
        <ele>1260</ele>
        <time>2017-07-29T09:02:23Z</time>
      </trkpt>
      <trkpt lat="47.94623" lon="7.02298">
        <ele>1260</ele>
        <time>2017-07-29T09:02:28Z</time>
      </trkpt>
      <trkpt lat="47.94627" lon="7.02292">
        <ele>1260</ele>
        <time>2017-07-29T09:02:30Z</time>
      </trkpt>
      <trkpt lat="47.94639" lon="7.02267">
        <ele>1258</ele>
        <time>2017-07-29T09:02:35Z</time>
      </trkpt>
      <trkpt lat="47.94655" lon="7.02243">
        <ele>1252</ele>
        <time>2017-07-29T09:02:39Z</time>
      </trkpt>
      <trkpt lat="47.94671" lon="7.02225">
        <ele>1250</ele>
        <time>2017-07-29T09:02:42Z</time>
      </trkpt>
      <trkpt lat="47.94698" lon="7.022">
        <ele>1247</ele>
        <time>2017-07-29T09:02:46Z</time>
      </trkpt>
      <trkpt lat="47.94715" lon="7.02186">
        <ele>1246</ele>
        <time>2017-07-29T09:02:48Z</time>
      </trkpt>
      <trkpt lat="47.94732" lon="7.0217">
        <ele>1245</ele>
        <time>2017-07-29T09:02:50Z</time>
      </trkpt>
      <trkpt lat="47.94751" lon="7.02148">
        <ele>1235</ele>
        <time>2017-07-29T09:02:53Z</time>
      </trkpt>
      <trkpt lat="47.94768" lon="7.02131">
        <ele>1230</ele>
        <time>2017-07-29T09:02:55Z</time>
      </trkpt>
      <trkpt lat="47.94818" lon="7.02086">
        <ele>1224</ele>
        <time>2017-07-29T09:03:01Z</time>
      </trkpt>
      <trkpt lat="47.94871" lon="7.02064">
        <ele>1211</ele>
        <time>2017-07-29T09:03:07Z</time>
      </trkpt>
      <trkpt lat="47.94887" lon="7.02056">
        <ele>1210</ele>
        <time>2017-07-29T09:03:09Z</time>
      </trkpt>
      <trkpt lat="47.94951" lon="7.02028">
        <ele>1206</ele>
        <time>2017-07-29T09:03:17Z</time>
      </trkpt>
      <trkpt lat="47.94964" lon="7.02023">
        <ele>1206</ele>
        <time>2017-07-29T09:03:19Z</time>
      </trkpt>
      <trkpt lat="47.94997" lon="7.02009">
        <ele>1202</ele>
        <time>2017-07-29T09:03:25Z</time>
      </trkpt>
      <trkpt lat="47.95009" lon="7.02">
        <ele>1200</ele>
        <time>2017-07-29T09:03:28Z</time>
      </trkpt>
      <trkpt lat="47.95021" lon="7.01996">
        <ele>1194</ele>
        <time>2017-07-29T09:03:31Z</time>
      </trkpt>
      <trkpt lat="47.95046" lon="7.01983">
        <ele>1191</ele>
        <time>2017-07-29T09:03:36Z</time>
      </trkpt>
      <trkpt lat="47.95061" lon="7.0198">
        <ele>1190</ele>
        <time>2017-07-29T09:03:38Z</time>
      </trkpt>
      <trkpt lat="47.95071" lon="7.01977">
        <ele>1190</ele>
        <time>2017-07-29T09:03:40Z</time>
      </trkpt>
      <trkpt lat="47.95096" lon="7.01972">
        <ele>1187</ele>
        <time>2017-07-29T09:03:45Z</time>
      </trkpt>
      <trkpt lat="47.95132" lon="7.01968">
        <ele>1186</ele>
        <time>2017-07-29T09:03:50Z</time>
      </trkpt>
      <trkpt lat="47.95146" lon="7.01964">
        <ele>1186</ele>
        <time>2017-07-29T09:03:52Z</time>
      </trkpt>
      <trkpt lat="47.95161" lon="7.01955">
        <ele>1185</ele>
        <time>2017-07-29T09:03:54Z</time>
      </trkpt>
      <trkpt lat="47.95193" lon="7.01932">
        <ele>1180</ele>
        <time>2017-07-29T09:03:58Z</time>
      </trkpt>
      <trkpt lat="47.95231" lon="7.01901">
        <ele>1176</ele>
        <time>2017-07-29T09:04:03Z</time>
      </trkpt>
      <trkpt lat="47.95252" lon="7.01881">
        <ele>1166</ele>
        <time>2017-07-29T09:04:06Z</time>
      </trkpt>
      <trkpt lat="47.95264" lon="7.01864">
        <ele>1165</ele>
        <time>2017-07-29T09:04:08Z</time>
      </trkpt>
      <trkpt lat="47.95278" lon="7.01834">
        <ele>1165</ele>
        <time>2017-07-29T09:04:11Z</time>
      </trkpt>
      <trkpt lat="47.95286" lon="7.01815">
        <ele>1168</ele>
        <time>2017-07-29T09:04:13Z</time>
      </trkpt>
      <trkpt lat="47.95319" lon="7.01738">
        <ele>1172</ele>
        <time>2017-07-29T09:04:23Z</time>
      </trkpt>
      <trkpt lat="47.95325" lon="7.01727">
        <ele>1173</ele>
        <time>2017-07-29T09:04:25Z</time>
      </trkpt>
      <trkpt lat="47.9534" lon="7.01689">
        <ele>1167</ele>
        <time>2017-07-29T09:04:32Z</time>
      </trkpt>
      <trkpt lat="47.95348" lon="7.0166">
        <ele>1174</ele>
        <time>2017-07-29T09:04:37Z</time>
      </trkpt>
      <trkpt lat="47.95349" lon="7.01647">
        <ele>1173</ele>
        <time>2017-07-29T09:04:39Z</time>
      </trkpt>
      <trkpt lat="47.95352" lon="7.01605">
        <ele>1172</ele>
        <time>2017-07-29T09:04:45Z</time>
      </trkpt>
      <trkpt lat="47.95355" lon="7.01591">
        <ele>1173</ele>
        <time>2017-07-29T09:04:47Z</time>
      </trkpt>
      <trkpt lat="47.95362" lon="7.0157">
        <ele>1174</ele>
        <time>2017-07-29T09:04:50Z</time>
      </trkpt>
      <trkpt lat="47.95365" lon="7.01557">
        <ele>1174</ele>
        <time>2017-07-29T09:04:52Z</time>
      </trkpt>
      <trkpt lat="47.95371" lon="7.01539">
        <ele>1175</ele>
        <time>2017-07-29T09:04:56Z</time>
      </trkpt>
      <trkpt lat="47.95377" lon="7.01513">
        <ele>1175</ele>
        <time>2017-07-29T09:05:03Z</time>
      </trkpt>
      <trkpt lat="47.95378" lon="7.01476">
        <ele>1176</ele>
        <time>2017-07-29T09:05:11Z</time>
      </trkpt>
      <trkpt lat="47.95385" lon="7.01446">
        <ele>1176</ele>
        <time>2017-07-29T09:05:18Z</time>
      </trkpt>
      <trkpt lat="47.95389" lon="7.01433">
        <ele>1177</ele>
        <time>2017-07-29T09:05:21Z</time>
      </trkpt>
      <trkpt lat="47.95398" lon="7.01383">
        <ele>1174</ele>
        <time>2017-07-29T09:05:33Z</time>
      </trkpt>
      <trkpt lat="47.95401" lon="7.01371">
        <ele>1174</ele>
        <time>2017-07-29T09:05:36Z</time>
      </trkpt>
      <trkpt lat="47.95405" lon="7.01361">
        <ele>1174</ele>
        <time>2017-07-29T09:05:39Z</time>
      </trkpt>
      <trkpt lat="47.95417" lon="7.01319">
        <ele>1183</ele>
        <time>2017-07-29T09:05:49Z</time>
      </trkpt>
      <trkpt lat="47.95428" lon="7.01291">
        <ele>1186</ele>
        <time>2017-07-29T09:05:57Z</time>
      </trkpt>
      <trkpt lat="47.95431" lon="7.01279">
        <ele>1185</ele>
        <time>2017-07-29T09:06:00Z</time>
      </trkpt>
      <trkpt lat="47.95439" lon="7.01252">
        <ele>1185</ele>
        <time>2017-07-29T09:06:08Z</time>
      </trkpt>
      <trkpt lat="47.95448" lon="7.01227">
        <ele>1188</ele>
        <time>2017-07-29T09:06:15Z</time>
      </trkpt>
      <trkpt lat="47.95451" lon="7.01212">
        <ele>1188</ele>
        <time>2017-07-29T09:06:19Z</time>
      </trkpt>
      <trkpt lat="47.95464" lon="7.01171">
        <ele>1190</ele>
        <time>2017-07-29T09:06:32Z</time>
      </trkpt>
      <trkpt lat="47.95472" lon="7.01135">
        <ele>1188</ele>
        <time>2017-07-29T09:06:42Z</time>
      </trkpt>
      <trkpt lat="47.95482" lon="7.011">
        <ele>1191</ele>
        <time>2017-07-29T09:06:51Z</time>
      </trkpt>
      <trkpt lat="47.95488" lon="7.01078">
        <ele>1193</ele>
        <time>2017-07-29T09:06:58Z</time>
      </trkpt>
      <trkpt lat="47.95488" lon="7.01062">
        <ele>1190</ele>
        <time>2017-07-29T09:07:04Z</time>
      </trkpt>
      <trkpt lat="47.9549" lon="7.01038">
        <ele>1188</ele>
        <time>2017-07-29T09:07:11Z</time>
      </trkpt>
      <trkpt lat="47.95491" lon="7.01014">
        <ele>1192</ele>
        <time>2017-07-29T09:07:17Z</time>
      </trkpt>
      <trkpt lat="47.95493" lon="7.01001">
        <ele>1196</ele>
        <time>2017-07-29T09:07:20Z</time>
      </trkpt>
      <trkpt lat="47.95494" lon="7.00985">
        <ele>1192</ele>
        <time>2017-07-29T09:07:24Z</time>
      </trkpt>
      <trkpt lat="47.95497" lon="7.00963">
        <ele>1188</ele>
        <time>2017-07-29T09:07:30Z</time>
      </trkpt>
      <trkpt lat="47.95501" lon="7.00947">
        <ele>1208</ele>
        <time>2017-07-29T09:07:36Z</time>
      </trkpt>
      <trkpt lat="47.95507" lon="7.00898">
        <ele>1207</ele>
        <time>2017-07-29T09:07:51Z</time>
      </trkpt>
      <trkpt lat="47.95507" lon="7.0089">
        <ele>1208</ele>
        <time>2017-07-29T09:07:53Z</time>
      </trkpt>
      <trkpt lat="47.95516" lon="7.00851">
        <ele>1206</ele>
        <time>2017-07-29T09:08:05Z</time>
      </trkpt>
      <trkpt lat="47.95518" lon="7.00829">
        <ele>1203</ele>
        <time>2017-07-29T09:08:11Z</time>
      </trkpt>
      <trkpt lat="47.95518" lon="7.00808">
        <ele>1204</ele>
        <time>2017-07-29T09:08:17Z</time>
      </trkpt>
      <trkpt lat="47.95517" lon="7.00804">
        <ele>1204</ele>
        <time>2017-07-29T09:08:18Z</time>
      </trkpt>
      <trkpt lat="47.95522" lon="7.00789">
        <ele>1205</ele>
        <time>2017-07-29T09:08:22Z</time>
      </trkpt>
      <trkpt lat="47.95526" lon="7.00756">
        <ele>1202</ele>
        <time>2017-07-29T09:08:30Z</time>
      </trkpt>
      <trkpt lat="47.95535" lon="7.00724">
        <ele>1200</ele>
        <time>2017-07-29T09:08:39Z</time>
      </trkpt>
      <trkpt lat="47.9554" lon="7.00709">
        <ele>1200</ele>
        <time>2017-07-29T09:08:43Z</time>
      </trkpt>
      <trkpt lat="47.95552" lon="7.00672">
        <ele>1200</ele>
        <time>2017-07-29T09:08:52Z</time>
      </trkpt>
      <trkpt lat="47.9556" lon="7.00653">
        <ele>1195</ele>
        <time>2017-07-29T09:08:57Z</time>
      </trkpt>
      <trkpt lat="47.9557" lon="7.00636">
        <ele>1194</ele>
        <time>2017-07-29T09:09:02Z</time>
      </trkpt>
      <trkpt lat="47.95585" lon="7.00622">
        <ele>1202</ele>
        <time>2017-07-29T09:09:08Z</time>
      </trkpt>
      <trkpt lat="47.95598" lon="7.00619">
        <ele>1201</ele>
        <time>2017-07-29T09:09:12Z</time>
      </trkpt>
      <trkpt lat="47.95659" lon="7.00595">
        <ele>1200</ele>
        <time>2017-07-29T09:09:24Z</time>
      </trkpt>
      <trkpt lat="47.95685" lon="7.00581">
        <ele>1196</ele>
        <time>2017-07-29T09:09:30Z</time>
      </trkpt>
      <trkpt lat="47.95698" lon="7.00569">
        <ele>1196</ele>
        <time>2017-07-29T09:09:35Z</time>
      </trkpt>
      <trkpt lat="47.95756" lon="7.00525">
        <ele>1201</ele>
        <time>2017-07-29T09:09:50Z</time>
      </trkpt>
      <trkpt lat="47.95792" lon="7.00512">
        <ele>1203</ele>
        <time>2017-07-29T09:09:58Z</time>
      </trkpt>
      <trkpt lat="47.95809" lon="7.00502">
        <ele>1204</ele>
        <time>2017-07-29T09:10:04Z</time>
      </trkpt>
      <trkpt lat="47.95823" lon="7.00491">
        <ele>1200</ele>
        <time>2017-07-29T09:10:10Z</time>
      </trkpt>
      <trkpt lat="47.95839" lon="7.00487">
        <ele>1203</ele>
        <time>2017-07-29T09:10:16Z</time>
      </trkpt>
      <trkpt lat="47.95885" lon="7.00484">
        <ele>1201</ele>
        <time>2017-07-29T09:10:26Z</time>
      </trkpt>
      <trkpt lat="47.95901" lon="7.00485">
        <ele>1202</ele>
        <time>2017-07-29T09:10:29Z</time>
      </trkpt>
      <trkpt lat="47.95907" lon="7.00484">
        <ele>1202</ele>
        <time>2017-07-29T09:10:30Z</time>
      </trkpt>
      <trkpt lat="47.95928" lon="7.00476">
        <ele>1204</ele>
        <time>2017-07-29T09:10:33Z</time>
      </trkpt>
      <trkpt lat="47.95953" lon="7.00463">
        <ele>1204</ele>
        <time>2017-07-29T09:10:37Z</time>
      </trkpt>
      <trkpt lat="47.95957" lon="7.00459">
        <ele>1204</ele>
        <time>2017-07-29T09:10:38Z</time>
      </trkpt>
      <trkpt lat="47.95966" lon="7.00447">
        <ele>1204</ele>
        <time>2017-07-29T09:10:41Z</time>
      </trkpt>
      <trkpt lat="47.95972" lon="7.00433">
        <ele>1205</ele>
        <time>2017-07-29T09:10:46Z</time>
      </trkpt>
      <trkpt lat="47.95995" lon="7.00391">
        <ele>1203</ele>
        <time>2017-07-29T09:10:59Z</time>
      </trkpt>
      <trkpt lat="47.96" lon="7.00385">
        <ele>1212</ele>
        <time>2017-07-29T09:11:01Z</time>
      </trkpt>
      <trkpt lat="47.96012" lon="7.00374">
        <ele>1213</ele>
        <time>2017-07-29T09:11:08Z</time>
      </trkpt>
      <trkpt lat="47.96018" lon="7.00364">
        <ele>1213</ele>
        <time>2017-07-29T09:11:13Z</time>
      </trkpt>
      <trkpt lat="47.96021" lon="7.00361">
        <ele>1213</ele>
        <time>2017-07-29T09:11:15Z</time>
      </trkpt>
      <trkpt lat="47.96024" lon="7.00355">
        <ele>1213</ele>
        <time>2017-07-29T09:11:18Z</time>
      </trkpt>
      <trkpt lat="47.96036" lon="7.00341">
        <ele>1214</ele>
        <time>2017-07-29T09:11:24Z</time>
      </trkpt>
      <trkpt lat="47.96048" lon="7.00319">
        <ele>1211</ele>
        <time>2017-07-29T09:11:33Z</time>
      </trkpt>
      <trkpt lat="47.9605" lon="7.00314">
        <ele>1211</ele>
        <time>2017-07-29T09:11:37Z</time>
      </trkpt>
      <trkpt lat="47.96053" lon="7.00308">
        <ele>1211</ele>
        <time>2017-07-29T09:11:39Z</time>
      </trkpt>
      <trkpt lat="47.96055" lon="7.00306">
        <ele>1211</ele>
        <time>2017-07-29T09:11:40Z</time>
      </trkpt>
      <trkpt lat="47.96057" lon="7.00305">
        <ele>1211</ele>
        <time>2017-07-29T09:11:41Z</time>
      </trkpt>
      <trkpt lat="47.96063" lon="7.00294">
        <ele>1211</ele>
        <time>2017-07-29T09:11:46Z</time>
      </trkpt>
      <trkpt lat="47.96065" lon="7.00292">
        <ele>1211</ele>
        <time>2017-07-29T09:11:48Z</time>
      </trkpt>
      <trkpt lat="47.96072" lon="7.0028">
        <ele>1211</ele>
        <time>2017-07-29T09:11:53Z</time>
      </trkpt>
      <trkpt lat="47.96087" lon="7.0026">
        <ele>1217</ele>
        <time>2017-07-29T09:11:59Z</time>
      </trkpt>
      <trkpt lat="47.96095" lon="7.00243">
        <ele>1214</ele>
        <time>2017-07-29T09:12:05Z</time>
      </trkpt>
      <trkpt lat="47.96106" lon="7.00234">
        <ele>1215</ele>
        <time>2017-07-29T09:12:12Z</time>
      </trkpt>
      <trkpt lat="47.96122" lon="7.00216">
        <ele>1215</ele>
        <time>2017-07-29T09:12:21Z</time>
      </trkpt>
      <trkpt lat="47.96143" lon="7.0019">
        <ele>1216</ele>
        <time>2017-07-29T09:12:30Z</time>
      </trkpt>
      <trkpt lat="47.96156" lon="7.00172">
        <ele>1218</ele>
        <time>2017-07-29T09:12:38Z</time>
      </trkpt>
      <trkpt lat="47.96181" lon="7.0012">
        <ele>1219</ele>
        <time>2017-07-29T09:12:52Z</time>
      </trkpt>
      <trkpt lat="47.9619" lon="7.00097">
        <ele>1218</ele>
        <time>2017-07-29T09:12:57Z</time>
      </trkpt>
      <trkpt lat="47.96201" lon="7.00056">
        <ele>1217</ele>
        <time>2017-07-29T09:13:05Z</time>
      </trkpt>
      <trkpt lat="47.96208" lon="6.99991">
        <ele>1214</ele>
        <time>2017-07-29T09:13:18Z</time>
      </trkpt>
      <trkpt lat="47.96213" lon="6.99958">
        <ele>1214</ele>
        <time>2017-07-29T09:13:25Z</time>
      </trkpt>
      <trkpt lat="47.96221" lon="6.99928">
        <ele>1215</ele>
        <time>2017-07-29T09:13:32Z</time>
      </trkpt>
      <trkpt lat="47.96225" lon="6.99917">
        <ele>1216</ele>
        <time>2017-07-29T09:13:35Z</time>
      </trkpt>
      <trkpt lat="47.96227" lon="6.99913">
        <ele>1213</ele>
        <time>2017-07-29T09:13:36Z</time>
      </trkpt>
      <trkpt lat="47.96229" lon="6.99897">
        <ele>1213</ele>
        <time>2017-07-29T09:13:40Z</time>
      </trkpt>
      <trkpt lat="47.96241" lon="6.99866">
        <ele>1211</ele>
        <time>2017-07-29T09:13:47Z</time>
      </trkpt>
      <trkpt lat="47.96249" lon="6.99847">
        <ele>1213</ele>
        <time>2017-07-29T09:13:52Z</time>
      </trkpt>
      <trkpt lat="47.96259" lon="6.99829">
        <ele>1215</ele>
        <time>2017-07-29T09:13:56Z</time>
      </trkpt>
      <trkpt lat="47.96272" lon="6.9981">
        <ele>1214</ele>
        <time>2017-07-29T09:14:00Z</time>
      </trkpt>
      <trkpt lat="47.96303" lon="6.99786">
        <ele>1214</ele>
        <time>2017-07-29T09:14:07Z</time>
      </trkpt>
      <trkpt lat="47.96331" lon="6.99773">
        <ele>1214</ele>
        <time>2017-07-29T09:14:13Z</time>
      </trkpt>
      <trkpt lat="47.9634" lon="6.99772">
        <ele>1217</ele>
        <time>2017-07-29T09:14:17Z</time>
      </trkpt>
      <trkpt lat="47.96351" lon="6.9976">
        <ele>1216</ele>
        <time>2017-07-29T09:14:22Z</time>
      </trkpt>
      <trkpt lat="47.96367" lon="6.99747">
        <ele>1210</ele>
        <time>2017-07-29T09:14:28Z</time>
      </trkpt>
      <trkpt lat="47.96406" lon="6.99741">
        <ele>1212</ele>
        <time>2017-07-29T09:14:40Z</time>
      </trkpt>
      <trkpt lat="47.96433" lon="6.99731">
        <ele>1211</ele>
        <time>2017-07-29T09:14:48Z</time>
      </trkpt>
      <trkpt lat="47.96455" lon="6.9972">
        <ele>1209</ele>
        <time>2017-07-29T09:15:00Z</time>
      </trkpt>
      <trkpt lat="47.96457" lon="6.99719">
        <ele>1209</ele>
        <time>2017-07-29T09:15:26Z</time>
      </trkpt>
      <trkpt lat="47.96479" lon="6.99715">
        <ele>1209</ele>
        <time>2017-07-29T09:15:34Z</time>
      </trkpt>
      <trkpt lat="47.96502" lon="6.99702">
        <ele>1204</ele>
        <time>2017-07-29T09:15:40Z</time>
      </trkpt>
      <trkpt lat="47.96505" lon="6.99699">
        <ele>1204</ele>
        <time>2017-07-29T09:15:41Z</time>
      </trkpt>
      <trkpt lat="47.96513" lon="6.99694">
        <ele>1204</ele>
        <time>2017-07-29T09:15:43Z</time>
      </trkpt>
      <trkpt lat="47.96545" lon="6.99672">
        <ele>1203</ele>
        <time>2017-07-29T09:15:49Z</time>
      </trkpt>
      <trkpt lat="47.96575" lon="6.99644">
        <ele>1198</ele>
        <time>2017-07-29T09:15:54Z</time>
      </trkpt>
      <trkpt lat="47.96587" lon="6.99632">
        <ele>1197</ele>
        <time>2017-07-29T09:15:56Z</time>
      </trkpt>
      <trkpt lat="47.96604" lon="6.99622">
        <ele>1197</ele>
        <time>2017-07-29T09:15:59Z</time>
      </trkpt>
      <trkpt lat="47.96635" lon="6.99594">
        <ele>1196</ele>
        <time>2017-07-29T09:16:05Z</time>
      </trkpt>
      <trkpt lat="47.96649" lon="6.99579">
        <ele>1192</ele>
        <time>2017-07-29T09:16:08Z</time>
      </trkpt>
      <trkpt lat="47.9669" lon="6.99523">
        <ele>1190</ele>
        <time>2017-07-29T09:16:21Z</time>
      </trkpt>
      <trkpt lat="47.96705" lon="6.99509">
        <ele>1191</ele>
        <time>2017-07-29T09:16:26Z</time>
      </trkpt>
      <trkpt lat="47.96722" lon="6.99498">
        <ele>1188</ele>
        <time>2017-07-29T09:16:33Z</time>
      </trkpt>
      <trkpt lat="47.96734" lon="6.99489">
        <ele>1189</ele>
        <time>2017-07-29T09:16:37Z</time>
      </trkpt>
      <trkpt lat="47.96748" lon="6.99476">
        <ele>1189</ele>
        <time>2017-07-29T09:16:43Z</time>
      </trkpt>
      <trkpt lat="47.96763" lon="6.99468">
        <ele>1195</ele>
        <time>2017-07-29T09:16:50Z</time>
      </trkpt>
      <trkpt lat="47.96776" lon="6.99457">
        <ele>1195</ele>
        <time>2017-07-29T09:16:57Z</time>
      </trkpt>
      <trkpt lat="47.96794" lon="6.99436">
        <ele>1196</ele>
        <time>2017-07-29T09:17:14Z</time>
      </trkpt>
      <trkpt lat="47.96794" lon="6.99436">
        <ele>1196</ele>
        <time>2017-07-29T09:17:15Z</time>
      </trkpt>
      <trkpt lat="47.96914" lon="6.99265">
        <ele>1229</ele>
        <time>2017-07-29T09:22:40Z</time>
      </trkpt>
      <trkpt lat="47.96916" lon="6.99263">
        <ele>1230</ele>
        <time>2017-07-29T09:22:42Z</time>
      </trkpt>
      <trkpt lat="47.96916" lon="6.99262">
        <ele>1230</ele>
        <time>2017-07-29T09:22:44Z</time>
      </trkpt>
      <trkpt lat="47.96919" lon="6.99257">
        <ele>1233</ele>
        <time>2017-07-29T09:22:52Z</time>
      </trkpt>
      <trkpt lat="47.96919" lon="6.99256">
        <ele>1234</ele>
        <time>2017-07-29T09:22:53Z</time>
      </trkpt>
      <trkpt lat="47.96921" lon="6.99254">
        <ele>1234</ele>
        <time>2017-07-29T09:22:56Z</time>
      </trkpt>
      <trkpt lat="47.96923" lon="6.99251">
        <ele>1234</ele>
        <time>2017-07-29T09:23:01Z</time>
      </trkpt>
      <trkpt lat="47.96935" lon="6.99235">
        <ele>1235</ele>
        <time>2017-07-29T09:23:10Z</time>
      </trkpt>
      <trkpt lat="47.96944" lon="6.99227">
        <ele>1235</ele>
        <time>2017-07-29T09:23:15Z</time>
      </trkpt>
      <trkpt lat="47.9695" lon="6.99225">
        <ele>1235</ele>
        <time>2017-07-29T09:23:18Z</time>
      </trkpt>
      <trkpt lat="47.96975" lon="6.99218">
        <ele>1236</ele>
        <time>2017-07-29T09:23:29Z</time>
      </trkpt>
      <trkpt lat="47.97024" lon="6.99209">
        <ele>1238</ele>
        <time>2017-07-29T09:23:48Z</time>
      </trkpt>
      <trkpt lat="47.97045" lon="6.99207">
        <ele>1239</ele>
        <time>2017-07-29T09:23:55Z</time>
      </trkpt>
      <trkpt lat="47.9707" lon="6.99199">
        <ele>1239</ele>
        <time>2017-07-29T09:24:03Z</time>
      </trkpt>
      <trkpt lat="47.97095" lon="6.99183">
        <ele>1241</ele>
        <time>2017-07-29T09:24:13Z</time>
      </trkpt>
      <trkpt lat="47.97123" lon="6.99167">
        <ele>1242</ele>
        <time>2017-07-29T09:24:27Z</time>
      </trkpt>
      <trkpt lat="47.97128" lon="6.99163">
        <ele>1242</ele>
        <time>2017-07-29T09:24:30Z</time>
      </trkpt>
      <trkpt lat="47.97166" lon="6.99143">
        <ele>1243</ele>
        <time>2017-07-29T09:24:50Z</time>
      </trkpt>
      <trkpt lat="47.97174" lon="6.9914">
        <ele>1247</ele>
        <time>2017-07-29T09:24:54Z</time>
      </trkpt>
      <trkpt lat="47.97189" lon="6.99139">
        <ele>1247</ele>
        <time>2017-07-29T09:25:02Z</time>
      </trkpt>
      <trkpt lat="47.97197" lon="6.9914">
        <ele>1247</ele>
        <time>2017-07-29T09:25:06Z</time>
      </trkpt>
      <trkpt lat="47.9722" lon="6.99137">
        <ele>1249</ele>
        <time>2017-07-29T09:25:17Z</time>
      </trkpt>
      <trkpt lat="47.97258" lon="6.99135">
        <ele>1254</ele>
        <time>2017-07-29T09:25:37Z</time>
      </trkpt>
      <trkpt lat="47.97269" lon="6.99133">
        <ele>1254</ele>
        <time>2017-07-29T09:25:43Z</time>
      </trkpt>
      <trkpt lat="47.97272" lon="6.99134">
        <ele>1254</ele>
        <time>2017-07-29T09:25:45Z</time>
      </trkpt>
      <trkpt lat="47.97311" lon="6.9913">
        <ele>1255</ele>
        <time>2017-07-29T09:26:03Z</time>
      </trkpt>
      <trkpt lat="47.97332" lon="6.99124">
        <ele>1256</ele>
        <time>2017-07-29T09:26:13Z</time>
      </trkpt>
      <trkpt lat="47.97364" lon="6.9911">
        <ele>1257</ele>
        <time>2017-07-29T09:26:28Z</time>
      </trkpt>
      <trkpt lat="47.97403" lon="6.99089">
        <ele>1259</ele>
        <time>2017-07-29T09:26:45Z</time>
      </trkpt>
      <trkpt lat="47.97425" lon="6.9908">
        <ele>1262</ele>
        <time>2017-07-29T09:26:55Z</time>
      </trkpt>
      <trkpt lat="47.97451" lon="6.99065">
        <ele>1261</ele>
        <time>2017-07-29T09:27:09Z</time>
      </trkpt>
      <trkpt lat="47.97475" lon="6.99044">
        <ele>1262</ele>
        <time>2017-07-29T09:27:15Z</time>
      </trkpt>
      <trkpt lat="47.97487" lon="6.99029">
        <ele>1262</ele>
        <time>2017-07-29T09:27:18Z</time>
      </trkpt>
      <trkpt lat="47.97496" lon="6.99018">
        <ele>1263</ele>
        <time>2017-07-29T09:27:22Z</time>
      </trkpt>
      <trkpt lat="47.97526" lon="6.98977">
        <ele>1260</ele>
        <time>2017-07-29T09:27:50Z</time>
      </trkpt>
      <trkpt lat="47.97527" lon="6.98976">
        <ele>1260</ele>
        <time>2017-07-29T09:29:20Z</time>
      </trkpt>
      <trkpt lat="47.97534" lon="6.98966">
        <ele>1259</ele>
        <time>2017-07-29T09:29:23Z</time>
      </trkpt>
      <trkpt lat="47.97542" lon="6.98958">
        <ele>1258</ele>
        <time>2017-07-29T09:29:25Z</time>
      </trkpt>
      <trkpt lat="47.97557" lon="6.98934">
        <ele>1256</ele>
        <time>2017-07-29T09:29:29Z</time>
      </trkpt>
      <trkpt lat="47.97586" lon="6.98897">
        <ele>1247</ele>
        <time>2017-07-29T09:29:35Z</time>
      </trkpt>
      <trkpt lat="47.97629" lon="6.98836">
        <ele>1241</ele>
        <time>2017-07-29T09:29:42Z</time>
      </trkpt>
      <trkpt lat="47.97642" lon="6.98823">
        <ele>1235</ele>
        <time>2017-07-29T09:29:44Z</time>
      </trkpt>
      <trkpt lat="47.97648" lon="6.98816">
        <ele>1235</ele>
        <time>2017-07-29T09:29:45Z</time>
      </trkpt>
      <trkpt lat="47.97672" lon="6.98782">
        <ele>1227</ele>
        <time>2017-07-29T09:29:49Z</time>
      </trkpt>
      <trkpt lat="47.97679" lon="6.98768">
        <ele>1227</ele>
        <time>2017-07-29T09:29:51Z</time>
      </trkpt>
      <trkpt lat="47.97692" lon="6.9875">
        <ele>1226</ele>
        <time>2017-07-29T09:29:55Z</time>
      </trkpt>
      <trkpt lat="47.97697" lon="6.98739">
        <ele>1221</ele>
        <time>2017-07-29T09:29:57Z</time>
      </trkpt>
      <trkpt lat="47.97715" lon="6.9871">
        <ele>1219</ele>
        <time>2017-07-29T09:30:02Z</time>
      </trkpt>
      <trkpt lat="47.97738" lon="6.98684">
        <ele>1215</ele>
        <time>2017-07-29T09:30:06Z</time>
      </trkpt>
      <trkpt lat="47.97769" lon="6.98655">
        <ele>1208</ele>
        <time>2017-07-29T09:30:10Z</time>
      </trkpt>
      <trkpt lat="47.97807" lon="6.98623">
        <ele>1205</ele>
        <time>2017-07-29T09:30:15Z</time>
      </trkpt>
      <trkpt lat="47.97813" lon="6.98615">
        <ele>1204</ele>
        <time>2017-07-29T09:30:16Z</time>
      </trkpt>
      <trkpt lat="47.97827" lon="6.986">
        <ele>1203</ele>
        <time>2017-07-29T09:30:18Z</time>
      </trkpt>
      <trkpt lat="47.97849" lon="6.98581">
        <ele>1197</ele>
        <time>2017-07-29T09:30:21Z</time>
      </trkpt>
      <trkpt lat="47.97864" lon="6.98572">
        <ele>1195</ele>
        <time>2017-07-29T09:30:24Z</time>
      </trkpt>
      <trkpt lat="47.9788" lon="6.98555">
        <ele>1193</ele>
        <time>2017-07-29T09:30:30Z</time>
      </trkpt>
      <trkpt lat="47.97881" lon="6.98555">
        <ele>1193</ele>
        <time>2017-07-29T09:30:32Z</time>
      </trkpt>
      <trkpt lat="47.97886" lon="6.98553">
        <ele>1193</ele>
        <time>2017-07-29T09:30:53Z</time>
      </trkpt>
      <trkpt lat="47.97918" lon="6.98535">
        <ele>1187</ele>
        <time>2017-07-29T09:31:00Z</time>
      </trkpt>
      <trkpt lat="47.97969" lon="6.98501">
        <ele>1186</ele>
        <time>2017-07-29T09:31:08Z</time>
      </trkpt>
      <trkpt lat="47.97989" lon="6.9849">
        <ele>1186</ele>
        <time>2017-07-29T09:31:11Z</time>
      </trkpt>
      <trkpt lat="47.98013" lon="6.98472">
        <ele>1188</ele>
        <time>2017-07-29T09:31:17Z</time>
      </trkpt>
      <trkpt lat="47.98058" lon="6.9844">
        <ele>1190</ele>
        <time>2017-07-29T09:31:46Z</time>
      </trkpt>
      <trkpt lat="47.98067" lon="6.98436">
        <ele>1191</ele>
        <time>2017-07-29T09:31:52Z</time>
      </trkpt>
      <trkpt lat="47.98075" lon="6.98428">
        <ele>1192</ele>
        <time>2017-07-29T09:31:58Z</time>
      </trkpt>
      <trkpt lat="47.98092" lon="6.98418">
        <ele>1194</ele>
        <time>2017-07-29T09:32:11Z</time>
      </trkpt>
      <trkpt lat="47.98106" lon="6.98406">
        <ele>1197</ele>
        <time>2017-07-29T09:32:22Z</time>
      </trkpt>
      <trkpt lat="47.98118" lon="6.98399">
        <ele>1198</ele>
        <time>2017-07-29T09:32:31Z</time>
      </trkpt>
      <trkpt lat="47.98156" lon="6.98386">
        <ele>1200</ele>
        <time>2017-07-29T09:32:57Z</time>
      </trkpt>
      <trkpt lat="47.98189" lon="6.98377">
        <ele>1206</ele>
        <time>2017-07-29T09:33:18Z</time>
      </trkpt>
      <trkpt lat="47.98203" lon="6.9837">
        <ele>1206</ele>
        <time>2017-07-29T09:33:26Z</time>
      </trkpt>
      <trkpt lat="47.98221" lon="6.98366">
        <ele>1207</ele>
        <time>2017-07-29T09:33:37Z</time>
      </trkpt>
      <trkpt lat="47.98245" lon="6.98356">
        <ele>1209</ele>
        <time>2017-07-29T09:33:53Z</time>
      </trkpt>
      <trkpt lat="47.98259" lon="6.98347">
        <ele>1211</ele>
        <time>2017-07-29T09:34:01Z</time>
      </trkpt>
      <trkpt lat="47.98275" lon="6.98339">
        <ele>1211</ele>
        <time>2017-07-29T09:34:12Z</time>
      </trkpt>
      <trkpt lat="47.9829" lon="6.98338">
        <ele>1210</ele>
        <time>2017-07-29T09:34:46Z</time>
      </trkpt>
      <trkpt lat="47.98293" lon="6.98338">
        <ele>1210</ele>
        <time>2017-07-29T09:34:47Z</time>
      </trkpt>
      <trkpt lat="47.98299" lon="6.98337">
        <ele>1210</ele>
        <time>2017-07-29T09:34:50Z</time>
      </trkpt>
      <trkpt lat="47.98311" lon="6.98331">
        <ele>1215</ele>
        <time>2017-07-29T09:34:56Z</time>
      </trkpt>
      <trkpt lat="47.98327" lon="6.98319">
        <ele>1215</ele>
        <time>2017-07-29T09:35:04Z</time>
      </trkpt>
      <trkpt lat="47.98333" lon="6.9831">
        <ele>1215</ele>
        <time>2017-07-29T09:35:08Z</time>
      </trkpt>
      <trkpt lat="47.98337" lon="6.98298">
        <ele>1215</ele>
        <time>2017-07-29T09:35:13Z</time>
      </trkpt>
      <trkpt lat="47.98339" lon="6.98296">
        <ele>1215</ele>
        <time>2017-07-29T09:35:14Z</time>
      </trkpt>
      <trkpt lat="47.98348" lon="6.9829">
        <ele>1215</ele>
        <time>2017-07-29T09:35:18Z</time>
      </trkpt>
      <trkpt lat="47.98361" lon="6.98278">
        <ele>1215</ele>
        <time>2017-07-29T09:35:25Z</time>
      </trkpt>
      <trkpt lat="47.98376" lon="6.98267">
        <ele>1215</ele>
        <time>2017-07-29T09:35:34Z</time>
      </trkpt>
      <trkpt lat="47.98387" lon="6.98238">
        <ele>1215</ele>
        <time>2017-07-29T09:35:43Z</time>
      </trkpt>
      <trkpt lat="47.98389" lon="6.98229">
        <ele>1215</ele>
        <time>2017-07-29T09:35:46Z</time>
      </trkpt>
      <trkpt lat="47.98399" lon="6.98213">
        <ele>1215</ele>
        <time>2017-07-29T09:35:51Z</time>
      </trkpt>
      <trkpt lat="47.98407" lon="6.98208">
        <ele>1215</ele>
        <time>2017-07-29T09:35:54Z</time>
      </trkpt>
      <trkpt lat="47.98411" lon="6.98208">
        <ele>1215</ele>
        <time>2017-07-29T09:35:56Z</time>
      </trkpt>
      <trkpt lat="47.98414" lon="6.98206">
        <ele>1215</ele>
        <time>2017-07-29T09:36:01Z</time>
      </trkpt>
      <trkpt lat="47.98416" lon="6.98205">
        <ele>1215</ele>
        <time>2017-07-29T09:36:23Z</time>
      </trkpt>
      <trkpt lat="47.98418" lon="6.98201">
        <ele>1213</ele>
        <time>2017-07-29T09:36:25Z</time>
      </trkpt>
      <trkpt lat="47.9843" lon="6.98188">
        <ele>1213</ele>
        <time>2017-07-29T09:36:30Z</time>
      </trkpt>
      <trkpt lat="47.98448" lon="6.98171">
        <ele>1213</ele>
        <time>2017-07-29T09:36:37Z</time>
      </trkpt>
      <trkpt lat="47.98472" lon="6.98138">
        <ele>1214</ele>
        <time>2017-07-29T09:36:46Z</time>
      </trkpt>
      <trkpt lat="47.98519" lon="6.98064">
        <ele>1220</ele>
        <time>2017-07-29T09:37:13Z</time>
      </trkpt>
      <trkpt lat="47.98523" lon="6.9806">
        <ele>1220</ele>
        <time>2017-07-29T09:37:17Z</time>
      </trkpt>
      <trkpt lat="47.98527" lon="6.98053">
        <ele>1220</ele>
        <time>2017-07-29T09:37:21Z</time>
      </trkpt>
      <trkpt lat="47.98537" lon="6.98041">
        <ele>1221</ele>
        <time>2017-07-29T09:37:30Z</time>
      </trkpt>
      <trkpt lat="47.98543" lon="6.98034">
        <ele>1221</ele>
        <time>2017-07-29T09:37:35Z</time>
      </trkpt>
      <trkpt lat="47.98552" lon="6.98029">
        <ele>1221</ele>
        <time>2017-07-29T09:37:41Z</time>
      </trkpt>
      <trkpt lat="47.98584" lon="6.98022">
        <ele>1226</ele>
        <time>2017-07-29T09:37:58Z</time>
      </trkpt>
      <trkpt lat="47.98606" lon="6.9802">
        <ele>1226</ele>
        <time>2017-07-29T09:38:08Z</time>
      </trkpt>
      <trkpt lat="47.98636" lon="6.98013">
        <ele>1228</ele>
        <time>2017-07-29T09:38:25Z</time>
      </trkpt>
      <trkpt lat="47.98648" lon="6.98009">
        <ele>1229</ele>
        <time>2017-07-29T09:38:33Z</time>
      </trkpt>
      <trkpt lat="47.9866" lon="6.98009">
        <ele>1230</ele>
        <time>2017-07-29T09:38:41Z</time>
      </trkpt>
      <trkpt lat="47.98668" lon="6.98002">
        <ele>1232</ele>
        <time>2017-07-29T09:38:49Z</time>
      </trkpt>
      <trkpt lat="47.98672" lon="6.98">
        <ele>1231</ele>
        <time>2017-07-29T09:38:58Z</time>
      </trkpt>
      <trkpt lat="47.98677" lon="6.97998">
        <ele>1231</ele>
        <time>2017-07-29T09:39:01Z</time>
      </trkpt>
      <trkpt lat="47.98681" lon="6.98001">
        <ele>1233</ele>
        <time>2017-07-29T09:39:05Z</time>
      </trkpt>
      <trkpt lat="47.98684" lon="6.98002">
        <ele>1233</ele>
        <time>2017-07-29T09:39:59Z</time>
      </trkpt>
      <trkpt lat="47.98686" lon="6.98003">
        <ele>1233</ele>
        <time>2017-07-29T09:40:00Z</time>
      </trkpt>
      <trkpt lat="47.98716" lon="6.98006">
        <ele>1234</ele>
        <time>2017-07-29T09:40:14Z</time>
      </trkpt>
      <trkpt lat="47.98726" lon="6.97993">
        <ele>1232</ele>
        <time>2017-07-29T09:40:20Z</time>
      </trkpt>
      <trkpt lat="47.98727" lon="6.97991">
        <ele>1232</ele>
        <time>2017-07-29T09:40:30Z</time>
      </trkpt>
      <trkpt lat="47.98738" lon="6.97979">
        <ele>1232</ele>
        <time>2017-07-29T09:40:35Z</time>
      </trkpt>
      <trkpt lat="47.98781" lon="6.97975">
        <ele>1233</ele>
        <time>2017-07-29T09:40:50Z</time>
      </trkpt>
      <trkpt lat="47.9881" lon="6.97975">
        <ele>1233</ele>
        <time>2017-07-29T09:41:02Z</time>
      </trkpt>
      <trkpt lat="47.98828" lon="6.97978">
        <ele>1234</ele>
        <time>2017-07-29T09:41:09Z</time>
      </trkpt>
      <trkpt lat="47.98833" lon="6.9798">
        <ele>1235</ele>
        <time>2017-07-29T09:41:11Z</time>
      </trkpt>
      <trkpt lat="47.98836" lon="6.97983">
        <ele>1235</ele>
        <time>2017-07-29T09:41:14Z</time>
      </trkpt>
      <trkpt lat="47.98838" lon="6.97985">
        <ele>1235</ele>
        <time>2017-07-29T09:41:24Z</time>
      </trkpt>
      <trkpt lat="47.98853" lon="6.97998">
        <ele>1235</ele>
        <time>2017-07-29T09:41:30Z</time>
      </trkpt>
      <trkpt lat="47.98882" lon="6.98008">
        <ele>1240</ele>
        <time>2017-07-29T09:41:39Z</time>
      </trkpt>
      <trkpt lat="47.98913" lon="6.98005">
        <ele>1239</ele>
        <time>2017-07-29T09:41:48Z</time>
      </trkpt>
      <trkpt lat="47.98923" lon="6.98006">
        <ele>1239</ele>
        <time>2017-07-29T09:41:51Z</time>
      </trkpt>
      <trkpt lat="47.98947" lon="6.98016">
        <ele>1240</ele>
        <time>2017-07-29T09:41:59Z</time>
      </trkpt>
      <trkpt lat="47.98969" lon="6.98022">
        <ele>1240</ele>
        <time>2017-07-29T09:42:05Z</time>
      </trkpt>
      <trkpt lat="47.99" lon="6.9802">
        <ele>1240</ele>
        <time>2017-07-29T09:42:14Z</time>
      </trkpt>
      <trkpt lat="47.99057" lon="6.98026">
        <ele>1242</ele>
        <time>2017-07-29T09:42:30Z</time>
      </trkpt>
      <trkpt lat="47.99071" lon="6.98021">
        <ele>1242</ele>
        <time>2017-07-29T09:42:34Z</time>
      </trkpt>
      <trkpt lat="47.99099" lon="6.98007">
        <ele>1245</ele>
        <time>2017-07-29T09:42:42Z</time>
      </trkpt>
      <trkpt lat="47.99125" lon="6.97989">
        <ele>1240</ele>
        <time>2017-07-29T09:42:49Z</time>
      </trkpt>
      <trkpt lat="47.99152" lon="6.97967">
        <ele>1241</ele>
        <time>2017-07-29T09:42:58Z</time>
      </trkpt>
      <trkpt lat="47.99179" lon="6.97948">
        <ele>1248</ele>
        <time>2017-07-29T09:43:06Z</time>
      </trkpt>
      <trkpt lat="47.99201" lon="6.97931">
        <ele>1248</ele>
        <time>2017-07-29T09:43:13Z</time>
      </trkpt>
      <trkpt lat="47.99213" lon="6.97924">
        <ele>1249</ele>
        <time>2017-07-29T09:43:17Z</time>
      </trkpt>
      <trkpt lat="47.99263" lon="6.97898">
        <ele>1246</ele>
        <time>2017-07-29T09:43:33Z</time>
      </trkpt>
      <trkpt lat="47.9928" lon="6.97892">
        <ele>1246</ele>
        <time>2017-07-29T09:43:38Z</time>
      </trkpt>
      <trkpt lat="47.99332" lon="6.97867">
        <ele>1245</ele>
        <time>2017-07-29T09:43:56Z</time>
      </trkpt>
      <trkpt lat="47.99333" lon="6.97866">
        <ele>1251</ele>
        <time>2017-07-29T09:44:13Z</time>
      </trkpt>
      <trkpt lat="47.9934" lon="6.97863">
        <ele>1251</ele>
        <time>2017-07-29T09:44:15Z</time>
      </trkpt>
      <trkpt lat="47.99389" lon="6.97846">
        <ele>1251</ele>
        <time>2017-07-29T09:44:31Z</time>
      </trkpt>
      <trkpt lat="47.99389" lon="6.97847">
        <ele>1251</ele>
        <time>2017-07-29T09:44:33Z</time>
      </trkpt>
      <trkpt lat="47.99394" lon="6.97845">
        <ele>1251</ele>
        <time>2017-07-29T09:48:04Z</time>
      </trkpt>
      <trkpt lat="47.99397" lon="6.97844">
        <ele>1250</ele>
        <time>2017-07-29T09:48:05Z</time>
      </trkpt>
      <trkpt lat="47.9948" lon="6.97843">
        <ele>1254</ele>
        <time>2017-07-29T09:48:30Z</time>
      </trkpt>
      <trkpt lat="47.99511" lon="6.97848">
        <ele>1253</ele>
        <time>2017-07-29T09:48:39Z</time>
      </trkpt>
      <trkpt lat="47.9953" lon="6.97854">
        <ele>1255</ele>
        <time>2017-07-29T09:48:44Z</time>
      </trkpt>
      <trkpt lat="47.99587" lon="6.9786">
        <ele>1254</ele>
        <time>2017-07-29T09:48:59Z</time>
      </trkpt>
      <trkpt lat="47.99601" lon="6.97861">
        <ele>1254</ele>
        <time>2017-07-29T09:49:02Z</time>
      </trkpt>
      <trkpt lat="47.99625" lon="6.97859">
        <ele>1254</ele>
        <time>2017-07-29T09:49:07Z</time>
      </trkpt>
      <trkpt lat="47.99654" lon="6.97854">
        <ele>1252</ele>
        <time>2017-07-29T09:49:14Z</time>
      </trkpt>
      <trkpt lat="47.99687" lon="6.97852">
        <ele>1255</ele>
        <time>2017-07-29T09:49:22Z</time>
      </trkpt>
      <trkpt lat="47.99703" lon="6.97854">
        <ele>1256</ele>
        <time>2017-07-29T09:49:27Z</time>
      </trkpt>
      <trkpt lat="47.99753" lon="6.97847">
        <ele>1259</ele>
        <time>2017-07-29T09:49:46Z</time>
      </trkpt>
      <trkpt lat="47.99769" lon="6.97836">
        <ele>1261</ele>
        <time>2017-07-29T09:49:51Z</time>
      </trkpt>
      <trkpt lat="47.99793" lon="6.97815">
        <ele>1252</ele>
        <time>2017-07-29T09:49:58Z</time>
      </trkpt>
      <trkpt lat="47.99813" lon="6.97793">
        <ele>1252</ele>
        <time>2017-07-29T09:50:05Z</time>
      </trkpt>
      <trkpt lat="47.99844" lon="6.97753">
        <ele>1259</ele>
        <time>2017-07-29T09:50:18Z</time>
      </trkpt>
      <trkpt lat="47.99851" lon="6.9774">
        <ele>1253</ele>
        <time>2017-07-29T09:50:22Z</time>
      </trkpt>
      <trkpt lat="47.99866" lon="6.97718">
        <ele>1252</ele>
        <time>2017-07-29T09:50:29Z</time>
      </trkpt>
      <trkpt lat="47.99876" lon="6.97706">
        <ele>1252</ele>
        <time>2017-07-29T09:50:33Z</time>
      </trkpt>
      <trkpt lat="47.99885" lon="6.977">
        <ele>1252</ele>
        <time>2017-07-29T09:50:36Z</time>
      </trkpt>
      <trkpt lat="47.99887" lon="6.97696">
        <ele>1252</ele>
        <time>2017-07-29T09:50:37Z</time>
      </trkpt>
      <trkpt lat="47.99907" lon="6.97677">
        <ele>1252</ele>
        <time>2017-07-29T09:50:45Z</time>
      </trkpt>
      <trkpt lat="47.9993" lon="6.9767">
        <ele>1255</ele>
        <time>2017-07-29T09:50:54Z</time>
      </trkpt>
      <trkpt lat="47.99947" lon="6.9767">
        <ele>1256</ele>
        <time>2017-07-29T09:50:59Z</time>
      </trkpt>
      <trkpt lat="47.99967" lon="6.97675">
        <ele>1256</ele>
        <time>2017-07-29T09:51:05Z</time>
      </trkpt>
      <trkpt lat="47.99979" lon="6.97681">
        <ele>1255</ele>
        <time>2017-07-29T09:51:09Z</time>
      </trkpt>
      <trkpt lat="47.9999" lon="6.97689">
        <ele>1255</ele>
        <time>2017-07-29T09:51:13Z</time>
      </trkpt>
      <trkpt lat="47.99992" lon="6.97688">
        <ele>1255</ele>
        <time>2017-07-29T09:51:14Z</time>
      </trkpt>
      <trkpt lat="48.00033" lon="6.97708">
        <ele>1253</ele>
        <time>2017-07-29T09:51:25Z</time>
      </trkpt>
      <trkpt lat="48.00042" lon="6.97714">
        <ele>1253</ele>
        <time>2017-07-29T09:51:29Z</time>
      </trkpt>
      <trkpt lat="48.00053" lon="6.97718">
        <ele>1253</ele>
        <time>2017-07-29T09:51:32Z</time>
      </trkpt>
      <trkpt lat="48.00061" lon="6.97718">
        <ele>1252</ele>
        <time>2017-07-29T09:51:34Z</time>
      </trkpt>
      <trkpt lat="48.00158" lon="6.9774">
        <ele>1244</ele>
        <time>2017-07-29T09:51:54Z</time>
      </trkpt>
      <trkpt lat="48.00194" lon="6.97745">
        <ele>1235</ele>
        <time>2017-07-29T09:52:02Z</time>
      </trkpt>
      <trkpt lat="48.00204" lon="6.97748">
        <ele>1234</ele>
        <time>2017-07-29T09:52:04Z</time>
      </trkpt>
      <trkpt lat="48.00247" lon="6.97752">
        <ele>1235</ele>
        <time>2017-07-29T09:52:12Z</time>
      </trkpt>
      <trkpt lat="48.0027" lon="6.97752">
        <ele>1230</ele>
        <time>2017-07-29T09:52:16Z</time>
      </trkpt>
      <trkpt lat="48.00275" lon="6.97754">
        <ele>1229</ele>
        <time>2017-07-29T09:52:17Z</time>
      </trkpt>
      <trkpt lat="48.00285" lon="6.97761">
        <ele>1228</ele>
        <time>2017-07-29T09:52:19Z</time>
      </trkpt>
      <trkpt lat="48.00295" lon="6.97771">
        <ele>1227</ele>
        <time>2017-07-29T09:52:21Z</time>
      </trkpt>
      <trkpt lat="48.00316" lon="6.97799">
        <ele>1227</ele>
        <time>2017-07-29T09:52:26Z</time>
      </trkpt>
      <trkpt lat="48.00326" lon="6.97818">
        <ele>1226</ele>
        <time>2017-07-29T09:52:29Z</time>
      </trkpt>
      <trkpt lat="48.00354" lon="6.97872">
        <ele>1220</ele>
        <time>2017-07-29T09:52:37Z</time>
      </trkpt>
      <trkpt lat="48.00384" lon="6.97938">
        <ele>1222</ele>
        <time>2017-07-29T09:52:48Z</time>
      </trkpt>
      <trkpt lat="48.00407" lon="6.97983">
        <ele>1219</ele>
        <time>2017-07-29T09:52:56Z</time>
      </trkpt>
      <trkpt lat="48.00411" lon="6.97995">
        <ele>1217</ele>
        <time>2017-07-29T09:53:00Z</time>
      </trkpt>
      <trkpt lat="48.00425" lon="6.97999">
        <ele>1213</ele>
        <time>2017-07-29T09:53:05Z</time>
      </trkpt>
      <trkpt lat="48.00446" lon="6.97999">
        <ele>1211</ele>
        <time>2017-07-29T09:53:10Z</time>
      </trkpt>
      <trkpt lat="48.00456" lon="6.98002">
        <ele>1206</ele>
        <time>2017-07-29T09:53:12Z</time>
      </trkpt>
      <trkpt lat="48.0049" lon="6.98005">
        <ele>1205</ele>
        <time>2017-07-29T09:53:17Z</time>
      </trkpt>
      <trkpt lat="48.00516" lon="6.98">
        <ele>1204</ele>
        <time>2017-07-29T09:53:22Z</time>
      </trkpt>
      <trkpt lat="48.00545" lon="6.98001">
        <ele>1203</ele>
        <time>2017-07-29T09:53:33Z</time>
      </trkpt>
      <trkpt lat="48.00554" lon="6.97997">
        <ele>1204</ele>
        <time>2017-07-29T09:55:51Z</time>
      </trkpt>
      <trkpt lat="48.00564" lon="6.97997">
        <ele>1204</ele>
        <time>2017-07-29T09:55:56Z</time>
      </trkpt>
      <trkpt lat="48.00581" lon="6.97994">
        <ele>1205</ele>
        <time>2017-07-29T09:56:03Z</time>
      </trkpt>
      <trkpt lat="48.00597" lon="6.97986">
        <ele>1208</ele>
        <time>2017-07-29T09:56:12Z</time>
      </trkpt>
      <trkpt lat="48.00618" lon="6.97969">
        <ele>1209</ele>
        <time>2017-07-29T09:56:26Z</time>
      </trkpt>
      <trkpt lat="48.00631" lon="6.97954">
        <ele>1210</ele>
        <time>2017-07-29T09:56:35Z</time>
      </trkpt>
      <trkpt lat="48.00654" lon="6.97926">
        <ele>1211</ele>
        <time>2017-07-29T09:56:54Z</time>
      </trkpt>
      <trkpt lat="48.00673" lon="6.97901">
        <ele>1217</ele>
        <time>2017-07-29T09:57:07Z</time>
      </trkpt>
      <trkpt lat="48.00677" lon="6.97898">
        <ele>1217</ele>
        <time>2017-07-29T09:57:09Z</time>
      </trkpt>
      <trkpt lat="48.00689" lon="6.97881">
        <ele>1219</ele>
        <time>2017-07-29T09:57:18Z</time>
      </trkpt>
      <trkpt lat="48.00707" lon="6.97849">
        <ele>1220</ele>
        <time>2017-07-29T09:57:33Z</time>
      </trkpt>
      <trkpt lat="48.00713" lon="6.97834">
        <ele>1221</ele>
        <time>2017-07-29T09:57:41Z</time>
      </trkpt>
      <trkpt lat="48.00713" lon="6.97835">
        <ele>1221</ele>
        <time>2017-07-29T09:57:42Z</time>
      </trkpt>
      <trkpt lat="48.00715" lon="6.97833">
        <ele>1214</ele>
        <time>2017-07-29T09:57:49Z</time>
      </trkpt>
      <trkpt lat="48.00722" lon="6.97816">
        <ele>1215</ele>
        <time>2017-07-29T09:57:56Z</time>
      </trkpt>
      <trkpt lat="48.00721" lon="6.97815">
        <ele>1215</ele>
        <time>2017-07-29T09:57:57Z</time>
      </trkpt>
      <trkpt lat="48.00722" lon="6.97811">
        <ele>1215</ele>
        <time>2017-07-29T09:58:01Z</time>
      </trkpt>
      <trkpt lat="48.00727" lon="6.97803">
        <ele>1215</ele>
        <time>2017-07-29T09:58:04Z</time>
      </trkpt>
      <trkpt lat="48.00736" lon="6.9778">
        <ele>1214</ele>
        <time>2017-07-29T09:58:11Z</time>
      </trkpt>
      <trkpt lat="48.00755" lon="6.97738">
        <ele>1222</ele>
        <time>2017-07-29T09:58:24Z</time>
      </trkpt>
      <trkpt lat="48.00771" lon="6.97708">
        <ele>1224</ele>
        <time>2017-07-29T09:58:34Z</time>
      </trkpt>
      <trkpt lat="48.00776" lon="6.97703">
        <ele>1225</ele>
        <time>2017-07-29T09:58:37Z</time>
      </trkpt>
      <trkpt lat="48.0079" lon="6.97677">
        <ele>1226</ele>
        <time>2017-07-29T09:58:46Z</time>
      </trkpt>
      <trkpt lat="48.00813" lon="6.9765">
        <ele>1223</ele>
        <time>2017-07-29T09:58:59Z</time>
      </trkpt>
      <trkpt lat="48.00817" lon="6.97641">
        <ele>1222</ele>
        <time>2017-07-29T09:59:03Z</time>
      </trkpt>
      <trkpt lat="48.00819" lon="6.97635">
        <ele>1221</ele>
        <time>2017-07-29T09:59:06Z</time>
      </trkpt>
      <trkpt lat="48.00827" lon="6.97622">
        <ele>1220</ele>
        <time>2017-07-29T09:59:12Z</time>
      </trkpt>
      <trkpt lat="48.00843" lon="6.9761">
        <ele>1228</ele>
        <time>2017-07-29T09:59:20Z</time>
      </trkpt>
      <trkpt lat="48.00852" lon="6.97607">
        <ele>1229</ele>
        <time>2017-07-29T09:59:24Z</time>
      </trkpt>
      <trkpt lat="48.00858" lon="6.97607">
        <ele>1229</ele>
        <time>2017-07-29T09:59:26Z</time>
      </trkpt>
      <trkpt lat="48.00861" lon="6.97608">
        <ele>1229</ele>
        <time>2017-07-29T09:59:27Z</time>
      </trkpt>
      <trkpt lat="48.00888" lon="6.97598">
        <ele>1230</ele>
        <time>2017-07-29T09:59:34Z</time>
      </trkpt>
      <trkpt lat="48.00897" lon="6.97597">
        <ele>1230</ele>
        <time>2017-07-29T09:59:37Z</time>
      </trkpt>
      <trkpt lat="48.00902" lon="6.97597">
        <ele>1229</ele>
        <time>2017-07-29T09:59:39Z</time>
      </trkpt>
      <trkpt lat="48.00908" lon="6.976">
        <ele>1230</ele>
        <time>2017-07-29T09:59:41Z</time>
      </trkpt>
      <trkpt lat="48.00916" lon="6.97608">
        <ele>1230</ele>
        <time>2017-07-29T09:59:46Z</time>
      </trkpt>
      <trkpt lat="48.00924" lon="6.97613">
        <ele>1223</ele>
        <time>2017-07-29T09:59:53Z</time>
      </trkpt>
      <trkpt lat="48.00937" lon="6.97625">
        <ele>1223</ele>
        <time>2017-07-29T10:00:47Z</time>
      </trkpt>
      <trkpt lat="48.00949" lon="6.97648">
        <ele>1223</ele>
        <time>2017-07-29T10:00:51Z</time>
      </trkpt>
      <trkpt lat="48.00962" lon="6.97703">
        <ele>1230</ele>
        <time>2017-07-29T10:01:02Z</time>
      </trkpt>
      <trkpt lat="48.00973" lon="6.97732">
        <ele>1230</ele>
        <time>2017-07-29T10:01:08Z</time>
      </trkpt>
      <trkpt lat="48.00985" lon="6.97757">
        <ele>1235</ele>
        <time>2017-07-29T10:01:13Z</time>
      </trkpt>
      <trkpt lat="48.00995" lon="6.97787">
        <ele>1240</ele>
        <time>2017-07-29T10:01:18Z</time>
      </trkpt>
      <trkpt lat="48.01007" lon="6.97826">
        <ele>1230</ele>
        <time>2017-07-29T10:01:25Z</time>
      </trkpt>
      <trkpt lat="48.01012" lon="6.97852">
        <ele>1233</ele>
        <time>2017-07-29T10:01:30Z</time>
      </trkpt>
      <trkpt lat="48.01021" lon="6.97877">
        <ele>1233</ele>
        <time>2017-07-29T10:01:36Z</time>
      </trkpt>
      <trkpt lat="48.01024" lon="6.97894">
        <ele>1235</ele>
        <time>2017-07-29T10:01:41Z</time>
      </trkpt>
      <trkpt lat="48.01029" lon="6.97902">
        <ele>1235</ele>
        <time>2017-07-29T10:01:45Z</time>
      </trkpt>
      <trkpt lat="48.01038" lon="6.97912">
        <ele>1232</ele>
        <time>2017-07-29T10:01:50Z</time>
      </trkpt>
      <trkpt lat="48.01043" lon="6.9794">
        <ele>1243</ele>
        <time>2017-07-29T10:01:54Z</time>
      </trkpt>
      <trkpt lat="48.01052" lon="6.97954">
        <ele>1243</ele>
        <time>2017-07-29T10:01:58Z</time>
      </trkpt>
      <trkpt lat="48.01065" lon="6.97958">
        <ele>1241</ele>
        <time>2017-07-29T10:02:05Z</time>
      </trkpt>
      <trkpt lat="48.01077" lon="6.97972">
        <ele>1241</ele>
        <time>2017-07-29T10:02:09Z</time>
      </trkpt>
      <trkpt lat="48.01083" lon="6.97981">
        <ele>1222</ele>
        <time>2017-07-29T10:02:13Z</time>
      </trkpt>
      <trkpt lat="48.01089" lon="6.97991">
        <ele>1228</ele>
        <time>2017-07-29T10:02:19Z</time>
      </trkpt>
      <trkpt lat="48.01099" lon="6.98014">
        <ele>1230</ele>
        <time>2017-07-29T10:02:24Z</time>
      </trkpt>
      <trkpt lat="48.01103" lon="6.98026">
        <ele>1227</ele>
        <time>2017-07-29T10:02:28Z</time>
      </trkpt>
      <trkpt lat="48.01108" lon="6.98031">
        <ele>1226</ele>
        <time>2017-07-29T10:02:30Z</time>
      </trkpt>
      <trkpt lat="48.01125" lon="6.9807">
        <ele>1225</ele>
        <time>2017-07-29T10:02:42Z</time>
      </trkpt>
      <trkpt lat="48.01131" lon="6.98078">
        <ele>1223</ele>
        <time>2017-07-29T10:02:45Z</time>
      </trkpt>
      <trkpt lat="48.01132" lon="6.9808">
        <ele>1223</ele>
        <time>2017-07-29T10:02:47Z</time>
      </trkpt>
      <trkpt lat="48.01136" lon="6.98089">
        <ele>1231</ele>
        <time>2017-07-29T10:02:54Z</time>
      </trkpt>
      <trkpt lat="48.0114" lon="6.98094">
        <ele>1230</ele>
        <time>2017-07-29T10:02:55Z</time>
      </trkpt>
      <trkpt lat="48.01149" lon="6.98111">
        <ele>1231</ele>
        <time>2017-07-29T10:02:58Z</time>
      </trkpt>
      <trkpt lat="48.01155" lon="6.98126">
        <ele>1232</ele>
        <time>2017-07-29T10:03:00Z</time>
      </trkpt>
      <trkpt lat="48.01164" lon="6.98143">
        <ele>1232</ele>
        <time>2017-07-29T10:03:02Z</time>
      </trkpt>
      <trkpt lat="48.01172" lon="6.98159">
        <ele>1218</ele>
        <time>2017-07-29T10:03:04Z</time>
      </trkpt>
      <trkpt lat="48.01188" lon="6.98192">
        <ele>1217</ele>
        <time>2017-07-29T10:03:09Z</time>
      </trkpt>
      <trkpt lat="48.01193" lon="6.98197">
        <ele>1216</ele>
        <time>2017-07-29T10:03:10Z</time>
      </trkpt>
      <trkpt lat="48.012" lon="6.9821">
        <ele>1215</ele>
        <time>2017-07-29T10:03:12Z</time>
      </trkpt>
      <trkpt lat="48.01207" lon="6.98226">
        <ele>1215</ele>
        <time>2017-07-29T10:03:14Z</time>
      </trkpt>
      <trkpt lat="48.01229" lon="6.98284">
        <ele>1221</ele>
        <time>2017-07-29T10:03:20Z</time>
      </trkpt>
      <trkpt lat="48.01242" lon="6.98308">
        <ele>1221</ele>
        <time>2017-07-29T10:03:23Z</time>
      </trkpt>
      <trkpt lat="48.01257" lon="6.98331">
        <ele>1214</ele>
        <time>2017-07-29T10:03:26Z</time>
      </trkpt>
      <trkpt lat="48.01263" lon="6.98342">
        <ele>1215</ele>
        <time>2017-07-29T10:03:27Z</time>
      </trkpt>
      <trkpt lat="48.01278" lon="6.98358">
        <ele>1212</ele>
        <time>2017-07-29T10:03:31Z</time>
      </trkpt>
      <trkpt lat="48.0129" lon="6.98376">
        <ele>1210</ele>
        <time>2017-07-29T10:03:36Z</time>
      </trkpt>
      <trkpt lat="48.013" lon="6.98384">
        <ele>1210</ele>
        <time>2017-07-29T10:03:38Z</time>
      </trkpt>
      <trkpt lat="48.01312" lon="6.98392">
        <ele>1209</ele>
        <time>2017-07-29T10:03:41Z</time>
      </trkpt>
      <trkpt lat="48.01333" lon="6.98414">
        <ele>1207</ele>
        <time>2017-07-29T10:03:45Z</time>
      </trkpt>
      <trkpt lat="48.01346" lon="6.98423">
        <ele>1204</ele>
        <time>2017-07-29T10:03:47Z</time>
      </trkpt>
      <trkpt lat="48.0138" lon="6.98463">
        <ele>1200</ele>
        <time>2017-07-29T10:03:53Z</time>
      </trkpt>
      <trkpt lat="48.01395" lon="6.98477">
        <ele>1199</ele>
        <time>2017-07-29T10:03:58Z</time>
      </trkpt>
      <trkpt lat="48.01404" lon="6.98479">
        <ele>1199</ele>
        <time>2017-07-29T10:04:01Z</time>
      </trkpt>
      <trkpt lat="48.01404" lon="6.98482">
        <ele>1199</ele>
        <time>2017-07-29T10:04:02Z</time>
      </trkpt>
      <trkpt lat="48.0141" lon="6.9849">
        <ele>1198</ele>
        <time>2017-07-29T10:04:06Z</time>
      </trkpt>
      <trkpt lat="48.01429" lon="6.98501">
        <ele>1194</ele>
        <time>2017-07-29T10:04:10Z</time>
      </trkpt>
      <trkpt lat="48.01444" lon="6.98513">
        <ele>1191</ele>
        <time>2017-07-29T10:04:14Z</time>
      </trkpt>
      <trkpt lat="48.01462" lon="6.98535">
        <ele>1189</ele>
        <time>2017-07-29T10:04:19Z</time>
      </trkpt>
      <trkpt lat="48.01476" lon="6.98547">
        <ele>1189</ele>
        <time>2017-07-29T10:04:22Z</time>
      </trkpt>
      <trkpt lat="48.01495" lon="6.9856">
        <ele>1189</ele>
        <time>2017-07-29T10:04:26Z</time>
      </trkpt>
      <trkpt lat="48.01507" lon="6.9857">
        <ele>1186</ele>
        <time>2017-07-29T10:04:29Z</time>
      </trkpt>
      <trkpt lat="48.01517" lon="6.98582">
        <ele>1186</ele>
        <time>2017-07-29T10:04:34Z</time>
      </trkpt>
      <trkpt lat="48.01522" lon="6.98584">
        <ele>1189</ele>
        <time>2017-07-29T10:04:36Z</time>
      </trkpt>
      <trkpt lat="48.01535" lon="6.98587">
        <ele>1189</ele>
        <time>2017-07-29T10:04:41Z</time>
      </trkpt>
      <trkpt lat="48.01545" lon="6.98594">
        <ele>1189</ele>
        <time>2017-07-29T10:04:46Z</time>
      </trkpt>
      <trkpt lat="48.01552" lon="6.98604">
        <ele>1189</ele>
        <time>2017-07-29T10:04:51Z</time>
      </trkpt>
      <trkpt lat="48.01559" lon="6.98604">
        <ele>1190</ele>
        <time>2017-07-29T10:04:56Z</time>
      </trkpt>
      <trkpt lat="48.01563" lon="6.98607">
        <ele>1190</ele>
        <time>2017-07-29T10:04:58Z</time>
      </trkpt>
      <trkpt lat="48.01565" lon="6.98606">
        <ele>1190</ele>
        <time>2017-07-29T10:04:59Z</time>
      </trkpt>
      <trkpt lat="48.01578" lon="6.9861">
        <ele>1190</ele>
        <time>2017-07-29T10:05:06Z</time>
      </trkpt>
      <trkpt lat="48.01587" lon="6.98618">
        <ele>1193</ele>
        <time>2017-07-29T10:05:13Z</time>
      </trkpt>
      <trkpt lat="48.01597" lon="6.98619">
        <ele>1193</ele>
        <time>2017-07-29T10:05:20Z</time>
      </trkpt>
      <trkpt lat="48.01601" lon="6.98621">
        <ele>1193</ele>
        <time>2017-07-29T10:05:24Z</time>
      </trkpt>
      <trkpt lat="48.01608" lon="6.98637">
        <ele>1194</ele>
        <time>2017-07-29T10:06:00Z</time>
      </trkpt>
      <trkpt lat="48.01616" lon="6.9866">
        <ele>1195</ele>
        <time>2017-07-29T10:06:07Z</time>
      </trkpt>
      <trkpt lat="48.01624" lon="6.98676">
        <ele>1199</ele>
        <time>2017-07-29T10:06:14Z</time>
      </trkpt>
      <trkpt lat="48.01632" lon="6.98686">
        <ele>1200</ele>
        <time>2017-07-29T10:06:19Z</time>
      </trkpt>
      <trkpt lat="48.01643" lon="6.98706">
        <ele>1201</ele>
        <time>2017-07-29T10:06:28Z</time>
      </trkpt>
      <trkpt lat="48.01649" lon="6.98716">
        <ele>1201</ele>
        <time>2017-07-29T10:06:33Z</time>
      </trkpt>
      <trkpt lat="48.01656" lon="6.98722">
        <ele>1202</ele>
        <time>2017-07-29T10:06:37Z</time>
      </trkpt>
      <trkpt lat="48.01661" lon="6.98735">
        <ele>1205</ele>
        <time>2017-07-29T10:06:44Z</time>
      </trkpt>
      <trkpt lat="48.01666" lon="6.98744">
        <ele>1208</ele>
        <time>2017-07-29T10:06:53Z</time>
      </trkpt>
      <trkpt lat="48.01667" lon="6.98746">
        <ele>1209</ele>
        <time>2017-07-29T10:07:40Z</time>
      </trkpt>
      <trkpt lat="48.01669" lon="6.9875">
        <ele>1210</ele>
        <time>2017-07-29T10:07:42Z</time>
      </trkpt>
      <trkpt lat="48.01679" lon="6.98765">
        <ele>1209</ele>
        <time>2017-07-29T10:07:50Z</time>
      </trkpt>
      <trkpt lat="48.01685" lon="6.98772">
        <ele>1209</ele>
        <time>2017-07-29T10:07:54Z</time>
      </trkpt>
      <trkpt lat="48.01692" lon="6.98783">
        <ele>1208</ele>
        <time>2017-07-29T10:07:59Z</time>
      </trkpt>
      <trkpt lat="48.01697" lon="6.98786">
        <ele>1208</ele>
        <time>2017-07-29T10:08:02Z</time>
      </trkpt>
      <trkpt lat="48.01707" lon="6.98803">
        <ele>1208</ele>
        <time>2017-07-29T10:08:11Z</time>
      </trkpt>
      <trkpt lat="48.01721" lon="6.98823">
        <ele>1209</ele>
        <time>2017-07-29T10:08:23Z</time>
      </trkpt>
      <trkpt lat="48.01728" lon="6.98832">
        <ele>1210</ele>
        <time>2017-07-29T10:08:31Z</time>
      </trkpt>
      <trkpt lat="48.01729" lon="6.98834">
        <ele>1210</ele>
        <time>2017-07-29T10:08:34Z</time>
      </trkpt>
      <trkpt lat="48.01738" lon="6.98852">
        <ele>1211</ele>
        <time>2017-07-29T10:09:23Z</time>
      </trkpt>
      <trkpt lat="48.01752" lon="6.9886">
        <ele>1219</ele>
        <time>2017-07-29T10:09:34Z</time>
      </trkpt>
      <trkpt lat="48.0178" lon="6.98887">
        <ele>1223</ele>
        <time>2017-07-29T10:10:00Z</time>
      </trkpt>
      <trkpt lat="48.01783" lon="6.98889">
        <ele>1223</ele>
        <time>2017-07-29T10:10:02Z</time>
      </trkpt>
      <trkpt lat="48.01792" lon="6.989">
        <ele>1224</ele>
        <time>2017-07-29T10:10:13Z</time>
      </trkpt>
      <trkpt lat="48.01804" lon="6.98909">
        <ele>1226</ele>
        <time>2017-07-29T10:10:25Z</time>
      </trkpt>
      <trkpt lat="48.01818" lon="6.98926">
        <ele>1232</ele>
        <time>2017-07-29T10:10:41Z</time>
      </trkpt>
      <trkpt lat="48.01821" lon="6.98928">
        <ele>1232</ele>
        <time>2017-07-29T10:10:44Z</time>
      </trkpt>
      <trkpt lat="48.01827" lon="6.98936">
        <ele>1232</ele>
        <time>2017-07-29T10:10:51Z</time>
      </trkpt>
      <trkpt lat="48.01831" lon="6.98938">
        <ele>1232</ele>
        <time>2017-07-29T10:10:55Z</time>
      </trkpt>
      <trkpt lat="48.01832" lon="6.9894">
        <ele>1232</ele>
        <time>2017-07-29T10:10:57Z</time>
      </trkpt>
      <trkpt lat="48.01832" lon="6.98939">
        <ele>1232</ele>
        <time>2017-07-29T10:10:59Z</time>
      </trkpt>
      <trkpt lat="48.01847" lon="6.98945">
        <ele>1241</ele>
        <time>2017-07-29T10:12:15Z</time>
      </trkpt>
      <trkpt lat="48.01853" lon="6.98952">
        <ele>1242</ele>
        <time>2017-07-29T10:12:21Z</time>
      </trkpt>
      <trkpt lat="48.01855" lon="6.98958">
        <ele>1242</ele>
        <time>2017-07-29T10:12:25Z</time>
      </trkpt>
      <trkpt lat="48.01864" lon="6.98964">
        <ele>1243</ele>
        <time>2017-07-29T10:12:32Z</time>
      </trkpt>
      <trkpt lat="48.01866" lon="6.98967">
        <ele>1243</ele>
        <time>2017-07-29T10:12:35Z</time>
      </trkpt>
      <trkpt lat="48.01869" lon="6.98969">
        <ele>1244</ele>
        <time>2017-07-29T10:12:38Z</time>
      </trkpt>
      <trkpt lat="48.01876" lon="6.98969">
        <ele>1244</ele>
        <time>2017-07-29T10:12:43Z</time>
      </trkpt>
      <trkpt lat="48.01881" lon="6.98971">
        <ele>1245</ele>
        <time>2017-07-29T10:12:46Z</time>
      </trkpt>
      <trkpt lat="48.01885" lon="6.98974">
        <ele>1245</ele>
        <time>2017-07-29T10:12:50Z</time>
      </trkpt>
      <trkpt lat="48.01899" lon="6.98978">
        <ele>1247</ele>
        <time>2017-07-29T10:13:01Z</time>
      </trkpt>
      <trkpt lat="48.01904" lon="6.98984">
        <ele>1249</ele>
        <time>2017-07-29T10:13:07Z</time>
      </trkpt>
      <trkpt lat="48.01917" lon="6.9899">
        <ele>1255</ele>
        <time>2017-07-29T10:13:17Z</time>
      </trkpt>
      <trkpt lat="48.01922" lon="6.98997">
        <ele>1255</ele>
        <time>2017-07-29T10:13:22Z</time>
      </trkpt>
      <trkpt lat="48.01922" lon="6.98998">
        <ele>1255</ele>
        <time>2017-07-29T10:13:24Z</time>
      </trkpt>
      <trkpt lat="48.01985" lon="6.99157">
        <ele>1270</ele>
        <time>2017-07-29T10:17:12Z</time>
      </trkpt>
      <trkpt lat="48.0199" lon="6.99165">
        <ele>1272</ele>
        <time>2017-07-29T10:17:16Z</time>
      </trkpt>
      <trkpt lat="48.0199" lon="6.99169">
        <ele>1270</ele>
        <time>2017-07-29T10:17:19Z</time>
      </trkpt>
      <trkpt lat="48.02002" lon="6.99184">
        <ele>1274</ele>
        <time>2017-07-29T10:17:27Z</time>
      </trkpt>
      <trkpt lat="48.02019" lon="6.99206">
        <ele>1274</ele>
        <time>2017-07-29T10:17:35Z</time>
      </trkpt>
      <trkpt lat="48.02032" lon="6.99235">
        <ele>1274</ele>
        <time>2017-07-29T10:17:43Z</time>
      </trkpt>
      <trkpt lat="48.02043" lon="6.99252">
        <ele>1273</ele>
        <time>2017-07-29T10:17:50Z</time>
      </trkpt>
      <trkpt lat="48.02055" lon="6.99267">
        <ele>1274</ele>
        <time>2017-07-29T10:17:56Z</time>
      </trkpt>
      <trkpt lat="48.02074" lon="6.99336">
        <ele>1278</ele>
        <time>2017-07-29T10:18:14Z</time>
      </trkpt>
      <trkpt lat="48.02077" lon="6.99337">
        <ele>1278</ele>
        <time>2017-07-29T10:18:16Z</time>
      </trkpt>
      <trkpt lat="48.02079" lon="6.99336">
        <ele>1279</ele>
        <time>2017-07-29T10:18:18Z</time>
      </trkpt>
      <trkpt lat="48.02092" lon="6.99339">
        <ele>1280</ele>
        <time>2017-07-29T10:18:26Z</time>
      </trkpt>
      <trkpt lat="48.02104" lon="6.99346">
        <ele>1281</ele>
        <time>2017-07-29T10:18:34Z</time>
      </trkpt>
      <trkpt lat="48.02114" lon="6.99354">
        <ele>1282</ele>
        <time>2017-07-29T10:18:41Z</time>
      </trkpt>
      <trkpt lat="48.02123" lon="6.99367">
        <ele>1282</ele>
        <time>2017-07-29T10:18:49Z</time>
      </trkpt>
      <trkpt lat="48.02128" lon="6.99377">
        <ele>1283</ele>
        <time>2017-07-29T10:18:55Z</time>
      </trkpt>
      <trkpt lat="48.02142" lon="6.9939">
        <ele>1284</ele>
        <time>2017-07-29T10:19:02Z</time>
      </trkpt>
      <trkpt lat="48.02164" lon="6.99417">
        <ele>1288</ele>
        <time>2017-07-29T10:19:16Z</time>
      </trkpt>
      <trkpt lat="48.02173" lon="6.99423">
        <ele>1288</ele>
        <time>2017-07-29T10:19:20Z</time>
      </trkpt>
      <trkpt lat="48.02178" lon="6.99427">
        <ele>1288</ele>
        <time>2017-07-29T10:19:23Z</time>
      </trkpt>
      <trkpt lat="48.022" lon="6.99452">
        <ele>1288</ele>
        <time>2017-07-29T10:19:34Z</time>
      </trkpt>
      <trkpt lat="48.02226" lon="6.99474">
        <ele>1288</ele>
        <time>2017-07-29T10:19:45Z</time>
      </trkpt>
      <trkpt lat="48.02231" lon="6.9948">
        <ele>1288</ele>
        <time>2017-07-29T10:19:47Z</time>
      </trkpt>
      <trkpt lat="48.02237" lon="6.99489">
        <ele>1288</ele>
        <time>2017-07-29T10:19:49Z</time>
      </trkpt>
      <trkpt lat="48.02275" lon="6.99534">
        <ele>1290</ele>
        <time>2017-07-29T10:20:05Z</time>
      </trkpt>
      <trkpt lat="48.02316" lon="6.99597">
        <ele>1295</ele>
        <time>2017-07-29T10:20:30Z</time>
      </trkpt>
      <trkpt lat="48.02326" lon="6.99617">
        <ele>1296</ele>
        <time>2017-07-29T10:20:37Z</time>
      </trkpt>
      <trkpt lat="48.02353" lon="6.99663">
        <ele>1292</ele>
        <time>2017-07-29T10:20:53Z</time>
      </trkpt>
      <trkpt lat="48.02377" lon="6.99716">
        <ele>1295</ele>
        <time>2017-07-29T10:21:10Z</time>
      </trkpt>
      <trkpt lat="48.02384" lon="6.99738">
        <ele>1295</ele>
        <time>2017-07-29T10:21:16Z</time>
      </trkpt>
      <trkpt lat="48.02384" lon="6.99741">
        <ele>1295</ele>
        <time>2017-07-29T10:21:17Z</time>
      </trkpt>
      <trkpt lat="48.02393" lon="6.99768">
        <ele>1299</ele>
        <time>2017-07-29T10:21:24Z</time>
      </trkpt>
      <trkpt lat="48.02411" lon="6.99811">
        <ele>1300</ele>
        <time>2017-07-29T10:21:33Z</time>
      </trkpt>
      <trkpt lat="48.02433" lon="6.99849">
        <ele>1297</ele>
        <time>2017-07-29T10:21:41Z</time>
      </trkpt>
      <trkpt lat="48.02448" lon="6.99871">
        <ele>1296</ele>
        <time>2017-07-29T10:21:46Z</time>
      </trkpt>
      <trkpt lat="48.0247" lon="6.99911">
        <ele>1296</ele>
        <time>2017-07-29T10:21:54Z</time>
      </trkpt>
      <trkpt lat="48.02478" lon="6.99931">
        <ele>1301</ele>
        <time>2017-07-29T10:21:59Z</time>
      </trkpt>
      <trkpt lat="48.025" lon="6.99957">
        <ele>1303</ele>
        <time>2017-07-29T10:22:07Z</time>
      </trkpt>
      <trkpt lat="48.02511" lon="6.99968">
        <ele>1296</ele>
        <time>2017-07-29T10:22:11Z</time>
      </trkpt>
      <trkpt lat="48.02524" lon="6.99972">
        <ele>1296</ele>
        <time>2017-07-29T10:22:15Z</time>
      </trkpt>
      <trkpt lat="48.02566" lon="7.00006">
        <ele>1297</ele>
        <time>2017-07-29T10:22:27Z</time>
      </trkpt>
      <trkpt lat="48.02589" lon="7.0003">
        <ele>1291</ele>
        <time>2017-07-29T10:22:34Z</time>
      </trkpt>
      <trkpt lat="48.02612" lon="7.00061">
        <ele>1291</ele>
        <time>2017-07-29T10:22:42Z</time>
      </trkpt>
      <trkpt lat="48.02629" lon="7.0009">
        <ele>1295</ele>
        <time>2017-07-29T10:22:49Z</time>
      </trkpt>
      <trkpt lat="48.02651" lon="7.0014">
        <ele>1295</ele>
        <time>2017-07-29T10:23:00Z</time>
      </trkpt>
      <trkpt lat="48.02662" lon="7.00175">
        <ele>1295</ele>
        <time>2017-07-29T10:23:07Z</time>
      </trkpt>
      <trkpt lat="48.02673" lon="7.00213">
        <ele>1289</ele>
        <time>2017-07-29T10:23:16Z</time>
      </trkpt>
      <trkpt lat="48.02682" lon="7.00262">
        <ele>1293</ele>
        <time>2017-07-29T10:23:26Z</time>
      </trkpt>
      <trkpt lat="48.02685" lon="7.0029">
        <ele>1291</ele>
        <time>2017-07-29T10:23:31Z</time>
      </trkpt>
      <trkpt lat="48.02693" lon="7.00331">
        <ele>1291</ele>
        <time>2017-07-29T10:23:38Z</time>
      </trkpt>
      <trkpt lat="48.02701" lon="7.0038">
        <ele>1291</ele>
        <time>2017-07-29T10:23:46Z</time>
      </trkpt>
      <trkpt lat="48.02709" lon="7.00417">
        <ele>1293</ele>
        <time>2017-07-29T10:23:51Z</time>
      </trkpt>
      <trkpt lat="48.02716" lon="7.0044">
        <ele>1292</ele>
        <time>2017-07-29T10:23:54Z</time>
      </trkpt>
      <trkpt lat="48.02733" lon="7.00492">
        <ele>1290</ele>
        <time>2017-07-29T10:24:02Z</time>
      </trkpt>
      <trkpt lat="48.02755" lon="7.00542">
        <ele>1284</ele>
        <time>2017-07-29T10:24:15Z</time>
      </trkpt>
      <trkpt lat="48.0277" lon="7.00573">
        <ele>1285</ele>
        <time>2017-07-29T10:24:23Z</time>
      </trkpt>
      <trkpt lat="48.02783" lon="7.00595">
        <ele>1286</ele>
        <time>2017-07-29T10:24:29Z</time>
      </trkpt>
      <trkpt lat="48.02787" lon="7.00599">
        <ele>1286</ele>
        <time>2017-07-29T10:24:31Z</time>
      </trkpt>
      <trkpt lat="48.02787" lon="7.00609">
        <ele>1286</ele>
        <time>2017-07-29T10:24:34Z</time>
      </trkpt>
      <trkpt lat="48.02792" lon="7.0062">
        <ele>1286</ele>
        <time>2017-07-29T10:24:39Z</time>
      </trkpt>
      <trkpt lat="48.02791" lon="7.00636">
        <ele>1287</ele>
        <time>2017-07-29T10:24:44Z</time>
      </trkpt>
      <trkpt lat="48.02785" lon="7.00712">
        <ele>1288</ele>
        <time>2017-07-29T10:25:08Z</time>
      </trkpt>
      <trkpt lat="48.02784" lon="7.0073">
        <ele>1288</ele>
        <time>2017-07-29T10:25:14Z</time>
      </trkpt>
      <trkpt lat="48.02785" lon="7.0074">
        <ele>1288</ele>
        <time>2017-07-29T10:25:21Z</time>
      </trkpt>
      <trkpt lat="48.02795" lon="7.00747">
        <ele>1288</ele>
        <time>2017-07-29T10:25:38Z</time>
      </trkpt>
      <trkpt lat="48.02807" lon="7.00759">
        <ele>1285</ele>
        <time>2017-07-29T10:25:54Z</time>
      </trkpt>
      <trkpt lat="48.02809" lon="7.00762">
        <ele>1285</ele>
        <time>2017-07-29T10:41:35Z</time>
      </trkpt>
      <trkpt lat="48.02811" lon="7.00763">
        <ele>1285</ele>
        <time>2017-07-29T10:41:36Z</time>
      </trkpt>
      <trkpt lat="48.02824" lon="7.00763">
        <ele>1285</ele>
        <time>2017-07-29T10:41:42Z</time>
      </trkpt>
      <trkpt lat="48.02853" lon="7.00752">
        <ele>1283</ele>
        <time>2017-07-29T10:41:51Z</time>
      </trkpt>
      <trkpt lat="48.02893" lon="7.00732">
        <ele>1281</ele>
        <time>2017-07-29T10:42:06Z</time>
      </trkpt>
      <trkpt lat="48.02895" lon="7.00724">
        <ele>1281</ele>
        <time>2017-07-29T10:42:10Z</time>
      </trkpt>
      <trkpt lat="48.02903" lon="7.00716">
        <ele>1281</ele>
        <time>2017-07-29T10:42:16Z</time>
      </trkpt>
      <trkpt lat="48.02982" lon="7.00785">
        <ele>1280</ele>
        <time>2017-07-29T10:42:57Z</time>
      </trkpt>
      <trkpt lat="48.03" lon="7.00795">
        <ele>1282</ele>
        <time>2017-07-29T10:43:05Z</time>
      </trkpt>
      <trkpt lat="48.03024" lon="7.00804">
        <ele>1283</ele>
        <time>2017-07-29T10:43:15Z</time>
      </trkpt>
      <trkpt lat="48.03047" lon="7.00817">
        <ele>1283</ele>
        <time>2017-07-29T10:43:28Z</time>
      </trkpt>
      <trkpt lat="48.03108" lon="7.00844">
        <ele>1290</ele>
        <time>2017-07-29T10:43:55Z</time>
      </trkpt>
      <trkpt lat="48.03131" lon="7.00853">
        <ele>1291</ele>
        <time>2017-07-29T10:44:06Z</time>
      </trkpt>
      <trkpt lat="48.03139" lon="7.00857">
        <ele>1291</ele>
        <time>2017-07-29T10:44:11Z</time>
      </trkpt>
      <trkpt lat="48.03142" lon="7.00857">
        <ele>1291</ele>
        <time>2017-07-29T10:44:13Z</time>
      </trkpt>
      <trkpt lat="48.03156" lon="7.00864">
        <ele>1291</ele>
        <time>2017-07-29T10:44:22Z</time>
      </trkpt>
      <trkpt lat="48.03167" lon="7.00866">
        <ele>1293</ele>
        <time>2017-07-29T10:44:29Z</time>
      </trkpt>
      <trkpt lat="48.03217" lon="7.00885">
        <ele>1295</ele>
        <time>2017-07-29T10:45:03Z</time>
      </trkpt>
      <trkpt lat="48.03261" lon="7.009">
        <ele>1298</ele>
        <time>2017-07-29T10:45:30Z</time>
      </trkpt>
      <trkpt lat="48.03287" lon="7.00913">
        <ele>1298</ele>
        <time>2017-07-29T10:45:48Z</time>
      </trkpt>
      <trkpt lat="48.03305" lon="7.00928">
        <ele>1299</ele>
        <time>2017-07-29T10:46:00Z</time>
      </trkpt>
      <trkpt lat="48.03316" lon="7.00938">
        <ele>1299</ele>
        <time>2017-07-29T10:46:08Z</time>
      </trkpt>
      <trkpt lat="48.03335" lon="7.00954">
        <ele>1294</ele>
        <time>2017-07-29T10:46:20Z</time>
      </trkpt>
      <trkpt lat="48.03338" lon="7.00958">
        <ele>1294</ele>
        <time>2017-07-29T10:46:22Z</time>
      </trkpt>
      <trkpt lat="48.03362" lon="7.00972">
        <ele>1292</ele>
        <time>2017-07-29T10:46:32Z</time>
      </trkpt>
      <trkpt lat="48.03384" lon="7.00993">
        <ele>1290</ele>
        <time>2017-07-29T10:46:46Z</time>
      </trkpt>
      <trkpt lat="48.03389" lon="7.00998">
        <ele>1289</ele>
        <time>2017-07-29T10:46:48Z</time>
      </trkpt>
      <trkpt lat="48.03396" lon="7.01003">
        <ele>1284</ele>
        <time>2017-07-29T10:46:52Z</time>
      </trkpt>
      <trkpt lat="48.03399" lon="7.01007">
        <ele>1283</ele>
        <time>2017-07-29T10:46:54Z</time>
      </trkpt>
      <trkpt lat="48.03406" lon="7.01013">
        <ele>1283</ele>
        <time>2017-07-29T10:46:59Z</time>
      </trkpt>
      <trkpt lat="48.0342" lon="7.01028">
        <ele>1276</ele>
        <time>2017-07-29T10:47:07Z</time>
      </trkpt>
      <trkpt lat="48.03432" lon="7.01038">
        <ele>1275</ele>
        <time>2017-07-29T10:47:13Z</time>
      </trkpt>
      <trkpt lat="48.03447" lon="7.01053">
        <ele>1273</ele>
        <time>2017-07-29T10:47:17Z</time>
      </trkpt>
      <trkpt lat="48.03463" lon="7.01059">
        <ele>1273</ele>
        <time>2017-07-29T10:47:19Z</time>
      </trkpt>
      <trkpt lat="48.03471" lon="7.01061">
        <ele>1273</ele>
        <time>2017-07-29T10:47:20Z</time>
      </trkpt>
      <trkpt lat="48.03477" lon="7.0106">
        <ele>1273</ele>
        <time>2017-07-29T10:47:21Z</time>
      </trkpt>
      <trkpt lat="48.03483" lon="7.01057">
        <ele>1273</ele>
        <time>2017-07-29T10:47:23Z</time>
      </trkpt>
      <trkpt lat="48.03483" lon="7.01057">
        <ele>1273</ele>
        <time>2017-07-29T10:47:24Z</time>
      </trkpt>
      <trkpt lat="48.03487" lon="7.01054">
        <ele>1273</ele>
        <time>2017-07-29T10:47:58Z</time>
      </trkpt>
      <trkpt lat="48.03496" lon="7.01064">
        <ele>1272</ele>
        <time>2017-07-29T10:48:06Z</time>
      </trkpt>
      <trkpt lat="48.03514" lon="7.0108">
        <ele>1272</ele>
        <time>2017-07-29T10:48:15Z</time>
      </trkpt>
      <trkpt lat="48.03535" lon="7.01085">
        <ele>1276</ele>
        <time>2017-07-29T10:48:24Z</time>
      </trkpt>
      <trkpt lat="48.03555" lon="7.01087">
        <ele>1277</ele>
        <time>2017-07-29T10:48:34Z</time>
      </trkpt>
      <trkpt lat="48.03581" lon="7.01092">
        <ele>1278</ele>
        <time>2017-07-29T10:48:49Z</time>
      </trkpt>
      <trkpt lat="48.03597" lon="7.01101">
        <ele>1283</ele>
        <time>2017-07-29T10:49:05Z</time>
      </trkpt>
      <trkpt lat="48.03605" lon="7.011">
        <ele>1284</ele>
        <time>2017-07-29T10:49:27Z</time>
      </trkpt>
      <trkpt lat="48.03617" lon="7.01093">
        <ele>1284</ele>
        <time>2017-07-29T10:49:32Z</time>
      </trkpt>
      <trkpt lat="48.03623" lon="7.01087">
        <ele>1284</ele>
        <time>2017-07-29T10:49:34Z</time>
      </trkpt>
      <trkpt lat="48.03639" lon="7.01076">
        <ele>1279</ele>
        <time>2017-07-29T10:49:38Z</time>
      </trkpt>
      <trkpt lat="48.03648" lon="7.01072">
        <ele>1279</ele>
        <time>2017-07-29T10:49:41Z</time>
      </trkpt>
      <trkpt lat="48.03652" lon="7.01073">
        <ele>1280</ele>
        <time>2017-07-29T10:49:44Z</time>
      </trkpt>
      <trkpt lat="48.03659" lon="7.01072">
        <ele>1280</ele>
        <time>2017-07-29T10:50:17Z</time>
      </trkpt>
      <trkpt lat="48.03668" lon="7.01071">
        <ele>1282</ele>
        <time>2017-07-29T10:50:20Z</time>
      </trkpt>
      <trkpt lat="48.0369" lon="7.01076">
        <ele>1281</ele>
        <time>2017-07-29T10:50:31Z</time>
      </trkpt>
      <trkpt lat="48.03695" lon="7.01078">
        <ele>1280</ele>
        <time>2017-07-29T10:50:33Z</time>
      </trkpt>
      <trkpt lat="48.03699" lon="7.01078">
        <ele>1280</ele>
        <time>2017-07-29T10:50:35Z</time>
      </trkpt>
      <trkpt lat="48.03722" lon="7.01083">
        <ele>1281</ele>
        <time>2017-07-29T10:50:45Z</time>
      </trkpt>
      <trkpt lat="48.03737" lon="7.01081">
        <ele>1282</ele>
        <time>2017-07-29T10:50:50Z</time>
      </trkpt>
      <trkpt lat="48.03769" lon="7.01085">
        <ele>1290</ele>
        <time>2017-07-29T10:51:03Z</time>
      </trkpt>
      <trkpt lat="48.03786" lon="7.01085">
        <ele>1291</ele>
        <time>2017-07-29T10:51:12Z</time>
      </trkpt>
      <trkpt lat="48.03789" lon="7.01087">
        <ele>1291</ele>
        <time>2017-07-29T10:51:15Z</time>
      </trkpt>
      <trkpt lat="48.03794" lon="7.01087">
        <ele>1292</ele>
        <time>2017-07-29T10:51:21Z</time>
      </trkpt>
      <trkpt lat="48.03797" lon="7.01087">
        <ele>1292</ele>
        <time>2017-07-29T10:51:33Z</time>
      </trkpt>
      <trkpt lat="48.0382" lon="7.01087">
        <ele>1290</ele>
        <time>2017-07-29T10:51:46Z</time>
      </trkpt>
      <trkpt lat="48.03836" lon="7.01084">
        <ele>1288</ele>
        <time>2017-07-29T10:51:53Z</time>
      </trkpt>
      <trkpt lat="48.03854" lon="7.01083">
        <ele>1291</ele>
        <time>2017-07-29T10:52:03Z</time>
      </trkpt>
      <trkpt lat="48.03866" lon="7.01086">
        <ele>1292</ele>
        <time>2017-07-29T10:52:24Z</time>
      </trkpt>
      <trkpt lat="48.03881" lon="7.01087">
        <ele>1293</ele>
        <time>2017-07-29T10:52:32Z</time>
      </trkpt>
      <trkpt lat="48.03906" lon="7.01091">
        <ele>1291</ele>
        <time>2017-07-29T10:52:42Z</time>
      </trkpt>
      <trkpt lat="48.0392" lon="7.0109">
        <ele>1290</ele>
        <time>2017-07-29T10:52:47Z</time>
      </trkpt>
      <trkpt lat="48.0394" lon="7.01091">
        <ele>1293</ele>
        <time>2017-07-29T10:52:53Z</time>
      </trkpt>
      <trkpt lat="48.03966" lon="7.0109">
        <ele>1293</ele>
        <time>2017-07-29T10:53:00Z</time>
      </trkpt>
      <trkpt lat="48.04021" lon="7.01084">
        <ele>1293</ele>
        <time>2017-07-29T10:53:15Z</time>
      </trkpt>
      <trkpt lat="48.04053" lon="7.01089">
        <ele>1295</ele>
        <time>2017-07-29T10:53:27Z</time>
      </trkpt>
      <trkpt lat="48.04065" lon="7.01085">
        <ele>1294</ele>
        <time>2017-07-29T10:53:32Z</time>
      </trkpt>
      <trkpt lat="48.04084" lon="7.01082">
        <ele>1292</ele>
        <time>2017-07-29T10:53:38Z</time>
      </trkpt>
      <trkpt lat="48.04093" lon="7.01079">
        <ele>1291</ele>
        <time>2017-07-29T10:53:42Z</time>
      </trkpt>
      <trkpt lat="48.04112" lon="7.01075">
        <ele>1290</ele>
        <time>2017-07-29T10:53:48Z</time>
      </trkpt>
      <trkpt lat="48.04132" lon="7.01078">
        <ele>1291</ele>
        <time>2017-07-29T10:54:00Z</time>
      </trkpt>
      <trkpt lat="48.04143" lon="7.01086">
        <ele>1293</ele>
        <time>2017-07-29T10:54:15Z</time>
      </trkpt>
      <trkpt lat="48.04143" lon="7.01086">
        <ele>1293</ele>
        <time>2017-07-29T10:54:17Z</time>
      </trkpt>
      <trkpt lat="48.04144" lon="7.01088">
        <ele>1293</ele>
        <time>2017-07-29T10:54:56Z</time>
      </trkpt>
      <trkpt lat="48.04147" lon="7.01093">
        <ele>1293</ele>
        <time>2017-07-29T10:54:58Z</time>
      </trkpt>
      <trkpt lat="48.04176" lon="7.0111">
        <ele>1291</ele>
        <time>2017-07-29T10:55:05Z</time>
      </trkpt>
      <trkpt lat="48.04197" lon="7.01117">
        <ele>1290</ele>
        <time>2017-07-29T10:55:09Z</time>
      </trkpt>
      <trkpt lat="48.0421" lon="7.01124">
        <ele>1290</ele>
        <time>2017-07-29T10:55:13Z</time>
      </trkpt>
      <trkpt lat="48.04221" lon="7.01127">
        <ele>1290</ele>
        <time>2017-07-29T10:55:18Z</time>
      </trkpt>
      <trkpt lat="48.04225" lon="7.0113">
        <ele>1290</ele>
        <time>2017-07-29T10:55:20Z</time>
      </trkpt>
      <trkpt lat="48.0424" lon="7.01138">
        <ele>1289</ele>
        <time>2017-07-29T10:55:27Z</time>
      </trkpt>
      <trkpt lat="48.04245" lon="7.01142">
        <ele>1288</ele>
        <time>2017-07-29T10:55:30Z</time>
      </trkpt>
      <trkpt lat="48.04251" lon="7.01148">
        <ele>1288</ele>
        <time>2017-07-29T10:55:35Z</time>
      </trkpt>
      <trkpt lat="48.04259" lon="7.01153">
        <ele>1288</ele>
        <time>2017-07-29T10:55:42Z</time>
      </trkpt>
      <trkpt lat="48.04264" lon="7.01154">
        <ele>1288</ele>
        <time>2017-07-29T10:55:45Z</time>
      </trkpt>
      <trkpt lat="48.04265" lon="7.01153">
        <ele>1288</ele>
        <time>2017-07-29T10:55:46Z</time>
      </trkpt>
      <trkpt lat="48.04269" lon="7.01154">
        <ele>1289</ele>
        <time>2017-07-29T10:55:48Z</time>
      </trkpt>
      <trkpt lat="48.04278" lon="7.01164">
        <ele>1289</ele>
        <time>2017-07-29T10:56:00Z</time>
      </trkpt>
      <trkpt lat="48.04279" lon="7.01164">
        <ele>1289</ele>
        <time>2017-07-29T10:58:46Z</time>
      </trkpt>
      <trkpt lat="48.04282" lon="7.01167">
        <ele>1276</ele>
        <time>2017-07-29T10:58:47Z</time>
      </trkpt>
      <trkpt lat="48.04316" lon="7.01187">
        <ele>1277</ele>
        <time>2017-07-29T10:58:54Z</time>
      </trkpt>
      <trkpt lat="48.04346" lon="7.01199">
        <ele>1280</ele>
        <time>2017-07-29T10:58:59Z</time>
      </trkpt>
      <trkpt lat="48.04362" lon="7.01195">
        <ele>1280</ele>
        <time>2017-07-29T10:59:02Z</time>
      </trkpt>
      <trkpt lat="48.044" lon="7.0121">
        <ele>1278</ele>
        <time>2017-07-29T10:59:09Z</time>
      </trkpt>
      <trkpt lat="48.04412" lon="7.0121">
        <ele>1278</ele>
        <time>2017-07-29T10:59:11Z</time>
      </trkpt>
      <trkpt lat="48.04417" lon="7.01208">
        <ele>1281</ele>
        <time>2017-07-29T10:59:12Z</time>
      </trkpt>
      <trkpt lat="48.04427" lon="7.01209">
        <ele>1281</ele>
        <time>2017-07-29T10:59:14Z</time>
      </trkpt>
      <trkpt lat="48.04431" lon="7.01212">
        <ele>1281</ele>
        <time>2017-07-29T10:59:15Z</time>
      </trkpt>
      <trkpt lat="48.04447" lon="7.01232">
        <ele>1279</ele>
        <time>2017-07-29T10:59:19Z</time>
      </trkpt>
      <trkpt lat="48.04466" lon="7.01248">
        <ele>1280</ele>
        <time>2017-07-29T10:59:22Z</time>
      </trkpt>
      <trkpt lat="48.04473" lon="7.0125">
        <ele>1281</ele>
        <time>2017-07-29T10:59:23Z</time>
      </trkpt>
      <trkpt lat="48.04486" lon="7.01258">
        <ele>1268</ele>
        <time>2017-07-29T10:59:25Z</time>
      </trkpt>
      <trkpt lat="48.045" lon="7.01264">
        <ele>1269</ele>
        <time>2017-07-29T10:59:27Z</time>
      </trkpt>
      <trkpt lat="48.04512" lon="7.01274">
        <ele>1273</ele>
        <time>2017-07-29T10:59:29Z</time>
      </trkpt>
      <trkpt lat="48.04518" lon="7.01281">
        <ele>1272</ele>
        <time>2017-07-29T10:59:30Z</time>
      </trkpt>
      <trkpt lat="48.04531" lon="7.01293">
        <ele>1270</ele>
        <time>2017-07-29T10:59:32Z</time>
      </trkpt>
      <trkpt lat="48.04538" lon="7.01296">
        <ele>1270</ele>
        <time>2017-07-29T10:59:33Z</time>
      </trkpt>
      <trkpt lat="48.04547" lon="7.01304">
        <ele>1270</ele>
        <time>2017-07-29T10:59:35Z</time>
      </trkpt>
      <trkpt lat="48.04557" lon="7.01309">
        <ele>1271</ele>
        <time>2017-07-29T10:59:37Z</time>
      </trkpt>
      <trkpt lat="48.04572" lon="7.0132">
        <ele>1272</ele>
        <time>2017-07-29T10:59:40Z</time>
      </trkpt>
      <trkpt lat="48.04578" lon="7.0132">
        <ele>1272</ele>
        <time>2017-07-29T10:59:41Z</time>
      </trkpt>
      <trkpt lat="48.0459" lon="7.01331">
        <ele>1274</ele>
        <time>2017-07-29T10:59:43Z</time>
      </trkpt>
      <trkpt lat="48.04595" lon="7.01338">
        <ele>1270</ele>
        <time>2017-07-29T10:59:44Z</time>
      </trkpt>
      <trkpt lat="48.046" lon="7.01345">
        <ele>1269</ele>
        <time>2017-07-29T10:59:45Z</time>
      </trkpt>
      <trkpt lat="48.04618" lon="7.01361">
        <ele>1267</ele>
        <time>2017-07-29T10:59:48Z</time>
      </trkpt>
      <trkpt lat="48.04644" lon="7.01372">
        <ele>1268</ele>
        <time>2017-07-29T10:59:52Z</time>
      </trkpt>
      <trkpt lat="48.04663" lon="7.01383">
        <ele>1268</ele>
        <time>2017-07-29T10:59:55Z</time>
      </trkpt>
      <trkpt lat="48.04674" lon="7.01394">
        <ele>1270</ele>
        <time>2017-07-29T10:59:57Z</time>
      </trkpt>
      <trkpt lat="48.04695" lon="7.01423">
        <ele>1266</ele>
        <time>2017-07-29T11:00:01Z</time>
      </trkpt>
      <trkpt lat="48.04718" lon="7.01471">
        <ele>1264</ele>
        <time>2017-07-29T11:00:07Z</time>
      </trkpt>
      <trkpt lat="48.04739" lon="7.01491">
        <ele>1264</ele>
        <time>2017-07-29T11:00:11Z</time>
      </trkpt>
      <trkpt lat="48.04758" lon="7.01496">
        <ele>1263</ele>
        <time>2017-07-29T11:00:14Z</time>
      </trkpt>
      <trkpt lat="48.04771" lon="7.01497">
        <ele>1263</ele>
        <time>2017-07-29T11:00:16Z</time>
      </trkpt>
      <trkpt lat="48.04778" lon="7.01496">
        <ele>1262</ele>
        <time>2017-07-29T11:00:17Z</time>
      </trkpt>
      <trkpt lat="48.04792" lon="7.01495">
        <ele>1262</ele>
        <time>2017-07-29T11:00:19Z</time>
      </trkpt>
      <trkpt lat="48.04797" lon="7.01493">
        <ele>1261</ele>
        <time>2017-07-29T11:00:20Z</time>
      </trkpt>
      <trkpt lat="48.04806" lon="7.01484">
        <ele>1261</ele>
        <time>2017-07-29T11:00:23Z</time>
      </trkpt>
      <trkpt lat="48.04814" lon="7.01491">
        <ele>1260</ele>
        <time>2017-07-29T11:00:27Z</time>
      </trkpt>
      <trkpt lat="48.04816" lon="7.0149">
        <ele>1260</ele>
        <time>2017-07-29T11:00:28Z</time>
      </trkpt>
      <trkpt lat="48.04825" lon="7.01491">
        <ele>1260</ele>
        <time>2017-07-29T11:00:34Z</time>
      </trkpt>
      <trkpt lat="48.04835" lon="7.0149">
        <ele>1257</ele>
        <time>2017-07-29T11:00:38Z</time>
      </trkpt>
      <trkpt lat="48.04854" lon="7.01507">
        <ele>1254</ele>
        <time>2017-07-29T11:00:43Z</time>
      </trkpt>
      <trkpt lat="48.04867" lon="7.01514">
        <ele>1252</ele>
        <time>2017-07-29T11:00:46Z</time>
      </trkpt>
      <trkpt lat="48.04872" lon="7.01516">
        <ele>1252</ele>
        <time>2017-07-29T11:00:48Z</time>
      </trkpt>
      <trkpt lat="48.04877" lon="7.01515">
        <ele>1252</ele>
        <time>2017-07-29T11:00:49Z</time>
      </trkpt>
      <trkpt lat="48.0488" lon="7.01517">
        <ele>1252</ele>
        <time>2017-07-29T11:00:50Z</time>
      </trkpt>
      <trkpt lat="48.04888" lon="7.01522">
        <ele>1251</ele>
        <time>2017-07-29T11:00:53Z</time>
      </trkpt>
      <trkpt lat="48.04894" lon="7.01523">
        <ele>1251</ele>
        <time>2017-07-29T11:00:55Z</time>
      </trkpt>
      <trkpt lat="48.049" lon="7.01531">
        <ele>1251</ele>
        <time>2017-07-29T11:00:58Z</time>
      </trkpt>
      <trkpt lat="48.049" lon="7.01535">
        <ele>1251</ele>
        <time>2017-07-29T11:00:59Z</time>
      </trkpt>
      <trkpt lat="48.04904" lon="7.01547">
        <ele>1250</ele>
        <time>2017-07-29T11:01:02Z</time>
      </trkpt>
      <trkpt lat="48.04913" lon="7.01557">
        <ele>1249</ele>
        <time>2017-07-29T11:01:05Z</time>
      </trkpt>
      <trkpt lat="48.04917" lon="7.0156">
        <ele>1246</ele>
        <time>2017-07-29T11:01:06Z</time>
      </trkpt>
      <trkpt lat="48.04931" lon="7.01575">
        <ele>1246</ele>
        <time>2017-07-29T11:01:10Z</time>
      </trkpt>
      <trkpt lat="48.0494" lon="7.01581">
        <ele>1246</ele>
        <time>2017-07-29T11:01:19Z</time>
      </trkpt>
      <trkpt lat="48.04955" lon="7.01597">
        <ele>1242</ele>
        <time>2017-07-29T11:01:57Z</time>
      </trkpt>
      <trkpt lat="48.04959" lon="7.01602">
        <ele>1241</ele>
        <time>2017-07-29T11:02:00Z</time>
      </trkpt>
      <trkpt lat="48.04962" lon="7.01605">
        <ele>1241</ele>
        <time>2017-07-29T11:02:02Z</time>
      </trkpt>
      <trkpt lat="48.04975" lon="7.01608">
        <ele>1241</ele>
        <time>2017-07-29T11:02:07Z</time>
      </trkpt>
      <trkpt lat="48.0498" lon="7.01612">
        <ele>1241</ele>
        <time>2017-07-29T11:02:10Z</time>
      </trkpt>
      <trkpt lat="48.05003" lon="7.01624">
        <ele>1240</ele>
        <time>2017-07-29T11:02:50Z</time>
      </trkpt>
      <trkpt lat="48.05016" lon="7.01635">
        <ele>1240</ele>
        <time>2017-07-29T11:02:54Z</time>
      </trkpt>
      <trkpt lat="48.05034" lon="7.01658">
        <ele>1240</ele>
        <time>2017-07-29T11:02:59Z</time>
      </trkpt>
      <trkpt lat="48.05047" lon="7.01671">
        <ele>1237</ele>
        <time>2017-07-29T11:03:02Z</time>
      </trkpt>
      <trkpt lat="48.05052" lon="7.01677">
        <ele>1236</ele>
        <time>2017-07-29T11:03:03Z</time>
      </trkpt>
      <trkpt lat="48.05058" lon="7.01693">
        <ele>1236</ele>
        <time>2017-07-29T11:03:05Z</time>
      </trkpt>
      <trkpt lat="48.05066" lon="7.01708">
        <ele>1235</ele>
        <time>2017-07-29T11:03:07Z</time>
      </trkpt>
      <trkpt lat="48.05081" lon="7.0173">
        <ele>1234</ele>
        <time>2017-07-29T11:03:10Z</time>
      </trkpt>
      <trkpt lat="48.05094" lon="7.0176">
        <ele>1229</ele>
        <time>2017-07-29T11:03:13Z</time>
      </trkpt>
      <trkpt lat="48.051" lon="7.0177">
        <ele>1228</ele>
        <time>2017-07-29T11:03:14Z</time>
      </trkpt>
      <trkpt lat="48.05112" lon="7.01788">
        <ele>1227</ele>
        <time>2017-07-29T11:03:16Z</time>
      </trkpt>
      <trkpt lat="48.05126" lon="7.01807">
        <ele>1227</ele>
        <time>2017-07-29T11:03:19Z</time>
      </trkpt>
      <trkpt lat="48.05146" lon="7.01863">
        <ele>1222</ele>
        <time>2017-07-29T11:03:26Z</time>
      </trkpt>
      <trkpt lat="48.05152" lon="7.01888">
        <ele>1222</ele>
        <time>2017-07-29T11:03:30Z</time>
      </trkpt>
      <trkpt lat="48.05153" lon="7.01898">
        <ele>1223</ele>
        <time>2017-07-29T11:03:32Z</time>
      </trkpt>
      <trkpt lat="48.05153" lon="7.01903">
        <ele>1223</ele>
        <time>2017-07-29T11:03:33Z</time>
      </trkpt>
      <trkpt lat="48.0516" lon="7.01932">
        <ele>1221</ele>
        <time>2017-07-29T11:03:44Z</time>
      </trkpt>
      <trkpt lat="48.0516" lon="7.01933">
        <ele>1222</ele>
        <time>2017-07-29T11:03:45Z</time>
      </trkpt>
      <trkpt lat="48.05162" lon="7.01936">
        <ele>1221</ele>
        <time>2017-07-29T11:04:12Z</time>
      </trkpt>
      <trkpt lat="48.05167" lon="7.01942">
        <ele>1231</ele>
        <time>2017-07-29T11:04:14Z</time>
      </trkpt>
      <trkpt lat="48.05178" lon="7.01962">
        <ele>1231</ele>
        <time>2017-07-29T11:04:21Z</time>
      </trkpt>
      <trkpt lat="48.0519" lon="7.01975">
        <ele>1232</ele>
        <time>2017-07-29T11:04:28Z</time>
      </trkpt>
      <trkpt lat="48.05195" lon="7.01977">
        <ele>1232</ele>
        <time>2017-07-29T11:04:32Z</time>
      </trkpt>
      <trkpt lat="48.05204" lon="7.01986">
        <ele>1232</ele>
        <time>2017-07-29T11:04:55Z</time>
      </trkpt>
      <trkpt lat="48.05215" lon="7.02011">
        <ele>1229</ele>
        <time>2017-07-29T11:05:02Z</time>
      </trkpt>
      <trkpt lat="48.05228" lon="7.02024">
        <ele>1229</ele>
        <time>2017-07-29T11:05:07Z</time>
      </trkpt>
      <trkpt lat="48.05274" lon="7.0206">
        <ele>1233</ele>
        <time>2017-07-29T11:05:22Z</time>
      </trkpt>
      <trkpt lat="48.05314" lon="7.021">
        <ele>1231</ele>
        <time>2017-07-29T11:05:39Z</time>
      </trkpt>
      <trkpt lat="48.0532" lon="7.02108">
        <ele>1231</ele>
        <time>2017-07-29T11:05:42Z</time>
      </trkpt>
      <trkpt lat="48.05349" lon="7.02132">
        <ele>1237</ele>
        <time>2017-07-29T11:05:54Z</time>
      </trkpt>
      <trkpt lat="48.05381" lon="7.02162">
        <ele>1239</ele>
        <time>2017-07-29T11:06:07Z</time>
      </trkpt>
      <trkpt lat="48.05401" lon="7.02182">
        <ele>1235</ele>
        <time>2017-07-29T11:06:17Z</time>
      </trkpt>
      <trkpt lat="48.05402" lon="7.02185">
        <ele>1235</ele>
        <time>2017-07-29T11:06:19Z</time>
      </trkpt>
      <trkpt lat="48.05402" lon="7.02186">
        <ele>1235</ele>
        <time>2017-07-29T11:06:20Z</time>
      </trkpt>
      <trkpt lat="48.05407" lon="7.0219">
        <ele>1235</ele>
        <time>2017-07-29T11:06:44Z</time>
      </trkpt>
      <trkpt lat="48.05426" lon="7.02204">
        <ele>1241</ele>
        <time>2017-07-29T11:06:51Z</time>
      </trkpt>
      <trkpt lat="48.05458" lon="7.0223">
        <ele>1241</ele>
        <time>2017-07-29T11:07:02Z</time>
      </trkpt>
      <trkpt lat="48.05469" lon="7.02235">
        <ele>1242</ele>
        <time>2017-07-29T11:07:06Z</time>
      </trkpt>
      <trkpt lat="48.05474" lon="7.02236">
        <ele>1242</ele>
        <time>2017-07-29T11:07:09Z</time>
      </trkpt>
      <trkpt lat="48.05479" lon="7.02241">
        <ele>1242</ele>
        <time>2017-07-29T11:07:18Z</time>
      </trkpt>
      <trkpt lat="48.05484" lon="7.02248">
        <ele>1243</ele>
        <time>2017-07-29T11:07:20Z</time>
      </trkpt>
      <trkpt lat="48.05507" lon="7.02269">
        <ele>1242</ele>
        <time>2017-07-29T11:07:27Z</time>
      </trkpt>
      <trkpt lat="48.0552" lon="7.02287">
        <ele>1241</ele>
        <time>2017-07-29T11:07:33Z</time>
      </trkpt>
      <trkpt lat="48.05534" lon="7.02311">
        <ele>1241</ele>
        <time>2017-07-29T11:07:39Z</time>
      </trkpt>
      <trkpt lat="48.05547" lon="7.02322">
        <ele>1241</ele>
        <time>2017-07-29T11:07:44Z</time>
      </trkpt>
      <trkpt lat="48.05556" lon="7.02331">
        <ele>1241</ele>
        <time>2017-07-29T11:07:50Z</time>
      </trkpt>
      <trkpt lat="48.05561" lon="7.02344">
        <ele>1241</ele>
        <time>2017-07-29T11:07:54Z</time>
      </trkpt>
      <trkpt lat="48.05564" lon="7.02346">
        <ele>1241</ele>
        <time>2017-07-29T11:07:55Z</time>
      </trkpt>
      <trkpt lat="48.05568" lon="7.02353">
        <ele>1241</ele>
        <time>2017-07-29T11:07:58Z</time>
      </trkpt>
      <trkpt lat="48.05571" lon="7.02359">
        <ele>1241</ele>
        <time>2017-07-29T11:08:02Z</time>
      </trkpt>
      <trkpt lat="48.05587" lon="7.02376">
        <ele>1242</ele>
        <time>2017-07-29T11:08:11Z</time>
      </trkpt>
      <trkpt lat="48.056" lon="7.02392">
        <ele>1242</ele>
        <time>2017-07-29T11:08:17Z</time>
      </trkpt>
      <trkpt lat="48.05617" lon="7.02405">
        <ele>1242</ele>
        <time>2017-07-29T11:08:23Z</time>
      </trkpt>
      <trkpt lat="48.05633" lon="7.0242">
        <ele>1236</ele>
        <time>2017-07-29T11:08:27Z</time>
      </trkpt>
      <trkpt lat="48.0564" lon="7.02425">
        <ele>1236</ele>
        <time>2017-07-29T11:08:29Z</time>
      </trkpt>
      <trkpt lat="48.05644" lon="7.02426">
        <ele>1236</ele>
        <time>2017-07-29T11:08:30Z</time>
      </trkpt>
      <trkpt lat="48.05659" lon="7.02421">
        <ele>1237</ele>
        <time>2017-07-29T11:08:34Z</time>
      </trkpt>
      <trkpt lat="48.05666" lon="7.02415">
        <ele>1239</ele>
        <time>2017-07-29T11:08:37Z</time>
      </trkpt>
      <trkpt lat="48.05676" lon="7.02407">
        <ele>1235</ele>
        <time>2017-07-29T11:08:41Z</time>
      </trkpt>
      <trkpt lat="48.0568" lon="7.02405">
        <ele>1235</ele>
        <time>2017-07-29T11:08:42Z</time>
      </trkpt>
      <trkpt lat="48.05689" lon="7.02405">
        <ele>1233</ele>
        <time>2017-07-29T11:08:45Z</time>
      </trkpt>
      <trkpt lat="48.05707" lon="7.02397">
        <ele>1230</ele>
        <time>2017-07-29T11:08:51Z</time>
      </trkpt>
      <trkpt lat="48.05715" lon="7.02393">
        <ele>1229</ele>
        <time>2017-07-29T11:08:53Z</time>
      </trkpt>
      <trkpt lat="48.05721" lon="7.02387">
        <ele>1229</ele>
        <time>2017-07-29T11:08:55Z</time>
      </trkpt>
      <trkpt lat="48.05725" lon="7.02386">
        <ele>1228</ele>
        <time>2017-07-29T11:08:56Z</time>
      </trkpt>
      <trkpt lat="48.05736" lon="7.02371">
        <ele>1229</ele>
        <time>2017-07-29T11:09:01Z</time>
      </trkpt>
      <trkpt lat="48.05744" lon="7.02357">
        <ele>1229</ele>
        <time>2017-07-29T11:09:04Z</time>
      </trkpt>
      <trkpt lat="48.05752" lon="7.02346">
        <ele>1221</ele>
        <time>2017-07-29T11:09:06Z</time>
      </trkpt>
      <trkpt lat="48.05756" lon="7.02335">
        <ele>1224</ele>
        <time>2017-07-29T11:09:08Z</time>
      </trkpt>
      <trkpt lat="48.05766" lon="7.0232">
        <ele>1224</ele>
        <time>2017-07-29T11:09:11Z</time>
      </trkpt>
      <trkpt lat="48.05779" lon="7.02308">
        <ele>1221</ele>
        <time>2017-07-29T11:09:14Z</time>
      </trkpt>
      <trkpt lat="48.0579" lon="7.02301">
        <ele>1220</ele>
        <time>2017-07-29T11:09:16Z</time>
      </trkpt>
      <trkpt lat="48.05823" lon="7.02304">
        <ele>1216</ele>
        <time>2017-07-29T11:09:22Z</time>
      </trkpt>
      <trkpt lat="48.05835" lon="7.02303">
        <ele>1207</ele>
        <time>2017-07-29T11:09:24Z</time>
      </trkpt>
      <trkpt lat="48.05845" lon="7.02305">
        <ele>1207</ele>
        <time>2017-07-29T11:09:26Z</time>
      </trkpt>
      <trkpt lat="48.05854" lon="7.0231">
        <ele>1207</ele>
        <time>2017-07-29T11:09:28Z</time>
      </trkpt>
      <trkpt lat="48.05865" lon="7.02312">
        <ele>1207</ele>
        <time>2017-07-29T11:09:30Z</time>
      </trkpt>
      <trkpt lat="48.0587" lon="7.02315">
        <ele>1206</ele>
        <time>2017-07-29T11:09:31Z</time>
      </trkpt>
      <trkpt lat="48.0588" lon="7.02318">
        <ele>1206</ele>
        <time>2017-07-29T11:09:33Z</time>
      </trkpt>
      <trkpt lat="48.05902" lon="7.0233">
        <ele>1204</ele>
        <time>2017-07-29T11:09:39Z</time>
      </trkpt>
      <trkpt lat="48.05915" lon="7.02334">
        <ele>1200</ele>
        <time>2017-07-29T11:09:43Z</time>
      </trkpt>
      <trkpt lat="48.05919" lon="7.02337">
        <ele>1200</ele>
        <time>2017-07-29T11:09:44Z</time>
      </trkpt>
      <trkpt lat="48.05939" lon="7.02363">
        <ele>1193</ele>
        <time>2017-07-29T11:09:50Z</time>
      </trkpt>
      <trkpt lat="48.05953" lon="7.02375">
        <ele>1192</ele>
        <time>2017-07-29T11:09:53Z</time>
      </trkpt>
      <trkpt lat="48.05966" lon="7.02382">
        <ele>1192</ele>
        <time>2017-07-29T11:09:55Z</time>
      </trkpt>
      <trkpt lat="48.06008" lon="7.02398">
        <ele>1194</ele>
        <time>2017-07-29T11:10:00Z</time>
      </trkpt>
      <trkpt lat="48.06015" lon="7.02402">
        <ele>1193</ele>
        <time>2017-07-29T11:10:01Z</time>
      </trkpt>
      <trkpt lat="48.06024" lon="7.0241">
        <ele>1193</ele>
        <time>2017-07-29T11:10:02Z</time>
      </trkpt>
      <trkpt lat="48.0605" lon="7.02442">
        <ele>1181</ele>
        <time>2017-07-29T11:10:06Z</time>
      </trkpt>
      <trkpt lat="48.06071" lon="7.02472">
        <ele>1178</ele>
        <time>2017-07-29T11:10:11Z</time>
      </trkpt>
      <trkpt lat="48.06078" lon="7.02479">
        <ele>1177</ele>
        <time>2017-07-29T11:10:13Z</time>
      </trkpt>
      <trkpt lat="48.06081" lon="7.02481">
        <ele>1177</ele>
        <time>2017-07-29T11:10:14Z</time>
      </trkpt>
      <trkpt lat="48.06093" lon="7.02482">
        <ele>1176</ele>
        <time>2017-07-29T11:10:17Z</time>
      </trkpt>
      <trkpt lat="48.06109" lon="7.02481">
        <ele>1175</ele>
        <time>2017-07-29T11:10:20Z</time>
      </trkpt>
      <trkpt lat="48.06118" lon="7.02478">
        <ele>1175</ele>
        <time>2017-07-29T11:10:23Z</time>
      </trkpt>
      <trkpt lat="48.06121" lon="7.02476">
        <ele>1175</ele>
        <time>2017-07-29T11:10:25Z</time>
      </trkpt>
      <trkpt lat="48.06125" lon="7.02474">
        <ele>1174</ele>
        <time>2017-07-29T11:10:56Z</time>
      </trkpt>
      <trkpt lat="48.06126" lon="7.02469">
        <ele>1175</ele>
        <time>2017-07-29T11:10:57Z</time>
      </trkpt>
      <trkpt lat="48.06137" lon="7.02443">
        <ele>1176</ele>
        <time>2017-07-29T11:11:01Z</time>
      </trkpt>
      <trkpt lat="48.06153" lon="7.02413">
        <ele>1179</ele>
        <time>2017-07-29T11:11:05Z</time>
      </trkpt>
      <trkpt lat="48.06162" lon="7.024">
        <ele>1179</ele>
        <time>2017-07-29T11:11:07Z</time>
      </trkpt>
      <trkpt lat="48.06167" lon="7.02395">
        <ele>1172</ele>
        <time>2017-07-29T11:11:08Z</time>
      </trkpt>
      <trkpt lat="48.06173" lon="7.02395">
        <ele>1172</ele>
        <time>2017-07-29T11:11:09Z</time>
      </trkpt>
      <trkpt lat="48.06179" lon="7.02397">
        <ele>1172</ele>
        <time>2017-07-29T11:11:10Z</time>
      </trkpt>
      <trkpt lat="48.06193" lon="7.02412">
        <ele>1171</ele>
        <time>2017-07-29T11:11:13Z</time>
      </trkpt>
      <trkpt lat="48.06195" lon="7.02413">
        <ele>1170</ele>
        <time>2017-07-29T11:11:14Z</time>
      </trkpt>
      <trkpt lat="48.06198" lon="7.02411">
        <ele>1170</ele>
        <time>2017-07-29T11:11:15Z</time>
      </trkpt>
      <trkpt lat="48.06208" lon="7.02388">
        <ele>1169</ele>
        <time>2017-07-29T11:11:21Z</time>
      </trkpt>
      <trkpt lat="48.06215" lon="7.02377">
        <ele>1168</ele>
        <time>2017-07-29T11:11:23Z</time>
      </trkpt>
      <trkpt lat="48.0622" lon="7.02372">
        <ele>1168</ele>
        <time>2017-07-29T11:11:24Z</time>
      </trkpt>
      <trkpt lat="48.06236" lon="7.02361">
        <ele>1167</ele>
        <time>2017-07-29T11:11:27Z</time>
      </trkpt>
      <trkpt lat="48.06242" lon="7.02354">
        <ele>1167</ele>
        <time>2017-07-29T11:11:28Z</time>
      </trkpt>
      <trkpt lat="48.06248" lon="7.0235">
        <ele>1166</ele>
        <time>2017-07-29T11:11:29Z</time>
      </trkpt>
      <trkpt lat="48.06277" lon="7.02336">
        <ele>1157</ele>
        <time>2017-07-29T11:11:35Z</time>
      </trkpt>
      <trkpt lat="48.06289" lon="7.02332">
        <ele>1155</ele>
        <time>2017-07-29T11:11:39Z</time>
      </trkpt>
      <trkpt lat="48.06294" lon="7.02324">
        <ele>1154</ele>
        <time>2017-07-29T11:11:43Z</time>
      </trkpt>
      <trkpt lat="48.06301" lon="7.02314">
        <ele>1153</ele>
        <time>2017-07-29T11:11:47Z</time>
      </trkpt>
      <trkpt lat="48.06317" lon="7.02301">
        <ele>1152</ele>
        <time>2017-07-29T11:11:53Z</time>
      </trkpt>
      <trkpt lat="48.06321" lon="7.02296">
        <ele>1151</ele>
        <time>2017-07-29T11:11:55Z</time>
      </trkpt>
      <trkpt lat="48.06322" lon="7.02291">
        <ele>1151</ele>
        <time>2017-07-29T11:11:56Z</time>
      </trkpt>
      <trkpt lat="48.06325" lon="7.02272">
        <ele>1149</ele>
        <time>2017-07-29T11:11:59Z</time>
      </trkpt>
      <trkpt lat="48.06324" lon="7.02255">
        <ele>1147</ele>
        <time>2017-07-29T11:12:01Z</time>
      </trkpt>
      <trkpt lat="48.06326" lon="7.02247">
        <ele>1145</ele>
        <time>2017-07-29T11:12:02Z</time>
      </trkpt>
      <trkpt lat="48.06335" lon="7.02231">
        <ele>1141</ele>
        <time>2017-07-29T11:12:05Z</time>
      </trkpt>
      <trkpt lat="48.06339" lon="7.02227">
        <ele>1140</ele>
        <time>2017-07-29T11:12:07Z</time>
      </trkpt>
      <trkpt lat="48.06342" lon="7.02229">
        <ele>1140</ele>
        <time>2017-07-29T11:12:09Z</time>
      </trkpt>
      <trkpt lat="48.06342" lon="7.02229">
        <ele>1140</ele>
        <time>2017-07-29T11:12:54Z</time>
      </trkpt>
      <trkpt lat="48.06357" lon="7.02253">
        <ele>1144</ele>
        <time>2017-07-29T11:13:05Z</time>
      </trkpt>
      <trkpt lat="48.06358" lon="7.02253">
        <ele>1144</ele>
        <time>2017-07-29T11:20:30Z</time>
      </trkpt>
      <trkpt lat="48.0636" lon="7.0225">
        <ele>1144</ele>
        <time>2017-07-29T11:20:31Z</time>
      </trkpt>
      <trkpt lat="48.06366" lon="7.0222">
        <ele>1139</ele>
        <time>2017-07-29T11:20:39Z</time>
      </trkpt>
      <trkpt lat="48.06365" lon="7.02214">
        <ele>1139</ele>
        <time>2017-07-29T11:20:41Z</time>
      </trkpt>
      <trkpt lat="48.06366" lon="7.0221">
        <ele>1138</ele>
        <time>2017-07-29T11:20:43Z</time>
      </trkpt>
      <trkpt lat="48.06365" lon="7.02204">
        <ele>1138</ele>
        <time>2017-07-29T11:20:47Z</time>
      </trkpt>
      <trkpt lat="48.06365" lon="7.02199">
        <ele>1138</ele>
        <time>2017-07-29T11:25:38Z</time>
      </trkpt>
      <trkpt lat="48.06334" lon="7.02152">
        <ele>1134</ele>
        <time>2017-07-29T11:25:52Z</time>
      </trkpt>
      <trkpt lat="48.06319" lon="7.02125">
        <ele>1137</ele>
        <time>2017-07-29T11:25:58Z</time>
      </trkpt>
      <trkpt lat="48.06297" lon="7.02104">
        <ele>1137</ele>
        <time>2017-07-29T11:26:05Z</time>
      </trkpt>
      <trkpt lat="48.06275" lon="7.02092">
        <ele>1138</ele>
        <time>2017-07-29T11:26:11Z</time>
      </trkpt>
      <trkpt lat="48.06252" lon="7.02087">
        <ele>1139</ele>
        <time>2017-07-29T11:26:17Z</time>
      </trkpt>
      <trkpt lat="48.06245" lon="7.02079">
        <ele>1141</ele>
        <time>2017-07-29T11:26:19Z</time>
      </trkpt>
      <trkpt lat="48.06241" lon="7.0206">
        <ele>1144</ele>
        <time>2017-07-29T11:26:22Z</time>
      </trkpt>
      <trkpt lat="48.06248" lon="7.02042">
        <ele>1144</ele>
        <time>2017-07-29T11:26:25Z</time>
      </trkpt>
      <trkpt lat="48.06267" lon="7.02">
        <ele>1137</ele>
        <time>2017-07-29T11:26:33Z</time>
      </trkpt>
      <trkpt lat="48.0627" lon="7.01986">
        <ele>1137</ele>
        <time>2017-07-29T11:26:35Z</time>
      </trkpt>
      <trkpt lat="48.06271" lon="7.01979">
        <ele>1137</ele>
        <time>2017-07-29T11:26:36Z</time>
      </trkpt>
      <trkpt lat="48.0627" lon="7.01971">
        <ele>1137</ele>
        <time>2017-07-29T11:26:37Z</time>
      </trkpt>
      <trkpt lat="48.06262" lon="7.01945">
        <ele>1137</ele>
        <time>2017-07-29T11:26:41Z</time>
      </trkpt>
      <trkpt lat="48.06255" lon="7.01909">
        <ele>1139</ele>
        <time>2017-07-29T11:26:48Z</time>
      </trkpt>
      <trkpt lat="48.06254" lon="7.019">
        <ele>1139</ele>
        <time>2017-07-29T11:26:50Z</time>
      </trkpt>
      <trkpt lat="48.06251" lon="7.0187">
        <ele>1139</ele>
        <time>2017-07-29T11:26:57Z</time>
      </trkpt>
      <trkpt lat="48.06251" lon="7.01859">
        <ele>1139</ele>
        <time>2017-07-29T11:27:00Z</time>
      </trkpt>
      <trkpt lat="48.06246" lon="7.01815">
        <ele>1147</ele>
        <time>2017-07-29T11:27:12Z</time>
      </trkpt>
      <trkpt lat="48.06246" lon="7.01808">
        <ele>1148</ele>
        <time>2017-07-29T11:27:14Z</time>
      </trkpt>
      <trkpt lat="48.0624" lon="7.01729">
        <ele>1147</ele>
        <time>2017-07-29T11:27:35Z</time>
      </trkpt>
      <trkpt lat="48.06235" lon="7.01711">
        <ele>1148</ele>
        <time>2017-07-29T11:27:40Z</time>
      </trkpt>
      <trkpt lat="48.06228" lon="7.01699">
        <ele>1148</ele>
        <time>2017-07-29T11:27:44Z</time>
      </trkpt>
      <trkpt lat="48.0622" lon="7.01693">
        <ele>1149</ele>
        <time>2017-07-29T11:27:48Z</time>
      </trkpt>
      <trkpt lat="48.06217" lon="7.01689">
        <ele>1149</ele>
        <time>2017-07-29T11:27:51Z</time>
      </trkpt>
      <trkpt lat="48.06208" lon="7.01658">
        <ele>1147</ele>
        <time>2017-07-29T11:28:04Z</time>
      </trkpt>
      <trkpt lat="48.06202" lon="7.01648">
        <ele>1148</ele>
        <time>2017-07-29T11:28:09Z</time>
      </trkpt>
      <trkpt lat="48.06201" lon="7.01631">
        <ele>1147</ele>
        <time>2017-07-29T11:28:15Z</time>
      </trkpt>
      <trkpt lat="48.06198" lon="7.01618">
        <ele>1147</ele>
        <time>2017-07-29T11:28:21Z</time>
      </trkpt>
      <trkpt lat="48.06186" lon="7.01591">
        <ele>1150</ele>
        <time>2017-07-29T11:28:33Z</time>
      </trkpt>
      <trkpt lat="48.0618" lon="7.01573">
        <ele>1148</ele>
        <time>2017-07-29T11:28:40Z</time>
      </trkpt>
      <trkpt lat="48.06177" lon="7.01568">
        <ele>1147</ele>
        <time>2017-07-29T11:28:42Z</time>
      </trkpt>
      <trkpt lat="48.06162" lon="7.01549">
        <ele>1159</ele>
        <time>2017-07-29T11:28:47Z</time>
      </trkpt>
      <trkpt lat="48.06148" lon="7.01537">
        <ele>1159</ele>
        <time>2017-07-29T11:28:53Z</time>
      </trkpt>
      <trkpt lat="48.06132" lon="7.01514">
        <ele>1159</ele>
        <time>2017-07-29T11:29:01Z</time>
      </trkpt>
      <trkpt lat="48.06119" lon="7.01502">
        <ele>1161</ele>
        <time>2017-07-29T11:29:08Z</time>
      </trkpt>
      <trkpt lat="48.06088" lon="7.01479">
        <ele>1157</ele>
        <time>2017-07-29T11:29:20Z</time>
      </trkpt>
      <trkpt lat="48.06087" lon="7.01477">
        <ele>1156</ele>
        <time>2017-07-29T11:29:21Z</time>
      </trkpt>
      <trkpt lat="48.0605" lon="7.01458">
        <ele>1167</ele>
        <time>2017-07-29T11:29:30Z</time>
      </trkpt>
      <trkpt lat="48.06029" lon="7.01449">
        <ele>1169</ele>
        <time>2017-07-29T11:29:39Z</time>
      </trkpt>
      <trkpt lat="48.06026" lon="7.01446">
        <ele>1169</ele>
        <time>2017-07-29T11:29:41Z</time>
      </trkpt>
      <trkpt lat="48.06019" lon="7.01444">
        <ele>1169</ele>
        <time>2017-07-29T11:29:44Z</time>
      </trkpt>
      <trkpt lat="48.06002" lon="7.01435">
        <ele>1170</ele>
        <time>2017-07-29T11:29:52Z</time>
      </trkpt>
      <trkpt lat="48.05975" lon="7.01426">
        <ele>1179</ele>
        <time>2017-07-29T11:30:04Z</time>
      </trkpt>
      <trkpt lat="48.05973" lon="7.01421">
        <ele>1180</ele>
        <time>2017-07-29T11:30:05Z</time>
      </trkpt>
      <trkpt lat="48.05971" lon="7.01419">
        <ele>1180</ele>
        <time>2017-07-29T11:30:06Z</time>
      </trkpt>
      <trkpt lat="48.05956" lon="7.01411">
        <ele>1172</ele>
        <time>2017-07-29T11:30:15Z</time>
      </trkpt>
      <trkpt lat="48.05943" lon="7.01401">
        <ele>1173</ele>
        <time>2017-07-29T11:30:25Z</time>
      </trkpt>
      <trkpt lat="48.05941" lon="7.01403">
        <ele>1174</ele>
        <time>2017-07-29T11:30:26Z</time>
      </trkpt>
      <trkpt lat="48.05939" lon="7.01402">
        <ele>1174</ele>
        <time>2017-07-29T11:30:27Z</time>
      </trkpt>
      <trkpt lat="48.05937" lon="7.01403">
        <ele>1174</ele>
        <time>2017-07-29T11:30:29Z</time>
      </trkpt>
      <trkpt lat="48.05924" lon="7.01402">
        <ele>1177</ele>
        <time>2017-07-29T11:30:35Z</time>
      </trkpt>
      <trkpt lat="48.05913" lon="7.01394">
        <ele>1181</ele>
        <time>2017-07-29T11:30:40Z</time>
      </trkpt>
      <trkpt lat="48.05887" lon="7.0139">
        <ele>1180</ele>
        <time>2017-07-29T11:30:53Z</time>
      </trkpt>
      <trkpt lat="48.05873" lon="7.01391">
        <ele>1181</ele>
        <time>2017-07-29T11:31:00Z</time>
      </trkpt>
      <trkpt lat="48.05854" lon="7.01386">
        <ele>1182</ele>
        <time>2017-07-29T11:31:06Z</time>
      </trkpt>
      <trkpt lat="48.05826" lon="7.01386">
        <ele>1187</ele>
        <time>2017-07-29T11:31:16Z</time>
      </trkpt>
      <trkpt lat="48.05824" lon="7.01384">
        <ele>1187</ele>
        <time>2017-07-29T11:31:18Z</time>
      </trkpt>
      <trkpt lat="48.05803" lon="7.01386">
        <ele>1187</ele>
        <time>2017-07-29T11:31:26Z</time>
      </trkpt>
      <trkpt lat="48.05797" lon="7.01387">
        <ele>1188</ele>
        <time>2017-07-29T11:31:29Z</time>
      </trkpt>
      <trkpt lat="48.05791" lon="7.0138">
        <ele>1187</ele>
        <time>2017-07-29T11:31:32Z</time>
      </trkpt>
      <trkpt lat="48.05779" lon="7.01367">
        <ele>1186</ele>
        <time>2017-07-29T11:31:55Z</time>
      </trkpt>
      <trkpt lat="48.05783" lon="7.01369">
        <ele>1187</ele>
        <time>2017-07-29T11:31:59Z</time>
      </trkpt>
      <trkpt lat="48.05788" lon="7.01365">
        <ele>1186</ele>
        <time>2017-07-29T11:32:08Z</time>
      </trkpt>
      <trkpt lat="48.05788" lon="7.01362">
        <ele>1186</ele>
        <time>2017-07-29T11:32:10Z</time>
      </trkpt>
      <trkpt lat="48.05787" lon="7.01361">
        <ele>1186</ele>
        <time>2017-07-29T11:32:11Z</time>
      </trkpt>
      <trkpt lat="48.05785" lon="7.01361">
        <ele>1186</ele>
        <time>2017-07-29T11:32:13Z</time>
      </trkpt>
      <trkpt lat="48.05769" lon="7.01338">
        <ele>1185</ele>
        <time>2017-07-29T11:32:22Z</time>
      </trkpt>
      <trkpt lat="48.05767" lon="7.01336">
        <ele>1184</ele>
        <time>2017-07-29T11:32:23Z</time>
      </trkpt>
      <trkpt lat="48.05768" lon="7.01316">
        <ele>1174</ele>
        <time>2017-07-29T11:32:28Z</time>
      </trkpt>
      <trkpt lat="48.05766" lon="7.01312">
        <ele>1174</ele>
        <time>2017-07-29T11:32:29Z</time>
      </trkpt>
      <trkpt lat="48.05764" lon="7.01308">
        <ele>1173</ele>
        <time>2017-07-29T11:32:30Z</time>
      </trkpt>
      <trkpt lat="48.05763" lon="7.01292">
        <ele>1170</ele>
        <time>2017-07-29T11:32:32Z</time>
      </trkpt>
      <trkpt lat="48.05764" lon="7.01272">
        <ele>1168</ele>
        <time>2017-07-29T11:32:35Z</time>
      </trkpt>
      <trkpt lat="48.05762" lon="7.01258">
        <ele>1166</ele>
        <time>2017-07-29T11:32:37Z</time>
      </trkpt>
      <trkpt lat="48.05756" lon="7.01252">
        <ele>1165</ele>
        <time>2017-07-29T11:32:38Z</time>
      </trkpt>
      <trkpt lat="48.05756" lon="7.01248">
        <ele>1160</ele>
        <time>2017-07-29T11:32:39Z</time>
      </trkpt>
      <trkpt lat="48.05754" lon="7.01245">
        <ele>1160</ele>
        <time>2017-07-29T11:32:40Z</time>
      </trkpt>
      <trkpt lat="48.0575" lon="7.01224">
        <ele>1161</ele>
        <time>2017-07-29T11:32:44Z</time>
      </trkpt>
      <trkpt lat="48.05731" lon="7.01151">
        <ele>1143</ele>
        <time>2017-07-29T11:32:53Z</time>
      </trkpt>
      <trkpt lat="48.05726" lon="7.01116">
        <ele>1141</ele>
        <time>2017-07-29T11:32:57Z</time>
      </trkpt>
      <trkpt lat="48.05724" lon="7.01106">
        <ele>1140</ele>
        <time>2017-07-29T11:32:58Z</time>
      </trkpt>
      <trkpt lat="48.05719" lon="7.01074">
        <ele>1132</ele>
        <time>2017-07-29T11:33:01Z</time>
      </trkpt>
      <trkpt lat="48.05718" lon="7.01062">
        <ele>1132</ele>
        <time>2017-07-29T11:33:02Z</time>
      </trkpt>
      <trkpt lat="48.05712" lon="7.01018">
        <ele>1131</ele>
        <time>2017-07-29T11:33:06Z</time>
      </trkpt>
      <trkpt lat="48.05708" lon="7.01007">
        <ele>1131</ele>
        <time>2017-07-29T11:33:07Z</time>
      </trkpt>
      <trkpt lat="48.05701" lon="7.00966">
        <ele>1126</ele>
        <time>2017-07-29T11:33:11Z</time>
      </trkpt>
      <trkpt lat="48.05698" lon="7.00949">
        <ele>1126</ele>
        <time>2017-07-29T11:33:13Z</time>
      </trkpt>
      <trkpt lat="48.05693" lon="7.0093">
        <ele>1127</ele>
        <time>2017-07-29T11:33:15Z</time>
      </trkpt>
      <trkpt lat="48.05684" lon="7.00906">
        <ele>1124</ele>
        <time>2017-07-29T11:33:18Z</time>
      </trkpt>
      <trkpt lat="48.05681" lon="7.00888">
        <ele>1121</ele>
        <time>2017-07-29T11:33:20Z</time>
      </trkpt>
      <trkpt lat="48.05676" lon="7.00871">
        <ele>1119</ele>
        <time>2017-07-29T11:33:22Z</time>
      </trkpt>
      <trkpt lat="48.05666" lon="7.00843">
        <ele>1131</ele>
        <time>2017-07-29T11:33:26Z</time>
      </trkpt>
      <trkpt lat="48.0566" lon="7.0083">
        <ele>1127</ele>
        <time>2017-07-29T11:33:28Z</time>
      </trkpt>
      <trkpt lat="48.05657" lon="7.0082">
        <ele>1128</ele>
        <time>2017-07-29T11:33:29Z</time>
      </trkpt>
      <trkpt lat="48.05654" lon="7.00811">
        <ele>1129</ele>
        <time>2017-07-29T11:33:30Z</time>
      </trkpt>
      <trkpt lat="48.05647" lon="7.00795">
        <ele>1129</ele>
        <time>2017-07-29T11:33:32Z</time>
      </trkpt>
      <trkpt lat="48.05636" lon="7.00782">
        <ele>1129</ele>
        <time>2017-07-29T11:33:34Z</time>
      </trkpt>
      <trkpt lat="48.05628" lon="7.00775">
        <ele>1130</ele>
        <time>2017-07-29T11:33:35Z</time>
      </trkpt>
      <trkpt lat="48.05617" lon="7.00762">
        <ele>1131</ele>
        <time>2017-07-29T11:33:37Z</time>
      </trkpt>
      <trkpt lat="48.05606" lon="7.00743">
        <ele>1124</ele>
        <time>2017-07-29T11:33:39Z</time>
      </trkpt>
      <trkpt lat="48.05594" lon="7.00733">
        <ele>1125</ele>
        <time>2017-07-29T11:33:40Z</time>
      </trkpt>
      <trkpt lat="48.05588" lon="7.00725">
        <ele>1124</ele>
        <time>2017-07-29T11:33:41Z</time>
      </trkpt>
      <trkpt lat="48.05584" lon="7.00715">
        <ele>1122</ele>
        <time>2017-07-29T11:33:42Z</time>
      </trkpt>
      <trkpt lat="48.05562" lon="7.0068">
        <ele>1131</ele>
        <time>2017-07-29T11:33:46Z</time>
      </trkpt>
      <trkpt lat="48.05543" lon="7.00655">
        <ele>1123</ele>
        <time>2017-07-29T11:33:50Z</time>
      </trkpt>
      <trkpt lat="48.05514" lon="7.00629">
        <ele>1124</ele>
        <time>2017-07-29T11:33:54Z</time>
      </trkpt>
      <trkpt lat="48.055" lon="7.00622">
        <ele>1124</ele>
        <time>2017-07-29T11:33:56Z</time>
      </trkpt>
      <trkpt lat="48.05485" lon="7.00602">
        <ele>1128</ele>
        <time>2017-07-29T11:34:00Z</time>
      </trkpt>
      <trkpt lat="48.05458" lon="7.00575">
        <ele>1118</ele>
        <time>2017-07-29T11:34:09Z</time>
      </trkpt>
      <trkpt lat="48.05446" lon="7.00572">
        <ele>1119</ele>
        <time>2017-07-29T11:34:15Z</time>
      </trkpt>
      <trkpt lat="48.05439" lon="7.00574">
        <ele>1119</ele>
        <time>2017-07-29T11:34:22Z</time>
      </trkpt>
      <trkpt lat="48.05429" lon="7.00583">
        <ele>1126</ele>
        <time>2017-07-29T11:34:29Z</time>
      </trkpt>
      <trkpt lat="48.05407" lon="7.00625">
        <ele>1130</ele>
        <time>2017-07-29T11:34:52Z</time>
      </trkpt>
      <trkpt lat="48.05405" lon="7.00628">
        <ele>1131</ele>
        <time>2017-07-29T11:34:54Z</time>
      </trkpt>
      <trkpt lat="48.05402" lon="7.00636">
        <ele>1132</ele>
        <time>2017-07-29T11:34:59Z</time>
      </trkpt>
      <trkpt lat="48.05399" lon="7.00641">
        <ele>1132</ele>
        <time>2017-07-29T11:35:03Z</time>
      </trkpt>
      <trkpt lat="48.05398" lon="7.00642">
        <ele>1132</ele>
        <time>2017-07-29T11:35:04Z</time>
      </trkpt>
      <trkpt lat="48.05398" lon="7.00646">
        <ele>1133</ele>
        <time>2017-07-29T11:35:06Z</time>
      </trkpt>
      <trkpt lat="48.05387" lon="7.00671">
        <ele>1143</ele>
        <time>2017-07-29T11:35:19Z</time>
      </trkpt>
      <trkpt lat="48.05388" lon="7.00673">
        <ele>1143</ele>
        <time>2017-07-29T11:35:20Z</time>
      </trkpt>
      <trkpt lat="48.0538" lon="7.00683">
        <ele>1144</ele>
        <time>2017-07-29T11:35:28Z</time>
      </trkpt>
      <trkpt lat="48.05375" lon="7.00687">
        <ele>1145</ele>
        <time>2017-07-29T11:35:32Z</time>
      </trkpt>
      <trkpt lat="48.05368" lon="7.00691">
        <ele>1145</ele>
        <time>2017-07-29T11:35:38Z</time>
      </trkpt>
      <trkpt lat="48.05358" lon="7.0069">
        <ele>1145</ele>
        <time>2017-07-29T11:35:46Z</time>
      </trkpt>
      <trkpt lat="48.05353" lon="7.00686">
        <ele>1144</ele>
        <time>2017-07-29T11:35:51Z</time>
      </trkpt>
      <trkpt lat="48.05351" lon="7.00686">
        <ele>1144</ele>
        <time>2017-07-29T11:35:54Z</time>
      </trkpt>
      <trkpt lat="48.05337" lon="7.00688">
        <ele>1143</ele>
        <time>2017-07-29T11:36:03Z</time>
      </trkpt>
      <trkpt lat="48.05307" lon="7.0069">
        <ele>1149</ele>
        <time>2017-07-29T11:36:25Z</time>
      </trkpt>
      <trkpt lat="48.05304" lon="7.00692">
        <ele>1149</ele>
        <time>2017-07-29T11:36:29Z</time>
      </trkpt>
      <trkpt lat="48.05029" lon="7.00729">
        <ele>1172</ele>
        <time>2017-07-29T11:42:04Z</time>
      </trkpt>
      <trkpt lat="48.05028" lon="7.00725">
        <ele>1172</ele>
        <time>2017-07-29T11:42:05Z</time>
      </trkpt>
      <trkpt lat="48.05024" lon="7.00723">
        <ele>1172</ele>
        <time>2017-07-29T11:42:06Z</time>
      </trkpt>
      <trkpt lat="48.05021" lon="7.0072">
        <ele>1171</ele>
        <time>2017-07-29T11:42:07Z</time>
      </trkpt>
      <trkpt lat="48.05002" lon="7.00707">
        <ele>1170</ele>
        <time>2017-07-29T11:42:12Z</time>
      </trkpt>
      <trkpt lat="48.04995" lon="7.00704">
        <ele>1174</ele>
        <time>2017-07-29T11:42:15Z</time>
      </trkpt>
      <trkpt lat="48.04976" lon="7.00694">
        <ele>1173</ele>
        <time>2017-07-29T11:42:22Z</time>
      </trkpt>
      <trkpt lat="48.04929" lon="7.00688">
        <ele>1175</ele>
        <time>2017-07-29T11:42:54Z</time>
      </trkpt>
      <trkpt lat="48.04926" lon="7.00692">
        <ele>1175</ele>
        <time>2017-07-29T11:42:58Z</time>
      </trkpt>
      <trkpt lat="48.04912" lon="7.00695">
        <ele>1183</ele>
        <time>2017-07-29T11:43:07Z</time>
      </trkpt>
      <trkpt lat="48.04905" lon="7.00695">
        <ele>1184</ele>
        <time>2017-07-29T11:43:10Z</time>
      </trkpt>
      <trkpt lat="48.04898" lon="7.00693">
        <ele>1184</ele>
        <time>2017-07-29T11:43:14Z</time>
      </trkpt>
      <trkpt lat="48.04889" lon="7.00695">
        <ele>1186</ele>
        <time>2017-07-29T11:43:20Z</time>
      </trkpt>
      <trkpt lat="48.04873" lon="7.00694">
        <ele>1187</ele>
        <time>2017-07-29T11:43:35Z</time>
      </trkpt>
      <trkpt lat="48.0487" lon="7.00694">
        <ele>1188</ele>
        <time>2017-07-29T11:43:41Z</time>
      </trkpt>
      <trkpt lat="48.04698" lon="7.00695">
        <ele>1211</ele>
        <time>2017-07-29T11:45:46Z</time>
      </trkpt>
      <trkpt lat="48.04675" lon="7.00699">
        <ele>1212</ele>
        <time>2017-07-29T11:46:01Z</time>
      </trkpt>
      <trkpt lat="48.04666" lon="7.00699">
        <ele>1217</ele>
        <time>2017-07-29T11:46:07Z</time>
      </trkpt>
      <trkpt lat="48.04658" lon="7.00696">
        <ele>1216</ele>
        <time>2017-07-29T11:46:13Z</time>
      </trkpt>
      <trkpt lat="48.04651" lon="7.00696">
        <ele>1217</ele>
        <time>2017-07-29T11:46:17Z</time>
      </trkpt>
      <trkpt lat="48.04621" lon="7.00684">
        <ele>1218</ele>
        <time>2017-07-29T11:46:33Z</time>
      </trkpt>
      <trkpt lat="48.0461" lon="7.0068">
        <ele>1218</ele>
        <time>2017-07-29T11:46:40Z</time>
      </trkpt>
      <trkpt lat="48.04593" lon="7.00673">
        <ele>1218</ele>
        <time>2017-07-29T11:46:53Z</time>
      </trkpt>
      <trkpt lat="48.04586" lon="7.00672">
        <ele>1218</ele>
        <time>2017-07-29T11:46:56Z</time>
      </trkpt>
      <trkpt lat="48.04558" lon="7.00662">
        <ele>1218</ele>
        <time>2017-07-29T11:47:09Z</time>
      </trkpt>
      <trkpt lat="48.04531" lon="7.00653">
        <ele>1221</ele>
        <time>2017-07-29T11:47:26Z</time>
      </trkpt>
      <trkpt lat="48.04521" lon="7.00652">
        <ele>1223</ele>
        <time>2017-07-29T11:47:31Z</time>
      </trkpt>
      <trkpt lat="48.04503" lon="7.00646">
        <ele>1225</ele>
        <time>2017-07-29T11:47:39Z</time>
      </trkpt>
      <trkpt lat="48.04495" lon="7.00642">
        <ele>1233</ele>
        <time>2017-07-29T11:47:43Z</time>
      </trkpt>
      <trkpt lat="48.04488" lon="7.00639">
        <ele>1233</ele>
        <time>2017-07-29T11:47:47Z</time>
      </trkpt>
      <trkpt lat="48.04472" lon="7.00626">
        <ele>1233</ele>
        <time>2017-07-29T11:48:00Z</time>
      </trkpt>
      <trkpt lat="48.04458" lon="7.00619">
        <ele>1233</ele>
        <time>2017-07-29T11:48:05Z</time>
      </trkpt>
      <trkpt lat="48.04441" lon="7.00606">
        <ele>1234</ele>
        <time>2017-07-29T11:48:18Z</time>
      </trkpt>
      <trkpt lat="48.04436" lon="7.006">
        <ele>1234</ele>
        <time>2017-07-29T11:48:24Z</time>
      </trkpt>
      <trkpt lat="48.04432" lon="7.00595">
        <ele>1234</ele>
        <time>2017-07-29T11:48:30Z</time>
      </trkpt>
      <trkpt lat="48.04426" lon="7.00597">
        <ele>1234</ele>
        <time>2017-07-29T11:48:35Z</time>
      </trkpt>
      <trkpt lat="48.04425" lon="7.00602">
        <ele>1234</ele>
        <time>2017-07-29T11:48:38Z</time>
      </trkpt>
      <trkpt lat="48.04418" lon="7.00598">
        <ele>1234</ele>
        <time>2017-07-29T11:48:44Z</time>
      </trkpt>
      <trkpt lat="48.04409" lon="7.00588">
        <ele>1239</ele>
        <time>2017-07-29T11:48:52Z</time>
      </trkpt>
      <trkpt lat="48.04404" lon="7.00585">
        <ele>1240</ele>
        <time>2017-07-29T11:48:55Z</time>
      </trkpt>
      <trkpt lat="48.04402" lon="7.00581">
        <ele>1235</ele>
        <time>2017-07-29T11:48:58Z</time>
      </trkpt>
      <trkpt lat="48.04391" lon="7.00573">
        <ele>1236</ele>
        <time>2017-07-29T11:49:09Z</time>
      </trkpt>
      <trkpt lat="48.04389" lon="7.00568">
        <ele>1236</ele>
        <time>2017-07-29T11:49:12Z</time>
      </trkpt>
      <trkpt lat="48.04381" lon="7.00564">
        <ele>1236</ele>
        <time>2017-07-29T11:49:17Z</time>
      </trkpt>
      <trkpt lat="48.04358" lon="7.00548">
        <ele>1238</ele>
        <time>2017-07-29T11:49:35Z</time>
      </trkpt>
      <trkpt lat="48.04351" lon="7.00544">
        <ele>1238</ele>
        <time>2017-07-29T11:49:39Z</time>
      </trkpt>
      <trkpt lat="48.04333" lon="7.00537">
        <ele>1246</ele>
        <time>2017-07-29T11:49:51Z</time>
      </trkpt>
      <trkpt lat="48.04298" lon="7.0052">
        <ele>1246</ele>
        <time>2017-07-29T11:50:13Z</time>
      </trkpt>
      <trkpt lat="48.04271" lon="7.00528">
        <ele>1248</ele>
        <time>2017-07-29T11:50:33Z</time>
      </trkpt>
      <trkpt lat="48.04266" lon="7.00532">
        <ele>1249</ele>
        <time>2017-07-29T11:50:37Z</time>
      </trkpt>
      <trkpt lat="48.0426" lon="7.00534">
        <ele>1249</ele>
        <time>2017-07-29T11:50:39Z</time>
      </trkpt>
      <trkpt lat="48.04255" lon="7.00534">
        <ele>1249</ele>
        <time>2017-07-29T11:50:40Z</time>
      </trkpt>
      <trkpt lat="48.04238" lon="7.00545">
        <ele>1251</ele>
        <time>2017-07-29T11:50:48Z</time>
      </trkpt>
      <trkpt lat="48.04231" lon="7.00553">
        <ele>1251</ele>
        <time>2017-07-29T11:50:54Z</time>
      </trkpt>
      <trkpt lat="48.04224" lon="7.00556">
        <ele>1251</ele>
        <time>2017-07-29T11:50:58Z</time>
      </trkpt>
      <trkpt lat="48.04209" lon="7.00571">
        <ele>1252</ele>
        <time>2017-07-29T11:51:09Z</time>
      </trkpt>
      <trkpt lat="48.04194" lon="7.00588">
        <ele>1258</ele>
        <time>2017-07-29T11:51:21Z</time>
      </trkpt>
      <trkpt lat="48.04192" lon="7.00594">
        <ele>1258</ele>
        <time>2017-07-29T11:51:25Z</time>
      </trkpt>
      <trkpt lat="48.04189" lon="7.006">
        <ele>1258</ele>
        <time>2017-07-29T11:51:29Z</time>
      </trkpt>
      <trkpt lat="48.0418" lon="7.00609">
        <ele>1259</ele>
        <time>2017-07-29T11:51:36Z</time>
      </trkpt>
      <trkpt lat="48.04177" lon="7.00614">
        <ele>1259</ele>
        <time>2017-07-29T11:51:39Z</time>
      </trkpt>
      <trkpt lat="48.04174" lon="7.00617">
        <ele>1259</ele>
        <time>2017-07-29T11:51:41Z</time>
      </trkpt>
      <trkpt lat="48.04167" lon="7.00634">
        <ele>1261</ele>
        <time>2017-07-29T11:51:51Z</time>
      </trkpt>
      <trkpt lat="48.04156" lon="7.00655">
        <ele>1258</ele>
        <time>2017-07-29T11:52:04Z</time>
      </trkpt>
      <trkpt lat="48.04148" lon="7.00676">
        <ele>1263</ele>
        <time>2017-07-29T11:52:16Z</time>
      </trkpt>
      <trkpt lat="48.04145" lon="7.00683">
        <ele>1263</ele>
        <time>2017-07-29T11:52:20Z</time>
      </trkpt>
      <trkpt lat="48.04133" lon="7.00716">
        <ele>1263</ele>
        <time>2017-07-29T11:52:40Z</time>
      </trkpt>
      <trkpt lat="48.04131" lon="7.00725">
        <ele>1264</ele>
        <time>2017-07-29T11:52:45Z</time>
      </trkpt>
      <trkpt lat="48.04131" lon="7.00732">
        <ele>1264</ele>
        <time>2017-07-29T11:52:49Z</time>
      </trkpt>
      <trkpt lat="48.0413" lon="7.00744">
        <ele>1265</ele>
        <time>2017-07-29T11:52:55Z</time>
      </trkpt>
      <trkpt lat="48.04124" lon="7.00769">
        <ele>1271</ele>
        <time>2017-07-29T11:53:08Z</time>
      </trkpt>
      <trkpt lat="48.04119" lon="7.00805">
        <ele>1272</ele>
        <time>2017-07-29T11:53:24Z</time>
      </trkpt>
      <trkpt lat="48.04113" lon="7.00891">
        <ele>1278</ele>
        <time>2017-07-29T11:54:00Z</time>
      </trkpt>
      <trkpt lat="48.04114" lon="7.00936">
        <ele>1282</ele>
        <time>2017-07-29T11:54:19Z</time>
      </trkpt>
      <trkpt lat="48.04115" lon="7.00942">
        <ele>1283</ele>
        <time>2017-07-29T11:54:22Z</time>
      </trkpt>
      <trkpt lat="48.04117" lon="7.00975">
        <ele>1284</ele>
        <time>2017-07-29T11:54:38Z</time>
      </trkpt>
      <trkpt lat="48.04127" lon="7.01039">
        <ele>1289</ele>
        <time>2017-07-29T11:55:05Z</time>
      </trkpt>
      <trkpt lat="48.04129" lon="7.01043">
        <ele>1290</ele>
        <time>2017-07-29T11:55:07Z</time>
      </trkpt>
      <trkpt lat="48.04132" lon="7.01061">
        <ele>1290</ele>
        <time>2017-07-29T11:55:15Z</time>
      </trkpt>
      <trkpt lat="48.04138" lon="7.01089">
        <ele>1293</ele>
        <time>2017-07-29T11:55:29Z</time>
      </trkpt>
      <trkpt lat="48.04137" lon="7.0109">
        <ele>1293</ele>
        <time>2017-07-29T11:55:32Z</time>
      </trkpt>
      <trkpt lat="48.04132" lon="7.01092">
        <ele>1293</ele>
        <time>2017-07-29T11:55:52Z</time>
      </trkpt>
      <trkpt lat="48.0412" lon="7.01106">
        <ele>1294</ele>
        <time>2017-07-29T11:56:01Z</time>
      </trkpt>
      <trkpt lat="48.0407" lon="7.01141">
        <ele>1300</ele>
        <time>2017-07-29T11:56:32Z</time>
      </trkpt>
      <trkpt lat="48.04038" lon="7.01162">
        <ele>1300</ele>
        <time>2017-07-29T11:56:55Z</time>
      </trkpt>
      <trkpt lat="48.04" lon="7.01194">
        <ele>1309</ele>
        <time>2017-07-29T11:57:25Z</time>
      </trkpt>
      <trkpt lat="48.03963" lon="7.01216">
        <ele>1311</ele>
        <time>2017-07-29T11:57:50Z</time>
      </trkpt>
      <trkpt lat="48.03953" lon="7.0122">
        <ele>1312</ele>
        <time>2017-07-29T11:57:56Z</time>
      </trkpt>
      <trkpt lat="48.03929" lon="7.01239">
        <ele>1315</ele>
        <time>2017-07-29T11:58:11Z</time>
      </trkpt>
      <trkpt lat="48.03921" lon="7.01243">
        <ele>1317</ele>
        <time>2017-07-29T11:58:16Z</time>
      </trkpt>
      <trkpt lat="48.03916" lon="7.01248">
        <ele>1318</ele>
        <time>2017-07-29T11:58:20Z</time>
      </trkpt>
      <trkpt lat="48.03913" lon="7.0125">
        <ele>1318</ele>
        <time>2017-07-29T11:58:22Z</time>
      </trkpt>
      <trkpt lat="48.03896" lon="7.01265">
        <ele>1321</ele>
        <time>2017-07-29T11:58:36Z</time>
      </trkpt>
      <trkpt lat="48.03851" lon="7.01322">
        <ele>1324</ele>
        <time>2017-07-29T11:59:15Z</time>
      </trkpt>
      <trkpt lat="48.03847" lon="7.01332">
        <ele>1325</ele>
        <time>2017-07-29T11:59:20Z</time>
      </trkpt>
      <trkpt lat="48.0384" lon="7.01343">
        <ele>1328</ele>
        <time>2017-07-29T11:59:26Z</time>
      </trkpt>
      <trkpt lat="48.03831" lon="7.0135">
        <ele>1329</ele>
        <time>2017-07-29T11:59:32Z</time>
      </trkpt>
      <trkpt lat="48.03811" lon="7.01365">
        <ele>1331</ele>
        <time>2017-07-29T11:59:45Z</time>
      </trkpt>
      <trkpt lat="48.03807" lon="7.01369">
        <ele>1331</ele>
        <time>2017-07-29T11:59:48Z</time>
      </trkpt>
      <trkpt lat="48.03801" lon="7.01381">
        <ele>1332</ele>
        <time>2017-07-29T11:59:55Z</time>
      </trkpt>
      <trkpt lat="48.038" lon="7.0139">
        <ele>1333</ele>
        <time>2017-07-29T11:59:59Z</time>
      </trkpt>
      <trkpt lat="48.03801" lon="7.01397">
        <ele>1333</ele>
        <time>2017-07-29T12:00:03Z</time>
      </trkpt>
      <trkpt lat="48.03814" lon="7.0142">
        <ele>1339</ele>
        <time>2017-07-29T12:00:17Z</time>
      </trkpt>
      <trkpt lat="48.03818" lon="7.01424">
        <ele>1339</ele>
        <time>2017-07-29T12:00:20Z</time>
      </trkpt>
      <trkpt lat="48.03822" lon="7.01439">
        <ele>1340</ele>
        <time>2017-07-29T12:00:28Z</time>
      </trkpt>
      <trkpt lat="48.03835" lon="7.01469">
        <ele>1342</ele>
        <time>2017-07-29T12:00:44Z</time>
      </trkpt>
      <trkpt lat="48.03838" lon="7.01483">
        <ele>1344</ele>
        <time>2017-07-29T12:00:51Z</time>
      </trkpt>
      <trkpt lat="48.03838" lon="7.01498">
        <ele>1346</ele>
        <time>2017-07-29T12:00:59Z</time>
      </trkpt>
      <trkpt lat="48.03833" lon="7.01509">
        <ele>1348</ele>
        <time>2017-07-29T12:01:04Z</time>
      </trkpt>
      <trkpt lat="48.03825" lon="7.01513">
        <ele>1347</ele>
        <time>2017-07-29T12:01:08Z</time>
      </trkpt>
      <trkpt lat="48.03813" lon="7.01516">
        <ele>1347</ele>
        <time>2017-07-29T12:01:16Z</time>
      </trkpt>
      <trkpt lat="48.03809" lon="7.01518">
        <ele>1347</ele>
        <time>2017-07-29T12:01:19Z</time>
      </trkpt>
      <trkpt lat="48.03799" lon="7.01514">
        <ele>1346</ele>
        <time>2017-07-29T12:01:26Z</time>
      </trkpt>
      <trkpt lat="48.03796" lon="7.01517">
        <ele>1346</ele>
        <time>2017-07-29T12:01:29Z</time>
      </trkpt>
      <trkpt lat="48.03794" lon="7.0153">
        <ele>1346</ele>
        <time>2017-07-29T12:01:36Z</time>
      </trkpt>
      <trkpt lat="48.03796" lon="7.01538">
        <ele>1347</ele>
        <time>2017-07-29T12:01:39Z</time>
      </trkpt>
      <trkpt lat="48.03798" lon="7.01549">
        <ele>1347</ele>
        <time>2017-07-29T12:01:44Z</time>
      </trkpt>
      <trkpt lat="48.03796" lon="7.01565">
        <ele>1348</ele>
        <time>2017-07-29T12:01:50Z</time>
      </trkpt>
      <trkpt lat="48.03795" lon="7.01571">
        <ele>1348</ele>
        <time>2017-07-29T12:01:52Z</time>
      </trkpt>
      <trkpt lat="48.0379" lon="7.01578">
        <ele>1348</ele>
        <time>2017-07-29T12:01:55Z</time>
      </trkpt>
      <trkpt lat="48.03779" lon="7.01574">
        <ele>1348</ele>
        <time>2017-07-29T12:02:01Z</time>
      </trkpt>
      <trkpt lat="48.03773" lon="7.01573">
        <ele>1348</ele>
        <time>2017-07-29T12:02:04Z</time>
      </trkpt>
      <trkpt lat="48.03744" lon="7.0158">
        <ele>1342</ele>
        <time>2017-07-29T12:02:18Z</time>
      </trkpt>
      <trkpt lat="48.03742" lon="7.01597">
        <ele>1338</ele>
        <time>2017-07-29T12:02:25Z</time>
      </trkpt>
      <trkpt lat="48.03742" lon="7.016">
        <ele>1337</ele>
        <time>2017-07-29T12:02:26Z</time>
      </trkpt>
      <trkpt lat="48.03741" lon="7.01609">
        <ele>1335</ele>
        <time>2017-07-29T12:02:29Z</time>
      </trkpt>
      <trkpt lat="48.03742" lon="7.01627">
        <ele>1333</ele>
        <time>2017-07-29T12:02:35Z</time>
      </trkpt>
      <trkpt lat="48.03742" lon="7.01651">
        <ele>1336</ele>
        <time>2017-07-29T12:02:42Z</time>
      </trkpt>
      <trkpt lat="48.0374" lon="7.01657">
        <ele>1337</ele>
        <time>2017-07-29T12:02:47Z</time>
      </trkpt>
      <trkpt lat="48.03747" lon="7.01648">
        <ele>1336</ele>
        <time>2017-07-29T12:12:56Z</time>
      </trkpt>
      <trkpt lat="48.03747" lon="7.0164">
        <ele>1334</ele>
        <time>2017-07-29T12:12:59Z</time>
      </trkpt>
      <trkpt lat="48.0375" lon="7.01623">
        <ele>1334</ele>
        <time>2017-07-29T12:13:05Z</time>
      </trkpt>
      <trkpt lat="48.03751" lon="7.01615">
        <ele>1348</ele>
        <time>2017-07-29T12:13:08Z</time>
      </trkpt>
      <trkpt lat="48.0375" lon="7.01607">
        <ele>1348</ele>
        <time>2017-07-29T12:13:11Z</time>
      </trkpt>
      <trkpt lat="48.03742" lon="7.01562">
        <ele>1333</ele>
        <time>2017-07-29T12:13:29Z</time>
      </trkpt>
      <trkpt lat="48.03736" lon="7.01552">
        <ele>1330</ele>
        <time>2017-07-29T12:13:34Z</time>
      </trkpt>
      <trkpt lat="48.03732" lon="7.0154">
        <ele>1328</ele>
        <time>2017-07-29T12:13:37Z</time>
      </trkpt>
      <trkpt lat="48.03731" lon="7.01534">
        <ele>1327</ele>
        <time>2017-07-29T12:13:39Z</time>
      </trkpt>
      <trkpt lat="48.03727" lon="7.01519">
        <ele>1327</ele>
        <time>2017-07-29T12:13:42Z</time>
      </trkpt>
      <trkpt lat="48.03723" lon="7.015">
        <ele>1325</ele>
        <time>2017-07-29T12:13:46Z</time>
      </trkpt>
      <trkpt lat="48.03723" lon="7.01492">
        <ele>1325</ele>
        <time>2017-07-29T12:13:50Z</time>
      </trkpt>
      <trkpt lat="48.03722" lon="7.01481">
        <ele>1324</ele>
        <time>2017-07-29T12:13:55Z</time>
      </trkpt>
      <trkpt lat="48.03721" lon="7.01477">
        <ele>1323</ele>
        <time>2017-07-29T12:13:56Z</time>
      </trkpt>
      <trkpt lat="48.03718" lon="7.01474">
        <ele>1322</ele>
        <time>2017-07-29T12:13:57Z</time>
      </trkpt>
      <trkpt lat="48.03711" lon="7.01471">
        <ele>1320</ele>
        <time>2017-07-29T12:14:00Z</time>
      </trkpt>
      <trkpt lat="48.03709" lon="7.01468">
        <ele>1320</ele>
        <time>2017-07-29T12:14:01Z</time>
      </trkpt>
      <trkpt lat="48.03707" lon="7.01463">
        <ele>1320</ele>
        <time>2017-07-29T12:14:02Z</time>
      </trkpt>
      <trkpt lat="48.03707" lon="7.01446">
        <ele>1319</ele>
        <time>2017-07-29T12:14:05Z</time>
      </trkpt>
      <trkpt lat="48.03705" lon="7.01438">
        <ele>1319</ele>
        <time>2017-07-29T12:14:07Z</time>
      </trkpt>
      <trkpt lat="48.03696" lon="7.0142">
        <ele>1316</ele>
        <time>2017-07-29T12:14:11Z</time>
      </trkpt>
      <trkpt lat="48.03688" lon="7.01378">
        <ele>1318</ele>
        <time>2017-07-29T12:14:16Z</time>
      </trkpt>
      <trkpt lat="48.03678" lon="7.01345">
        <ele>1317</ele>
        <time>2017-07-29T12:14:22Z</time>
      </trkpt>
      <trkpt lat="48.0367" lon="7.0133">
        <ele>1314</ele>
        <time>2017-07-29T12:14:25Z</time>
      </trkpt>
      <trkpt lat="48.03653" lon="7.01317">
        <ele>1303</ele>
        <time>2017-07-29T12:14:30Z</time>
      </trkpt>
      <trkpt lat="48.0365" lon="7.01313">
        <ele>1302</ele>
        <time>2017-07-29T12:14:31Z</time>
      </trkpt>
      <trkpt lat="48.03647" lon="7.01308">
        <ele>1301</ele>
        <time>2017-07-29T12:14:32Z</time>
      </trkpt>
      <trkpt lat="48.03646" lon="7.01303">
        <ele>1300</ele>
        <time>2017-07-29T12:14:33Z</time>
      </trkpt>
      <trkpt lat="48.03646" lon="7.01296">
        <ele>1300</ele>
        <time>2017-07-29T12:14:35Z</time>
      </trkpt>
      <trkpt lat="48.03641" lon="7.01283">
        <ele>1299</ele>
        <time>2017-07-29T12:14:41Z</time>
      </trkpt>
      <trkpt lat="48.03641" lon="7.01284">
        <ele>1299</ele>
        <time>2017-07-29T12:14:42Z</time>
      </trkpt>
      <trkpt lat="48.03635" lon="7.01278">
        <ele>1299</ele>
        <time>2017-07-29T12:15:02Z</time>
      </trkpt>
      <trkpt lat="48.03632" lon="7.01273">
        <ele>1298</ele>
        <time>2017-07-29T12:15:03Z</time>
      </trkpt>
      <trkpt lat="48.03628" lon="7.01267">
        <ele>1298</ele>
        <time>2017-07-29T12:15:04Z</time>
      </trkpt>
      <trkpt lat="48.03607" lon="7.01245">
        <ele>1297</ele>
        <time>2017-07-29T12:15:08Z</time>
      </trkpt>
      <trkpt lat="48.03598" lon="7.01231">
        <ele>1296</ele>
        <time>2017-07-29T12:15:10Z</time>
      </trkpt>
      <trkpt lat="48.03594" lon="7.01224">
        <ele>1296</ele>
        <time>2017-07-29T12:15:11Z</time>
      </trkpt>
      <trkpt lat="48.03591" lon="7.01218">
        <ele>1296</ele>
        <time>2017-07-29T12:15:12Z</time>
      </trkpt>
      <trkpt lat="48.03587" lon="7.01214">
        <ele>1295</ele>
        <time>2017-07-29T12:15:13Z</time>
      </trkpt>
      <trkpt lat="48.03551" lon="7.01195">
        <ele>1279</ele>
        <time>2017-07-29T12:15:21Z</time>
      </trkpt>
      <trkpt lat="48.03546" lon="7.01187">
        <ele>1279</ele>
        <time>2017-07-29T12:15:23Z</time>
      </trkpt>
      <trkpt lat="48.03539" lon="7.01172">
        <ele>1278</ele>
        <time>2017-07-29T12:15:26Z</time>
      </trkpt>
      <trkpt lat="48.03536" lon="7.01161">
        <ele>1278</ele>
        <time>2017-07-29T12:15:28Z</time>
      </trkpt>
      <trkpt lat="48.03523" lon="7.01132">
        <ele>1276</ele>
        <time>2017-07-29T12:15:32Z</time>
      </trkpt>
      <trkpt lat="48.03513" lon="7.01114">
        <ele>1276</ele>
        <time>2017-07-29T12:15:34Z</time>
      </trkpt>
      <trkpt lat="48.03501" lon="7.01105">
        <ele>1275</ele>
        <time>2017-07-29T12:15:36Z</time>
      </trkpt>
      <trkpt lat="48.0349" lon="7.01102">
        <ele>1267</ele>
        <time>2017-07-29T12:15:42Z</time>
      </trkpt>
      <trkpt lat="48.0348" lon="7.01097">
        <ele>1267</ele>
        <time>2017-07-29T12:17:12Z</time>
      </trkpt>
      <trkpt lat="48.03467" lon="7.01085">
        <ele>1266</ele>
        <time>2017-07-29T12:17:20Z</time>
      </trkpt>
      <trkpt lat="48.03456" lon="7.01079">
        <ele>1272</ele>
        <time>2017-07-29T12:17:27Z</time>
      </trkpt>
      <trkpt lat="48.03444" lon="7.0107">
        <ele>1272</ele>
        <time>2017-07-29T12:17:35Z</time>
      </trkpt>
      <trkpt lat="48.03438" lon="7.01068">
        <ele>1272</ele>
        <time>2017-07-29T12:17:39Z</time>
      </trkpt>
      <trkpt lat="48.03434" lon="7.01063">
        <ele>1272</ele>
        <time>2017-07-29T12:17:43Z</time>
      </trkpt>
      <trkpt lat="48.03425" lon="7.0106">
        <ele>1273</ele>
        <time>2017-07-29T12:17:49Z</time>
      </trkpt>
      <trkpt lat="48.03417" lon="7.01054">
        <ele>1273</ele>
        <time>2017-07-29T12:17:56Z</time>
      </trkpt>
      <trkpt lat="48.03411" lon="7.01047">
        <ele>1280</ele>
        <time>2017-07-29T12:18:05Z</time>
      </trkpt>
      <trkpt lat="48.03381" lon="7.01034">
        <ele>1283</ele>
        <time>2017-07-29T12:18:42Z</time>
      </trkpt>
      <trkpt lat="48.03379" lon="7.01034">
        <ele>1283</ele>
        <time>2017-07-29T12:18:43Z</time>
      </trkpt>
      <trkpt lat="48.03356" lon="7.01035">
        <ele>1285</ele>
        <time>2017-07-29T12:19:04Z</time>
      </trkpt>
      <trkpt lat="48.0335" lon="7.01034">
        <ele>1286</ele>
        <time>2017-07-29T12:19:39Z</time>
      </trkpt>
      <trkpt lat="48.03336" lon="7.01039">
        <ele>1286</ele>
        <time>2017-07-29T12:19:46Z</time>
      </trkpt>
      <trkpt lat="48.0332" lon="7.01052">
        <ele>1291</ele>
        <time>2017-07-29T12:19:55Z</time>
      </trkpt>
      <trkpt lat="48.03296" lon="7.01081">
        <ele>1291</ele>
        <time>2017-07-29T12:20:07Z</time>
      </trkpt>
      <trkpt lat="48.03279" lon="7.01109">
        <ele>1283</ele>
        <time>2017-07-29T12:20:13Z</time>
      </trkpt>
      <trkpt lat="48.03257" lon="7.01172">
        <ele>1281</ele>
        <time>2017-07-29T12:20:28Z</time>
      </trkpt>
      <trkpt lat="48.03234" lon="7.01223">
        <ele>1286</ele>
        <time>2017-07-29T12:20:45Z</time>
      </trkpt>
      <trkpt lat="48.03224" lon="7.0124">
        <ele>1285</ele>
        <time>2017-07-29T12:20:54Z</time>
      </trkpt>
      <trkpt lat="48.03216" lon="7.01244">
        <ele>1287</ele>
        <time>2017-07-29T12:21:04Z</time>
      </trkpt>
      <trkpt lat="48.03214" lon="7.01244">
        <ele>1288</ele>
        <time>2017-07-29T12:22:39Z</time>
      </trkpt>
      <trkpt lat="48.03212" lon="7.01244">
        <ele>1288</ele>
        <time>2017-07-29T12:22:40Z</time>
      </trkpt>
      <trkpt lat="48.03191" lon="7.01256">
        <ele>1283</ele>
        <time>2017-07-29T12:22:46Z</time>
      </trkpt>
      <trkpt lat="48.0317" lon="7.01286">
        <ele>1281</ele>
        <time>2017-07-29T12:22:51Z</time>
      </trkpt>
      <trkpt lat="48.03166" lon="7.01292">
        <ele>1286</ele>
        <time>2017-07-29T12:22:52Z</time>
      </trkpt>
      <trkpt lat="48.03162" lon="7.01307">
        <ele>1284</ele>
        <time>2017-07-29T12:22:54Z</time>
      </trkpt>
      <trkpt lat="48.03148" lon="7.01337">
        <ele>1276</ele>
        <time>2017-07-29T12:22:58Z</time>
      </trkpt>
      <trkpt lat="48.03146" lon="7.01346">
        <ele>1275</ele>
        <time>2017-07-29T12:22:59Z</time>
      </trkpt>
      <trkpt lat="48.03144" lon="7.01365">
        <ele>1272</ele>
        <time>2017-07-29T12:23:02Z</time>
      </trkpt>
      <trkpt lat="48.03143" lon="7.01366">
        <ele>1272</ele>
        <time>2017-07-29T12:23:04Z</time>
      </trkpt>
      <trkpt lat="48.0313" lon="7.01354">
        <ele>1272</ele>
        <time>2017-07-29T12:23:22Z</time>
      </trkpt>
      <trkpt lat="48.03127" lon="7.01352">
        <ele>1271</ele>
        <time>2017-07-29T12:23:25Z</time>
      </trkpt>
      <trkpt lat="48.03124" lon="7.01347">
        <ele>1271</ele>
        <time>2017-07-29T12:23:30Z</time>
      </trkpt>
      <trkpt lat="48.03122" lon="7.01344">
        <ele>1271</ele>
        <time>2017-07-29T12:23:32Z</time>
      </trkpt>
      <trkpt lat="48.03118" lon="7.01339">
        <ele>1270</ele>
        <time>2017-07-29T12:23:35Z</time>
      </trkpt>
      <trkpt lat="48.0311" lon="7.01333">
        <ele>1277</ele>
        <time>2017-07-29T12:23:39Z</time>
      </trkpt>
      <trkpt lat="48.03104" lon="7.01325">
        <ele>1276</ele>
        <time>2017-07-29T12:23:41Z</time>
      </trkpt>
      <trkpt lat="48.03084" lon="7.01284">
        <ele>1282</ele>
        <time>2017-07-29T12:23:48Z</time>
      </trkpt>
      <trkpt lat="48.03049" lon="7.01208">
        <ele>1281</ele>
        <time>2017-07-29T12:24:01Z</time>
      </trkpt>
      <trkpt lat="48.03042" lon="7.01196">
        <ele>1281</ele>
        <time>2017-07-29T12:24:03Z</time>
      </trkpt>
      <trkpt lat="48.0303" lon="7.01185">
        <ele>1282</ele>
        <time>2017-07-29T12:24:05Z</time>
      </trkpt>
      <trkpt lat="48.03007" lon="7.0116">
        <ele>1288</ele>
        <time>2017-07-29T12:24:10Z</time>
      </trkpt>
      <trkpt lat="48.02987" lon="7.01146">
        <ele>1282</ele>
        <time>2017-07-29T12:24:14Z</time>
      </trkpt>
      <trkpt lat="48.02966" lon="7.01125">
        <ele>1281</ele>
        <time>2017-07-29T12:24:19Z</time>
      </trkpt>
      <trkpt lat="48.02963" lon="7.01121">
        <ele>1281</ele>
        <time>2017-07-29T12:24:20Z</time>
      </trkpt>
      <trkpt lat="48.02943" lon="7.01102">
        <ele>1281</ele>
        <time>2017-07-29T12:24:25Z</time>
      </trkpt>
      <trkpt lat="48.02931" lon="7.01087">
        <ele>1281</ele>
        <time>2017-07-29T12:24:28Z</time>
      </trkpt>
      <trkpt lat="48.02922" lon="7.0107">
        <ele>1284</ele>
        <time>2017-07-29T12:24:31Z</time>
      </trkpt>
      <trkpt lat="48.02917" lon="7.01055">
        <ele>1286</ele>
        <time>2017-07-29T12:24:33Z</time>
      </trkpt>
      <trkpt lat="48.02914" lon="7.01039">
        <ele>1269</ele>
        <time>2017-07-29T12:24:35Z</time>
      </trkpt>
      <trkpt lat="48.02908" lon="7.0102">
        <ele>1271</ele>
        <time>2017-07-29T12:24:38Z</time>
      </trkpt>
      <trkpt lat="48.02905" lon="7.01005">
        <ele>1274</ele>
        <time>2017-07-29T12:24:41Z</time>
      </trkpt>
      <trkpt lat="48.02899" lon="7.00983">
        <ele>1275</ele>
        <time>2017-07-29T12:24:46Z</time>
      </trkpt>
      <trkpt lat="48.029" lon="7.00972">
        <ele>1274</ele>
        <time>2017-07-29T12:24:48Z</time>
      </trkpt>
      <trkpt lat="48.02899" lon="7.0096">
        <ele>1274</ele>
        <time>2017-07-29T12:24:50Z</time>
      </trkpt>
      <trkpt lat="48.02896" lon="7.00948">
        <ele>1274</ele>
        <time>2017-07-29T12:24:52Z</time>
      </trkpt>
      <trkpt lat="48.02885" lon="7.00923">
        <ele>1274</ele>
        <time>2017-07-29T12:24:57Z</time>
      </trkpt>
      <trkpt lat="48.02869" lon="7.009">
        <ele>1277</ele>
        <time>2017-07-29T12:25:01Z</time>
      </trkpt>
      <trkpt lat="48.02858" lon="7.00899">
        <ele>1276</ele>
        <time>2017-07-29T12:25:03Z</time>
      </trkpt>
      <trkpt lat="48.02848" lon="7.00901">
        <ele>1275</ele>
        <time>2017-07-29T12:25:05Z</time>
      </trkpt>
      <trkpt lat="48.02845" lon="7.009">
        <ele>1274</ele>
        <time>2017-07-29T12:25:06Z</time>
      </trkpt>
      <trkpt lat="48.02841" lon="7.00896">
        <ele>1274</ele>
        <time>2017-07-29T12:25:08Z</time>
      </trkpt>
      <trkpt lat="48.02831" lon="7.00896">
        <ele>1272</ele>
        <time>2017-07-29T12:25:12Z</time>
      </trkpt>
      <trkpt lat="48.02826" lon="7.00897">
        <ele>1272</ele>
        <time>2017-07-29T12:25:15Z</time>
      </trkpt>
      <trkpt lat="48.02816" lon="7.00894">
        <ele>1273</ele>
        <time>2017-07-29T12:25:20Z</time>
      </trkpt>
      <trkpt lat="48.02816" lon="7.00893">
        <ele>1273</ele>
        <time>2017-07-29T12:25:21Z</time>
      </trkpt>
      <trkpt lat="48.02811" lon="7.00895">
        <ele>1273</ele>
        <time>2017-07-29T12:25:30Z</time>
      </trkpt>
      <trkpt lat="48.02789" lon="7.00897">
        <ele>1272</ele>
        <time>2017-07-29T12:25:39Z</time>
      </trkpt>
      <trkpt lat="48.02765" lon="7.00894">
        <ele>1271</ele>
        <time>2017-07-29T12:25:50Z</time>
      </trkpt>
      <trkpt lat="48.0274" lon="7.00886">
        <ele>1272</ele>
        <time>2017-07-29T12:25:58Z</time>
      </trkpt>
      <trkpt lat="48.02721" lon="7.00884">
        <ele>1272</ele>
        <time>2017-07-29T12:26:04Z</time>
      </trkpt>
      <trkpt lat="48.02694" lon="7.00883">
        <ele>1272</ele>
        <time>2017-07-29T12:26:12Z</time>
      </trkpt>
      <trkpt lat="48.0268" lon="7.00879">
        <ele>1273</ele>
        <time>2017-07-29T12:26:18Z</time>
      </trkpt>
      <trkpt lat="48.02678" lon="7.00877">
        <ele>1273</ele>
        <time>2017-07-29T12:26:21Z</time>
      </trkpt>
      <trkpt lat="48.02676" lon="7.00876">
        <ele>1273</ele>
        <time>2017-07-29T12:26:38Z</time>
      </trkpt>
      <trkpt lat="48.02668" lon="7.00874">
        <ele>1274</ele>
        <time>2017-07-29T12:26:43Z</time>
      </trkpt>
      <trkpt lat="48.02657" lon="7.00873">
        <ele>1272</ele>
        <time>2017-07-29T12:26:55Z</time>
      </trkpt>
      <trkpt lat="48.02618" lon="7.00871">
        <ele>1271</ele>
        <time>2017-07-29T12:27:08Z</time>
      </trkpt>
      <trkpt lat="48.02573" lon="7.00861">
        <ele>1271</ele>
        <time>2017-07-29T12:27:20Z</time>
      </trkpt>
      <trkpt lat="48.02532" lon="7.00817">
        <ele>1284</ele>
        <time>2017-07-29T12:27:35Z</time>
      </trkpt>
      <trkpt lat="48.02512" lon="7.00802">
        <ele>1284</ele>
        <time>2017-07-29T12:27:41Z</time>
      </trkpt>
      <trkpt lat="48.02494" lon="7.0078">
        <ele>1281</ele>
        <time>2017-07-29T12:27:48Z</time>
      </trkpt>
      <trkpt lat="48.02477" lon="7.00765">
        <ele>1282</ele>
        <time>2017-07-29T12:27:54Z</time>
      </trkpt>
      <trkpt lat="48.02451" lon="7.00737">
        <ele>1288</ele>
        <time>2017-07-29T12:28:04Z</time>
      </trkpt>
      <trkpt lat="48.02449" lon="7.00732">
        <ele>1288</ele>
        <time>2017-07-29T12:28:07Z</time>
      </trkpt>
      <trkpt lat="48.02425" lon="7.00716">
        <ele>1288</ele>
        <time>2017-07-29T12:28:15Z</time>
      </trkpt>
      <trkpt lat="48.02373" lon="7.00678">
        <ele>1285</ele>
        <time>2017-07-29T12:28:30Z</time>
      </trkpt>
      <trkpt lat="48.02347" lon="7.00662">
        <ele>1294</ele>
        <time>2017-07-29T12:28:37Z</time>
      </trkpt>
      <trkpt lat="48.02329" lon="7.00669">
        <ele>1288</ele>
        <time>2017-07-29T12:28:43Z</time>
      </trkpt>
      <trkpt lat="48.02315" lon="7.00671">
        <ele>1286</ele>
        <time>2017-07-29T12:28:52Z</time>
      </trkpt>
      <trkpt lat="48.02309" lon="7.00673">
        <ele>1285</ele>
        <time>2017-07-29T12:28:56Z</time>
      </trkpt>
      <trkpt lat="48.02282" lon="7.0068">
        <ele>1285</ele>
        <time>2017-07-29T12:29:14Z</time>
      </trkpt>
      <trkpt lat="48.02276" lon="7.0068">
        <ele>1286</ele>
        <time>2017-07-29T12:29:18Z</time>
      </trkpt>
      <trkpt lat="48.02269" lon="7.00679">
        <ele>1288</ele>
        <time>2017-07-29T12:29:23Z</time>
      </trkpt>
      <trkpt lat="48.02264" lon="7.00681">
        <ele>1288</ele>
        <time>2017-07-29T12:29:27Z</time>
      </trkpt>
      <trkpt lat="48.02233" lon="7.00682">
        <ele>1295</ele>
        <time>2017-07-29T12:29:50Z</time>
      </trkpt>
      <trkpt lat="48.0222" lon="7.0068">
        <ele>1296</ele>
        <time>2017-07-29T12:30:00Z</time>
      </trkpt>
      <trkpt lat="48.02202" lon="7.00683">
        <ele>1298</ele>
        <time>2017-07-29T12:30:10Z</time>
      </trkpt>
      <trkpt lat="48.02196" lon="7.00686">
        <ele>1299</ele>
        <time>2017-07-29T12:30:13Z</time>
      </trkpt>
      <trkpt lat="48.02159" lon="7.00716">
        <ele>1308</ele>
        <time>2017-07-29T12:30:31Z</time>
      </trkpt>
      <trkpt lat="48.02143" lon="7.00738">
        <ele>1307</ele>
        <time>2017-07-29T12:30:41Z</time>
      </trkpt>
      <trkpt lat="48.02121" lon="7.00773">
        <ele>1297</ele>
        <time>2017-07-29T12:30:54Z</time>
      </trkpt>
      <trkpt lat="48.02109" lon="7.00799">
        <ele>1295</ele>
        <time>2017-07-29T12:31:00Z</time>
      </trkpt>
      <trkpt lat="48.02095" lon="7.00822">
        <ele>1296</ele>
        <time>2017-07-29T12:31:07Z</time>
      </trkpt>
      <trkpt lat="48.02067" lon="7.00868">
        <ele>1294</ele>
        <time>2017-07-29T12:31:20Z</time>
      </trkpt>
      <trkpt lat="48.02061" lon="7.00886">
        <ele>1292</ele>
        <time>2017-07-29T12:31:24Z</time>
      </trkpt>
      <trkpt lat="48.0206" lon="7.00887">
        <ele>1292</ele>
        <time>2017-07-29T12:31:27Z</time>
      </trkpt>
      <trkpt lat="48.02058" lon="7.00893">
        <ele>1291</ele>
        <time>2017-07-29T12:31:34Z</time>
      </trkpt>
      <trkpt lat="48.02049" lon="7.00918">
        <ele>1278</ele>
        <time>2017-07-29T12:31:41Z</time>
      </trkpt>
      <trkpt lat="48.02044" lon="7.00929">
        <ele>1278</ele>
        <time>2017-07-29T12:31:44Z</time>
      </trkpt>
      <trkpt lat="48.02032" lon="7.00949">
        <ele>1278</ele>
        <time>2017-07-29T12:31:48Z</time>
      </trkpt>
      <trkpt lat="48.02023" lon="7.00973">
        <ele>1276</ele>
        <time>2017-07-29T12:31:58Z</time>
      </trkpt>
      <trkpt lat="48.02019" lon="7.00985">
        <ele>1277</ele>
        <time>2017-07-29T12:32:35Z</time>
      </trkpt>
      <trkpt lat="48.02008" lon="7.01008">
        <ele>1273</ele>
        <time>2017-07-29T12:32:42Z</time>
      </trkpt>
      <trkpt lat="48.02004" lon="7.01021">
        <ele>1269</ele>
        <time>2017-07-29T12:32:45Z</time>
      </trkpt>
      <trkpt lat="48.02" lon="7.01028">
        <ele>1268</ele>
        <time>2017-07-29T12:32:47Z</time>
      </trkpt>
      <trkpt lat="48.01996" lon="7.01032">
        <ele>1276</ele>
        <time>2017-07-29T12:32:49Z</time>
      </trkpt>
      <trkpt lat="48.01992" lon="7.01034">
        <ele>1276</ele>
        <time>2017-07-29T12:32:51Z</time>
      </trkpt>
      <trkpt lat="48.01986" lon="7.01038">
        <ele>1276</ele>
        <time>2017-07-29T12:32:55Z</time>
      </trkpt>
      <trkpt lat="48.01982" lon="7.01041">
        <ele>1275</ele>
        <time>2017-07-29T12:33:38Z</time>
      </trkpt>
      <trkpt lat="48.01952" lon="7.0105">
        <ele>1274</ele>
        <time>2017-07-29T12:33:45Z</time>
      </trkpt>
      <trkpt lat="48.01926" lon="7.01049">
        <ele>1274</ele>
        <time>2017-07-29T12:33:50Z</time>
      </trkpt>
      <trkpt lat="48.01908" lon="7.01047">
        <ele>1268</ele>
        <time>2017-07-29T12:33:54Z</time>
      </trkpt>
      <trkpt lat="48.01884" lon="7.01029">
        <ele>1267</ele>
        <time>2017-07-29T12:34:02Z</time>
      </trkpt>
      <trkpt lat="48.01877" lon="7.01024">
        <ele>1267</ele>
        <time>2017-07-29T12:34:04Z</time>
      </trkpt>
      <trkpt lat="48.01869" lon="7.0101">
        <ele>1267</ele>
        <time>2017-07-29T12:34:08Z</time>
      </trkpt>
      <trkpt lat="48.01864" lon="7.01009">
        <ele>1266</ele>
        <time>2017-07-29T12:34:11Z</time>
      </trkpt>
      <trkpt lat="48.01857" lon="7.01004">
        <ele>1265</ele>
        <time>2017-07-29T12:34:14Z</time>
      </trkpt>
      <trkpt lat="48.01834" lon="7.00977">
        <ele>1270</ele>
        <time>2017-07-29T12:34:22Z</time>
      </trkpt>
      <trkpt lat="48.01826" lon="7.00966">
        <ele>1257</ele>
        <time>2017-07-29T12:34:24Z</time>
      </trkpt>
      <trkpt lat="48.0182" lon="7.00941">
        <ele>1259</ele>
        <time>2017-07-29T12:34:28Z</time>
      </trkpt>
      <trkpt lat="48.01818" lon="7.00925">
        <ele>1261</ele>
        <time>2017-07-29T12:34:30Z</time>
      </trkpt>
      <trkpt lat="48.01819" lon="7.00919">
        <ele>1262</ele>
        <time>2017-07-29T12:34:31Z</time>
      </trkpt>
      <trkpt lat="48.01817" lon="7.00911">
        <ele>1264</ele>
        <time>2017-07-29T12:34:34Z</time>
      </trkpt>
      <trkpt lat="48.01812" lon="7.00894">
        <ele>1261</ele>
        <time>2017-07-29T12:34:38Z</time>
      </trkpt>
      <trkpt lat="48.01806" lon="7.00866">
        <ele>1260</ele>
        <time>2017-07-29T12:34:42Z</time>
      </trkpt>
      <trkpt lat="48.018" lon="7.00812">
        <ele>1262</ele>
        <time>2017-07-29T12:34:54Z</time>
      </trkpt>
      <trkpt lat="48.01804" lon="7.008">
        <ele>1262</ele>
        <time>2017-07-29T12:35:01Z</time>
      </trkpt>
      <trkpt lat="48.01803" lon="7.00793">
        <ele>1262</ele>
        <time>2017-07-29T12:35:03Z</time>
      </trkpt>
      <trkpt lat="48.01807" lon="7.00766">
        <ele>1264</ele>
        <time>2017-07-29T12:35:09Z</time>
      </trkpt>
      <trkpt lat="48.01813" lon="7.00735">
        <ele>1264</ele>
        <time>2017-07-29T12:35:17Z</time>
      </trkpt>
      <trkpt lat="48.01814" lon="7.00721">
        <ele>1263</ele>
        <time>2017-07-29T12:35:21Z</time>
      </trkpt>
      <trkpt lat="48.01816" lon="7.00718">
        <ele>1263</ele>
        <time>2017-07-29T12:35:22Z</time>
      </trkpt>
      <trkpt lat="48.01819" lon="7.00696">
        <ele>1263</ele>
        <time>2017-07-29T12:35:30Z</time>
      </trkpt>
      <trkpt lat="48.01819" lon="7.00681">
        <ele>1264</ele>
        <time>2017-07-29T12:37:12Z</time>
      </trkpt>
      <trkpt lat="48.01821" lon="7.00642">
        <ele>1258</ele>
        <time>2017-07-29T12:37:19Z</time>
      </trkpt>
      <trkpt lat="48.01822" lon="7.00619">
        <ele>1255</ele>
        <time>2017-07-29T12:37:27Z</time>
      </trkpt>
      <trkpt lat="48.01823" lon="7.00598">
        <ele>1256</ele>
        <time>2017-07-29T12:37:36Z</time>
      </trkpt>
      <trkpt lat="48.01821" lon="7.0058">
        <ele>1253</ele>
        <time>2017-07-29T12:37:40Z</time>
      </trkpt>
      <trkpt lat="48.01822" lon="7.00562">
        <ele>1249</ele>
        <time>2017-07-29T12:37:43Z</time>
      </trkpt>
      <trkpt lat="48.01822" lon="7.00542">
        <ele>1247</ele>
        <time>2017-07-29T12:37:47Z</time>
      </trkpt>
      <trkpt lat="48.01826" lon="7.00514">
        <ele>1249</ele>
        <time>2017-07-29T12:37:51Z</time>
      </trkpt>
      <trkpt lat="48.01828" lon="7.00495">
        <ele>1250</ele>
        <time>2017-07-29T12:37:54Z</time>
      </trkpt>
      <trkpt lat="48.01827" lon="7.00488">
        <ele>1247</ele>
        <time>2017-07-29T12:37:55Z</time>
      </trkpt>
      <trkpt lat="48.01823" lon="7.00468">
        <ele>1243</ele>
        <time>2017-07-29T12:37:58Z</time>
      </trkpt>
      <trkpt lat="48.01822" lon="7.00457">
        <ele>1243</ele>
        <time>2017-07-29T12:38:02Z</time>
      </trkpt>
      <trkpt lat="48.0182" lon="7.00443">
        <ele>1244</ele>
        <time>2017-07-29T12:38:45Z</time>
      </trkpt>
      <trkpt lat="48.0182" lon="7.00411">
        <ele>1247</ele>
        <time>2017-07-29T12:38:49Z</time>
      </trkpt>
      <trkpt lat="48.01819" lon="7.00398">
        <ele>1243</ele>
        <time>2017-07-29T12:38:51Z</time>
      </trkpt>
      <trkpt lat="48.01818" lon="7.00389">
        <ele>1242</ele>
        <time>2017-07-29T12:38:53Z</time>
      </trkpt>
      <trkpt lat="48.01808" lon="7.00353">
        <ele>1240</ele>
        <time>2017-07-29T12:39:00Z</time>
      </trkpt>
      <trkpt lat="48.01798" lon="7.00329">
        <ele>1239</ele>
        <time>2017-07-29T12:39:03Z</time>
      </trkpt>
      <trkpt lat="48.01791" lon="7.00307">
        <ele>1237</ele>
        <time>2017-07-29T12:39:06Z</time>
      </trkpt>
      <trkpt lat="48.01787" lon="7.00298">
        <ele>1236</ele>
        <time>2017-07-29T12:39:08Z</time>
      </trkpt>
      <trkpt lat="48.01775" lon="7.00284">
        <ele>1234</ele>
        <time>2017-07-29T12:39:12Z</time>
      </trkpt>
      <trkpt lat="48.01772" lon="7.00283">
        <ele>1233</ele>
        <time>2017-07-29T12:39:13Z</time>
      </trkpt>
      <trkpt lat="48.01772" lon="7.00288">
        <ele>1233</ele>
        <time>2017-07-29T12:39:16Z</time>
      </trkpt>
      <trkpt lat="48.0177" lon="7.00291">
        <ele>1232</ele>
        <time>2017-07-29T12:39:20Z</time>
      </trkpt>
      <trkpt lat="48.01769" lon="7.00296">
        <ele>1232</ele>
        <time>2017-07-29T12:39:21Z</time>
      </trkpt>
      <trkpt lat="48.01772" lon="7.00327">
        <ele>1229</ele>
        <time>2017-07-29T12:39:25Z</time>
      </trkpt>
      <trkpt lat="48.01771" lon="7.00339">
        <ele>1227</ele>
        <time>2017-07-29T12:39:26Z</time>
      </trkpt>
      <trkpt lat="48.01768" lon="7.00351">
        <ele>1228</ele>
        <time>2017-07-29T12:39:27Z</time>
      </trkpt>
      <trkpt lat="48.01759" lon="7.00389">
        <ele>1229</ele>
        <time>2017-07-29T12:39:30Z</time>
      </trkpt>
      <trkpt lat="48.01753" lon="7.00438">
        <ele>1229</ele>
        <time>2017-07-29T12:39:35Z</time>
      </trkpt>
      <trkpt lat="48.01746" lon="7.00457">
        <ele>1209</ele>
        <time>2017-07-29T12:39:37Z</time>
      </trkpt>
      <trkpt lat="48.01737" lon="7.00475">
        <ele>1210</ele>
        <time>2017-07-29T12:39:39Z</time>
      </trkpt>
      <trkpt lat="48.01728" lon="7.00497">
        <ele>1210</ele>
        <time>2017-07-29T12:39:41Z</time>
      </trkpt>
      <trkpt lat="48.01719" lon="7.00519">
        <ele>1213</ele>
        <time>2017-07-29T12:39:43Z</time>
      </trkpt>
      <trkpt lat="48.01709" lon="7.0054">
        <ele>1212</ele>
        <time>2017-07-29T12:39:45Z</time>
      </trkpt>
      <trkpt lat="48.01703" lon="7.00549">
        <ele>1211</ele>
        <time>2017-07-29T12:39:46Z</time>
      </trkpt>
      <trkpt lat="48.01696" lon="7.00557">
        <ele>1210</ele>
        <time>2017-07-29T12:39:47Z</time>
      </trkpt>
      <trkpt lat="48.01671" lon="7.00587">
        <ele>1205</ele>
        <time>2017-07-29T12:39:51Z</time>
      </trkpt>
      <trkpt lat="48.01667" lon="7.00596">
        <ele>1196</ele>
        <time>2017-07-29T12:39:52Z</time>
      </trkpt>
      <trkpt lat="48.01654" lon="7.00629">
        <ele>1191</ele>
        <time>2017-07-29T12:39:55Z</time>
      </trkpt>
      <trkpt lat="48.01638" lon="7.00708">
        <ele>1193</ele>
        <time>2017-07-29T12:40:01Z</time>
      </trkpt>
      <trkpt lat="48.01634" lon="7.00734">
        <ele>1194</ele>
        <time>2017-07-29T12:40:03Z</time>
      </trkpt>
      <trkpt lat="48.01635" lon="7.0076">
        <ele>1194</ele>
        <time>2017-07-29T12:40:05Z</time>
      </trkpt>
      <trkpt lat="48.01638" lon="7.00784">
        <ele>1193</ele>
        <time>2017-07-29T12:40:07Z</time>
      </trkpt>
      <trkpt lat="48.01639" lon="7.00796">
        <ele>1192</ele>
        <time>2017-07-29T12:40:08Z</time>
      </trkpt>
      <trkpt lat="48.01638" lon="7.00818">
        <ele>1192</ele>
        <time>2017-07-29T12:40:10Z</time>
      </trkpt>
      <trkpt lat="48.01635" lon="7.00843">
        <ele>1190</ele>
        <time>2017-07-29T12:40:12Z</time>
      </trkpt>
      <trkpt lat="48.01635" lon="7.00878">
        <ele>1188</ele>
        <time>2017-07-29T12:40:15Z</time>
      </trkpt>
      <trkpt lat="48.01637" lon="7.00941">
        <ele>1188</ele>
        <time>2017-07-29T12:40:21Z</time>
      </trkpt>
      <trkpt lat="48.01639" lon="7.00963">
        <ele>1188</ele>
        <time>2017-07-29T12:40:23Z</time>
      </trkpt>
      <trkpt lat="48.01638" lon="7.00975">
        <ele>1188</ele>
        <time>2017-07-29T12:40:24Z</time>
      </trkpt>
      <trkpt lat="48.01634" lon="7.01">
        <ele>1189</ele>
        <time>2017-07-29T12:40:26Z</time>
      </trkpt>
      <trkpt lat="48.0163" lon="7.01013">
        <ele>1188</ele>
        <time>2017-07-29T12:40:27Z</time>
      </trkpt>
      <trkpt lat="48.01626" lon="7.01025">
        <ele>1187</ele>
        <time>2017-07-29T12:40:28Z</time>
      </trkpt>
      <trkpt lat="48.01607" lon="7.01059">
        <ele>1184</ele>
        <time>2017-07-29T12:40:31Z</time>
      </trkpt>
      <trkpt lat="48.01584" lon="7.01094">
        <ele>1180</ele>
        <time>2017-07-29T12:40:34Z</time>
      </trkpt>
      <trkpt lat="48.01567" lon="7.01116">
        <ele>1170</ele>
        <time>2017-07-29T12:40:36Z</time>
      </trkpt>
      <trkpt lat="48.01551" lon="7.01136">
        <ele>1169</ele>
        <time>2017-07-29T12:40:39Z</time>
      </trkpt>
      <trkpt lat="48.01528" lon="7.01166">
        <ele>1166</ele>
        <time>2017-07-29T12:40:44Z</time>
      </trkpt>
      <trkpt lat="48.01523" lon="7.01175">
        <ele>1168</ele>
        <time>2017-07-29T12:40:45Z</time>
      </trkpt>
      <trkpt lat="48.01515" lon="7.01195">
        <ele>1168</ele>
        <time>2017-07-29T12:40:47Z</time>
      </trkpt>
      <trkpt lat="48.01512" lon="7.01206">
        <ele>1169</ele>
        <time>2017-07-29T12:40:48Z</time>
      </trkpt>
      <trkpt lat="48.01511" lon="7.01219">
        <ele>1169</ele>
        <time>2017-07-29T12:40:49Z</time>
      </trkpt>
      <trkpt lat="48.01513" lon="7.01233">
        <ele>1168</ele>
        <time>2017-07-29T12:40:50Z</time>
      </trkpt>
      <trkpt lat="48.01517" lon="7.01257">
        <ele>1165</ele>
        <time>2017-07-29T12:40:52Z</time>
      </trkpt>
      <trkpt lat="48.01519" lon="7.01268">
        <ele>1166</ele>
        <time>2017-07-29T12:40:53Z</time>
      </trkpt>
      <trkpt lat="48.01516" lon="7.01275">
        <ele>1166</ele>
        <time>2017-07-29T12:40:54Z</time>
      </trkpt>
      <trkpt lat="48.01508" lon="7.0128">
        <ele>1165</ele>
        <time>2017-07-29T12:40:56Z</time>
      </trkpt>
      <trkpt lat="48.01502" lon="7.01271">
        <ele>1165</ele>
        <time>2017-07-29T12:40:58Z</time>
      </trkpt>
      <trkpt lat="48.01491" lon="7.01239">
        <ele>1157</ele>
        <time>2017-07-29T12:41:03Z</time>
      </trkpt>
      <trkpt lat="48.01488" lon="7.01218">
        <ele>1155</ele>
        <time>2017-07-29T12:41:07Z</time>
      </trkpt>
      <trkpt lat="48.01483" lon="7.01197">
        <ele>1154</ele>
        <time>2017-07-29T12:41:13Z</time>
      </trkpt>
      <trkpt lat="48.01481" lon="7.012">
        <ele>1154</ele>
        <time>2017-07-29T12:41:16Z</time>
      </trkpt>
      <trkpt lat="48.01483" lon="7.0121">
        <ele>1154</ele>
        <time>2017-07-29T13:07:53Z</time>
      </trkpt>
      <trkpt lat="48.01488" lon="7.01215">
        <ele>1154</ele>
        <time>2017-07-29T13:07:56Z</time>
      </trkpt>
      <trkpt lat="48.01492" lon="7.01232">
        <ele>1156</ele>
        <time>2017-07-29T13:08:04Z</time>
      </trkpt>
      <trkpt lat="48.01501" lon="7.0125">
        <ele>1162</ele>
        <time>2017-07-29T13:08:12Z</time>
      </trkpt>
      <trkpt lat="48.01509" lon="7.01272">
        <ele>1165</ele>
        <time>2017-07-29T13:08:20Z</time>
      </trkpt>
      <trkpt lat="48.01515" lon="7.01282">
        <ele>1165</ele>
        <time>2017-07-29T13:08:26Z</time>
      </trkpt>
      <trkpt lat="48.01526" lon="7.01296">
        <ele>1166</ele>
        <time>2017-07-29T13:08:39Z</time>
      </trkpt>
      <trkpt lat="48.01527" lon="7.01295">
        <ele>1166</ele>
        <time>2017-07-29T13:08:40Z</time>
      </trkpt>
      <trkpt lat="48.01526" lon="7.01292">
        <ele>1166</ele>
        <time>2017-07-29T13:08:43Z</time>
      </trkpt>
      <trkpt lat="48.01511" lon="7.01277">
        <ele>1165</ele>
        <time>2017-07-29T13:08:57Z</time>
      </trkpt>
      <trkpt lat="48.01501" lon="7.01263">
        <ele>1164</ele>
        <time>2017-07-29T13:09:04Z</time>
      </trkpt>
      <trkpt lat="48.01498" lon="7.01261">
        <ele>1157</ele>
        <time>2017-07-29T13:09:06Z</time>
      </trkpt>
      <trkpt lat="48.01496" lon="7.01264">
        <ele>1156</ele>
        <time>2017-07-29T13:09:08Z</time>
      </trkpt>
      <trkpt lat="48.01496" lon="7.0127">
        <ele>1155</ele>
        <time>2017-07-29T13:09:11Z</time>
      </trkpt>
      <trkpt lat="48.01496" lon="7.0127">
        <ele>1155</ele>
        <time>2017-07-29T13:09:13Z</time>
      </trkpt>
      <trkpt lat="48.01496" lon="7.01271">
        <ele>1155</ele>
        <time>2017-07-29T13:09:14Z</time>
      </trkpt>
      <trkpt lat="48.01494" lon="7.0129">
        <ele>1152</ele>
        <time>2017-07-29T13:09:37Z</time>
      </trkpt>
      <trkpt lat="48.01494" lon="7.01292">
        <ele>1152</ele>
        <time>2017-07-29T13:09:38Z</time>
      </trkpt>
      <trkpt lat="48.01495" lon="7.013">
        <ele>1152</ele>
        <time>2017-07-29T13:09:41Z</time>
      </trkpt>
      <trkpt lat="48.01501" lon="7.01321">
        <ele>1159</ele>
        <time>2017-07-29T13:09:46Z</time>
      </trkpt>
      <trkpt lat="48.01506" lon="7.01329">
        <ele>1157</ele>
        <time>2017-07-29T13:09:48Z</time>
      </trkpt>
      <trkpt lat="48.01513" lon="7.01336">
        <ele>1153</ele>
        <time>2017-07-29T13:09:50Z</time>
      </trkpt>
      <trkpt lat="48.01518" lon="7.01348">
        <ele>1152</ele>
        <time>2017-07-29T13:09:52Z</time>
      </trkpt>
      <trkpt lat="48.01521" lon="7.01353">
        <ele>1151</ele>
        <time>2017-07-29T13:09:53Z</time>
      </trkpt>
      <trkpt lat="48.01537" lon="7.01365">
        <ele>1151</ele>
        <time>2017-07-29T13:09:57Z</time>
      </trkpt>
      <trkpt lat="48.01542" lon="7.01364">
        <ele>1152</ele>
        <time>2017-07-29T13:09:58Z</time>
      </trkpt>
      <trkpt lat="48.0155" lon="7.01367">
        <ele>1152</ele>
        <time>2017-07-29T13:10:00Z</time>
      </trkpt>
      <trkpt lat="48.01578" lon="7.01397">
        <ele>1150</ele>
        <time>2017-07-29T13:10:08Z</time>
      </trkpt>
      <trkpt lat="48.01589" lon="7.01412">
        <ele>1154</ele>
        <time>2017-07-29T13:10:11Z</time>
      </trkpt>
      <trkpt lat="48.01592" lon="7.01415">
        <ele>1155</ele>
        <time>2017-07-29T13:10:13Z</time>
      </trkpt>
      <trkpt lat="48.016" lon="7.01432">
        <ele>1145</ele>
        <time>2017-07-29T13:10:18Z</time>
      </trkpt>
      <trkpt lat="48.01611" lon="7.01451">
        <ele>1142</ele>
        <time>2017-07-29T13:10:22Z</time>
      </trkpt>
      <trkpt lat="48.01615" lon="7.01455">
        <ele>1142</ele>
        <time>2017-07-29T13:10:23Z</time>
      </trkpt>
      <trkpt lat="48.01621" lon="7.01464">
        <ele>1141</ele>
        <time>2017-07-29T13:10:26Z</time>
      </trkpt>
      <trkpt lat="48.01621" lon="7.01464">
        <ele>1141</ele>
        <time>2017-07-29T13:10:28Z</time>
      </trkpt>
      <trkpt lat="48.01624" lon="7.01472">
        <ele>1139</ele>
        <time>2017-07-29T13:11:08Z</time>
      </trkpt>
      <trkpt lat="48.01627" lon="7.01475">
        <ele>1139</ele>
        <time>2017-07-29T13:11:10Z</time>
      </trkpt>
      <trkpt lat="48.01647" lon="7.01505">
        <ele>1126</ele>
        <time>2017-07-29T13:11:19Z</time>
      </trkpt>
      <trkpt lat="48.01656" lon="7.01514">
        <ele>1127</ele>
        <time>2017-07-29T13:11:21Z</time>
      </trkpt>
      <trkpt lat="48.01664" lon="7.01519">
        <ele>1127</ele>
        <time>2017-07-29T13:11:23Z</time>
      </trkpt>
      <trkpt lat="48.01668" lon="7.01524">
        <ele>1142</ele>
        <time>2017-07-29T13:11:26Z</time>
      </trkpt>
      <trkpt lat="48.01668" lon="7.01525">
        <ele>1142</ele>
        <time>2017-07-29T13:11:27Z</time>
      </trkpt>
      <trkpt lat="48.0167" lon="7.01531">
        <ele>1142</ele>
        <time>2017-07-29T13:11:32Z</time>
      </trkpt>
      <trkpt lat="48.01673" lon="7.01537">
        <ele>1141</ele>
        <time>2017-07-29T13:11:33Z</time>
      </trkpt>
      <trkpt lat="48.01683" lon="7.01551">
        <ele>1139</ele>
        <time>2017-07-29T13:11:37Z</time>
      </trkpt>
      <trkpt lat="48.01685" lon="7.01557">
        <ele>1138</ele>
        <time>2017-07-29T13:11:39Z</time>
      </trkpt>
      <trkpt lat="48.01687" lon="7.01558">
        <ele>1139</ele>
        <time>2017-07-29T13:11:40Z</time>
      </trkpt>
      <trkpt lat="48.01689" lon="7.0156">
        <ele>1139</ele>
        <time>2017-07-29T13:11:43Z</time>
      </trkpt>
      <trkpt lat="48.0169" lon="7.01561">
        <ele>1138</ele>
        <time>2017-07-29T13:11:44Z</time>
      </trkpt>
      <trkpt lat="48.01713" lon="7.01601">
        <ele>1128</ele>
        <time>2017-07-29T13:12:32Z</time>
      </trkpt>
      <trkpt lat="48.01718" lon="7.01616">
        <ele>1128</ele>
        <time>2017-07-29T13:12:38Z</time>
      </trkpt>
      <trkpt lat="48.01728" lon="7.01634">
        <ele>1127</ele>
        <time>2017-07-29T13:12:43Z</time>
      </trkpt>
      <trkpt lat="48.0173" lon="7.01641">
        <ele>1127</ele>
        <time>2017-07-29T13:12:44Z</time>
      </trkpt>
      <trkpt lat="48.01731" lon="7.01649">
        <ele>1127</ele>
        <time>2017-07-29T13:12:45Z</time>
      </trkpt>
      <trkpt lat="48.01733" lon="7.01655">
        <ele>1128</ele>
        <time>2017-07-29T13:12:46Z</time>
      </trkpt>
      <trkpt lat="48.01735" lon="7.01663">
        <ele>1128</ele>
        <time>2017-07-29T13:12:47Z</time>
      </trkpt>
      <trkpt lat="48.01743" lon="7.01682">
        <ele>1118</ele>
        <time>2017-07-29T13:12:52Z</time>
      </trkpt>
      <trkpt lat="48.01743" lon="7.01682">
        <ele>1118</ele>
        <time>2017-07-29T13:12:53Z</time>
      </trkpt>
      <trkpt lat="48.01752" lon="7.01691">
        <ele>1122</ele>
        <time>2017-07-29T13:12:59Z</time>
      </trkpt>
      <trkpt lat="48.01763" lon="7.017">
        <ele>1119</ele>
        <time>2017-07-29T13:13:02Z</time>
      </trkpt>
      <trkpt lat="48.01765" lon="7.01705">
        <ele>1118</ele>
        <time>2017-07-29T13:13:04Z</time>
      </trkpt>
      <trkpt lat="48.01772" lon="7.01712">
        <ele>1116</ele>
        <time>2017-07-29T13:13:07Z</time>
      </trkpt>
      <trkpt lat="48.01774" lon="7.01722">
        <ele>1114</ele>
        <time>2017-07-29T13:13:09Z</time>
      </trkpt>
      <trkpt lat="48.01782" lon="7.01731">
        <ele>1113</ele>
        <time>2017-07-29T13:13:16Z</time>
      </trkpt>
      <trkpt lat="48.01771" lon="7.01743">
        <ele>1111</ele>
        <time>2017-07-29T13:13:33Z</time>
      </trkpt>
      <trkpt lat="48.01767" lon="7.0174">
        <ele>1111</ele>
        <time>2017-07-29T13:13:38Z</time>
      </trkpt>
      <trkpt lat="48.01763" lon="7.01739">
        <ele>1111</ele>
        <time>2017-07-29T13:13:43Z</time>
      </trkpt>
      <trkpt lat="48.01762" lon="7.0174">
        <ele>1111</ele>
        <time>2017-07-29T13:13:44Z</time>
      </trkpt>
      <trkpt lat="48.01763" lon="7.0174">
        <ele>1111</ele>
        <time>2017-07-29T13:13:45Z</time>
      </trkpt>
      <trkpt lat="48.01763" lon="7.01741">
        <ele>1110</ele>
        <time>2017-07-29T13:13:46Z</time>
      </trkpt>
      <trkpt lat="48.01785" lon="7.01808">
        <ele>1085</ele>
        <time>2017-07-29T13:14:35Z</time>
      </trkpt>
      <trkpt lat="48.01792" lon="7.01817">
        <ele>1084</ele>
        <time>2017-07-29T13:14:38Z</time>
      </trkpt>
      <trkpt lat="48.01796" lon="7.01819">
        <ele>1083</ele>
        <time>2017-07-29T13:14:40Z</time>
      </trkpt>
      <trkpt lat="48.01798" lon="7.01824">
        <ele>1083</ele>
        <time>2017-07-29T13:14:41Z</time>
      </trkpt>
      <trkpt lat="48.01796" lon="7.01848">
        <ele>1069</ele>
        <time>2017-07-29T13:14:47Z</time>
      </trkpt>
      <trkpt lat="48.01798" lon="7.01853">
        <ele>1069</ele>
        <time>2017-07-29T13:16:11Z</time>
      </trkpt>
      <trkpt lat="48.01801" lon="7.01861">
        <ele>1069</ele>
        <time>2017-07-29T13:16:13Z</time>
      </trkpt>
      <trkpt lat="48.01806" lon="7.01869">
        <ele>1068</ele>
        <time>2017-07-29T13:16:16Z</time>
      </trkpt>
      <trkpt lat="48.01808" lon="7.01877">
        <ele>1068</ele>
        <time>2017-07-29T13:16:19Z</time>
      </trkpt>
      <trkpt lat="48.0181" lon="7.0188">
        <ele>1067</ele>
        <time>2017-07-29T13:16:23Z</time>
      </trkpt>
      <trkpt lat="48.01812" lon="7.01884">
        <ele>1067</ele>
        <time>2017-07-29T13:16:26Z</time>
      </trkpt>
      <trkpt lat="48.01815" lon="7.01891">
        <ele>1067</ele>
        <time>2017-07-29T13:16:28Z</time>
      </trkpt>
      <trkpt lat="48.01815" lon="7.01897">
        <ele>1066</ele>
        <time>2017-07-29T13:16:29Z</time>
      </trkpt>
      <trkpt lat="48.01818" lon="7.01908">
        <ele>1065</ele>
        <time>2017-07-29T13:16:33Z</time>
      </trkpt>
      <trkpt lat="48.01817" lon="7.01908">
        <ele>1065</ele>
        <time>2017-07-29T13:16:34Z</time>
      </trkpt>
      <trkpt lat="48.01804" lon="7.01865">
        <ele>1068</ele>
        <time>2017-07-29T13:17:48Z</time>
      </trkpt>
      <trkpt lat="48.01801" lon="7.0186">
        <ele>1069</ele>
        <time>2017-07-29T13:17:51Z</time>
      </trkpt>
      <trkpt lat="48.01796" lon="7.0186">
        <ele>1069</ele>
        <time>2017-07-29T13:18:00Z</time>
      </trkpt>
      <trkpt lat="48.01787" lon="7.01867">
        <ele>1069</ele>
        <time>2017-07-29T13:18:57Z</time>
      </trkpt>
      <trkpt lat="48.01771" lon="7.01848">
        <ele>1071</ele>
        <time>2017-07-29T13:19:04Z</time>
      </trkpt>
      <trkpt lat="48.01764" lon="7.01833">
        <ele>1081</ele>
        <time>2017-07-29T13:19:08Z</time>
      </trkpt>
      <trkpt lat="48.01747" lon="7.01819">
        <ele>1077</ele>
        <time>2017-07-29T13:19:15Z</time>
      </trkpt>
      <trkpt lat="48.01738" lon="7.01814">
        <ele>1077</ele>
        <time>2017-07-29T13:19:18Z</time>
      </trkpt>
      <trkpt lat="48.01732" lon="7.01809">
        <ele>1077</ele>
        <time>2017-07-29T13:19:20Z</time>
      </trkpt>
      <trkpt lat="48.01729" lon="7.01805">
        <ele>1077</ele>
        <time>2017-07-29T13:19:21Z</time>
      </trkpt>
      <trkpt lat="48.01727" lon="7.01804">
        <ele>1077</ele>
        <time>2017-07-29T13:19:22Z</time>
      </trkpt>
      <trkpt lat="48.01718" lon="7.01791">
        <ele>1078</ele>
        <time>2017-07-29T13:19:26Z</time>
      </trkpt>
      <trkpt lat="48.01716" lon="7.01784">
        <ele>1078</ele>
        <time>2017-07-29T13:19:28Z</time>
      </trkpt>
      <trkpt lat="48.01702" lon="7.01755">
        <ele>1078</ele>
        <time>2017-07-29T13:19:35Z</time>
      </trkpt>
      <trkpt lat="48.01692" lon="7.0175">
        <ele>1076</ele>
        <time>2017-07-29T13:19:40Z</time>
      </trkpt>
      <trkpt lat="48.01678" lon="7.01731">
        <ele>1088</ele>
        <time>2017-07-29T13:19:47Z</time>
      </trkpt>
      <trkpt lat="48.01669" lon="7.01715">
        <ele>1092</ele>
        <time>2017-07-29T13:19:54Z</time>
      </trkpt>
      <trkpt lat="48.01665" lon="7.01707">
        <ele>1072</ele>
        <time>2017-07-29T13:19:56Z</time>
      </trkpt>
      <trkpt lat="48.01659" lon="7.01698">
        <ele>1074</ele>
        <time>2017-07-29T13:19:58Z</time>
      </trkpt>
      <trkpt lat="48.01655" lon="7.01694">
        <ele>1075</ele>
        <time>2017-07-29T13:20:01Z</time>
      </trkpt>
      <trkpt lat="48.0165" lon="7.01679">
        <ele>1079</ele>
        <time>2017-07-29T13:20:05Z</time>
      </trkpt>
      <trkpt lat="48.01644" lon="7.01652">
        <ele>1091</ele>
        <time>2017-07-29T13:20:21Z</time>
      </trkpt>
      <trkpt lat="48.01641" lon="7.01657">
        <ele>1090</ele>
        <time>2017-07-29T13:20:22Z</time>
      </trkpt>
      <trkpt lat="48.01625" lon="7.01644">
        <ele>1088</ele>
        <time>2017-07-29T13:20:32Z</time>
      </trkpt>
      <trkpt lat="48.0162" lon="7.01641">
        <ele>1087</ele>
        <time>2017-07-29T13:20:34Z</time>
      </trkpt>
      <trkpt lat="48.0161" lon="7.01625">
        <ele>1087</ele>
        <time>2017-07-29T13:20:39Z</time>
      </trkpt>
      <trkpt lat="48.01597" lon="7.01615">
        <ele>1087</ele>
        <time>2017-07-29T13:20:45Z</time>
      </trkpt>
      <trkpt lat="48.01593" lon="7.01608">
        <ele>1088</ele>
        <time>2017-07-29T13:20:48Z</time>
      </trkpt>
      <trkpt lat="48.01582" lon="7.01611">
        <ele>1072</ele>
        <time>2017-07-29T13:20:52Z</time>
      </trkpt>
      <trkpt lat="48.01566" lon="7.016">
        <ele>1073</ele>
        <time>2017-07-29T13:20:59Z</time>
      </trkpt>
      <trkpt lat="48.01551" lon="7.01592">
        <ele>1071</ele>
        <time>2017-07-29T13:21:05Z</time>
      </trkpt>
      <trkpt lat="48.01535" lon="7.01593">
        <ele>1068</ele>
        <time>2017-07-29T13:21:12Z</time>
      </trkpt>
      <trkpt lat="48.01532" lon="7.01585">
        <ele>1069</ele>
        <time>2017-07-29T13:21:18Z</time>
      </trkpt>
      <trkpt lat="48.01531" lon="7.01586">
        <ele>1069</ele>
        <time>2017-07-29T13:21:19Z</time>
      </trkpt>
      <trkpt lat="48.01525" lon="7.01579">
        <ele>1082</ele>
        <time>2017-07-29T13:21:21Z</time>
      </trkpt>
      <trkpt lat="48.01523" lon="7.01575">
        <ele>1082</ele>
        <time>2017-07-29T13:21:22Z</time>
      </trkpt>
      <trkpt lat="48.01522" lon="7.01549">
        <ele>1086</ele>
        <time>2017-07-29T13:21:29Z</time>
      </trkpt>
      <trkpt lat="48.01506" lon="7.0155">
        <ele>1085</ele>
        <time>2017-07-29T13:21:37Z</time>
      </trkpt>
      <trkpt lat="48.01493" lon="7.01542">
        <ele>1080</ele>
        <time>2017-07-29T13:21:46Z</time>
      </trkpt>
      <trkpt lat="48.01483" lon="7.01544">
        <ele>1080</ele>
        <time>2017-07-29T13:21:52Z</time>
      </trkpt>
      <trkpt lat="48.01478" lon="7.01542">
        <ele>1080</ele>
        <time>2017-07-29T13:21:53Z</time>
      </trkpt>
      <trkpt lat="48.01471" lon="7.01545">
        <ele>1079</ele>
        <time>2017-07-29T13:21:55Z</time>
      </trkpt>
      <trkpt lat="48.01463" lon="7.01544">
        <ele>1079</ele>
        <time>2017-07-29T13:21:57Z</time>
      </trkpt>
      <trkpt lat="48.01459" lon="7.01542">
        <ele>1080</ele>
        <time>2017-07-29T13:21:58Z</time>
      </trkpt>
      <trkpt lat="48.01438" lon="7.0154">
        <ele>1080</ele>
        <time>2017-07-29T13:22:03Z</time>
      </trkpt>
      <trkpt lat="48.01415" lon="7.01558">
        <ele>1076</ele>
        <time>2017-07-29T13:22:11Z</time>
      </trkpt>
      <trkpt lat="48.01397" lon="7.01564">
        <ele>1075</ele>
        <time>2017-07-29T13:22:18Z</time>
      </trkpt>
      <trkpt lat="48.01367" lon="7.01586">
        <ele>1060</ele>
        <time>2017-07-29T13:22:31Z</time>
      </trkpt>
      <trkpt lat="48.01366" lon="7.01587">
        <ele>1060</ele>
        <time>2017-07-29T13:22:32Z</time>
      </trkpt>
      <trkpt lat="48.01355" lon="7.01592">
        <ele>1061</ele>
        <time>2017-07-29T13:22:48Z</time>
      </trkpt>
      <trkpt lat="48.01353" lon="7.01597">
        <ele>1060</ele>
        <time>2017-07-29T13:22:53Z</time>
      </trkpt>
      <trkpt lat="48.01359" lon="7.01607">
        <ele>1058</ele>
        <time>2017-07-29T13:25:24Z</time>
      </trkpt>
      <trkpt lat="48.01371" lon="7.01606">
        <ele>1057</ele>
        <time>2017-07-29T13:25:26Z</time>
      </trkpt>
      <trkpt lat="48.01394" lon="7.01608">
        <ele>1057</ele>
        <time>2017-07-29T13:25:32Z</time>
      </trkpt>
      <trkpt lat="48.01409" lon="7.0162">
        <ele>1054</ele>
        <time>2017-07-29T13:25:38Z</time>
      </trkpt>
      <trkpt lat="48.01424" lon="7.01648">
        <ele>1045</ele>
        <time>2017-07-29T13:25:43Z</time>
      </trkpt>
      <trkpt lat="48.01426" lon="7.01654">
        <ele>1043</ele>
        <time>2017-07-29T13:25:44Z</time>
      </trkpt>
      <trkpt lat="48.01433" lon="7.01666">
        <ele>1042</ele>
        <time>2017-07-29T13:25:47Z</time>
      </trkpt>
      <trkpt lat="48.01433" lon="7.01671">
        <ele>1029</ele>
        <time>2017-07-29T13:25:48Z</time>
      </trkpt>
      <trkpt lat="48.01433" lon="7.01675">
        <ele>1029</ele>
        <time>2017-07-29T13:25:49Z</time>
      </trkpt>
      <trkpt lat="48.01427" lon="7.0169">
        <ele>1027</ele>
        <time>2017-07-29T13:25:53Z</time>
      </trkpt>
      <trkpt lat="48.01423" lon="7.01705">
        <ele>1024</ele>
        <time>2017-07-29T13:25:56Z</time>
      </trkpt>
      <trkpt lat="48.01424" lon="7.01734">
        <ele>1017</ele>
        <time>2017-07-29T13:26:02Z</time>
      </trkpt>
      <trkpt lat="48.01425" lon="7.01736">
        <ele>1017</ele>
        <time>2017-07-29T13:26:03Z</time>
      </trkpt>
      <trkpt lat="48.01426" lon="7.01744">
        <ele>1015</ele>
        <time>2017-07-29T13:26:05Z</time>
      </trkpt>
      <trkpt lat="48.01431" lon="7.01757">
        <ele>1005</ele>
        <time>2017-07-29T13:26:08Z</time>
      </trkpt>
      <trkpt lat="48.01431" lon="7.01762">
        <ele>1005</ele>
        <time>2017-07-29T13:26:09Z</time>
      </trkpt>
      <trkpt lat="48.01429" lon="7.01766">
        <ele>1004</ele>
        <time>2017-07-29T13:26:10Z</time>
      </trkpt>
      <trkpt lat="48.01424" lon="7.01774">
        <ele>1002</ele>
        <time>2017-07-29T13:26:12Z</time>
      </trkpt>
      <trkpt lat="48.01416" lon="7.01782">
        <ele>1000</ele>
        <time>2017-07-29T13:26:14Z</time>
      </trkpt>
      <trkpt lat="48.01407" lon="7.01783">
        <ele>1000</ele>
        <time>2017-07-29T13:26:16Z</time>
      </trkpt>
      <trkpt lat="48.01406" lon="7.01783">
        <ele>1000</ele>
        <time>2017-07-29T13:26:18Z</time>
      </trkpt>
      <trkpt lat="48.01402" lon="7.01789">
        <ele>999</ele>
        <time>2017-07-29T13:27:46Z</time>
      </trkpt>
      <trkpt lat="48.01397" lon="7.01795">
        <ele>997</ele>
        <time>2017-07-29T13:27:48Z</time>
      </trkpt>
      <trkpt lat="48.01385" lon="7.01805">
        <ele>996</ele>
        <time>2017-07-29T13:27:53Z</time>
      </trkpt>
      <trkpt lat="48.01385" lon="7.0181">
        <ele>995</ele>
        <time>2017-07-29T13:27:56Z</time>
      </trkpt>
      <trkpt lat="48.01386" lon="7.01815">
        <ele>994</ele>
        <time>2017-07-29T13:27:58Z</time>
      </trkpt>
      <trkpt lat="48.01386" lon="7.01821">
        <ele>993</ele>
        <time>2017-07-29T13:28:00Z</time>
      </trkpt>
      <trkpt lat="48.01373" lon="7.01831">
        <ele>992</ele>
        <time>2017-07-29T13:28:08Z</time>
      </trkpt>
      <trkpt lat="48.0137" lon="7.01836">
        <ele>974</ele>
        <time>2017-07-29T13:28:11Z</time>
      </trkpt>
      <trkpt lat="48.01368" lon="7.01845">
        <ele>973</ele>
        <time>2017-07-29T13:28:18Z</time>
      </trkpt>
      <trkpt lat="48.01363" lon="7.01851">
        <ele>972</ele>
        <time>2017-07-29T13:28:23Z</time>
      </trkpt>
      <trkpt lat="48.01363" lon="7.01854">
        <ele>972</ele>
        <time>2017-07-29T13:28:24Z</time>
      </trkpt>
      <trkpt lat="48.01364" lon="7.01854">
        <ele>972</ele>
        <time>2017-07-29T13:28:27Z</time>
      </trkpt>
      <trkpt lat="48.01364" lon="7.01854">
        <ele>972</ele>
        <time>2017-07-29T13:28:28Z</time>
      </trkpt>
      <trkpt lat="48.01367" lon="7.01861">
        <ele>971</ele>
        <time>2017-07-29T13:28:51Z</time>
      </trkpt>
      <trkpt lat="48.01379" lon="7.01882">
        <ele>968</ele>
        <time>2017-07-29T13:28:57Z</time>
      </trkpt>
      <trkpt lat="48.01386" lon="7.01888">
        <ele>967</ele>
        <time>2017-07-29T13:28:59Z</time>
      </trkpt>
      <trkpt lat="48.01387" lon="7.0189">
        <ele>966</ele>
        <time>2017-07-29T13:29:00Z</time>
      </trkpt>
      <trkpt lat="48.0139" lon="7.01891">
        <ele>966</ele>
        <time>2017-07-29T13:29:02Z</time>
      </trkpt>
      <trkpt lat="48.01396" lon="7.01905">
        <ele>963</ele>
        <time>2017-07-29T13:29:05Z</time>
      </trkpt>
      <trkpt lat="48.01402" lon="7.01909">
        <ele>962</ele>
        <time>2017-07-29T13:29:06Z</time>
      </trkpt>
      <trkpt lat="48.01413" lon="7.01923">
        <ele>953</ele>
        <time>2017-07-29T13:29:09Z</time>
      </trkpt>
      <trkpt lat="48.01414" lon="7.01934">
        <ele>950</ele>
        <time>2017-07-29T13:29:13Z</time>
      </trkpt>
      <trkpt lat="48.01413" lon="7.01937">
        <ele>950</ele>
        <time>2017-07-29T13:29:14Z</time>
      </trkpt>
      <trkpt lat="48.01411" lon="7.01943">
        <ele>948</ele>
        <time>2017-07-29T13:29:16Z</time>
      </trkpt>
      <trkpt lat="48.01411" lon="7.01953">
        <ele>947</ele>
        <time>2017-07-29T13:29:19Z</time>
      </trkpt>
      <trkpt lat="48.0141" lon="7.01956">
        <ele>946</ele>
        <time>2017-07-29T13:29:20Z</time>
      </trkpt>
      <trkpt lat="48.01405" lon="7.01962">
        <ele>945</ele>
        <time>2017-07-29T13:29:22Z</time>
      </trkpt>
      <trkpt lat="48.01399" lon="7.01967">
        <ele>944</ele>
        <time>2017-07-29T13:29:24Z</time>
      </trkpt>
      <trkpt lat="48.0139" lon="7.01976">
        <ele>943</ele>
        <time>2017-07-29T13:29:26Z</time>
      </trkpt>
      <trkpt lat="48.01371" lon="7.01993">
        <ele>941</ele>
        <time>2017-07-29T13:29:29Z</time>
      </trkpt>
      <trkpt lat="48.01363" lon="7.01994">
        <ele>940</ele>
        <time>2017-07-29T13:29:30Z</time>
      </trkpt>
      <trkpt lat="48.01359" lon="7.01996">
        <ele>940</ele>
        <time>2017-07-29T13:29:31Z</time>
      </trkpt>
      <trkpt lat="48.01354" lon="7.01998">
        <ele>938</ele>
        <time>2017-07-29T13:29:34Z</time>
      </trkpt>
      <trkpt lat="48.01339" lon="7.02006">
        <ele>928</ele>
        <time>2017-07-29T13:29:37Z</time>
      </trkpt>
      <trkpt lat="48.01326" lon="7.02011">
        <ele>921</ele>
        <time>2017-07-29T13:29:39Z</time>
      </trkpt>
      <trkpt lat="48.01313" lon="7.02017">
        <ele>914</ele>
        <time>2017-07-29T13:29:41Z</time>
      </trkpt>
      <trkpt lat="48.01309" lon="7.02015">
        <ele>914</ele>
        <time>2017-07-29T13:29:42Z</time>
      </trkpt>
      <trkpt lat="48.01294" lon="7.02017">
        <ele>910</ele>
        <time>2017-07-29T13:29:46Z</time>
      </trkpt>
      <trkpt lat="48.01285" lon="7.02016">
        <ele>908</ele>
        <time>2017-07-29T13:29:49Z</time>
      </trkpt>
      <trkpt lat="48.01279" lon="7.02019">
        <ele>907</ele>
        <time>2017-07-29T13:29:51Z</time>
      </trkpt>
      <trkpt lat="48.01272" lon="7.02027">
        <ele>906</ele>
        <time>2017-07-29T13:29:54Z</time>
      </trkpt>
      <trkpt lat="48.01269" lon="7.02038">
        <ele>905</ele>
        <time>2017-07-29T13:29:57Z</time>
      </trkpt>
      <trkpt lat="48.0127" lon="7.02046">
        <ele>904</ele>
        <time>2017-07-29T13:29:59Z</time>
      </trkpt>
      <trkpt lat="48.01271" lon="7.02068">
        <ele>901</ele>
        <time>2017-07-29T13:30:02Z</time>
      </trkpt>
      <trkpt lat="48.01273" lon="7.02077">
        <ele>901</ele>
        <time>2017-07-29T13:30:03Z</time>
      </trkpt>
      <trkpt lat="48.01276" lon="7.02085">
        <ele>888</ele>
        <time>2017-07-29T13:30:04Z</time>
      </trkpt>
      <trkpt lat="48.01287" lon="7.0209">
        <ele>888</ele>
        <time>2017-07-29T13:30:05Z</time>
      </trkpt>
      <trkpt lat="48.01298" lon="7.02098">
        <ele>888</ele>
        <time>2017-07-29T13:30:07Z</time>
      </trkpt>
      <trkpt lat="48.01317" lon="7.02107">
        <ele>889</ele>
        <time>2017-07-29T13:30:10Z</time>
      </trkpt>
      <trkpt lat="48.01333" lon="7.02111">
        <ele>889</ele>
        <time>2017-07-29T13:30:12Z</time>
      </trkpt>
      <trkpt lat="48.0136" lon="7.02107">
        <ele>896</ele>
        <time>2017-07-29T13:30:15Z</time>
      </trkpt>
      <trkpt lat="48.01381" lon="7.02107">
        <ele>898</ele>
        <time>2017-07-29T13:30:19Z</time>
      </trkpt>
      <trkpt lat="48.0138" lon="7.02108">
        <ele>898</ele>
        <time>2017-07-29T13:30:21Z</time>
      </trkpt>
      <trkpt lat="48.01386" lon="7.02113">
        <ele>897</ele>
        <time>2017-07-29T13:31:02Z</time>
      </trkpt>
      <trkpt lat="48.01389" lon="7.02126">
        <ele>896</ele>
        <time>2017-07-29T13:31:04Z</time>
      </trkpt>
      <trkpt lat="48.01401" lon="7.02145">
        <ele>895</ele>
        <time>2017-07-29T13:31:09Z</time>
      </trkpt>
      <trkpt lat="48.01402" lon="7.02155">
        <ele>894</ele>
        <time>2017-07-29T13:31:14Z</time>
      </trkpt>
      <trkpt lat="48.01399" lon="7.0217">
        <ele>887</ele>
        <time>2017-07-29T13:31:18Z</time>
      </trkpt>
      <trkpt lat="48.01395" lon="7.02176">
        <ele>885</ele>
        <time>2017-07-29T13:31:21Z</time>
      </trkpt>
      <trkpt lat="48.01394" lon="7.02176">
        <ele>885</ele>
        <time>2017-07-29T13:31:22Z</time>
      </trkpt>
      <trkpt lat="48.01389" lon="7.02168">
        <ele>884</ele>
        <time>2017-07-29T13:31:31Z</time>
      </trkpt>
      <trkpt lat="48.01388" lon="7.02168">
        <ele>884</ele>
        <time>2017-07-29T13:31:33Z</time>
      </trkpt>
      <trkpt lat="48.01381" lon="7.0217">
        <ele>882</ele>
        <time>2017-07-29T13:31:41Z</time>
      </trkpt>
      <trkpt lat="48.01379" lon="7.02177">
        <ele>881</ele>
        <time>2017-07-29T13:31:44Z</time>
      </trkpt>
      <trkpt lat="48.01377" lon="7.02179">
        <ele>881</ele>
        <time>2017-07-29T13:31:46Z</time>
      </trkpt>
      <trkpt lat="48.01374" lon="7.02179">
        <ele>880</ele>
        <time>2017-07-29T13:31:48Z</time>
      </trkpt>
      <trkpt lat="48.01371" lon="7.02177">
        <ele>880</ele>
        <time>2017-07-29T13:31:51Z</time>
      </trkpt>
      <trkpt lat="48.01369" lon="7.02178">
        <ele>879</ele>
        <time>2017-07-29T13:31:53Z</time>
      </trkpt>
      <trkpt lat="48.01367" lon="7.0218">
        <ele>879</ele>
        <time>2017-07-29T13:31:54Z</time>
      </trkpt>
      <trkpt lat="48.01366" lon="7.02185">
        <ele>879</ele>
        <time>2017-07-29T13:31:56Z</time>
      </trkpt>
      <trkpt lat="48.01368" lon="7.02186">
        <ele>879</ele>
        <time>2017-07-29T13:31:59Z</time>
      </trkpt>
      <trkpt lat="48.01364" lon="7.02198">
        <ele>878</ele>
        <time>2017-07-29T13:32:43Z</time>
      </trkpt>
      <trkpt lat="48.01359" lon="7.02206">
        <ele>877</ele>
        <time>2017-07-29T13:32:44Z</time>
      </trkpt>
      <trkpt lat="48.01356" lon="7.0222">
        <ele>875</ele>
        <time>2017-07-29T13:32:46Z</time>
      </trkpt>
      <trkpt lat="48.01352" lon="7.02226">
        <ele>873</ele>
        <time>2017-07-29T13:32:48Z</time>
      </trkpt>
      <trkpt lat="48.0134" lon="7.02243">
        <ele>865</ele>
        <time>2017-07-29T13:32:54Z</time>
      </trkpt>
      <trkpt lat="48.01329" lon="7.02264">
        <ele>852</ele>
        <time>2017-07-29T13:32:59Z</time>
      </trkpt>
      <trkpt lat="48.01326" lon="7.02267">
        <ele>851</ele>
        <time>2017-07-29T13:33:01Z</time>
      </trkpt>
      <trkpt lat="48.01324" lon="7.02265">
        <ele>851</ele>
        <time>2017-07-29T13:33:03Z</time>
      </trkpt>
      <trkpt lat="48.01325" lon="7.02256">
        <ele>853</ele>
        <time>2017-07-29T13:33:06Z</time>
      </trkpt>
      <trkpt lat="48.01322" lon="7.02257">
        <ele>852</ele>
        <time>2017-07-29T13:33:08Z</time>
      </trkpt>
      <trkpt lat="48.01318" lon="7.02263">
        <ele>851</ele>
        <time>2017-07-29T13:33:11Z</time>
      </trkpt>
      <trkpt lat="48.01313" lon="7.0227">
        <ele>849</ele>
        <time>2017-07-29T13:33:13Z</time>
      </trkpt>
      <trkpt lat="48.01303" lon="7.02288">
        <ele>847</ele>
        <time>2017-07-29T13:33:17Z</time>
      </trkpt>
      <trkpt lat="48.01295" lon="7.02296">
        <ele>845</ele>
        <time>2017-07-29T13:33:20Z</time>
      </trkpt>
      <trkpt lat="48.01293" lon="7.02303">
        <ele>844</ele>
        <time>2017-07-29T13:33:22Z</time>
      </trkpt>
      <trkpt lat="48.01292" lon="7.02309">
        <ele>844</ele>
        <time>2017-07-29T13:33:25Z</time>
      </trkpt>
      <trkpt lat="48.01292" lon="7.02309">
        <ele>844</ele>
        <time>2017-07-29T13:33:26Z</time>
      </trkpt>
      <trkpt lat="48.01282" lon="7.02306">
        <ele>842</ele>
        <time>2017-07-29T13:34:03Z</time>
      </trkpt>
      <trkpt lat="48.0128" lon="7.02305">
        <ele>842</ele>
        <time>2017-07-29T13:34:04Z</time>
      </trkpt>
      <trkpt lat="48.01277" lon="7.0231">
        <ele>841</ele>
        <time>2017-07-29T13:34:05Z</time>
      </trkpt>
      <trkpt lat="48.01268" lon="7.02331">
        <ele>834</ele>
        <time>2017-07-29T13:34:10Z</time>
      </trkpt>
      <trkpt lat="48.01264" lon="7.02335">
        <ele>832</ele>
        <time>2017-07-29T13:34:13Z</time>
      </trkpt>
      <trkpt lat="48.01261" lon="7.02336">
        <ele>830</ele>
        <time>2017-07-29T13:34:14Z</time>
      </trkpt>
      <trkpt lat="48.01255" lon="7.02326">
        <ele>829</ele>
        <time>2017-07-29T13:34:19Z</time>
      </trkpt>
      <trkpt lat="48.01253" lon="7.02324">
        <ele>829</ele>
        <time>2017-07-29T13:34:20Z</time>
      </trkpt>
      <trkpt lat="48.01248" lon="7.02323">
        <ele>822</ele>
        <time>2017-07-29T13:34:22Z</time>
      </trkpt>
      <trkpt lat="48.01243" lon="7.02326">
        <ele>822</ele>
        <time>2017-07-29T13:34:24Z</time>
      </trkpt>
      <trkpt lat="48.01241" lon="7.02324">
        <ele>822</ele>
        <time>2017-07-29T13:34:25Z</time>
      </trkpt>
      <trkpt lat="48.01236" lon="7.02318">
        <ele>822</ele>
        <time>2017-07-29T13:34:28Z</time>
      </trkpt>
      <trkpt lat="48.01233" lon="7.02317">
        <ele>822</ele>
        <time>2017-07-29T13:34:30Z</time>
      </trkpt>
      <trkpt lat="48.01215" lon="7.02317">
        <ele>820</ele>
        <time>2017-07-29T13:34:35Z</time>
      </trkpt>
      <trkpt lat="48.0121" lon="7.02318">
        <ele>819</ele>
        <time>2017-07-29T13:34:36Z</time>
      </trkpt>
      <trkpt lat="48.01197" lon="7.02318">
        <ele>816</ele>
        <time>2017-07-29T13:34:38Z</time>
      </trkpt>
      <trkpt lat="48.01185" lon="7.02314">
        <ele>814</ele>
        <time>2017-07-29T13:34:40Z</time>
      </trkpt>
      <trkpt lat="48.01177" lon="7.02308">
        <ele>815</ele>
        <time>2017-07-29T13:34:42Z</time>
      </trkpt>
      <trkpt lat="48.01174" lon="7.02307">
        <ele>814</ele>
        <time>2017-07-29T13:34:43Z</time>
      </trkpt>
      <trkpt lat="48.01154" lon="7.0232">
        <ele>799</ele>
        <time>2017-07-29T13:34:47Z</time>
      </trkpt>
      <trkpt lat="48.01148" lon="7.02322">
        <ele>799</ele>
        <time>2017-07-29T13:34:48Z</time>
      </trkpt>
      <trkpt lat="48.01138" lon="7.02321">
        <ele>799</ele>
        <time>2017-07-29T13:34:51Z</time>
      </trkpt>
      <trkpt lat="48.01137" lon="7.02323">
        <ele>798</ele>
        <time>2017-07-29T13:34:52Z</time>
      </trkpt>
      <trkpt lat="48.01135" lon="7.02324">
        <ele>798</ele>
        <time>2017-07-29T13:34:53Z</time>
      </trkpt>
      <trkpt lat="48.01135" lon="7.02326">
        <ele>798</ele>
        <time>2017-07-29T13:34:54Z</time>
      </trkpt>
      <trkpt lat="48.01141" lon="7.02329">
        <ele>798</ele>
        <time>2017-07-29T13:34:57Z</time>
      </trkpt>
      <trkpt lat="48.01151" lon="7.02338">
        <ele>787</ele>
        <time>2017-07-29T13:35:01Z</time>
      </trkpt>
      <trkpt lat="48.01151" lon="7.02338">
        <ele>787</ele>
        <time>2017-07-29T13:35:04Z</time>
      </trkpt>
      <trkpt lat="48.0115" lon="7.02339">
        <ele>787</ele>
        <time>2017-07-29T13:35:05Z</time>
      </trkpt>
      <trkpt lat="48.01149" lon="7.02339">
        <ele>786</ele>
        <time>2017-07-29T13:35:09Z</time>
      </trkpt>
      <trkpt lat="48.01132" lon="7.02348">
        <ele>781</ele>
        <time>2017-07-29T13:35:12Z</time>
      </trkpt>
      <trkpt lat="48.01124" lon="7.02351">
        <ele>779</ele>
        <time>2017-07-29T13:35:14Z</time>
      </trkpt>
      <trkpt lat="48.01116" lon="7.02357">
        <ele>777</ele>
        <time>2017-07-29T13:35:16Z</time>
      </trkpt>
      <trkpt lat="48.01099" lon="7.02366">
        <ele>774</ele>
        <time>2017-07-29T13:35:20Z</time>
      </trkpt>
      <trkpt lat="48.01082" lon="7.02372">
        <ele>755</ele>
        <time>2017-07-29T13:35:25Z</time>
      </trkpt>
      <trkpt lat="48.01072" lon="7.02372">
        <ele>754</ele>
        <time>2017-07-29T13:35:29Z</time>
      </trkpt>
      <trkpt lat="48.01074" lon="7.02377">
        <ele>753</ele>
        <time>2017-07-29T13:36:28Z</time>
      </trkpt>
      <trkpt lat="48.01077" lon="7.02381">
        <ele>752</ele>
        <time>2017-07-29T13:36:31Z</time>
      </trkpt>
      <trkpt lat="48.01076" lon="7.02379">
        <ele>753</ele>
        <time>2017-07-29T13:36:33Z</time>
      </trkpt>
      <trkpt lat="48.01085" lon="7.02389">
        <ele>767</ele>
        <time>2017-07-29T13:37:19Z</time>
      </trkpt>
      <trkpt lat="48.01087" lon="7.0239">
        <ele>766</ele>
        <time>2017-07-29T13:37:20Z</time>
      </trkpt>
      <trkpt lat="48.01093" lon="7.02397">
        <ele>764</ele>
        <time>2017-07-29T13:37:22Z</time>
      </trkpt>
      <trkpt lat="48.01098" lon="7.02399">
        <ele>765</ele>
        <time>2017-07-29T13:37:23Z</time>
      </trkpt>
      <trkpt lat="48.01117" lon="7.0241">
        <ele>770</ele>
        <time>2017-07-29T13:37:29Z</time>
      </trkpt>
      <trkpt lat="48.01123" lon="7.02419">
        <ele>763</ele>
        <time>2017-07-29T13:37:33Z</time>
      </trkpt>
      <trkpt lat="48.01123" lon="7.02421">
        <ele>763</ele>
        <time>2017-07-29T13:37:34Z</time>
      </trkpt>
      <trkpt lat="48.01125" lon="7.02422">
        <ele>764</ele>
        <time>2017-07-29T13:37:36Z</time>
      </trkpt>
      <trkpt lat="48.01136" lon="7.025">
        <ele>769</ele>
        <time>2017-07-29T13:39:09Z</time>
      </trkpt>
      <trkpt lat="48.01128" lon="7.02533">
        <ele>767</ele>
        <time>2017-07-29T13:39:20Z</time>
      </trkpt>
      <trkpt lat="48.01128" lon="7.02532">
        <ele>767</ele>
        <time>2017-07-29T13:39:21Z</time>
      </trkpt>
      <trkpt lat="48.01112" lon="7.02556">
        <ele>764</ele>
        <time>2017-07-29T13:40:03Z</time>
      </trkpt>
      <trkpt lat="48.0111" lon="7.02559">
        <ele>764</ele>
        <time>2017-07-29T13:40:06Z</time>
      </trkpt>
      <trkpt lat="48.01094" lon="7.02571">
        <ele>758</ele>
        <time>2017-07-29T13:40:27Z</time>
      </trkpt>
      <trkpt lat="48.01092" lon="7.02575">
        <ele>756</ele>
        <time>2017-07-29T13:40:31Z</time>
      </trkpt>
      <trkpt lat="48.01084" lon="7.02586">
        <ele>752</ele>
        <time>2017-07-29T13:40:43Z</time>
      </trkpt>
      <trkpt lat="48.01084" lon="7.02585">
        <ele>751</ele>
        <time>2017-07-29T13:40:45Z</time>
      </trkpt>
      <trkpt lat="48.01074" lon="7.02597">
        <ele>744</ele>
        <time>2017-07-29T13:41:08Z</time>
      </trkpt>
      <trkpt lat="48.0107" lon="7.026">
        <ele>743</ele>
        <time>2017-07-29T13:41:10Z</time>
      </trkpt>
      <trkpt lat="48.01065" lon="7.02603">
        <ele>741</ele>
        <time>2017-07-29T13:41:13Z</time>
      </trkpt>
      <trkpt lat="48.01064" lon="7.02605">
        <ele>741</ele>
        <time>2017-07-29T13:41:14Z</time>
      </trkpt>
      <trkpt lat="48.01062" lon="7.02604">
        <ele>741</ele>
        <time>2017-07-29T13:41:18Z</time>
      </trkpt>
      <trkpt lat="48.01057" lon="7.02604">
        <ele>739</ele>
        <time>2017-07-29T13:41:21Z</time>
      </trkpt>
      <trkpt lat="48.01051" lon="7.02607">
        <ele>738</ele>
        <time>2017-07-29T13:41:23Z</time>
      </trkpt>
      <trkpt lat="48.01033" lon="7.02623">
        <ele>734</ele>
        <time>2017-07-29T13:41:28Z</time>
      </trkpt>
      <trkpt lat="48.01017" lon="7.02634">
        <ele>732</ele>
        <time>2017-07-29T13:41:33Z</time>
      </trkpt>
      <trkpt lat="48.01014" lon="7.02634">
        <ele>732</ele>
        <time>2017-07-29T13:41:35Z</time>
      </trkpt>
      <trkpt lat="48.01013" lon="7.02627">
        <ele>730</ele>
        <time>2017-07-29T13:41:38Z</time>
      </trkpt>
      <trkpt lat="48.01013" lon="7.02617">
        <ele>728</ele>
        <time>2017-07-29T13:41:42Z</time>
      </trkpt>
      <trkpt lat="48.01016" lon="7.02609">
        <ele>726</ele>
        <time>2017-07-29T13:41:45Z</time>
      </trkpt>
      <trkpt lat="48.01019" lon="7.02607">
        <ele>727</ele>
        <time>2017-07-29T13:41:47Z</time>
      </trkpt>
      <trkpt lat="48.01018" lon="7.02605">
        <ele>726</ele>
        <time>2017-07-29T13:41:49Z</time>
      </trkpt>
      <trkpt lat="48.01021" lon="7.02597">
        <ele>725</ele>
        <time>2017-07-29T13:41:54Z</time>
      </trkpt>
      <trkpt lat="48.01022" lon="7.02583">
        <ele>716</ele>
        <time>2017-07-29T13:41:57Z</time>
      </trkpt>
      <trkpt lat="48.01024" lon="7.02579">
        <ele>716</ele>
        <time>2017-07-29T13:41:58Z</time>
      </trkpt>
      <trkpt lat="48.01027" lon="7.02553">
        <ele>719</ele>
        <time>2017-07-29T13:42:02Z</time>
      </trkpt>
      <trkpt lat="48.01026" lon="7.02536">
        <ele>719</ele>
        <time>2017-07-29T13:42:05Z</time>
      </trkpt>
      <trkpt lat="48.01028" lon="7.02512">
        <ele>718</ele>
        <time>2017-07-29T13:42:10Z</time>
      </trkpt>
      <trkpt lat="48.0103" lon="7.02513">
        <ele>719</ele>
        <time>2017-07-29T13:42:11Z</time>
      </trkpt>
      <trkpt lat="48.01031" lon="7.02521">
        <ele>720</ele>
        <time>2017-07-29T13:42:12Z</time>
      </trkpt>
      <trkpt lat="48.0103" lon="7.0252">
        <ele>719</ele>
        <time>2017-07-29T13:42:15Z</time>
      </trkpt>
      <trkpt lat="48.01029" lon="7.02521">
        <ele>719</ele>
        <time>2017-07-29T13:42:17Z</time>
      </trkpt>
      <trkpt lat="48.01028" lon="7.0252">
        <ele>719</ele>
        <time>2017-07-29T13:42:18Z</time>
      </trkpt>
      <trkpt lat="48.01026" lon="7.02521">
        <ele>718</ele>
        <time>2017-07-29T13:42:21Z</time>
      </trkpt>
      <trkpt lat="48.01015" lon="7.02508">
        <ele>714</ele>
        <time>2017-07-29T13:44:19Z</time>
      </trkpt>
      <trkpt lat="48.0101" lon="7.02506">
        <ele>711</ele>
        <time>2017-07-29T13:44:21Z</time>
      </trkpt>
      <trkpt lat="48.01001" lon="7.02509">
        <ele>710</ele>
        <time>2017-07-29T13:44:23Z</time>
      </trkpt>
      <trkpt lat="48.00987" lon="7.02505">
        <ele>697</ele>
        <time>2017-07-29T13:44:27Z</time>
      </trkpt>
      <trkpt lat="48.00973" lon="7.02504">
        <ele>693</ele>
        <time>2017-07-29T13:44:30Z</time>
      </trkpt>
      <trkpt lat="48.00959" lon="7.02508">
        <ele>689</ele>
        <time>2017-07-29T13:44:34Z</time>
      </trkpt>
      <trkpt lat="48.00948" lon="7.02506">
        <ele>686</ele>
        <time>2017-07-29T13:44:37Z</time>
      </trkpt>
      <trkpt lat="48.00936" lon="7.02508">
        <ele>683</ele>
        <time>2017-07-29T13:44:39Z</time>
      </trkpt>
      <trkpt lat="48.00929" lon="7.02507">
        <ele>680</ele>
        <time>2017-07-29T13:44:41Z</time>
      </trkpt>
      <trkpt lat="48.00923" lon="7.02507">
        <ele>679</ele>
        <time>2017-07-29T13:44:43Z</time>
      </trkpt>
      <trkpt lat="48.00922" lon="7.02506">
        <ele>678</ele>
        <time>2017-07-29T13:44:44Z</time>
      </trkpt>
      <trkpt lat="48.00918" lon="7.02498">
        <ele>676</ele>
        <time>2017-07-29T13:44:46Z</time>
      </trkpt>
      <trkpt lat="48.00915" lon="7.02497">
        <ele>672</ele>
        <time>2017-07-29T13:44:47Z</time>
      </trkpt>
      <trkpt lat="48.00911" lon="7.02492">
        <ele>669</ele>
        <time>2017-07-29T13:44:50Z</time>
      </trkpt>
      <trkpt lat="48.00907" lon="7.02495">
        <ele>668</ele>
        <time>2017-07-29T13:45:16Z</time>
      </trkpt>
      <trkpt lat="48.00901" lon="7.02509">
        <ele>663</ele>
        <time>2017-07-29T13:45:19Z</time>
      </trkpt>
      <trkpt lat="48.00898" lon="7.02523">
        <ele>660</ele>
        <time>2017-07-29T13:45:22Z</time>
      </trkpt>
      <trkpt lat="48.00895" lon="7.02533">
        <ele>658</ele>
        <time>2017-07-29T13:45:24Z</time>
      </trkpt>
      <trkpt lat="48.0089" lon="7.02541">
        <ele>657</ele>
        <time>2017-07-29T13:45:26Z</time>
      </trkpt>
      <trkpt lat="48.00889" lon="7.02551">
        <ele>656</ele>
        <time>2017-07-29T13:45:30Z</time>
      </trkpt>
      <trkpt lat="48.00854" lon="7.02579">
        <ele>645</ele>
        <time>2017-07-29T13:47:17Z</time>
      </trkpt>
      <trkpt lat="48.00844" lon="7.02582">
        <ele>640</ele>
        <time>2017-07-29T13:47:20Z</time>
      </trkpt>
      <trkpt lat="48.00831" lon="7.02584">
        <ele>632</ele>
        <time>2017-07-29T13:47:25Z</time>
      </trkpt>
      <trkpt lat="48.00829" lon="7.02583">
        <ele>630</ele>
        <time>2017-07-29T13:47:26Z</time>
      </trkpt>
      <trkpt lat="48.00827" lon="7.02576">
        <ele>627</ele>
        <time>2017-07-29T13:47:28Z</time>
      </trkpt>
      <trkpt lat="48.00823" lon="7.02569">
        <ele>624</ele>
        <time>2017-07-29T13:47:30Z</time>
      </trkpt>
      <trkpt lat="48.00819" lon="7.02566">
        <ele>622</ele>
        <time>2017-07-29T13:47:32Z</time>
      </trkpt>
      <trkpt lat="48.00817" lon="7.02569">
        <ele>622</ele>
        <time>2017-07-29T13:47:35Z</time>
      </trkpt>
      <trkpt lat="48.00812" lon="7.02579">
        <ele>622</ele>
        <time>2017-07-29T13:47:38Z</time>
      </trkpt>
      <trkpt lat="48.00807" lon="7.02595">
        <ele>623</ele>
        <time>2017-07-29T13:47:42Z</time>
      </trkpt>
      <trkpt lat="48.00803" lon="7.02612">
        <ele>621</ele>
        <time>2017-07-29T13:47:47Z</time>
      </trkpt>
      <trkpt lat="48.00797" lon="7.0262">
        <ele>620</ele>
        <time>2017-07-29T13:47:51Z</time>
      </trkpt>
      <trkpt lat="48.00787" lon="7.02628">
        <ele>619</ele>
        <time>2017-07-29T13:47:55Z</time>
      </trkpt>
      <trkpt lat="48.00784" lon="7.02628">
        <ele>618</ele>
        <time>2017-07-29T13:47:56Z</time>
      </trkpt>
      <trkpt lat="48.00774" lon="7.02627">
        <ele>616</ele>
        <time>2017-07-29T13:47:59Z</time>
      </trkpt>
      <trkpt lat="48.00773" lon="7.02629">
        <ele>616</ele>
        <time>2017-07-29T13:48:00Z</time>
      </trkpt>
      <trkpt lat="48.00769" lon="7.02631">
        <ele>615</ele>
        <time>2017-07-29T13:48:02Z</time>
      </trkpt>
      <trkpt lat="48.00764" lon="7.02632">
        <ele>614</ele>
        <time>2017-07-29T13:48:04Z</time>
      </trkpt>
      <trkpt lat="48.00762" lon="7.02633">
        <ele>614</ele>
        <time>2017-07-29T13:48:06Z</time>
      </trkpt>
      <trkpt lat="48.0076" lon="7.02632">
        <ele>614</ele>
        <time>2017-07-29T13:48:10Z</time>
      </trkpt>
      <trkpt lat="48.00743" lon="7.02636">
        <ele>593</ele>
        <time>2017-07-29T13:48:17Z</time>
      </trkpt>
      <trkpt lat="48.00733" lon="7.02633">
        <ele>592</ele>
        <time>2017-07-29T13:48:21Z</time>
      </trkpt>
      <trkpt lat="48.00726" lon="7.02635">
        <ele>591</ele>
        <time>2017-07-29T13:48:23Z</time>
      </trkpt>
      <trkpt lat="48.00723" lon="7.02633">
        <ele>590</ele>
        <time>2017-07-29T13:48:24Z</time>
      </trkpt>
      <trkpt lat="48.00716" lon="7.02637">
        <ele>589</ele>
        <time>2017-07-29T13:48:26Z</time>
      </trkpt>
      <trkpt lat="48.00709" lon="7.02637">
        <ele>588</ele>
        <time>2017-07-29T13:48:29Z</time>
      </trkpt>
      <trkpt lat="48.00701" lon="7.02636">
        <ele>587</ele>
        <time>2017-07-29T13:48:32Z</time>
      </trkpt>
      <trkpt lat="48.00699" lon="7.02637">
        <ele>586</ele>
        <time>2017-07-29T13:48:33Z</time>
      </trkpt>
      <trkpt lat="48.00693" lon="7.02643">
        <ele>585</ele>
        <time>2017-07-29T13:48:35Z</time>
      </trkpt>
      <trkpt lat="48.00692" lon="7.02649">
        <ele>585</ele>
        <time>2017-07-29T13:48:36Z</time>
      </trkpt>
      <trkpt lat="48.00691" lon="7.02653">
        <ele>584</ele>
        <time>2017-07-29T13:48:37Z</time>
      </trkpt>
      <trkpt lat="48.00684" lon="7.02654">
        <ele>583</ele>
        <time>2017-07-29T13:48:40Z</time>
      </trkpt>
      <trkpt lat="48.00671" lon="7.0266">
        <ele>578</ele>
        <time>2017-07-29T13:48:43Z</time>
      </trkpt>
      <trkpt lat="48.0066" lon="7.02663">
        <ele>573</ele>
        <time>2017-07-29T13:48:46Z</time>
      </trkpt>
      <trkpt lat="48.00647" lon="7.02668">
        <ele>570</ele>
        <time>2017-07-29T13:48:50Z</time>
      </trkpt>
      <trkpt lat="48.00645" lon="7.0267">
        <ele>569</ele>
        <time>2017-07-29T13:48:52Z</time>
      </trkpt>
      <trkpt lat="48.00638" lon="7.02668">
        <ele>568</ele>
        <time>2017-07-29T13:54:58Z</time>
      </trkpt>
      <trkpt lat="48.00633" lon="7.02662">
        <ele>568</ele>
        <time>2017-07-29T13:54:59Z</time>
      </trkpt>
      <trkpt lat="48.00601" lon="7.02655">
        <ele>564</ele>
        <time>2017-07-29T13:55:03Z</time>
      </trkpt>
      <trkpt lat="48.0059" lon="7.02647">
        <ele>563</ele>
        <time>2017-07-29T13:55:05Z</time>
      </trkpt>
      <trkpt lat="48.00583" lon="7.02644">
        <ele>558</ele>
        <time>2017-07-29T13:55:08Z</time>
      </trkpt>
      <trkpt lat="48.00574" lon="7.0265">
        <ele>558</ele>
        <time>2017-07-29T13:55:11Z</time>
      </trkpt>
      <trkpt lat="48.00568" lon="7.0266">
        <ele>558</ele>
        <time>2017-07-29T13:55:13Z</time>
      </trkpt>
      <trkpt lat="48.00564" lon="7.02672">
        <ele>557</ele>
        <time>2017-07-29T13:55:15Z</time>
      </trkpt>
      <trkpt lat="48.0056" lon="7.02688">
        <ele>556</ele>
        <time>2017-07-29T13:55:17Z</time>
      </trkpt>
      <trkpt lat="48.00558" lon="7.02705">
        <ele>556</ele>
        <time>2017-07-29T13:55:19Z</time>
      </trkpt>
      <trkpt lat="48.00559" lon="7.02763">
        <ele>553</ele>
        <time>2017-07-29T13:55:25Z</time>
      </trkpt>
      <trkpt lat="48.00557" lon="7.0278">
        <ele>552</ele>
        <time>2017-07-29T13:55:27Z</time>
      </trkpt>
      <trkpt lat="48.00545" lon="7.02814">
        <ele>551</ele>
        <time>2017-07-29T13:55:31Z</time>
      </trkpt>
      <trkpt lat="48.00537" lon="7.02831">
        <ele>550</ele>
        <time>2017-07-29T13:55:33Z</time>
      </trkpt>
      <trkpt lat="48.00517" lon="7.02887">
        <ele>547</ele>
        <time>2017-07-29T13:55:39Z</time>
      </trkpt>
      <trkpt lat="48.00508" lon="7.0291">
        <ele>545</ele>
        <time>2017-07-29T13:55:42Z</time>
      </trkpt>
      <trkpt lat="48.00503" lon="7.02914">
        <ele>544</ele>
        <time>2017-07-29T13:55:43Z</time>
      </trkpt>
      <trkpt lat="48.00482" lon="7.0292">
        <ele>542</ele>
        <time>2017-07-29T13:55:46Z</time>
      </trkpt>
      <trkpt lat="48.00475" lon="7.02924">
        <ele>541</ele>
        <time>2017-07-29T13:55:47Z</time>
      </trkpt>
      <trkpt lat="48.00463" lon="7.02936">
        <ele>541</ele>
        <time>2017-07-29T13:55:49Z</time>
      </trkpt>
      <trkpt lat="48.00451" lon="7.02952">
        <ele>540</ele>
        <time>2017-07-29T13:55:51Z</time>
      </trkpt>
      <trkpt lat="48.00412" lon="7.03028">
        <ele>536</ele>
        <time>2017-07-29T13:55:59Z</time>
      </trkpt>
      <trkpt lat="48.00409" lon="7.03039">
        <ele>536</ele>
        <time>2017-07-29T13:56:00Z</time>
      </trkpt>
      <trkpt lat="48.00407" lon="7.03061">
        <ele>535</ele>
        <time>2017-07-29T13:56:02Z</time>
      </trkpt>
      <trkpt lat="48.00404" lon="7.03107">
        <ele>533</ele>
        <time>2017-07-29T13:56:06Z</time>
      </trkpt>
      <trkpt lat="48.00404" lon="7.03128">
        <ele>533</ele>
        <time>2017-07-29T13:56:08Z</time>
      </trkpt>
      <trkpt lat="48.00409" lon="7.03185">
        <ele>531</ele>
        <time>2017-07-29T13:56:16Z</time>
      </trkpt>
      <trkpt lat="48.00415" lon="7.03229">
        <ele>531</ele>
        <time>2017-07-29T13:56:22Z</time>
      </trkpt>
      <trkpt lat="48.00418" lon="7.03282">
        <ele>530</ele>
        <time>2017-07-29T13:56:28Z</time>
      </trkpt>
      <trkpt lat="48.00417" lon="7.033">
        <ele>529</ele>
        <time>2017-07-29T13:56:30Z</time>
      </trkpt>
      <trkpt lat="48.00412" lon="7.03316">
        <ele>528</ele>
        <time>2017-07-29T13:56:32Z</time>
      </trkpt>
      <trkpt lat="48.00404" lon="7.0333">
        <ele>528</ele>
        <time>2017-07-29T13:56:34Z</time>
      </trkpt>
      <trkpt lat="48.00395" lon="7.03348">
        <ele>527</ele>
        <time>2017-07-29T13:56:37Z</time>
      </trkpt>
      <trkpt lat="48.004" lon="7.03354">
        <ele>527</ele>
        <time>2017-07-29T13:56:40Z</time>
      </trkpt>
      <trkpt lat="48.00409" lon="7.03327">
        <ele>528</ele>
        <time>2017-07-29T13:56:46Z</time>
      </trkpt>
      <trkpt lat="48.00423" lon="7.03304">
        <ele>530</ele>
        <time>2017-07-29T13:56:52Z</time>
      </trkpt>
      <trkpt lat="48.0043" lon="7.03316">
        <ele>529</ele>
        <time>2017-07-29T13:56:54Z</time>
      </trkpt>
      <trkpt lat="48.00439" lon="7.03348">
        <ele>528</ele>
        <time>2017-07-29T13:56:58Z</time>
      </trkpt>
      <trkpt lat="48.00447" lon="7.03363">
        <ele>528</ele>
        <time>2017-07-29T13:57:00Z</time>
      </trkpt>
      <trkpt lat="48.00488" lon="7.03421">
        <ele>528</ele>
        <time>2017-07-29T13:57:09Z</time>
      </trkpt>
      <trkpt lat="48.00531" lon="7.03468">
        <ele>537</ele>
        <time>2017-07-29T13:57:18Z</time>
      </trkpt>
      <trkpt lat="48.00542" lon="7.03484">
        <ele>538</ele>
        <time>2017-07-29T13:57:21Z</time>
      </trkpt>
      <trkpt lat="48.00566" lon="7.03536">
        <ele>533</ele>
        <time>2017-07-29T13:57:30Z</time>
      </trkpt>
      <trkpt lat="48.00572" lon="7.03547">
        <ele>532</ele>
        <time>2017-07-29T13:57:32Z</time>
      </trkpt>
      <trkpt lat="48.00588" lon="7.03589">
        <ele>530</ele>
        <time>2017-07-29T13:57:38Z</time>
      </trkpt>
      <trkpt lat="48.00598" lon="7.03624">
        <ele>533</ele>
        <time>2017-07-29T13:57:42Z</time>
      </trkpt>
      <trkpt lat="48.00601" lon="7.03632">
        <ele>533</ele>
        <time>2017-07-29T13:57:43Z</time>
      </trkpt>
      <trkpt lat="48.00612" lon="7.03655">
        <ele>532</ele>
        <time>2017-07-29T13:57:46Z</time>
      </trkpt>
      <trkpt lat="48.00634" lon="7.03689">
        <ele>528</ele>
        <time>2017-07-29T13:57:52Z</time>
      </trkpt>
      <trkpt lat="48.00643" lon="7.03698">
        <ele>528</ele>
        <time>2017-07-29T13:57:54Z</time>
      </trkpt>
      <trkpt lat="48.00653" lon="7.03702">
        <ele>529</ele>
        <time>2017-07-29T13:57:56Z</time>
      </trkpt>
      <trkpt lat="48.00668" lon="7.0371">
        <ele>538</ele>
        <time>2017-07-29T13:57:59Z</time>
      </trkpt>
      <trkpt lat="48.00673" lon="7.03715">
        <ele>538</ele>
        <time>2017-07-29T13:58:00Z</time>
      </trkpt>
      <trkpt lat="48.00675" lon="7.03732">
        <ele>535</ele>
        <time>2017-07-29T13:58:03Z</time>
      </trkpt>
      <trkpt lat="48.00671" lon="7.03744">
        <ele>532</ele>
        <time>2017-07-29T13:58:08Z</time>
      </trkpt>
      <trkpt lat="48.00669" lon="7.03767">
        <ele>530</ele>
        <time>2017-07-29T13:58:14Z</time>
      </trkpt>
      <trkpt lat="48.0067" lon="7.03788">
        <ele>530</ele>
        <time>2017-07-29T13:58:19Z</time>
      </trkpt>
      <trkpt lat="48.00672" lon="7.03792">
        <ele>530</ele>
        <time>2017-07-29T13:58:21Z</time>
      </trkpt>
      <trkpt lat="48.00692" lon="7.03806">
        <ele>531</ele>
        <time>2017-07-29T13:58:29Z</time>
      </trkpt>
      <trkpt lat="48.00712" lon="7.03863">
        <ele>528</ele>
        <time>2017-07-29T13:58:39Z</time>
      </trkpt>
      <trkpt lat="48.00717" lon="7.03938">
        <ele>525</ele>
        <time>2017-07-29T13:58:49Z</time>
      </trkpt>
      <trkpt lat="48.0072" lon="7.03965">
        <ele>524</ele>
        <time>2017-07-29T13:58:53Z</time>
      </trkpt>
      <trkpt lat="48.00725" lon="7.03988">
        <ele>524</ele>
        <time>2017-07-29T13:58:56Z</time>
      </trkpt>
      <trkpt lat="48.00738" lon="7.04027">
        <ele>522</ele>
        <time>2017-07-29T13:59:01Z</time>
      </trkpt>
      <trkpt lat="48.00742" lon="7.04034">
        <ele>522</ele>
        <time>2017-07-29T13:59:02Z</time>
      </trkpt>
      <trkpt lat="48.00751" lon="7.04057">
        <ele>524</ele>
        <time>2017-07-29T13:59:05Z</time>
      </trkpt>
      <trkpt lat="48.00756" lon="7.04076">
        <ele>522</ele>
        <time>2017-07-29T13:59:07Z</time>
      </trkpt>
      <trkpt lat="48.0077" lon="7.04114">
        <ele>523</ele>
        <time>2017-07-29T13:59:11Z</time>
      </trkpt>
      <trkpt lat="48.00773" lon="7.04121">
        <ele>523</ele>
        <time>2017-07-29T13:59:12Z</time>
      </trkpt>
      <trkpt lat="48.00804" lon="7.04168">
        <ele>525</ele>
        <time>2017-07-29T13:59:19Z</time>
      </trkpt>
      <trkpt lat="48.00808" lon="7.04176">
        <ele>525</ele>
        <time>2017-07-29T13:59:20Z</time>
      </trkpt>
      <trkpt lat="48.00811" lon="7.04184">
        <ele>525</ele>
        <time>2017-07-29T13:59:21Z</time>
      </trkpt>
      <trkpt lat="48.00816" lon="7.04193">
        <ele>525</ele>
        <time>2017-07-29T13:59:22Z</time>
      </trkpt>
      <trkpt lat="48.00818" lon="7.04201">
        <ele>525</ele>
        <time>2017-07-29T13:59:23Z</time>
      </trkpt>
      <trkpt lat="48.00828" lon="7.04222">
        <ele>525</ele>
        <time>2017-07-29T13:59:26Z</time>
      </trkpt>
      <trkpt lat="48.00839" lon="7.04243">
        <ele>529</ele>
        <time>2017-07-29T13:59:30Z</time>
      </trkpt>
      <trkpt lat="48.00843" lon="7.04256">
        <ele>529</ele>
        <time>2017-07-29T13:59:32Z</time>
      </trkpt>
      <trkpt lat="48.00851" lon="7.04268">
        <ele>532</ele>
        <time>2017-07-29T13:59:35Z</time>
      </trkpt>
      <trkpt lat="48.00861" lon="7.04279">
        <ele>533</ele>
        <time>2017-07-29T13:59:38Z</time>
      </trkpt>
      <trkpt lat="48.00865" lon="7.04294">
        <ele>534</ele>
        <time>2017-07-29T13:59:40Z</time>
      </trkpt>
      <trkpt lat="48.00867" lon="7.04299">
        <ele>534</ele>
        <time>2017-07-29T13:59:41Z</time>
      </trkpt>
      <trkpt lat="48.00885" lon="7.04322">
        <ele>537</ele>
        <time>2017-07-29T13:59:47Z</time>
      </trkpt>
      <trkpt lat="48.00891" lon="7.04349">
        <ele>535</ele>
        <time>2017-07-29T13:59:52Z</time>
      </trkpt>
      <trkpt lat="48.00901" lon="7.04402">
        <ele>535</ele>
        <time>2017-07-29T14:00:00Z</time>
      </trkpt>
      <trkpt lat="48.00903" lon="7.04422">
        <ele>533</ele>
        <time>2017-07-29T14:00:03Z</time>
      </trkpt>
      <trkpt lat="48.00904" lon="7.04461">
        <ele>528</ele>
        <time>2017-07-29T14:00:09Z</time>
      </trkpt>
      <trkpt lat="48.00906" lon="7.04478">
        <ele>528</ele>
        <time>2017-07-29T14:00:11Z</time>
      </trkpt>
      <trkpt lat="48.00909" lon="7.04489">
        <ele>530</ele>
        <time>2017-07-29T14:00:12Z</time>
      </trkpt>
      <trkpt lat="48.00913" lon="7.04511">
        <ele>526</ele>
        <time>2017-07-29T14:00:14Z</time>
      </trkpt>
      <trkpt lat="48.00915" lon="7.04537">
        <ele>520</ele>
        <time>2017-07-29T14:00:16Z</time>
      </trkpt>
      <trkpt lat="48.00921" lon="7.04576">
        <ele>524</ele>
        <time>2017-07-29T14:00:19Z</time>
      </trkpt>
      <trkpt lat="48.0093" lon="7.04616">
        <ele>525</ele>
        <time>2017-07-29T14:00:22Z</time>
      </trkpt>
      <trkpt lat="48.00933" lon="7.04632">
        <ele>524</ele>
        <time>2017-07-29T14:00:23Z</time>
      </trkpt>
      <trkpt lat="48.00946" lon="7.04684">
        <ele>519</ele>
        <time>2017-07-29T14:00:27Z</time>
      </trkpt>
      <trkpt lat="48.00947" lon="7.04714">
        <ele>519</ele>
        <time>2017-07-29T14:00:29Z</time>
      </trkpt>
      <trkpt lat="48.00956" lon="7.0475">
        <ele>519</ele>
        <time>2017-07-29T14:00:32Z</time>
      </trkpt>
      <trkpt lat="48.00971" lon="7.04799">
        <ele>517</ele>
        <time>2017-07-29T14:00:37Z</time>
      </trkpt>
      <trkpt lat="48.00977" lon="7.04816">
        <ele>518</ele>
        <time>2017-07-29T14:00:39Z</time>
      </trkpt>
      <trkpt lat="48.0098" lon="7.04825">
        <ele>519</ele>
        <time>2017-07-29T14:00:40Z</time>
      </trkpt>
      <trkpt lat="48.00986" lon="7.04835">
        <ele>519</ele>
        <time>2017-07-29T14:00:41Z</time>
      </trkpt>
      <trkpt lat="48.00991" lon="7.04852">
        <ele>518</ele>
        <time>2017-07-29T14:00:43Z</time>
      </trkpt>
      <trkpt lat="48.01001" lon="7.04891">
        <ele>530</ele>
        <time>2017-07-29T14:00:48Z</time>
      </trkpt>
      <trkpt lat="48.0102" lon="7.04955">
        <ele>524</ele>
        <time>2017-07-29T14:00:56Z</time>
      </trkpt>
      <trkpt lat="48.01034" lon="7.05007">
        <ele>518</ele>
        <time>2017-07-29T14:01:03Z</time>
      </trkpt>
      <trkpt lat="48.01044" lon="7.05058">
        <ele>518</ele>
        <time>2017-07-29T14:01:09Z</time>
      </trkpt>
      <trkpt lat="48.01059" lon="7.05116">
        <ele>513</ele>
        <time>2017-07-29T14:01:16Z</time>
      </trkpt>
      <trkpt lat="48.01066" lon="7.05156">
        <ele>513</ele>
        <time>2017-07-29T14:01:21Z</time>
      </trkpt>
      <trkpt lat="48.01073" lon="7.05186">
        <ele>509</ele>
        <time>2017-07-29T14:01:25Z</time>
      </trkpt>
      <trkpt lat="48.0108" lon="7.05208">
        <ele>506</ele>
        <time>2017-07-29T14:01:28Z</time>
      </trkpt>
      <trkpt lat="48.01088" lon="7.05263">
        <ele>507</ele>
        <time>2017-07-29T14:01:34Z</time>
      </trkpt>
      <trkpt lat="48.01091" lon="7.05273">
        <ele>508</ele>
        <time>2017-07-29T14:01:35Z</time>
      </trkpt>
      <trkpt lat="48.01098" lon="7.05293">
        <ele>508</ele>
        <time>2017-07-29T14:01:37Z</time>
      </trkpt>
      <trkpt lat="48.01119" lon="7.05362">
        <ele>499</ele>
        <time>2017-07-29T14:01:44Z</time>
      </trkpt>
      <trkpt lat="48.01128" lon="7.05379">
        <ele>499</ele>
        <time>2017-07-29T14:01:46Z</time>
      </trkpt>
      <trkpt lat="48.01139" lon="7.05392">
        <ele>498</ele>
        <time>2017-07-29T14:01:48Z</time>
      </trkpt>
      <trkpt lat="48.01172" lon="7.0543">
        <ele>498</ele>
        <time>2017-07-29T14:01:55Z</time>
      </trkpt>
      <trkpt lat="48.01204" lon="7.05469">
        <ele>499</ele>
        <time>2017-07-29T14:02:02Z</time>
      </trkpt>
      <trkpt lat="48.01232" lon="7.05511">
        <ele>495</ele>
        <time>2017-07-29T14:02:09Z</time>
      </trkpt>
      <trkpt lat="48.01263" lon="7.05566">
        <ele>499</ele>
        <time>2017-07-29T14:02:17Z</time>
      </trkpt>
      <trkpt lat="48.01315" lon="7.05669">
        <ele>494</ele>
        <time>2017-07-29T14:02:32Z</time>
      </trkpt>
      <trkpt lat="48.01348" lon="7.05729">
        <ele>499</ele>
        <time>2017-07-29T14:02:41Z</time>
      </trkpt>
      <trkpt lat="48.01364" lon="7.05777">
        <ele>494</ele>
        <time>2017-07-29T14:02:47Z</time>
      </trkpt>
      <trkpt lat="48.01367" lon="7.05794">
        <ele>494</ele>
        <time>2017-07-29T14:02:49Z</time>
      </trkpt>
      <trkpt lat="48.0137" lon="7.05821">
        <ele>493</ele>
        <time>2017-07-29T14:02:52Z</time>
      </trkpt>
      <trkpt lat="48.0137" lon="7.0583">
        <ele>493</ele>
        <time>2017-07-29T14:02:53Z</time>
      </trkpt>
      <trkpt lat="48.01365" lon="7.05856">
        <ele>491</ele>
        <time>2017-07-29T14:02:56Z</time>
      </trkpt>
      <trkpt lat="48.01359" lon="7.05872">
        <ele>490</ele>
        <time>2017-07-29T14:02:58Z</time>
      </trkpt>
      <trkpt lat="48.01344" lon="7.059">
        <ele>489</ele>
        <time>2017-07-29T14:03:02Z</time>
      </trkpt>
      <trkpt lat="48.01333" lon="7.0593">
        <ele>488</ele>
        <time>2017-07-29T14:03:06Z</time>
      </trkpt>
      <trkpt lat="48.01329" lon="7.05946">
        <ele>488</ele>
        <time>2017-07-29T14:03:08Z</time>
      </trkpt>
      <trkpt lat="48.01327" lon="7.05963">
        <ele>488</ele>
        <time>2017-07-29T14:03:10Z</time>
      </trkpt>
      <trkpt lat="48.01327" lon="7.0599">
        <ele>488</ele>
        <time>2017-07-29T14:03:13Z</time>
      </trkpt>
      <trkpt lat="48.01338" lon="7.06041">
        <ele>491</ele>
        <time>2017-07-29T14:03:19Z</time>
      </trkpt>
      <trkpt lat="48.0134" lon="7.06067">
        <ele>490</ele>
        <time>2017-07-29T14:03:22Z</time>
      </trkpt>
      <trkpt lat="48.01335" lon="7.06112">
        <ele>491</ele>
        <time>2017-07-29T14:03:27Z</time>
      </trkpt>
      <trkpt lat="48.01328" lon="7.06163">
        <ele>488</ele>
        <time>2017-07-29T14:03:33Z</time>
      </trkpt>
      <trkpt lat="48.01329" lon="7.06215">
        <ele>487</ele>
        <time>2017-07-29T14:03:39Z</time>
      </trkpt>
      <trkpt lat="48.01342" lon="7.06242">
        <ele>488</ele>
        <time>2017-07-29T14:03:43Z</time>
      </trkpt>
      <trkpt lat="48.01352" lon="7.06253">
        <ele>488</ele>
        <time>2017-07-29T14:03:45Z</time>
      </trkpt>
      <trkpt lat="48.01371" lon="7.06271">
        <ele>488</ele>
        <time>2017-07-29T14:03:49Z</time>
      </trkpt>
      <trkpt lat="48.01386" lon="7.06291">
        <ele>489</ele>
        <time>2017-07-29T14:03:53Z</time>
      </trkpt>
      <trkpt lat="48.01403" lon="7.0632">
        <ele>489</ele>
        <time>2017-07-29T14:03:59Z</time>
      </trkpt>
      <trkpt lat="48.0141" lon="7.06335">
        <ele>488</ele>
        <time>2017-07-29T14:04:02Z</time>
      </trkpt>
      <trkpt lat="48.01428" lon="7.06414">
        <ele>488</ele>
        <time>2017-07-29T14:04:12Z</time>
      </trkpt>
      <trkpt lat="48.01431" lon="7.06422">
        <ele>487</ele>
        <time>2017-07-29T14:04:13Z</time>
      </trkpt>
      <trkpt lat="48.0144" lon="7.06459">
        <ele>487</ele>
        <time>2017-07-29T14:04:17Z</time>
      </trkpt>
      <trkpt lat="48.01445" lon="7.06496">
        <ele>486</ele>
        <time>2017-07-29T14:04:21Z</time>
      </trkpt>
      <trkpt lat="48.01463" lon="7.0661">
        <ele>485</ele>
        <time>2017-07-29T14:04:34Z</time>
      </trkpt>
      <trkpt lat="48.01459" lon="7.0673">
        <ele>485</ele>
        <time>2017-07-29T14:04:49Z</time>
      </trkpt>
      <trkpt lat="48.01453" lon="7.06769">
        <ele>485</ele>
        <time>2017-07-29T14:04:54Z</time>
      </trkpt>
      <trkpt lat="48.01446" lon="7.06828">
        <ele>484</ele>
        <time>2017-07-29T14:05:02Z</time>
      </trkpt>
      <trkpt lat="48.01446" lon="7.06856">
        <ele>484</ele>
        <time>2017-07-29T14:05:06Z</time>
      </trkpt>
      <trkpt lat="48.0144" lon="7.06896">
        <ele>484</ele>
        <time>2017-07-29T14:05:12Z</time>
      </trkpt>
      <trkpt lat="48.01436" lon="7.06915">
        <ele>484</ele>
        <time>2017-07-29T14:05:15Z</time>
      </trkpt>
      <trkpt lat="48.01426" lon="7.07">
        <ele>484</ele>
        <time>2017-07-29T14:05:27Z</time>
      </trkpt>
      <trkpt lat="48.01418" lon="7.07044">
        <ele>484</ele>
        <time>2017-07-29T14:05:33Z</time>
      </trkpt>
      <trkpt lat="48.014" lon="7.07112">
        <ele>481</ele>
        <time>2017-07-29T14:05:41Z</time>
      </trkpt>
      <trkpt lat="48.01396" lon="7.07121">
        <ele>481</ele>
        <time>2017-07-29T14:05:42Z</time>
      </trkpt>
      <trkpt lat="48.01393" lon="7.07139">
        <ele>480</ele>
        <time>2017-07-29T14:05:44Z</time>
      </trkpt>
      <trkpt lat="48.01393" lon="7.07144">
        <ele>480</ele>
        <time>2017-07-29T14:05:45Z</time>
      </trkpt>
      <trkpt lat="48.01387" lon="7.07155">
        <ele>480</ele>
        <time>2017-07-29T14:05:49Z</time>
      </trkpt>
      <trkpt lat="48.01368" lon="7.07155">
        <ele>480</ele>
        <time>2017-07-29T14:05:53Z</time>
      </trkpt>
      <trkpt lat="48.01342" lon="7.07153">
        <ele>480</ele>
        <time>2017-07-29T14:05:59Z</time>
      </trkpt>
      <trkpt lat="48.01332" lon="7.07154">
        <ele>479</ele>
        <time>2017-07-29T14:06:01Z</time>
      </trkpt>
      <trkpt lat="48.01311" lon="7.07149">
        <ele>480</ele>
        <time>2017-07-29T14:06:07Z</time>
      </trkpt>
      <trkpt lat="48.01285" lon="7.07153">
        <ele>480</ele>
        <time>2017-07-29T14:06:14Z</time>
      </trkpt>
      <trkpt lat="48.01276" lon="7.07152">
        <ele>480</ele>
        <time>2017-07-29T14:06:18Z</time>
      </trkpt>
      <trkpt lat="48.01273" lon="7.07148">
        <ele>480</ele>
        <time>2017-07-29T14:06:20Z</time>
      </trkpt>
      <trkpt lat="48.01274" lon="7.07131">
        <ele>480</ele>
        <time>2017-07-29T14:06:24Z</time>
      </trkpt>
      <trkpt lat="48.01278" lon="7.0713">
        <ele>480</ele>
        <time>2017-07-29T14:06:25Z</time>
      </trkpt>
      <trkpt lat="48.0128" lon="7.07131">
        <ele>480</ele>
        <time>2017-07-29T14:06:26Z</time>
      </trkpt>
      <trkpt lat="48.01295" lon="7.07126">
        <ele>480</ele>
        <time>2017-07-29T14:06:30Z</time>
      </trkpt>
      <trkpt lat="48.01302" lon="7.0713">
        <ele>480</ele>
        <time>2017-07-29T14:06:33Z</time>
      </trkpt>
      <trkpt lat="48.01304" lon="7.07135">
        <ele>480</ele>
        <time>2017-07-29T14:06:34Z</time>
      </trkpt>
      <trkpt lat="48.01315" lon="7.07149">
        <ele>480</ele>
        <time>2017-07-29T14:06:39Z</time>
      </trkpt>
      <trkpt lat="48.01324" lon="7.07149">
        <ele>480</ele>
        <time>2017-07-29T14:06:41Z</time>
      </trkpt>
      <trkpt lat="48.01331" lon="7.07154">
        <ele>479</ele>
        <time>2017-07-29T14:06:43Z</time>
      </trkpt>
      <trkpt lat="48.01334" lon="7.0716">
        <ele>479</ele>
        <time>2017-07-29T14:06:44Z</time>
      </trkpt>
      <trkpt lat="48.01335" lon="7.07167">
        <ele>479</ele>
        <time>2017-07-29T14:06:45Z</time>
      </trkpt>
      <trkpt lat="48.01335" lon="7.07182">
        <ele>478</ele>
        <time>2017-07-29T14:06:47Z</time>
      </trkpt>
      <trkpt lat="48.01345" lon="7.07251">
        <ele>477</ele>
        <time>2017-07-29T14:06:55Z</time>
      </trkpt>
      <trkpt lat="48.01345" lon="7.07275">
        <ele>476</ele>
        <time>2017-07-29T14:06:58Z</time>
      </trkpt>
      <trkpt lat="48.01344" lon="7.07283">
        <ele>476</ele>
        <time>2017-07-29T14:06:59Z</time>
      </trkpt>
      <trkpt lat="48.01334" lon="7.07304">
        <ele>476</ele>
        <time>2017-07-29T14:07:03Z</time>
      </trkpt>
      <trkpt lat="48.01321" lon="7.07302">
        <ele>478</ele>
        <time>2017-07-29T14:07:06Z</time>
      </trkpt>
      <trkpt lat="48.01301" lon="7.07295">
        <ele>478</ele>
        <time>2017-07-29T14:07:11Z</time>
      </trkpt>
      <trkpt lat="48.01295" lon="7.0729">
        <ele>478</ele>
        <time>2017-07-29T14:07:13Z</time>
      </trkpt>
      <trkpt lat="48.01282" lon="7.0729">
        <ele>479</ele>
        <time>2017-07-29T14:07:19Z</time>
      </trkpt>
      <trkpt lat="48.01265" lon="7.07301">
        <ele>479</ele>
        <time>2017-07-29T14:07:26Z</time>
      </trkpt>
      <trkpt lat="48.01264" lon="7.07308">
        <ele>479</ele>
        <time>2017-07-29T14:07:29Z</time>
      </trkpt>
      <trkpt lat="48.0127" lon="7.073">
        <ele>479</ele>
        <time>2017-07-29T14:07:32Z</time>
      </trkpt>
      <trkpt lat="48.01279" lon="7.07269">
        <ele>479</ele>
        <time>2017-07-29T14:07:38Z</time>
      </trkpt>
      <trkpt lat="48.01287" lon="7.07236">
        <ele>479</ele>
        <time>2017-07-29T14:07:45Z</time>
      </trkpt>
      <trkpt lat="48.01306" lon="7.07233">
        <ele>479</ele>
        <time>2017-07-29T14:07:51Z</time>
      </trkpt>
      <trkpt lat="48.01323" lon="7.07239">
        <ele>478</ele>
        <time>2017-07-29T14:07:56Z</time>
      </trkpt>
      <trkpt lat="48.01334" lon="7.07247">
        <ele>477</ele>
        <time>2017-07-29T14:07:59Z</time>
      </trkpt>
      <trkpt lat="48.01338" lon="7.07248">
        <ele>477</ele>
        <time>2017-07-29T14:08:00Z</time>
      </trkpt>
      <trkpt lat="48.01341" lon="7.07245">
        <ele>477</ele>
        <time>2017-07-29T14:08:01Z</time>
      </trkpt>
      <trkpt lat="48.01345" lon="7.07217">
        <ele>478</ele>
        <time>2017-07-29T14:08:07Z</time>
      </trkpt>
      <trkpt lat="48.01342" lon="7.07167">
        <ele>479</ele>
        <time>2017-07-29T14:08:17Z</time>
      </trkpt>
      <trkpt lat="48.01341" lon="7.07164">
        <ele>479</ele>
        <time>2017-07-29T14:08:19Z</time>
      </trkpt>
      <trkpt lat="48.01332" lon="7.07161">
        <ele>479</ele>
        <time>2017-07-29T14:08:21Z</time>
      </trkpt>
      <trkpt lat="48.01323" lon="7.07161">
        <ele>479</ele>
        <time>2017-07-29T14:08:24Z</time>
      </trkpt>
      <trkpt lat="48.01331" lon="7.0716">
        <ele>479</ele>
        <time>2017-07-29T14:48:15Z</time>
      </trkpt>
      <trkpt lat="48.01335" lon="7.07166">
        <ele>479</ele>
        <time>2017-07-29T14:48:17Z</time>
      </trkpt>
      <trkpt lat="48.01348" lon="7.07266">
        <ele>476</ele>
        <time>2017-07-29T14:48:37Z</time>
      </trkpt>
      <trkpt lat="48.01345" lon="7.07288">
        <ele>476</ele>
        <time>2017-07-29T14:48:42Z</time>
      </trkpt>
      <trkpt lat="48.01332" lon="7.07295">
        <ele>478</ele>
        <time>2017-07-29T14:48:46Z</time>
      </trkpt>
      <trkpt lat="48.01309" lon="7.07297">
        <ele>478</ele>
        <time>2017-07-29T14:48:52Z</time>
      </trkpt>
      <trkpt lat="48.01304" lon="7.07304">
        <ele>478</ele>
        <time>2017-07-29T14:48:54Z</time>
      </trkpt>
      <trkpt lat="48.01299" lon="7.07319">
        <ele>478</ele>
        <time>2017-07-29T14:48:58Z</time>
      </trkpt>
      <trkpt lat="48.01291" lon="7.07325">
        <ele>479</ele>
        <time>2017-07-29T14:49:02Z</time>
      </trkpt>
      <trkpt lat="48.01278" lon="7.07324">
        <ele>479</ele>
        <time>2017-07-29T14:49:09Z</time>
      </trkpt>
    </trkseg>
  </trk>
</gpx>